# Wetter Temperatur Luftdruck Luftfeuchtigkeit Sichtweite Windgeschwindigkeit Windrichtung Zeit
1 Clear 22 1016 68 16093 2.1 130 07:18 14.07.2020
2 Clouds 22 1016 64 16093 2.6 140 06:41 14.07.2020
3 Clouds 22 1016 64 16093 2.6 140 06:21 14.07.2020
4 Clouds 22 1016 60 16093 2.6 120 05:26 14.07.2020
5 Clouds 22 1016 56 16093 3.1 110 04:36 14.07.2020
6 Clouds 23 1016 53 16093 4.6 120 03:36 14.07.2020
7 Clouds 24 1016 47 16093 5.1 100 02:49 14.07.2020
8 Clouds 24 1016 47 16093 5.1 100 02:24 14.07.2020
9 Clouds 26 1015 47 16093 5.7 100 01:36 14.07.2020
10 Clouds 26 1016 47 16093 4.1 100 00:52 14.07.2020
11 Clouds 26 1016 47 16093 4.1 100 00:33 14.07.2020
12 Clouds 27 1016 47 16093 4.1 100 23:59 13.07.2020
13 Clouds 27 1016 47 16093 3.6 100 23:37 13.07.2020
14 Clouds 27 1016 47 16093 3.6 100 23:18 13.07.2020
15 Clouds 27 1016 44 16093 4.6 70 22:41 13.07.2020
16 Clouds 27 1016 44 16093 4.6 70 22:21 13.07.2020
17 Clouds 27 1016 47 16093 4.1 90 21:57 13.07.2020
18 Clouds 28 1018 51 0 3.59 77 21:39 13.07.2020
19 Clouds 27 1016 47 16093 4.1 90 21:20 13.07.2020
20 Clouds 26 1016 47 16093 4.1 90 20:58 13.07.2020
21 Clouds 26 1017 54 16093 3.1 0 20:39 13.07.2020
22 Clouds 26 1017 54 16093 3.1 0 20:21 13.07.2020
23 Clouds 26 1017 54 16093 5.1 100 19:45 13.07.2020
24 Clouds 26 1017 54 16093 5.1 100 19:26 13.07.2020
25 Clouds 25 1017 53 16093 2.6 320 18:59 13.07.2020
26 Clouds 25 1017 53 16093 2.6 320 18:40 13.07.2020
27 Clouds 25 1017 53 16093 2.6 320 18:22 13.07.2020
28 Clouds 25 1017 50 16093 2.1 350 17:57 13.07.2020
29 Clouds 25 1017 50 16093 2.1 350 17:39 13.07.2020
30 Clouds 25 1017 50 16093 2.1 350 17:20 13.07.2020
31 Clouds 24 1017 57 16093 2.66 11 16:55 13.07.2020
32 Clouds 24 1017 57 16093 2.66 11 16:37 13.07.2020
33 Clouds 24 1017 57 16093 2.78 5 16:18 13.07.2020
34 Clear 23 1017 60 0 2.68 78 15:56 13.07.2020
35 Clouds 23 1017 73 16093 1.5 330 15:37 13.07.2020
36 Clouds 23 1017 73 16093 1.5 330 15:18 13.07.2020
37 Clear 22 1018 72 0 2.65 6 14:56 13.07.2020
38 Clouds 21 1016 77 16093 2.1 310 14:36 13.07.2020
39 Clouds 20 1016 77 16093 2.1 310 14:18 13.07.2020
40 Clouds 19 1016 88 16093 1.5 310 13:42 13.07.2020
41 Clouds 18 1016 88 16093 1.5 310 13:21 13.07.2020
42 Clear 19 1015 88 16093 1.5 320 12:54 13.07.2020
43 Clear 19 1015 88 16093 1.5 320 12:36 13.07.2020
44 Clear 18 1015 88 16093 1.5 320 12:18 13.07.2020
45 Clear 19 1014 88 16093 2.1 290 11:40 13.07.2020
46 Clear 19 1014 88 16093 2.1 290 11:22 13.07.2020
47 Clear 19 1014 88 16093 2.1 290 11:22 13.07.2020
48 Clear 19 1014 82 16093 2.94 27 10:43 13.07.2020
49 Clear 20 1014 82 16093 3.15 25 10:21 13.07.2020
50 Clear 20 1014 82 16093 1.5 320 09:56 13.07.2020
51 Clear 20 1014 82 16093 1.5 320 09:38 13.07.2020
52 Clear 20 1014 82 16093 1.5 320 09:18 13.07.2020
53 Clear 20 1014 82 16093 1.5 310 08:46 13.07.2020
54 Clear 20 1014 82 16093 1.5 310 08:26 13.07.2020
55 Clear 20 1014 64 16093 2.1 360 07:22 13.07.2020
56 Clear 21 1014 73 16093 2.6 360 06:53 13.07.2020
57 Clear 21 1014 73 16093 2.6 360 06:35 13.07.2020
58 Clear 21 1014 68 16093 3.6 10 05:33 13.07.2020
59 Clouds 22 1013 64 16093 5.1 60 02:46 13.07.2020
60 Clouds 23 1013 64 16093 6.2 30 01:43 13.07.2020
61 Clouds 23 1013 64 16093 6.2 30 01:21 13.07.2020
62 Clouds 24 1013 57 16093 6.7 30 00:40 13.07.2020
63 Clouds 24 1013 57 16093 6.7 30 00:21 13.07.2020
64 Clouds 25 1012 54 16093 6.2 40 23:43 12.07.2020
65 Clouds 25 1012 54 16093 6.2 40 23:23 12.07.2020
66 Clouds 25 1012 54 16093 6.2 30 22:56 12.07.2020
67 Clouds 25 1012 54 16093 6.2 30 22:37 12.07.2020
68 Clouds 25 1012 54 16093 6.2 30 22:18 12.07.2020
69 Clouds 25 1012 54 16093 6.2 50 21:56 12.07.2020
70 Clouds 25 1012 54 16093 6.2 50 21:38 12.07.2020
71 Clouds 25 1012 54 16093 6.2 50 21:19 12.07.2020
72 Clouds 25 1012 54 16093 6.2 50 21:19 12.07.2020
73 Clouds 25 1012 60 16093 6.2 20 20:42 12.07.2020
74 Clouds 24 1012 60 16093 6.2 20 20:20 12.07.2020
75 Clouds 24 1012 60 16093 6.2 20 19:59 12.07.2020
76 Clouds 24 1012 57 16093 6.7 20 19:40 12.07.2020
77 Clouds 24 1012 57 16093 6.7 20 19:21 12.07.2020
78 Clouds 24 1012 54 16093 8.7 30 18:55 12.07.2020
79 Clear 25 1013 57 0 7.06 25 18:37 12.07.2020
80 Clouds 24 1012 54 16093 8.7 30 18:18 12.07.2020
81 Clouds 24 1011 64 16093 8.2 30 17:38 12.07.2020
82 Clouds 24 1011 64 16093 8.7 10 17:20 12.07.2020
83 Clouds 23 1011 73 16093 6.7 10 16:48 12.07.2020
84 Clouds 24 1011 73 16093 6.7 10 16:23 12.07.2020
85 Clouds 24 1011 78 16093 2.6 270 15:51 12.07.2020
86 Clouds 24 1011 78 16093 2.6 270 15:31 12.07.2020
87 Clouds 24 1011 78 16093 2.6 270 14:59 12.07.2020
88 Clouds 23 1010 83 16093 4.32 16 14:40 12.07.2020
89 Clouds 23 1010 83 16093 3.43 7 14:22 12.07.2020
90 Clouds 22 1010 83 16093 4.03 356 13:40 12.07.2020
91 Clouds 22 1010 83 16093 3.13 343 13:21 12.07.2020
92 Clouds 22 1009 88 16093 2.1 270 12:57 12.07.2020
93 Clouds 22 1009 88 16093 2.1 270 12:57 12.07.2020
94 Clouds 22 1009 88 16093 2.1 270 12:39 12.07.2020
95 Clouds 22 1009 88 16093 2.1 270 12:19 12.07.2020
96 Clouds 22 1009 88 16093 1.5 270 11:45 12.07.2020
97 Clouds 22 1009 88 16093 1.5 270 11:21 12.07.2020
98 Clouds 22 1009 88 16093 1.5 270 10:57 12.07.2020
99 Clouds 22 1009 88 16093 2.1 280 10:39 12.07.2020
100 Clouds 23 1009 88 16093 2.1 280 10:19 12.07.2020
101 Clouds 23 1009 88 16093 2.1 280 10:19 12.07.2020
102 Clouds 23 1008 83 16093 1.5 290 09:43 12.07.2020
103 Clouds 24 1008 83 16093 1.5 290 09:21 12.07.2020
104 Rain 23 1009 88 16093 1.5 260 08:55 12.07.2020
105 Rain 24 1009 88 16093 1.5 260 08:37 12.07.2020
106 Rain 24 1009 88 16093 1.5 260 08:18 12.07.2020
107 Clouds 24 1009 69 16093 3.6 250 07:46 12.07.2020
108 Clouds 24 1009 69 16093 3.6 250 07:27 12.07.2020
109 Clouds 25 1009 57 16093 2.1 260 06:53 12.07.2020
110 Clouds 25 1009 57 16093 2.1 260 06:22 12.07.2020
111 Clouds 26 1009 54 16093 2.2 4 05:59 12.07.2020
112 Clouds 26 1010 54 16093 2.1 310 04:57 12.07.2020
113 Clouds 27 1010 54 16093 2.1 310 04:28 12.07.2020
114 Clouds 27 1009 51 16093 3.6 310 03:45 12.07.2020
115 Clouds 28 1009 51 16093 3.6 310 03:24 12.07.2020
116 Clouds 29 1010 48 16093 3.6 320 01:54 12.07.2020
117 Clouds 29 1010 48 16093 3.6 320 01:18 12.07.2020
118 Clouds 29 1011 48 16093 5.1 300 00:39 12.07.2020
119 Clouds 29 1011 48 16093 5.1 300 00:20 12.07.2020
120 Clouds 29 1011 51 16093 6.2 260 23:40 11.07.2020
121 Clouds 29 1011 51 16093 6.2 260 23:20 11.07.2020
122 Clouds 29 1012 61 16093 4.1 290 22:57 11.07.2020
123 Clouds 29 1012 61 16093 4.1 290 22:37 11.07.2020
124 Clouds 28 1012 61 16093 4.1 290 22:19 11.07.2020
125 Rain 27 1012 69 16093 3.1 300 21:43 11.07.2020
126 Rain 26 1012 69 16093 3.1 300 21:24 11.07.2020
127 Rain 26 1014 78 16093 5.1 260 20:59 11.07.2020
128 Clear 25 1013 72 0 1.19 338 20:41 11.07.2020
129 Rain 25 1014 78 16093 5.1 260 20:21 11.07.2020
130 Clouds 27 1013 45 16093 6.2 290 19:59 11.07.2020
131 Clouds 29 1013 45 16093 6.2 290 19:40 11.07.2020
132 Clouds 29 1013 45 16093 6.2 290 19:22 11.07.2020
133 Clouds 29 1013 51 16093 5.7 270 18:56 11.07.2020
134 Clouds 29 1013 51 16093 5.7 270 18:38 11.07.2020
135 Clouds 29 1013 51 16093 5.7 270 18:19 11.07.2020
136 Rain 29 1014 47 0 0.89 318 17:55 11.07.2020
137 Rain 29 1013 51 16093 4.6 310 17:37 11.07.2020
138 Rain 28 1013 51 16093 4.6 310 17:18 11.07.2020
139 Clear 27 1014 55 0 2.23 308 16:42 11.07.2020
140 Clear 27 1013 55 0 1.79 326 16:23 11.07.2020
141 Clouds 26 1013 57 16093 4.6 260 15:58 11.07.2020
142 Clear 26 1014 58 0 2.52 297 15:40 11.07.2020
143 Clouds 25 1013 64 16093 3.1 290 15:20 11.07.2020
144 Clouds 24 1013 64 16093 3.1 290 14:57 11.07.2020
145 Clouds 24 1013 69 16093 3.1 300 14:37 11.07.2020
146 Clouds 23 1013 69 16093 3.1 300 14:19 11.07.2020
147 Clouds 22 1013 73 16093 2.6 280 13:42 11.07.2020
148 Clouds 22 1013 73 16093 2.6 280 13:22 11.07.2020
149 Clouds 22 1012 73 16093 3.1 290 12:56 11.07.2020
150 Clouds 22 1012 73 16093 3.1 290 12:56 11.07.2020
151 Clouds 22 1012 73 16093 3.1 290 12:37 11.07.2020
152 Clouds 22 1012 73 16093 3.1 290 12:19 11.07.2020
153 Clear 22 1012 73 16093 2.1 300 11:41 11.07.2020
154 Clear 22 1012 73 16093 2.1 300 11:21 11.07.2020
155 Clear 23 1012 73 16093 2.1 300 10:57 11.07.2020
156 Clear 23 1013 69 16093 3.1 300 10:39 11.07.2020
157 Clear 23 1013 69 16093 3.1 300 10:21 11.07.2020
158 Clear 23 1013 69 16093 2.6 300 09:43 11.07.2020
159 Clear 24 1013 69 16093 2.6 300 09:20 11.07.2020
160 Clouds 24 1012 64 16093 4.1 290 08:47 11.07.2020
161 Clouds 24 1012 64 16093 4.1 290 08:28 11.07.2020
162 Clear 24 1013 64 16093 3.6 290 07:56 11.07.2020
163 Clear 24 1013 64 16093 3.6 290 07:37 11.07.2020
164 Clear 24 1013 64 16093 3.6 290 07:18 11.07.2020
165 Clouds 25 1012 57 16093 3.6 300 06:28 11.07.2020
166 Clouds 25 1012 57 16093 3.6 300 05:59 11.07.2020
167 Clouds 26 1012 54 16093 3.6 300 05:20 11.07.2020
168 Clouds 26 1012 51 16093 3.6 310 04:50 11.07.2020
169 Clouds 27 1012 51 16093 3.6 310 04:20 11.07.2020
170 Clouds 27 1012 51 16093 3.6 310 04:20 11.07.2020
171 Clouds 28 1012 48 16093 7.7 320 02:55 11.07.2020
172 Clouds 28 1012 48 16093 7.7 320 02:27 11.07.2020
173 Clouds 29 1011 45 16093 7.7 320 01:25 11.07.2020
174 Rain 29 1011 48 16093 6.7 310 00:57 11.07.2020
175 Clouds 29 1011 48 16093 6.7 310 00:38 11.07.2020
176 Rain 30 1011 48 16093 6.7 310 00:18 11.07.2020
177 Clouds 30 1011 45 16093 6.2 300 23:45 10.07.2020
178 Clouds 30 1011 45 16093 6.2 300 23:26 10.07.2020
179 Clouds 30 1011 45 16093 7.7 310 22:57 10.07.2020
180 Clouds 30 1011 45 16093 7.7 310 22:38 10.07.2020
181 Rain 30 1011 45 16093 7.7 310 22:19 10.07.2020
182 Rain 30 1011 48 16093 10.3 310 21:39 10.07.2020
183 Clouds 29 1011 48 16093 10.3 310 21:20 10.07.2020
184 Clouds 29 1011 51 16093 8.7 300 20:57 10.07.2020
185 Clouds 29 1011 51 16093 8.7 300 20:38 10.07.2020
186 Clouds 29 1011 51 16093 8.7 300 20:38 10.07.2020
187 Clouds 29 1011 51 16093 8.7 300 20:19 10.07.2020
188 Clouds 28 1011 54 16093 7.2 340 19:56 10.07.2020
189 Clouds 28 1011 54 16093 7.2 340 19:56 10.07.2020
190 Rain 28 1011 54 16093 7.2 340 19:38 10.07.2020
191 Rain 28 1011 54 16093 7.2 340 19:18 10.07.2020
192 Clouds 26 1010 65 16093 7.2 310 18:41 10.07.2020
193 Rain 26 1010 65 16093 7.2 310 18:19 10.07.2020
194 Rain 25 1010 78 16093 7.2 320 17:55 10.07.2020
195 Clouds 24 1010 78 16093 7.2 320 17:37 10.07.2020
196 Clouds 24 1010 78 16093 7.2 320 17:37 10.07.2020
197 Clouds 24 1010 78 16093 7.2 320 17:18 10.07.2020
198 Clouds 22 1010 88 16093 5.1 330 16:41 10.07.2020
199 Rain 21 1011 90 0 1.34 271 16:20 10.07.2020
200 Rain 21 1009 100 9656 6.2 300 15:45 10.07.2020
201 Rain 21 1009 100 9656 6.2 300 15:22 10.07.2020
202 Rain 21 1009 94 16093 4.1 310 14:55 10.07.2020
203 Rain 22 1009 94 16093 4.1 310 14:37 10.07.2020
204 Rain 22 1009 94 16093 4.1 310 14:19 10.07.2020
205 Rain 22 1008 100 2414 4.6 300 13:56 10.07.2020
206 Rain 22 1008 100 2414 4.6 300 13:37 10.07.2020
207 Rain 22 1008 94 4828 2.1 260 13:19 10.07.2020
208 Clouds 22 1008 94 12874 2.1 180 12:43 10.07.2020
209 Clouds 22 1008 94 12874 2.1 180 12:24 10.07.2020
210 Clouds 22 1008 94 12874 2.1 180 11:59 10.07.2020
211 Clouds 22 1008 88 14484 1.5 170 11:38 10.07.2020
212 Clouds 22 1008 88 12874 2.83 245 11:19 10.07.2020
213 Clouds 22 1007 94 16093 2.1 260 10:55 10.07.2020
214 Clouds 22 1007 94 16093 2.1 260 10:36 10.07.2020
215 Clouds 22 1007 94 16093 2.1 260 10:18 10.07.2020
216 Clouds 22 1008 88 16093 2.6 250 09:37 10.07.2020
217 Clouds 22 1008 88 16093 2.6 250 09:19 10.07.2020
218 Rain 22 1009 88 14484 2.1 60 08:57 10.07.2020
219 Rain 22 1009 88 14484 2.1 60 08:38 10.07.2020
220 Rain 22 1009 88 14484 2.1 60 08:20 10.07.2020
221 Rain 22 1009 88 8047 3.6 300 07:42 10.07.2020
222 Rain 22 1009 100 2816 6.7 280 07:22 10.07.2020
223 Thunderstorm 25 1007 61 16093 5.7 310 06:49 10.07.2020
224 Clouds 29 1008 58 16093 7.2 180 05:58 10.07.2020
225 Clouds 30 1009 63 0 0.45 128 04:39 10.07.2020
226 Clouds 30 1008 55 16093 6.7 180 03:37 10.07.2020
227 Clouds 31 1007 55 14484 7.2 180 02:52 10.07.2020
228 Clouds 32 1008 49 16093 6.7 180 01:49 10.07.2020
229 Clouds 34 1008 44 16093 7.7 210 00:48 10.07.2020
230 Clouds 34 1008 44 16093 7.7 210 00:20 10.07.2020
231 Clouds 34 1009 46 16093 6.2 190 23:46 09.07.2020
232 Clouds 34 1009 46 16093 6.2 190 23:22 09.07.2020
233 Clouds 34 1009 46 16093 6.2 190 22:58 09.07.2020
234 Clouds 34 1010 43 16093 6.7 200 22:40 09.07.2020
235 Clouds 34 1010 43 16093 6.7 200 22:21 09.07.2020
236 Clouds 34 1011 46 16093 6.7 180 21:56 09.07.2020
237 Clouds 34 1011 46 16093 6.7 180 21:38 09.07.2020
238 Clouds 34 1011 46 16093 6.7 180 21:38 09.07.2020
239 Clouds 34 1011 46 16093 6.7 180 21:19 09.07.2020
240 Clouds 34 1012 46 16093 3.6 200 20:45 09.07.2020
241 Clouds 33 1012 46 16093 3.6 200 20:25 09.07.2020
242 Clouds 33 1012 46 16093 5.1 200 19:58 09.07.2020
243 Clouds 33 1012 46 16093 5.1 200 19:40 09.07.2020
244 Clouds 33 1012 46 16093 5.1 200 19:21 09.07.2020
245 Clouds 32 1012 46 16093 4.1 160 18:42 09.07.2020
246 Clouds 31 1012 46 16093 4.1 160 18:22 09.07.2020
247 Clouds 31 1012 46 16093 4.1 160 18:22 09.07.2020
248 Clouds 31 1012 58 16093 1.5 200 17:55 09.07.2020
249 Clouds 31 1012 58 16093 1.5 200 17:37 09.07.2020
250 Clouds 31 1012 58 16093 1.5 200 17:18 09.07.2020
251 Clear 31 1014 57 0 3.87 176 16:55 09.07.2020
252 Clear 30 1014 59 0 3.87 176 16:37 09.07.2020
253 Clouds 29 1013 65 16093 2.1 170 16:18 09.07.2020
254 Clear 28 1014 66 0 3.5 180 15:46 09.07.2020
255 Clouds 27 1013 74 16093 2.1 200 15:28 09.07.2020
256 Clouds 27 1013 78 16093 3.1 210 14:59 09.07.2020
257 Clouds 26 1013 78 16093 3.1 210 14:41 09.07.2020
258 Clouds 26 1013 78 16093 3.1 210 14:23 09.07.2020
259 Clouds 25 1013 78 14484 2.1 220 13:59 09.07.2020
260 Clouds 25 1013 78 14484 2.1 220 13:41 09.07.2020
261 Clouds 25 1013 78 14484 2.1 220 13:20 09.07.2020
262 Clouds 25 1013 78 16093 2.6 240 12:57 09.07.2020
263 Clouds 25 1013 78 16093 2.6 240 12:39 09.07.2020
264 Clouds 25 1013 78 16093 2.6 240 12:20 09.07.2020
265 Clouds 25 1012 73 16093 2.6 210 11:44 09.07.2020
266 Clouds 25 1012 73 16093 2.6 210 11:26 09.07.2020
267 Clouds 25 1012 65 16093 3.1 210 10:59 09.07.2020
268 Clouds 26 1012 65 16093 3.1 210 10:41 09.07.2020
269 Clouds 26 1012 65 16093 3.1 210 10:23 09.07.2020
270 Clouds 26 1012 65 16093 3.1 210 09:58 09.07.2020
271 Clouds 26 1012 65 16093 1.5 200 09:39 09.07.2020
272 Clouds 26 1012 65 16093 1.5 200 09:21 09.07.2020
273 Clouds 26 1012 61 16093 2.6 200 08:43 09.07.2020
274 Clouds 27 1012 61 16093 2.6 200 08:24 09.07.2020
275 Clouds 27 1012 57 16093 2.1 180 07:47 09.07.2020
276 Clouds 27 1012 57 16093 2.1 180 07:22 09.07.2020
277 Clouds 27 1013 58 16093 2.6 210 06:50 09.07.2020
278 Clouds 28 1013 58 16093 2.6 210 06:19 09.07.2020
279 Clouds 28 1013 54 16093 2.1 210 04:29 09.07.2020
280 Clouds 29 1012 51 16093 2.1 200 03:32 09.07.2020
281 Clouds 29 1012 54 16093 3.6 140 02:19 09.07.2020
282 Clouds 30 1012 51 16093 4.6 120 01:32 09.07.2020
283 Clouds 30 1012 51 16093 4.6 120 01:32 09.07.2020
284 Clouds 31 1012 46 16093 5.1 90 00:47 09.07.2020
285 Clouds 31 1012 46 16093 5.1 90 00:24 09.07.2020
286 Clouds 31 1012 43 16093 2.1 0 23:46 08.07.2020
287 Clouds 31 1012 43 16093 2.1 0 23:27 08.07.2020
288 Clouds 32 1012 43 16093 2.1 0 22:58 08.07.2020
289 Clouds 31 1013 52 16093 3.1 110 22:40 08.07.2020
290 Clouds 32 1013 52 16093 3.1 110 22:22 08.07.2020
291 Thunderstorm 31 1014 62 16093 3.1 120 21:58 08.07.2020
292 Thunderstorm 31 1014 62 16093 3.1 120 21:58 08.07.2020
293 Thunderstorm 32 1014 62 16093 3.1 120 21:38 08.07.2020
294 Thunderstorm 32 1014 45 16093 3.6 110 21:20 08.07.2020
295 Clouds 32 1014 58 16093 3.6 110 20:54 08.07.2020
296 Clouds 32 1014 58 16093 3.6 110 20:36 08.07.2020
297 Clouds 32 1014 58 16093 3.6 110 20:18 08.07.2020
298 Clouds 32 1015 43 16093 2.54 78 19:42 08.07.2020
299 Clouds 33 1015 43 16093 2.02 76 19:22 08.07.2020
300 Clouds 31 1015 52 16093 2.02 76 18:57 08.07.2020
301 Clouds 32 1015 52 16093 2.02 76 18:39 08.07.2020
302 Clouds 31 1015 52 16093 1.31 53 18:19 08.07.2020
303 Clouds 30 1015 62 16093 1.5 340 17:55 08.07.2020
304 Clouds 30 1015 62 16093 1.5 340 17:37 08.07.2020
305 Clouds 29 1015 62 16093 1.5 340 17:18 08.07.2020
306 Clouds 28 1015 65 16093 0.67 350 16:39 08.07.2020
307 Clouds 27 1015 65 16093 0.56 259 16:20 08.07.2020
308 Clouds 27 1015 65 16093 0.56 259 15:58 08.07.2020
309 Clouds 26 1015 74 16093 2.1 100 15:40 08.07.2020
310 Clouds 26 1015 74 16093 2.1 100 15:19 08.07.2020
311 Clouds 25 1015 69 16093 0.06 198 14:49 08.07.2020
312 Clouds 25 1015 69 16093 0.67 302 14:30 08.07.2020
313 Clouds 25 1014 73 16093 0.97 304 13:59 08.07.2020
314 Clouds 24 1014 73 16093 0.97 304 13:41 08.07.2020
315 Clouds 24 1014 73 16093 1.22 282 13:22 08.07.2020
316 Clouds 24 1014 73 16093 1.22 282 12:44 08.07.2020
317 Clouds 24 1014 73 16093 1.41 279 12:21 08.07.2020
318 Rain 24 1014 73 16093 2.1 220 11:57 08.07.2020
319 Rain 24 1014 73 16093 2.1 220 11:38 08.07.2020
320 Clouds 24 1014 73 16093 2.1 220 11:20 08.07.2020
321 Clouds 24 1014 73 16093 2.1 220 11:20 08.07.2020
322 Clouds 24 1014 78 16093 1.5 290 10:44 08.07.2020
323 Clouds 24 1014 78 16093 1.5 290 10:44 08.07.2020
324 Clouds 24 1014 78 16093 1.5 290 10:26 08.07.2020
325 Clouds 24 1014 78 16093 1.79 234 09:47 08.07.2020
326 Clouds 24 1014 78 16093 1.86 252 09:26 08.07.2020
327 Clouds 24 1014 78 16093 1.86 252 08:59 08.07.2020
328 Clouds 24 1014 78 16093 1.5 170 08:39 08.07.2020
329 Clouds 24 1014 78 16093 1.5 170 08:20 08.07.2020
330 Rain 23 1015 78 16093 3.1 100 07:46 08.07.2020
331 Rain 23 1015 78 16093 3.1 100 07:23 08.07.2020
332 Rain 24 1016 73 16093 4.6 350 06:54 08.07.2020
333 Rain 24 1016 73 16093 4.6 350 06:35 08.07.2020
334 Clouds 24 1017 74 0 1.02 275 05:54 08.07.2020
335 Rain 25 1017 69 0 1.36 289 05:18 08.07.2020
336 Thunderstorm 26 1014 61 16093 10.3 330 04:27 08.07.2020
337 Thunderstorm 31 1013 43 16093 2.1 150 02:20 08.07.2020
338 Rain 30 1014 55 0 1.92 95 01:44 08.07.2020
339 Clouds 32 1012 43 16093 5.1 130 00:59 08.07.2020
340 Clouds 32 1013 43 16093 5.7 130 00:22 08.07.2020
341 Clouds 32 1013 43 16093 6.7 130 23:45 07.07.2020
342 Clouds 32 1013 43 16093 6.7 130 23:24 07.07.2020
343 Clouds 32 1014 43 16093 6.7 110 22:59 07.07.2020
344 Clouds 33 1014 43 16093 6.7 110 22:41 07.07.2020
345 Clouds 33 1014 43 16093 6.7 110 22:21 07.07.2020
346 Clouds 33 1014 43 16093 6.7 110 21:59 07.07.2020
347 Clouds 33 1014 41 16093 2.6 90 21:59 07.07.2020
348 Clouds 34 1014 41 16093 2.6 90 21:39 07.07.2020
349 Clouds 34 1014 41 16093 2.6 90 21:21 07.07.2020
350 Clouds 34 1015 41 16093 4.6 240 20:56 07.07.2020
351 Clouds 34 1015 41 16093 4.6 240 20:38 07.07.2020
352 Clouds 34 1015 41 16093 4.6 240 20:19 07.07.2020
353 Clouds 34 1015 41 16093 4.1 300 19:40 07.07.2020
354 Clouds 33 1015 41 16093 4.1 300 19:21 07.07.2020
355 Clouds 33 1015 46 16093 3.1 320 18:56 07.07.2020
356 Clear 33 1016 43 0 2.68 293 18:38 07.07.2020
357 Clouds 33 1015 46 16093 3.1 320 18:19 07.07.2020
358 Clouds 33 1016 46 16093 3.6 260 17:57 07.07.2020
359 Clouds 32 1016 46 16093 3.6 260 17:38 07.07.2020
360 Clouds 32 1016 46 16093 3.6 260 17:20 07.07.2020
361 Clouds 32 1016 52 16093 1.64 274 16:43 07.07.2020
362 Clouds 31 1016 52 16093 1.62 247 16:24 07.07.2020
363 Clouds 31 1015 57 0 0.45 33 15:58 07.07.2020
364 Clouds 30 1016 59 0 1.62 247 15:38 07.07.2020
365 Clouds 28 1016 61 16093 2.1 230 15:20 07.07.2020
366 Clouds 28 1016 61 16093 2.1 230 15:20 07.07.2020
367 Clouds 28 1015 65 16093 2.1 240 14:46 07.07.2020
368 Clouds 28 1015 65 16093 2.1 240 14:46 07.07.2020
369 Clouds 27 1015 65 16093 2.1 240 14:25 07.07.2020
370 Clouds 26 1015 73 14484 2.1 270 13:46 07.07.2020
371 Clouds 26 1015 73 14484 2.1 270 13:22 07.07.2020
372 Clouds 25 1015 73 14484 2.1 270 12:59 07.07.2020
373 Clouds 26 1015 65 16093 1.5 210 12:40 07.07.2020
374 Clouds 26 1015 65 16093 1.5 210 12:22 07.07.2020
375 Clear 26 1014 61 16093 1.5 200 11:49 07.07.2020
376 Clear 26 1014 61 16093 1.5 200 11:25 07.07.2020
377 Clear 26 1014 61 16093 1.5 200 10:59 07.07.2020
378 Clear 26 1015 57 16093 2.1 210 10:41 07.07.2020
379 Clear 27 1015 57 16093 2.1 210 10:21 07.07.2020
380 Clear 27 1015 51 16093 1.5 210 09:55 07.07.2020
381 Clear 27 1015 51 16093 1.5 210 09:37 07.07.2020
382 Clear 27 1015 51 16093 1.5 210 09:18 07.07.2020
383 Clouds 28 1015 51 16093 3.1 240 08:41 07.07.2020
384 Clouds 28 1015 51 16093 3.1 240 08:22 07.07.2020
385 Clouds 28 1015 48 16093 2.6 200 07:42 07.07.2020
386 Clouds 28 1015 48 16093 2.6 200 07:22 07.07.2020
387 Clouds 28 1015 51 16093 2.1 170 06:49 07.07.2020
388 Clouds 28 1015 51 16093 2.1 170 06:28 07.07.2020
389 Clouds 28 1015 51 16093 2.1 130 05:53 07.07.2020
390 Clouds 28 1015 51 16093 2.1 130 05:22 07.07.2020
391 Rain 29 1016 56 0 1.82 155 04:38 07.07.2020
392 Rain 29 1015 55 0 1.12 163 03:35 07.07.2020
393 Clouds 31 1014 40 16093 4.1 100 02:21 07.07.2020
394 Clouds 32 1014 40 16093 4.1 110 01:22 07.07.2020
395 Clouds 32 1015 38 16093 5.1 110 00:42 07.07.2020
396 Clouds 32 1015 38 16093 5.1 110 00:24 07.07.2020
397 Clouds 33 1015 38 16093 5.1 80 23:46 06.07.2020
398 Clouds 33 1015 38 16093 5.1 80 23:26 06.07.2020
399 Clouds 34 1015 38 16093 5.1 80 22:59 06.07.2020
400 Clouds 34 1015 34 16093 3.1 280 22:40 06.07.2020
401 Clouds 34 1015 34 16093 3.1 280 22:19 06.07.2020
402 Clouds 34 1015 34 16093 3.1 280 21:57 06.07.2020
403 Clouds 34 1015 34 16093 2.6 310 21:38 06.07.2020
404 Clouds 34 1015 34 16093 2.6 310 21:19 06.07.2020
405 Clouds 34 1016 36 16093 2.6 280 20:57 06.07.2020
406 Clouds 33 1016 36 16093 2.6 280 20:37 06.07.2020
407 Clouds 33 1016 36 16093 2.6 280 20:19 06.07.2020
408 Clouds 33 1017 38 16093 3.02 114 19:56 06.07.2020
409 Clouds 33 1017 38 16093 3.02 114 19:37 06.07.2020
410 Clouds 33 1017 38 16093 2.44 123 19:18 06.07.2020
411 Clouds 33 1017 38 16093 2.44 123 18:41 06.07.2020
412 Clouds 32 1017 38 16093 1.71 132 18:23 06.07.2020
413 Clouds 32 1017 38 16093 1.71 132 17:59 06.07.2020
414 Clouds 32 1017 38 16093 1.71 132 17:40 06.07.2020
415 Clouds 32 1017 38 16093 1.71 132 17:40 06.07.2020
416 Clouds 31 1017 38 16093 1.15 161 17:20 06.07.2020
417 Clouds 30 1017 45 16093 1.15 161 16:44 06.07.2020
418 Clouds 30 1017 45 16093 0.77 198 16:25 06.07.2020
419 Clouds 30 1016 51 16093 1.5 50 15:59 06.07.2020
420 Clouds 29 1016 51 16093 1.5 50 15:41 06.07.2020
421 Clouds 28 1016 51 16093 1.5 50 15:23 06.07.2020
422 Clouds 27 1016 57 16093 0.59 220 14:55 06.07.2020
423 Clouds 27 1016 57 16093 0.59 220 14:37 06.07.2020
424 Clouds 27 1016 57 16093 0.59 220 14:37 06.07.2020
425 Clouds 27 1016 57 16093 1.62 159 14:18 06.07.2020
426 Clouds 25 1015 65 16093 1.62 159 13:44 06.07.2020
427 Clouds 24 1015 65 16093 0.9 157 13:24 06.07.2020
428 Clouds 24 1015 57 16093 0.9 157 12:56 06.07.2020
429 Clouds 24 1015 57 16093 0.9 157 12:38 06.07.2020
430 Clouds 24 1015 57 16093 0.59 166 12:18 06.07.2020
431 Clouds 25 1015 61 16093 0.59 166 11:42 06.07.2020
432 Clouds 25 1015 61 16093 0.44 217 11:24 06.07.2020
433 Clouds 25 1015 61 16093 0.44 217 10:59 06.07.2020
434 Clouds 25 1015 57 16093 0.44 217 10:41 06.07.2020
435 Clouds 25 1015 57 16093 0.89 211 10:21 06.07.2020
436 Clouds 26 1015 57 16093 1.5 250 09:55 06.07.2020
437 Clouds 26 1015 57 16093 1.5 250 09:37 06.07.2020
438 Clouds 26 1015 57 16093 1.5 250 09:18 06.07.2020
439 Clouds 26 1016 54 16093 2.1 250 08:40 06.07.2020
440 Clouds 26 1016 54 16093 2.1 250 08:22 06.07.2020
441 Clouds 27 1016 48 16093 1.5 160 07:53 06.07.2020
442 Clouds 27 1016 48 16093 1.5 160 07:31 06.07.2020
443 Clouds 27 1015 48 16093 2.1 140 06:56 06.07.2020
444 Clouds 27 1015 48 16093 2.1 140 06:37 06.07.2020
445 Clouds 27 1015 48 16093 2.1 160 05:56 06.07.2020
446 Clouds 27 1015 48 16093 2.1 160 05:29 06.07.2020
447 Clear 28 1016 58 0 1.45 113 04:33 06.07.2020
448 Clouds 30 1013 40 16093 4.6 100 02:44 06.07.2020
449 Clouds 31 1014 38 16093 5.1 100 01:59 06.07.2020
450 Clouds 31 1014 38 16093 1.5 0 00:51 06.07.2020
451 Clouds 32 1014 38 16093 1.5 0 00:25 06.07.2020
452 Clouds 31 1014 38 16093 4.1 90 23:58 05.07.2020
453 Clouds 32 1014 38 16093 4.1 90 23:39 05.07.2020
454 Clouds 32 1014 38 16093 4.1 90 23:21 05.07.2020
455 Clouds 32 1014 38 16093 4.1 90 22:57 05.07.2020
456 Clouds 32 1015 40 16093 5.1 70 22:37 05.07.2020
457 Clouds 32 1015 40 16093 5.1 70 22:18 05.07.2020
458 Clouds 32 1016 40 16093 4.1 40 21:41 05.07.2020
459 Clouds 32 1016 40 16093 4.1 40 21:19 05.07.2020
460 Clouds 32 1016 40 16093 4.1 40 20:59 05.07.2020
461 Clouds 31 1016 40 16093 5.1 90 20:41 05.07.2020
462 Clouds 31 1016 40 16093 5.1 90 20:22 05.07.2020
463 Clouds 31 1016 40 16093 3.6 70 19:57 05.07.2020
464 Clouds 31 1016 40 16093 3.6 70 19:39 05.07.2020
465 Clouds 31 1016 40 16093 3.6 70 19:19 05.07.2020
466 Clouds 30 1016 43 16093 4.1 110 18:42 05.07.2020
467 Clouds 30 1016 43 16093 4.1 110 18:23 05.07.2020
468 Clouds 30 1016 45 16093 2.1 50 17:58 05.07.2020
469 Clouds 30 1016 45 16093 2.1 50 17:39 05.07.2020
470 Clouds 30 1016 45 16093 2.1 50 17:19 05.07.2020
471 Clouds 30 1016 45 16093 2.1 50 17:19 05.07.2020
472 Clouds 29 1016 54 16093 2.13 56 16:44 05.07.2020
473 Clouds 29 1016 54 16093 2 49 16:25 05.07.2020
474 Clouds 29 1016 54 16093 2 49 15:58 05.07.2020
475 Clear 28 1016 58 16093 2 49 15:38 05.07.2020
476 Clear 27 1016 58 16093 1.88 52 15:19 05.07.2020
477 Clear 25 1016 69 16093 1.88 52 14:42 05.07.2020
478 Clear 25 1016 69 16093 1.24 22 14:23 05.07.2020
479 Clear 25 1016 69 16093 2.02 37 14:23 05.07.2020
480 Clouds 23 1016 69 16093 1.24 22 13:55 05.07.2020
481 Clouds 23 1016 69 16093 1.24 22 13:37 05.07.2020
482 Clear 22 1017 83 0 1.61 53 13:19 05.07.2020
483 Clouds 22 1016 73 16093 1.61 53 12:39 05.07.2020
484 Clouds 22 1016 73 16093 2.45 40 12:20 05.07.2020
485 Clouds 23 1016 69 16093 2.1 40 11:55 05.07.2020
486 Clouds 23 1016 69 16093 2.1 40 11:55 05.07.2020
487 Clouds 23 1016 69 16093 2.1 40 11:36 05.07.2020
488 Clouds 23 1016 69 16093 2.1 40 11:18 05.07.2020
489 Clouds 23 1016 69 16093 2.1 10 10:42 05.07.2020
490 Clouds 23 1016 69 16093 2.1 10 10:20 05.07.2020
491 Smoke 23 1016 78 9656 1.5 60 09:59 05.07.2020
492 Smoke 23 1016 78 9656 1.5 60 09:40 05.07.2020
493 Smoke 23 1016 78 9656 1.5 60 09:20 05.07.2020
494 Smoke 24 1016 73 6437 2.6 30 08:51 05.07.2020
495 Smoke 23 1016 73 6437 2.6 30 08:33 05.07.2020
496 Smoke 24 1016 73 6437 2.6 60 07:49 05.07.2020
497 Smoke 24 1016 73 6437 2.6 60 07:30 05.07.2020
498 Clear 24 1017 76 0 2.54 65 06:53 05.07.2020
499 Clear 25 1017 68 0 2.98 59 05:48 05.07.2020
500 Clouds 26 1017 68 0 2.36 46 03:37 05.07.2020
501 Clouds 27 1015 61 16093 5.7 30 02:46 05.07.2020
502 Clouds 28 1015 61 16093 5.7 30 02:28 05.07.2020
503 Clouds 28 1015 54 16093 5.1 70 01:41 05.07.2020
504 Clouds 29 1015 54 16093 5.1 70 01:20 05.07.2020
505 Clouds 30 1016 48 16093 5.1 100 00:41 05.07.2020
506 Clouds 30 1016 48 16093 5.1 100 00:23 05.07.2020
507 Clouds 30 1016 48 16093 5.1 100 00:23 05.07.2020
508 Clouds 30 1016 48 16093 5.1 40 23:48 04.07.2020
509 Clouds 30 1016 48 16093 5.1 40 23:30 04.07.2020
510 Clouds 30 1016 48 16093 5.1 40 22:57 04.07.2020
511 Clouds 30 1016 52 16093 5.7 50 22:38 04.07.2020
512 Clouds 30 1016 52 16093 5.7 50 22:20 04.07.2020
513 Clouds 30 1016 46 16093 3.6 20 21:43 04.07.2020
514 Clouds 30 1016 46 16093 3.6 20 21:24 04.07.2020
515 Clouds 30 1016 46 16093 3.6 20 20:59 04.07.2020
516 Clouds 30 1017 46 16093 2.6 30 20:41 04.07.2020
517 Clouds 31 1017 46 16093 2.6 30 20:20 04.07.2020
518 Clouds 31 1017 46 16093 3.1 40 19:45 04.07.2020
519 Clouds 31 1017 46 16093 3.1 40 19:22 04.07.2020
520 Clouds 30 1017 48 16093 3.17 20 18:59 04.07.2020
521 Clouds 30 1017 48 16093 3.17 20 18:41 04.07.2020
522 Clouds 29 1017 48 16093 2.6 10 18:21 04.07.2020
523 Clouds 28 1017 54 16093 1.5 0 17:44 04.07.2020
524 Clouds 28 1017 54 16093 1.5 0 17:26 04.07.2020
525 Clouds 28 1017 65 16093 2.6 350 16:58 04.07.2020
526 Clouds 27 1017 65 16093 2.6 350 16:38 04.07.2020
527 Clouds 27 1017 65 16093 2.6 350 16:20 04.07.2020
528 Clouds 26 1017 69 16093 2.6 360 15:56 04.07.2020
529 Clouds 26 1017 69 16093 2.6 360 15:37 04.07.2020
530 Clouds 25 1017 69 16093 2.6 360 15:19 04.07.2020
531 Clouds 24 1017 78 16093 2.6 320 14:38 04.07.2020
532 Clouds 24 1017 78 16093 2.6 320 14:19 04.07.2020
533 Clouds 23 1016 83 16093 3.12 353 13:59 04.07.2020
534 Clouds 23 1016 83 16093 3.12 353 13:40 04.07.2020
535 Clouds 22 1016 83 16093 3.12 356 13:18 04.07.2020
536 Clouds 22 1016 83 16093 3.12 356 13:18 04.07.2020
537 Clouds 22 1016 78 16093 1.5 330 12:43 04.07.2020
538 Clouds 22 1016 78 16093 1.5 330 12:21 04.07.2020
539 Clouds 22 1017 78 14484 1.5 330 11:56 04.07.2020
540 Clouds 23 1017 78 14484 1.5 330 11:38 04.07.2020
541 Clouds 23 1017 78 14484 1.5 330 11:19 04.07.2020
542 Clouds 23 1017 69 14484 1.5 340 10:42 04.07.2020
543 Clouds 23 1017 69 14484 1.5 340 10:22 04.07.2020
544 Clouds 23 1017 69 14484 1.5 340 09:59 04.07.2020
545 Clouds 23 1017 69 14484 1.5 330 09:38 04.07.2020
546 Clouds 23 1017 69 14484 1.5 330 09:20 04.07.2020
547 Clouds 24 1017 61 14484 2.62 6 08:48 04.07.2020
548 Clouds 24 1017 61 14484 2.62 6 08:30 04.07.2020
549 Clouds 24 1017 57 16093 2.42 1 07:50 04.07.2020
550 Clouds 25 1017 57 16093 2.09 353 07:31 04.07.2020
551 Clouds 25 1017 54 16093 2.09 353 06:56 04.07.2020
552 Clouds 25 1017 54 16093 2.04 20 06:23 04.07.2020
553 Clear 25 1019 72 0 2.04 20 05:36 04.07.2020
554 Clear 26 1018 70 0 2.6 41 04:50 04.07.2020
555 Clouds 28 1016 42 16093 3.6 80 03:18 04.07.2020
556 Clouds 29 1016 35 16093 4.1 100 02:27 04.07.2020
557 Clouds 30 1016 31 16093 4.6 90 01:35 04.07.2020
558 Clouds 31 1017 31 16093 5.7 90 00:44 04.07.2020
559 Clouds 31 1017 31 16093 5.7 90 00:25 04.07.2020
560 Clouds 31 1017 33 16093 2.1 0 23:41 03.07.2020
561 Clouds 32 1017 33 16093 2.1 0 23:19 03.07.2020
562 Clouds 31 1017 33 16093 2.1 0 22:58 03.07.2020
563 Clouds 32 1017 35 16093 4.6 90 22:39 03.07.2020
564 Clouds 31 1017 35 16093 4.6 90 22:21 03.07.2020
565 Clouds 31 1018 40 16093 4.6 60 21:43 03.07.2020
566 Clouds 31 1018 40 16093 4.6 60 21:20 03.07.2020
567 Clouds 31 1018 40 16093 4.6 60 20:56 03.07.2020
568 Clouds 31 1018 40 16093 4.6 60 20:56 03.07.2020
569 Clouds 31 1018 40 16093 4.6 60 20:38 03.07.2020
570 Clouds 31 1018 40 16093 4.6 60 20:20 03.07.2020
571 Clouds 31 1018 40 16093 3.1 120 19:41 03.07.2020
572 Clouds 31 1018 40 16093 3.1 120 19:21 03.07.2020
573 Clouds 31 1018 33 16093 1.5 0 18:57 03.07.2020
574 Clouds 30 1018 33 16093 1.5 0 18:39 03.07.2020
575 Clouds 30 1018 33 16093 1.5 0 18:20 03.07.2020
576 Clouds 29 1019 45 16093 2.6 320 17:43 03.07.2020
577 Clouds 29 1019 45 16093 2.6 320 17:22 03.07.2020
578 Clouds 29 1019 48 16093 1.5 290 16:46 03.07.2020
579 Clouds 29 1019 48 16093 1.5 290 16:28 03.07.2020
580 Clouds 27 1018 57 16093 2.45 2 15:49 03.07.2020
581 Clouds 26 1018 57 16093 1.85 359 15:26 03.07.2020
582 Clouds 25 1018 57 16093 1.85 359 15:00 03.07.2020
583 Clouds 24 1018 73 16093 1.5 330 14:41 03.07.2020
584 Clouds 24 1018 73 16093 1.5 330 14:41 03.07.2020
585 Clouds 24 1018 73 16093 1.5 330 14:22 03.07.2020
586 Clouds 23 1018 83 14484 2.01 359 13:56 03.07.2020
587 Clouds 22 1018 83 14484 2.01 359 13:37 03.07.2020
588 Clouds 22 1018 83 14484 1.72 1 13:19 03.07.2020
589 Clouds 21 1018 83 16093 1.72 1 12:40 03.07.2020
590 Clouds 21 1018 83 16093 1.42 346 12:21 03.07.2020
591 Clouds 21 1017 78 16093 2.1 330 11:44 03.07.2020
592 Clouds 22 1017 78 16093 2.1 330 11:25 03.07.2020
593 Clouds 21 1017 78 16093 2.1 330 10:59 03.07.2020
594 Clouds 21 1017 78 16093 2.1 330 10:59 03.07.2020
595 Clouds 22 1017 73 16093 1.52 339 10:40 03.07.2020
596 Clouds 22 1017 73 16093 1.12 355 10:21 03.07.2020
597 Clouds 22 1017 73 16093 1.12 355 09:57 03.07.2020
598 Clouds 22 1017 78 14484 1.5 260 09:38 03.07.2020
599 Clouds 22 1017 78 14484 1.5 260 09:18 03.07.2020
600 Clouds 22 1017 73 16093 1.11 80 08:40 03.07.2020
601 Clouds 23 1017 73 16093 1.7 78 08:19 03.07.2020
602 Clear 23 1017 64 16093 2.1 110 07:52 03.07.2020
603 Clear 23 1017 64 16093 2.1 110 07:28 03.07.2020
604 Clear 23 1017 64 16093 2.1 110 06:59 03.07.2020
605 Clouds 23 1019 69 0 2.11 61 06:25 03.07.2020
606 Clouds 24 1019 70 0 1.82 57 05:28 03.07.2020
607 Clouds 26 1016 42 16093 4.6 30 03:54 03.07.2020
608 Clouds 28 1016 42 16093 4.6 50 02:50 03.07.2020
609 Clouds 28 1016 42 16093 4.6 50 02:30 03.07.2020
610 Clouds 29 1016 42 16093 5.7 40 01:30 03.07.2020
611 Clouds 30 1016 42 16093 5.7 40 00:58 03.07.2020
612 Clouds 30 1017 40 16093 5.7 30 00:40 03.07.2020
613 Clouds 31 1017 33 16093 4.1 70 23:53 02.07.2020
614 Clouds 31 1017 33 16093 4.1 70 23:21 02.07.2020
615 Clouds 32 1017 33 16093 4.1 70 22:59 02.07.2020
616 Clouds 31 1017 33 16093 5.1 80 22:41 02.07.2020
617 Clouds 32 1017 33 16093 5.1 80 22:21 02.07.2020
618 Clouds 32 1017 33 16093 5.1 80 21:58 02.07.2020
619 Clouds 32 1017 31 16093 5.1 80 21:39 02.07.2020
620 Clouds 32 1017 31 16093 5.1 80 21:19 02.07.2020
621 Clouds 32 1017 33 16093 3.1 120 20:58 02.07.2020
622 Clouds 31 1017 33 16093 3.1 120 20:39 02.07.2020
623 Clouds 32 1017 33 16093 3.1 120 20:19 02.07.2020
624 Clouds 31 1018 35 16093 4.1 90 19:42 02.07.2020
625 Clouds 31 1018 35 16093 4.1 90 19:24 02.07.2020
626 Clouds 31 1018 45 16093 4.1 70 18:58 02.07.2020
627 Clouds 30 1018 45 16093 4.1 70 18:40 02.07.2020
628 Clouds 30 1018 45 16093 4.1 70 18:21 02.07.2020
629 Clouds 29 1017 48 16093 3.6 70 17:55 02.07.2020
630 Clouds 29 1017 48 16093 3.6 70 17:36 02.07.2020
631 Clouds 28 1017 48 16093 3.6 70 17:18 02.07.2020
632 Clouds 28 1018 54 16093 3.1 90 16:42 02.07.2020
633 Clouds 28 1018 54 16093 3.1 90 16:20 02.07.2020
634 Clouds 27 1018 54 16093 3.1 90 15:57 02.07.2020
635 Clouds 27 1017 57 16093 2.6 70 15:38 02.07.2020
636 Clouds 26 1017 57 16093 2.6 70 15:38 02.07.2020
637 Clouds 26 1017 57 16093 2.6 70 15:19 02.07.2020
638 Clouds 24 1017 73 16093 2.1 50 14:45 02.07.2020
639 Clouds 24 1017 73 16093 2.1 50 14:23 02.07.2020
640 Clouds 23 1017 73 16093 2.1 50 13:57 02.07.2020
641 Clouds 22 1017 78 16093 1.5 10 13:38 02.07.2020
642 Clouds 22 1017 78 16093 1.5 10 13:18 02.07.2020
643 Clouds 22 1016 78 16093 1.5 360 12:41 02.07.2020
644 Clouds 22 1016 78 16093 1.5 360 12:22 02.07.2020
645 Clouds 22 1016 78 16093 1.5 360 11:59 02.07.2020
646 Clouds 22 1016 78 16093 1.84 85 11:40 02.07.2020
647 Clouds 22 1016 78 16093 1.84 97 11:22 02.07.2020
648 Clouds 22 1016 78 16093 1.5 40 10:44 02.07.2020
649 Clouds 23 1016 78 16093 1.5 40 10:26 02.07.2020
650 Clouds 23 1015 73 16093 1.5 30 09:56 02.07.2020
651 Clouds 23 1015 73 16093 1.5 30 09:37 02.07.2020
652 Clouds 23 1015 73 16093 1.5 30 09:18 02.07.2020
653 Clouds 23 1015 73 16093 1.5 20 08:42 02.07.2020
654 Clouds 23 1015 73 16093 1.5 20 08:22 02.07.2020
655 Clouds 23 1015 69 16093 2.1 10 07:43 02.07.2020
656 Clouds 23 1015 69 16093 2.1 10 07:25 02.07.2020
657 Clouds 23 1017 71 0 3.32 113 06:53 02.07.2020
658 Clouds 24 1016 72 0 3.32 113 06:35 02.07.2020
659 Clouds 23 1016 72 0 3.32 118 05:50 02.07.2020
660 Clouds 24 1015 57 16093 3.6 80 05:29 02.07.2020
661 Clouds 26 1013 48 16093 4.1 70 03:35 02.07.2020
662 Clouds 28 1013 45 16093 5.1 80 01:53 02.07.2020
663 Clouds 29 1013 45 16093 6.2 60 00:46 02.07.2020
664 Clouds 30 1013 45 16093 6.2 60 00:22 02.07.2020
665 Clouds 30 1013 45 16093 5.7 70 23:45 01.07.2020
666 Clouds 30 1013 45 16093 5.7 70 23:26 01.07.2020
667 Clouds 30 1013 48 16093 5.7 70 22:56 01.07.2020
668 Clouds 30 1013 48 16093 5.7 70 22:38 01.07.2020
669 Clouds 30 1013 48 16093 5.7 70 22:19 01.07.2020
670 Clouds 30 1013 48 16093 5.7 70 21:58 01.07.2020
671 Clouds 30 1013 45 16093 6.2 70 21:40 01.07.2020
672 Clouds 30 1013 45 16093 6.2 70 21:21 01.07.2020
673 Clouds 30 1014 45 16093 6.7 110 20:54 01.07.2020
674 Clouds 30 1014 45 16093 6.7 110 20:36 01.07.2020
675 Clouds 29 1014 45 16093 6.7 110 20:18 01.07.2020
676 Clouds 29 1014 38 16093 6.7 110 19:42 01.07.2020
677 Clouds 29 1014 38 16093 6.7 110 19:23 01.07.2020
678 Clouds 29 1014 48 16093 4.1 120 18:58 01.07.2020
679 Clouds 30 1014 48 16093 4.1 120 18:40 01.07.2020
680 Clouds 28 1014 48 16093 4.1 120 18:21 01.07.2020
681 Clouds 28 1014 54 16093 2.1 110 17:55 01.07.2020
682 Clouds 28 1014 54 16093 2.1 110 17:55 01.07.2020
683 Clouds 28 1014 54 16093 2.1 110 17:55 01.07.2020
684 Clouds 28 1014 54 16093 2.1 110 17:37 01.07.2020
685 Clouds 27 1014 54 16093 2.1 110 17:18 01.07.2020
686 Clouds 27 1014 61 16093 2.1 110 16:42 01.07.2020
687 Clouds 27 1014 61 16093 2.1 110 16:24 01.07.2020
688 Clouds 26 1014 65 16093 3.6 140 15:43 01.07.2020
689 Clouds 25 1014 65 16093 3.6 140 15:25 01.07.2020
690 Clouds 25 1014 65 16093 3.6 140 14:58 01.07.2020
691 Clouds 24 1013 69 16093 3.6 140 14:39 01.07.2020
692 Clouds 24 1013 69 16093 3.6 140 14:20 01.07.2020
693 Clouds 23 1013 73 16093 3.1 120 13:55 01.07.2020
694 Clouds 23 1013 73 16093 3.1 120 13:36 01.07.2020
695 Clouds 23 1013 73 16093 3.1 120 13:18 01.07.2020
696 Clouds 23 1013 69 14484 3.6 140 12:41 01.07.2020
697 Clouds 23 1013 69 14484 3.6 140 12:23 01.07.2020
698 Clouds 23 1013 69 14484 3.6 140 12:23 01.07.2020
699 Clouds 24 1012 73 14484 3.1 130 11:58 01.07.2020
700 Clouds 24 1012 73 14484 3.1 130 11:40 01.07.2020
701 Clouds 24 1012 73 14484 3.1 130 11:21 01.07.2020
702 Clouds 24 1012 83 14484 3.1 110 10:55 01.07.2020
703 Clouds 24 1012 83 14484 3.1 110 10:55 01.07.2020
704 Clouds 24 1012 83 14484 3.1 110 10:36 01.07.2020
705 Clouds 24 1012 83 14484 3.1 110 10:18 01.07.2020
706 Clouds 24 1012 83 14484 1.5 80 09:38 01.07.2020
707 Rain 24 1012 83 14484 1.5 80 09:20 01.07.2020
708 Rain 24 1012 83 14484 1.5 80 09:20 01.07.2020
709 Rain 24 1012 83 14484 1.5 80 08:57 01.07.2020
710 Rain 24 1012 83 14484 2.6 90 08:39 01.07.2020
711 Clouds 24 1012 83 14484 2.6 90 08:19 01.07.2020
712 Clouds 24 1012 78 14484 2.6 90 07:41 01.07.2020
713 Clouds 24 1012 78 14484 2.6 90 07:22 01.07.2020
714 Clouds 24 1014 81 0 4.96 107 06:54 01.07.2020
715 Clear 25 1012 74 14484 2.6 70 06:32 01.07.2020
716 Clouds 25 1012 74 16093 2.1 50 05:44 01.07.2020
717 Clouds 25 1012 74 16093 4.31 114 04:26 01.07.2020
718 Clouds 26 1013 74 16093 3.1 190 03:40 01.07.2020
719 Thunderstorm 26 1013 74 16093 3.6 180 03:20 01.07.2020
720 Clouds 29 1011 58 16093 5.7 80 01:56 01.07.2020
721 Clouds 30 1011 52 16093 6.2 70 00:48 01.07.2020
722 Clouds 30 1011 52 16093 6.2 70 00:28 01.07.2020
723 Clouds 30 1011 58 16093 6.2 80 23:59 30.06.2020
724 Clouds 30 1011 58 16093 6.2 80 23:39 30.06.2020
725 Clouds 31 1011 58 16093 6.2 80 23:19 30.06.2020
726 Clouds 31 1012 58 16093 5.1 80 22:42 30.06.2020
727 Clouds 30 1012 58 16093 5.1 80 22:19 30.06.2020
728 Clouds 31 1013 58 16093 5.1 80 21:43 30.06.2020
729 Clouds 31 1013 58 16093 5.1 80 21:19 30.06.2020
730 Clouds 30 1013 58 16093 2.6 70 20:59 30.06.2020
731 Clouds 31 1013 58 16093 2.6 70 20:40 30.06.2020
732 Clouds 30 1013 58 16093 2.6 70 20:20 30.06.2020
733 Clouds 30 1014 66 16093 3.1 130 19:43 30.06.2020
734 Clouds 29 1014 66 16093 3.1 130 19:20 30.06.2020
735 Clouds 29 1014 62 16093 2.1 130 18:57 30.06.2020
736 Clouds 28 1014 62 16093 2.1 130 18:38 30.06.2020
737 Clouds 29 1014 62 16093 2.1 130 18:20 30.06.2020
738 Clouds 29 1014 62 16093 1.5 100 17:39 30.06.2020
739 Clouds 27 1014 62 16093 1.5 100 17:20 30.06.2020
740 Clouds 27 1013 74 16093 1.5 140 16:57 30.06.2020
741 Clouds 28 1013 74 16093 1.5 140 16:38 30.06.2020
742 Clouds 27 1013 74 16093 1.5 140 16:19 30.06.2020
743 Clouds 25 1014 74 16093 2.1 160 15:54 30.06.2020
744 Rain 25 1014 74 16093 2.1 160 15:36 30.06.2020
745 Rain 25 1014 74 16093 2.1 160 15:18 30.06.2020
746 Clouds 24 1013 83 16093 2.58 231 14:41 30.06.2020
747 Clouds 24 1013 83 16093 3.04 236 14:21 30.06.2020
748 Clouds 23 1014 83 16093 3.04 236 13:42 30.06.2020
749 Clouds 23 1014 83 16093 3.69 231 13:21 30.06.2020
750 Clouds 23 1014 83 16093 3.69 231 12:59 30.06.2020
751 Clouds 23 1013 83 16093 2.1 180 12:41 30.06.2020
752 Clouds 23 1013 83 16093 2.1 180 12:23 30.06.2020
753 Clouds 23 1013 83 16093 2.1 180 11:59 30.06.2020
754 Clouds 23 1013 83 16093 2.6 160 11:39 30.06.2020
755 Clouds 23 1013 83 16093 2.6 160 11:20 30.06.2020
756 Clouds 23 1013 83 16093 2.6 160 10:59 30.06.2020
757 Clouds 26 1009 78 16093 1.5 110 16:45 28.06.2020
758 Rain 26 1009 78 16093 1.5 110 16:27 28.06.2020
759 Rain 25 1009 78 16093 1.5 110 15:59 28.06.2020
760 Rain 24 1010 88 16093 2.1 240 15:39 28.06.2020
761 Clouds 24 1010 88 16093 2.1 240 15:20 28.06.2020
762 Clouds 24 1009 88 16093 2.1 240 14:55 28.06.2020
763 Clouds 23 1009 88 16093 2.1 240 14:37 28.06.2020
764 Clouds 23 1009 88 16093 2.1 220 14:19 28.06.2020
765 Clouds 22 1008 94 16093 2.1 160 13:38 28.06.2020
766 Clouds 22 1008 94 16093 2.6 140 13:20 28.06.2020
767 Clouds 22 1008 94 16093 2.1 150 12:57 28.06.2020
768 Clouds 22 1008 94 16093 2.1 150 12:37 28.06.2020
769 Clouds 22 1008 94 16093 2.1 150 12:19 28.06.2020
770 Clouds 22 1008 88 16093 1.5 190 11:57 28.06.2020
771 Clouds 22 1008 88 16093 1.5 190 11:57 28.06.2020
772 Clouds 22 1008 88 16093 1.5 190 11:39 28.06.2020
773 Clouds 22 1008 88 16093 1.5 190 11:20 28.06.2020
774 Clouds 22 1008 88 16093 2.76 92 10:56 28.06.2020
775 Clouds 22 1008 88 16093 2.76 92 10:38 28.06.2020
776 Clouds 22 1008 88 16093 2.52 89 10:19 28.06.2020
777 Clouds 22 1008 88 16093 2.1 230 09:40 28.06.2020
778 Clouds 23 1008 88 16093 2.1 230 09:21 28.06.2020
779 Rain 23 1008 88 16093 2.6 240 08:48 28.06.2020
780 Rain 23 1008 88 16093 2.6 240 08:28 28.06.2020
781 Clouds 23 1009 83 16093 3.1 250 07:50 28.06.2020
782 Clouds 24 1009 83 16093 3.1 250 07:30 28.06.2020
783 Clouds 24 1009 73 16093 3.1 240 06:45 28.06.2020
784 Clouds 24 1009 73 16093 3.1 240 06:26 28.06.2020
785 Clouds 25 1008 69 16093 4.1 230 05:27 28.06.2020
786 Clouds 27 1008 74 16093 5.7 220 03:45 28.06.2020
787 Clouds 29 1008 51 16093 4.1 240 02:47 28.06.2020
788 Clouds 30 1007 45 16093 4.1 270 01:56 28.06.2020
789 Clouds 30 1007 45 16093 4.1 270 01:27 28.06.2020
790 Rain 30 1007 48 16093 6.2 230 00:48 28.06.2020
791 Clouds 31 1007 48 16093 6.2 230 00:26 28.06.2020
792 Clouds 31 1007 48 16093 2.1 320 23:42 27.06.2020
793 Clouds 31 1007 48 16093 2.1 320 23:24 27.06.2020
794 Clouds 31 1007 48 16093 2.1 320 23:24 27.06.2020
795 Rain 31 1008 48 16093 1.82 45 22:58 27.06.2020
796 Rain 31 1008 48 16093 1.82 45 22:40 27.06.2020
797 Rain 32 1008 48 16093 0.96 31 22:21 27.06.2020
798 Clouds 31 1008 54 16093 2.6 0 21:55 27.06.2020
799 Clouds 30 1008 54 16093 2.6 0 21:37 27.06.2020
800 Clouds 30 1008 54 16093 2.6 0 21:19 27.06.2020
801 Clouds 31 1009 62 16093 3.6 240 20:43 27.06.2020
802 Clouds 31 1009 62 16093 3.6 240 20:19 27.06.2020
803 Rain 31 1011 55 0 0.15 265 19:55 27.06.2020
804 Rain 30 1011 55 0 0.15 265 19:36 27.06.2020
805 Rain 30 1011 57 0 1.03 236 19:18 27.06.2020
806 Rain 29 1011 61 0 1.03 236 18:45 27.06.2020
807 Rain 29 1010 74 16093 3.6 230 18:25 27.06.2020
808 Rain 29 1011 65 0 1.94 231 17:57 27.06.2020
809 Clouds 28 1011 67 0 1.94 231 17:38 27.06.2020
810 Clouds 28 1011 69 0 2.25 231 17:19 27.06.2020
811 Clouds 26 1011 73 0 2.25 231 16:43 27.06.2020
812 Clouds 25 1009 83 16093 4.1 260 16:25 27.06.2020
813 Clouds 24 1009 88 16093 4.1 260 15:55 27.06.2020
814 Clouds 24 1009 88 16093 4.1 260 15:37 27.06.2020
815 Clouds 23 1009 88 16093 4.1 260 15:18 27.06.2020
816 Clouds 22 1010 94 16093 3.6 220 14:42 27.06.2020
817 Rain 22 1010 94 16093 3.6 220 14:24 27.06.2020
818 Rain 22 1010 94 16093 3.6 220 13:57 27.06.2020
819 Rain 22 1009 100 14484 3.1 210 13:37 27.06.2020
820 Clouds 22 1009 100 14484 3.1 210 13:19 27.06.2020
821 Clouds 22 1010 94 16093 1.5 230 12:56 27.06.2020
822 Clouds 22 1010 94 16093 1.5 230 12:37 27.06.2020
823 Clouds 22 1010 94 16093 1.5 230 12:19 27.06.2020
824 Rain 22 1010 94 16093 3.1 200 11:42 27.06.2020
825 Rain 22 1010 94 16093 3.1 200 11:24 27.06.2020
826 Clouds 22 1010 94 16093 3.1 200 10:59 27.06.2020
827 Clouds 22 1010 94 16093 2.6 230 10:38 27.06.2020
828 Clouds 22 1010 94 16093 2.6 230 10:18 27.06.2020
829 Clouds 22 1010 94 16093 3.1 250 09:41 27.06.2020
830 Clouds 22 1010 94 16093 3.1 250 09:21 27.06.2020
831 Clouds 22 1010 94 16093 4.6 250 08:56 27.06.2020
832 Clouds 22 1010 94 16093 4.6 250 08:38 27.06.2020
833 Rain 22 1012 96 0 4.67 267 08:19 27.06.2020
834 Rain 22 1011 94 16093 4.6 240 07:38 27.06.2020
835 Rain 22 1011 94 16093 4.6 240 07:19 27.06.2020
836 Rain 22 1010 94 16093 5.7 250 06:38 27.06.2020
837 Clouds 22 1012 96 0 6.74 265 06:18 27.06.2020
838 Rain 22 1010 94 14484 6.2 260 04:22 27.06.2020
839 Rain 22 1010 100 6437 6.7 270 03:51 27.06.2020
840 Rain 21 1012 92 0 3.58 3 02:48 27.06.2020
841 Thunderstorm 27 1008 54 16093 4.6 240 02:28 27.06.2020
842 Rain 27 1008 66 16093 4.1 180 01:41 27.06.2020
843 Rain 26 1010 69 16093 10.08 250 00:54 27.06.2020
844 Rain 26 1010 69 16093 7.34 238 00:18 27.06.2020
845 Rain 26 1011 69 16093 2.6 240 23:41 26.06.2020
846 Rain 26 1011 69 16093 2.6 240 23:21 26.06.2020
847 Rain 26 1011 61 16093 6.2 200 22:55 26.06.2020
848 Clouds 26 1011 61 16093 6.2 200 22:36 26.06.2020
849 Rain 26 1011 61 16093 6.2 200 22:18 26.06.2020
850 Rain 25 1013 83 16093 4.6 210 21:56 26.06.2020
851 Rain 24 1013 83 16093 4.6 210 21:36 26.06.2020
852 Rain 23 1013 83 16093 4.6 210 21:18 26.06.2020
853 Rain 23 1013 83 16093 4.6 210 21:18 26.06.2020
854 Rain 22 1014 91 0 0.45 323 20:41 26.06.2020
855 Rain 21 1013 94 14484 2.6 150 20:19 26.06.2020
856 Rain 21 1016 90 0 4.67 221 19:41 26.06.2020
857 Rain 21 1017 88 0 4.09 215 19:23 26.06.2020
858 Rain 21 1017 84 0 4.09 215 18:45 26.06.2020
859 Rain 22 1014 69 16093 3.6 210 18:26 26.06.2020
860 Rain 22 1015 69 16093 3.1 210 17:58 26.06.2020
861 Rain 22 1015 69 16093 3.1 210 17:58 26.06.2020
862 Rain 22 1015 69 16093 3.1 210 17:40 26.06.2020
863 Rain 22 1015 69 16093 3.1 210 17:22 26.06.2020
864 Rain 21 1015 73 16093 3.6 210 16:46 26.06.2020
865 Rain 21 1015 73 16093 3.6 210 16:23 26.06.2020
866 Rain 21 1015 73 14484 2.6 190 15:54 26.06.2020
867 Rain 21 1015 73 14484 2.6 190 15:36 26.06.2020
868 Rain 21 1015 73 14484 2.6 190 15:18 26.06.2020
869 Clouds 23 1015 53 16093 3.1 200 14:40 26.06.2020
870 Clouds 23 1015 53 16093 3.1 200 14:22 26.06.2020
871 Clouds 22 1015 53 16093 3.1 200 13:57 26.06.2020
872 Clouds 22 1015 56 16093 2.6 210 13:38 26.06.2020
873 Clouds 22 1015 56 16093 2.6 210 13:18 26.06.2020
874 Clouds 21 1015 60 16093 2.6 200 12:41 26.06.2020
875 Clouds 21 1015 60 16093 2.6 200 12:23 26.06.2020
876 Clouds 21 1015 60 16093 2.6 200 12:23 26.06.2020
877 Clouds 20 1017 69 0 3.31 205 11:58 26.06.2020
878 Clouds 20 1015 64 16093 2.1 210 11:39 26.06.2020
879 Clouds 20 1015 64 16093 2.1 210 11:21 26.06.2020
880 Clouds 21 1015 64 16093 2.1 210 10:58 26.06.2020
881 Clouds 21 1015 60 16093 2.1 210 10:38 26.06.2020
882 Clouds 21 1015 60 16093 2.1 210 10:19 26.06.2020
883 Clouds 21 1015 60 16093 2.6 210 09:44 26.06.2020
884 Clouds 21 1015 60 16093 2.6 210 09:25 26.06.2020
885 Clouds 21 1015 60 16093 2.6 210 08:56 26.06.2020
886 Clouds 21 1017 68 0 3.89 224 08:29 26.06.2020
887 Clouds 22 1015 50 16093 3.62 220 07:53 26.06.2020
888 Clouds 22 1015 50 16093 3.32 223 07:25 26.06.2020
889 Clouds 22 1015 56 16093 3.32 223 06:59 26.06.2020
890 Clouds 22 1015 56 16093 3.32 223 06:41 26.06.2020
891 Clouds 22 1015 56 16093 2.63 221 06:23 26.06.2020
892 Clouds 22 1014 50 16093 2.63 221 05:48 26.06.2020
893 Rain 23 1016 57 0 1.78 181 03:55 26.06.2020
894 Clouds 26 1014 41 16093 3.6 90 02:22 26.06.2020
895 Clouds 26 1013 44 16093 5.1 100 01:20 26.06.2020
896 Clouds 26 1014 41 16093 5.1 90 00:41 26.06.2020
897 Clouds 27 1014 41 16093 5.1 90 00:19 26.06.2020
898 Clouds 27 1014 42 16093 5.1 90 23:42 25.06.2020
899 Clouds 27 1014 42 16093 5.1 90 23:18 25.06.2020
900 Clouds 27 1014 39 16093 5.1 80 22:56 25.06.2020
901 Clouds 27 1014 39 16093 5.1 80 22:37 25.06.2020
902 Clouds 27 1014 39 16093 5.1 80 22:18 25.06.2020
903 Clouds 27 1015 37 16093 4.6 280 21:56 25.06.2020
904 Clouds 27 1015 37 16093 4.6 280 21:56 25.06.2020
905 Clouds 28 1015 37 16093 4.6 280 21:38 25.06.2020
906 Clouds 28 1015 37 16093 4.6 280 21:19 25.06.2020
907 Clouds 27 1015 37 16093 4.6 280 21:19 25.06.2020
908 Clouds 27 1015 39 16093 3.6 290 20:44 25.06.2020
909 Clouds 26 1015 39 16093 3.6 290 20:24 25.06.2020
910 Clouds 26 1015 44 16093 5.1 310 19:58 25.06.2020
911 Clouds 27 1015 44 16093 5.1 310 19:39 25.06.2020
912 Clouds 27 1015 44 16093 5.1 310 19:39 25.06.2020
913 Clouds 26 1015 44 16093 5.1 310 19:19 25.06.2020
914 Clouds 26 1016 44 16093 2.6 290 18:56 25.06.2020
915 Clouds 26 1016 44 16093 2.6 290 18:37 25.06.2020
916 Clouds 26 1016 44 16093 2.6 290 18:19 25.06.2020
917 Clear 25 1016 44 0 1.34 294 17:41 25.06.2020
918 Clouds 25 1015 47 16093 3.6 310 17:19 25.06.2020
919 Clouds 24 1015 49 16093 3.6 280 16:55 25.06.2020
920 Clouds 23 1015 49 16093 3.6 280 16:36 25.06.2020
921 Clouds 23 1015 49 16093 3.6 280 16:18 25.06.2020
922 Clouds 22 1015 60 16093 3.6 300 15:41 25.06.2020
923 Clouds 21 1015 60 16093 3.6 300 15:19 25.06.2020
924 Clouds 20 1014 68 16093 2.1 320 14:43 25.06.2020
925 Clouds 19 1014 68 16093 2.1 320 14:23 25.06.2020
926 Clouds 18 1014 77 16093 1.5 290 13:56 25.06.2020
927 Clouds 18 1014 77 16093 1.5 290 13:37 25.06.2020
928 Clouds 17 1014 77 16093 1.5 290 13:19 25.06.2020
929 Clouds 17 1013 77 16093 2.1 290 12:44 25.06.2020
930 Clouds 17 1013 77 16093 2.1 290 12:20 25.06.2020
931 Clouds 17 1013 77 16093 2.1 290 11:58 25.06.2020
932 Clouds 17 1013 72 16093 2.6 270 11:38 25.06.2020
933 Clouds 17 1013 72 16093 2.6 270 11:20 25.06.2020
934 Clouds 17 1013 72 16093 2.6 270 11:20 25.06.2020
935 Clouds 18 1012 63 16093 3.1 270 10:42 25.06.2020
936 Clouds 18 1012 63 16093 3.1 270 10:23 25.06.2020
937 Clouds 19 1012 63 16093 3.1 270 09:41 25.06.2020
938 Clouds 19 1012 63 16093 3.1 270 09:23 25.06.2020
939 Clouds 19 1012 59 16093 3.1 250 08:49 25.06.2020
940 Clouds 19 1012 59 16093 3.1 250 08:21 25.06.2020
941 Clouds 19 1012 56 16093 2.1 260 07:57 25.06.2020
942 Rain 19 1012 56 16093 2.1 260 07:38 25.06.2020
943 Rain 19 1012 56 16093 2.1 260 07:38 25.06.2020
944 Rain 20 1012 56 16093 2.1 260 07:20 25.06.2020
945 Clouds 20 1012 49 16093 2.6 270 06:30 25.06.2020
946 Clouds 20 1011 43 16093 3.1 270 05:55 25.06.2020
947 Clouds 21 1011 43 16093 3.1 270 05:29 25.06.2020
948 Clouds 23 1010 38 16093 4.6 290 03:36 25.06.2020
949 Clouds 23 1010 41 16093 5.1 290 02:45 25.06.2020
950 Clouds 23 1010 41 16093 5.1 290 02:19 25.06.2020
951 Clouds 23 1010 50 16093 2.1 120 01:35 25.06.2020
952 Clouds 24 1010 56 16093 3.1 100 00:50 25.06.2020
953 Clouds 24 1010 56 16093 3.1 100 00:22 25.06.2020
954 Clouds 25 1011 60 16093 3.1 100 23:58 24.06.2020
955 Clouds 24 1011 60 16093 3.1 100 23:37 24.06.2020
956 Clouds 24 1011 60 16093 3.1 100 23:19 24.06.2020
957 Rain 23 1011 64 16093 5.7 130 22:41 24.06.2020
958 Rain 22 1011 64 16093 5.7 130 22:20 24.06.2020
959 Rain 21 1011 64 16093 5.7 130 21:57 24.06.2020
960 Rain 22 1011 36 16093 5.1 270 21:37 24.06.2020
961 Rain 23 1011 36 16093 5.7 270 21:19 24.06.2020
962 Rain 24 1011 39 16093 3.6 270 20:58 24.06.2020
963 Clouds 23 1011 39 16093 3.6 270 20:39 24.06.2020
964 Clouds 23 1011 39 16093 3.6 270 20:21 24.06.2020
965 Clouds 25 1011 39 16093 3.6 270 19:57 24.06.2020
966 Clouds 24 1011 44 16093 5.1 310 19:38 24.06.2020
967 Clouds 25 1011 44 16093 5.1 310 19:20 24.06.2020
968 Clouds 24 1012 44 16093 5.7 290 18:58 24.06.2020
969 Clouds 25 1012 44 16093 5.7 290 18:39 24.06.2020
970 Clouds 24 1012 44 16093 5.7 290 18:20 24.06.2020
971 Clouds 24 1012 53 16093 4.6 270 17:55 24.06.2020
972 Clouds 23 1012 53 16093 4.6 270 17:37 24.06.2020
973 Clouds 23 1012 53 16093 4.6 270 17:18 24.06.2020
974 Clear 23 1012 54 0 2.24 312 16:55 24.06.2020
975 Clouds 22 1012 60 16093 3.6 290 16:37 24.06.2020
976 Clouds 22 1012 60 16093 3.6 290 16:19 24.06.2020
977 Clear 21 1012 53 0 2.68 339 15:54 24.06.2020
978 Clear 21 1012 59 0 1.79 352 15:36 24.06.2020
979 Clouds 20 1012 68 16093 3.1 290 15:18 24.06.2020
980 Clouds 18 1012 77 16093 3.6 280 14:40 24.06.2020
981 Clouds 18 1012 77 16093 3.6 280 14:22 24.06.2020
982 Clouds 17 1011 82 16093 2.6 280 13:42 24.06.2020
983 Rain 16 1011 82 16093 2.6 280 13:21 24.06.2020
984 Rain 16 1014 86 0 3.44 298 12:45 24.06.2020
985 Clouds 16 1011 82 16093 1.5 290 12:21 24.06.2020
986 Clouds 16 1011 82 16093 1.5 260 11:58 24.06.2020
987 Clouds 16 1011 82 16093 1.5 260 11:40 24.06.2020
988 Clouds 16 1011 82 16093 1.5 260 11:21 24.06.2020
989 Clouds 17 1010 77 16093 1.5 290 10:47 24.06.2020
990 Clouds 17 1010 77 16093 1.5 290 10:20 24.06.2020
991 Clouds 17 1010 77 16093 1.5 290 09:56 24.06.2020
992 Clouds 17 1010 77 16093 1.5 290 09:38 24.06.2020
993 Clouds 17 1010 77 16093 1.5 290 09:19 24.06.2020
994 Clouds 17 1010 77 16093 1.77 332 08:40 24.06.2020
995 Clouds 17 1010 77 16093 2.1 120 08:19 24.06.2020
996 Clouds 17 1010 77 16093 2.1 120 07:48 24.06.2020
997 Clouds 17 1010 77 16093 2.1 120 07:25 24.06.2020
998 Rain 18 1010 72 16093 2.1 10 06:46 24.06.2020
999 Clouds 18 1010 72 16093 2.1 10 06:24 24.06.2020
1000 Clouds 18 1010 72 16093 2.1 10 06:24 24.06.2020
1001 Clouds 18 1010 68 16093 3.1 343 05:45 24.06.2020
1002 Clouds 18 1009 68 16093 3.1 40 04:39 24.06.2020
1003 Rain 19 1009 56 16093 8.2 30 03:39 24.06.2020
1004 Clouds 20 1008 44 16093 5.1 300 03:18 24.06.2020
1005 Clouds 24 1008 44 16093 5.1 300 02:36 24.06.2020
1006 Clouds 24 1008 38 16093 5.7 300 00:53 24.06.2020
1007 Clouds 24 1008 38 16093 5.7 300 00:53 24.06.2020
1008 Clouds 25 1008 38 16093 5.7 300 00:34 24.06.2020
1009 Rain 25 1010 44 0 0.45 78 23:49 23.06.2020
1010 Rain 24 1010 43 0 0.89 320 23:24 23.06.2020
1011 Clouds 25 1008 36 16093 8.2 290 22:59 23.06.2020
1012 Clouds 24 1008 36 16093 8.2 290 22:41 23.06.2020
1013 Clouds 25 1008 36 16093 8.2 290 22:19 23.06.2020
1014 Clouds 25 1008 38 16093 7.2 290 21:57 23.06.2020
1015 Rain 25 1008 38 16093 7.2 290 21:38 23.06.2020
1016 Rain 24 1008 38 16093 7.2 290 21:18 23.06.2020
1017 Rain 24 1008 49 16093 6.2 300 20:55 23.06.2020
1018 Clouds 24 1008 49 16093 6.2 300 20:36 23.06.2020
1019 Clouds 24 1008 49 16093 6.2 300 20:18 23.06.2020
1020 Clouds 23 1010 55 0 0.45 349 19:42 23.06.2020
1021 Clouds 23 1008 53 16093 6.7 310 19:23 23.06.2020
1022 Clouds 22 1008 60 16093 5.7 310 18:39 23.06.2020
1023 Clouds 22 1008 60 16093 5.7 310 18:19 23.06.2020
1024 Clouds 21 1008 60 16093 6.7 290 17:44 23.06.2020
1025 Clouds 20 1008 64 16093 5.1 290 17:25 23.06.2020
1026 Clouds 20 1010 71 0 0.45 353 16:57 23.06.2020
1027 Clouds 19 1010 72 0 1.79 48 16:38 23.06.2020
1028 Clouds 19 1007 77 16093 4.6 300 16:20 23.06.2020
1029 Clouds 18 1007 77 16093 4.6 300 15:59 23.06.2020
1030 Clouds 18 1007 77 16093 4.6 300 15:41 23.06.2020
1031 Clouds 18 1007 77 16093 4.6 300 15:22 23.06.2020
1032 Clouds 18 1006 82 16093 5.7 310 14:43 23.06.2020
1033 Rain 17 1006 82 16093 5.7 310 14:20 23.06.2020
1034 Rain 17 1006 82 16093 5.7 310 14:20 23.06.2020
1035 Rain 17 1006 88 16093 4.6 290 13:58 23.06.2020
1036 Rain 17 1006 88 16093 4.6 290 13:40 23.06.2020
1037 Clouds 17 1007 86 0 3.13 341 13:22 23.06.2020
1038 Clouds 17 1007 86 0 3.13 312 12:45 23.06.2020
1039 Rain 17 1006 87 0 3.58 337 12:23 23.06.2020
1040 Rain 18 1007 88 0 0.89 345 11:59 23.06.2020
1041 Rain 18 1007 88 0 1.79 316 11:40 23.06.2020
1042 Clouds 18 1007 89 0 1.34 349 11:19 23.06.2020
1043 Clouds 18 1007 89 0 1.34 325 10:58 23.06.2020
1044 Clouds 18 1007 90 0 1.79 360 10:39 23.06.2020
1045 Clouds 18 1007 90 0 0.45 345 10:21 23.06.2020
1046 Clouds 18 1007 90 0 0.45 345 10:21 23.06.2020
1047 Rain 19 1007 92 0 4.1 280 09:43 23.06.2020
1048 Rain 19 1007 91 0 1.53 199 09:21 23.06.2020
1049 Rain 19 1007 91 0 1.53 199 08:59 23.06.2020
1050 Rain 19 1008 91 0 1.53 199 08:41 23.06.2020
1051 Rain 19 1007 93 16093 4.1 220 08:22 23.06.2020
1052 Rain 19 1007 93 16093 4.1 220 07:43 23.06.2020
1053 Rain 19 1007 93 16093 4.1 220 07:22 23.06.2020
1054 Rain 19 1007 100 16093 2.1 230 06:50 23.06.2020
1055 Rain 19 1007 100 16093 2.1 230 06:31 23.06.2020
1056 Rain 19 1007 94 16093 4.6 170 05:45 23.06.2020
1057 Rain 19 1009 100 11265 5.1 160 04:39 23.06.2020
1058 Rain 21 1011 90 0 4.68 259 03:18 23.06.2020
1059 Rain 21 1007 88 6437 1.5 170 02:42 23.06.2020
1060 Rain 21 1007 78 14484 4.1 170 02:24 23.06.2020
1061 Rain 22 1007 78 16093 2.6 20 01:43 23.06.2020
1062 Rain 22 1007 78 16093 2.6 20 01:20 23.06.2020
1063 Rain 22 1007 78 16093 3.1 200 00:24 23.06.2020
1064 Rain 24 1008 57 16093 3.6 160 23:58 22.06.2020
1065 Rain 25 1008 57 16093 3.6 160 23:39 22.06.2020
1066 Clouds 26 1008 57 16093 3.6 160 23:19 22.06.2020
1067 Clouds 28 1008 57 16093 4.1 180 22:57 22.06.2020
1068 Clouds 29 1008 57 16093 4.1 180 22:39 22.06.2020
1069 Clouds 28 1008 57 16093 4.1 180 22:20 22.06.2020
1070 Clouds 25 1009 60 16093 6.2 200 21:58 22.06.2020
1071 Clouds 25 1009 60 16093 6.2 200 21:39 22.06.2020
1072 Rain 25 1009 57 16093 6.7 190 21:21 22.06.2020
1073 Rain 26 1009 58 16093 6.2 190 20:44 22.06.2020
1074 Rain 28 1009 58 16093 6.2 190 20:26 22.06.2020
1075 Clouds 29 1010 61 16093 4.1 180 19:59 22.06.2020
1076 Clouds 29 1010 61 16093 4.1 180 19:41 22.06.2020
1077 Clouds 30 1010 57 0 1.34 235 19:19 22.06.2020
1078 Clouds 28 1012 63 0 2.99 231 18:42 22.06.2020
1079 Clouds 28 1012 66 0 0.45 168 18:24 22.06.2020
1080 Clouds 26 1011 69 16093 5.1 210 17:57 22.06.2020
1081 Clouds 26 1011 69 16093 5.1 210 17:39 22.06.2020
1082 Clouds 26 1011 69 16093 5.1 210 17:21 22.06.2020
1083 Clouds 26 1013 68 0 0.45 212 16:59 22.06.2020
1084 Clouds 26 1013 69 0 0.45 199 16:40 22.06.2020
1085 Clouds 25 1011 78 14484 2.6 220 16:18 22.06.2020
1086 Clouds 25 1013 73 0 3.54 183 15:54 22.06.2020
1087 Clouds 25 1013 75 0 3.54 183 15:36 22.06.2020
1088 Clouds 24 1012 70 0 1.34 220 15:18 22.06.2020
1089 Clouds 23 1013 77 0 3.72 186 14:39 22.06.2020
1090 Clouds 23 1011 83 12874 1.5 230 14:20 22.06.2020
1091 Clouds 22 1011 88 14484 2.6 170 13:54 22.06.2020
1092 Clouds 22 1011 88 14484 2.6 170 13:36 22.06.2020
1093 Clouds 21 1011 88 14484 2.6 170 13:18 22.06.2020
1094 Clouds 21 1011 88 16093 2.1 180 12:41 22.06.2020
1095 Clouds 21 1011 88 16093 2.1 180 12:22 22.06.2020
1096 Clouds 21 1011 88 16093 2.6 210 11:38 22.06.2020
1097 Clouds 21 1011 88 16093 2.6 210 11:20 22.06.2020
1098 Clouds 22 1012 83 16093 2.6 190 10:57 22.06.2020
1099 Clouds 22 1012 83 16093 2.6 190 10:39 22.06.2020
1100 Clouds 22 1012 83 16093 2.6 190 10:19 22.06.2020
1101 Clouds 22 1012 83 16093 3.1 190 09:59 22.06.2020
1102 Clouds 22 1012 83 16093 3.1 190 09:41 22.06.2020
1103 Clouds 22 1012 83 16093 3.1 190 09:20 22.06.2020
1104 Clouds 23 1012 78 16093 3.1 160 08:57 22.06.2020
1105 Clouds 23 1012 78 16093 3.1 160 08:38 22.06.2020
1106 Clouds 23 1012 78 16093 3.1 160 08:20 22.06.2020
1107 Clouds 23 1012 78 16093 2.6 180 07:50 22.06.2020
1108 Clouds 23 1012 78 16093 2.6 180 07:31 22.06.2020
1109 Clouds 23 1012 69 16093 2.6 190 06:44 22.06.2020
1110 Clouds 23 1012 69 16093 2.6 190 06:25 22.06.2020
1111 Clouds 24 1011 64 16093 2.6 160 05:43 22.06.2020
1112 Clear 24 1012 74 0 3.97 104 03:48 22.06.2020
1113 Clouds 26 1011 57 16093 3.6 160 02:28 22.06.2020
1114 Clouds 25 1011 57 16093 3.6 140 01:21 22.06.2020
1115 Clouds 25 1013 54 16093 7.2 110 00:39 22.06.2020
1116 Clouds 26 1012 54 16093 3.6 110 23:58 21.06.2020
1117 Clouds 27 1012 54 16093 3.6 110 23:39 21.06.2020
1118 Clouds 27 1012 54 16093 3.6 110 23:20 21.06.2020
1119 Clouds 27 1012 54 16093 4.6 110 22:57 21.06.2020
1120 Clouds 27 1012 54 16093 4.6 110 22:37 21.06.2020
1121 Clouds 28 1012 54 16093 4.6 110 22:19 21.06.2020
1122 Clouds 28 1013 54 16093 3.1 0 21:57 21.06.2020
1123 Clouds 27 1013 54 16093 3.1 0 21:39 21.06.2020
1124 Clouds 28 1013 54 16093 3.1 0 21:20 21.06.2020
1125 Clouds 27 1013 57 16093 4.1 90 20:57 21.06.2020
1126 Clouds 27 1013 57 16093 4.1 90 20:37 21.06.2020
1127 Clouds 28 1013 57 16093 4.1 90 20:18 21.06.2020
1128 Clouds 28 1013 57 16093 2.1 190 19:55 21.06.2020
1129 Clouds 28 1013 57 16093 2.1 190 19:37 21.06.2020
1130 Clouds 27 1013 57 16093 2.1 190 19:18 21.06.2020
1131 Clouds 28 1013 61 16093 1.5 180 18:40 21.06.2020
1132 Clouds 26 1013 61 16093 1.5 180 18:22 21.06.2020
1133 Clouds 27 1013 69 16093 0.34 270 17:59 21.06.2020
1134 Clouds 27 1013 69 16093 0.34 270 17:38 21.06.2020
1135 Clouds 25 1013 69 16093 1.03 256 17:19 21.06.2020
1136 Clouds 25 1013 73 16093 3.1 320 16:41 21.06.2020
1137 Clouds 24 1013 73 16093 3.1 320 16:23 21.06.2020
1138 Clouds 23 1013 78 16093 2.1 250 15:57 21.06.2020
1139 Clouds 23 1013 78 14484 3.1 280 15:37 21.06.2020
1140 Clouds 23 1013 78 14484 3.1 280 15:19 21.06.2020
1141 Clouds 22 1013 88 14484 3.1 260 14:39 21.06.2020
1142 Clouds 22 1013 88 14484 3.1 260 14:20 21.06.2020
1143 Clouds 21 1012 94 14484 3.1 240 13:57 21.06.2020
1144 Clouds 21 1012 94 14484 3.1 240 13:39 21.06.2020
1145 Clouds 21 1012 94 14484 3.1 240 13:19 21.06.2020
1146 Clouds 21 1012 94 16093 3.6 240 12:44 21.06.2020
1147 Clouds 21 1012 94 16093 3.6 240 12:26 21.06.2020
1148 Clouds 21 1011 94 16093 2.6 230 11:59 21.06.2020
1149 Clouds 21 1011 94 16093 2.6 230 11:41 21.06.2020
1150 Clouds 20 1011 94 16093 2.6 230 11:23 21.06.2020
1151 Rain 21 1012 94 16093 3.6 240 10:57 21.06.2020
1152 Rain 21 1012 94 16093 3.6 240 10:38 21.06.2020
1153 Clouds 21 1012 94 16093 3.6 240 10:20 21.06.2020
1154 Clouds 21 1012 94 16093 4.1 240 09:41 21.06.2020
1155 Clouds 21 1012 94 16093 4.1 240 09:22 21.06.2020
1156 Rain 21 1012 94 14484 3.1 230 08:57 21.06.2020
1157 Rain 21 1012 94 14484 3.1 230 08:57 21.06.2020
1158 Rain 21 1012 94 14484 3.1 230 08:39 21.06.2020
1159 Rain 21 1012 94 14484 3.1 230 08:19 21.06.2020
1160 Rain 21 1012 94 16093 3.1 200 07:41 21.06.2020
1161 Rain 21 1012 94 16093 3.1 200 07:23 21.06.2020
1162 Rain 21 1012 88 16093 4.1 200 06:50 21.06.2020
1163 Rain 22 1012 88 16093 4.1 200 06:18 21.06.2020
1164 Rain 21 1013 88 11265 3.6 220 05:56 21.06.2020
1165 Rain 23 1012 83 11265 4.1 190 04:28 21.06.2020
1166 Clouds 27 1011 54 16093 3.6 230 03:19 21.06.2020
1167 Clouds 28 1011 51 16093 4.1 200 02:22 21.06.2020
1168 Clouds 28 1011 45 16093 6.2 190 01:36 21.06.2020
1169 Clouds 28 1011 45 16093 6.2 190 01:18 21.06.2020
1170 Thunderstorm 28 1011 45 16093 6.7 190 00:41 21.06.2020
1171 Thunderstorm 30 1011 45 16093 6.7 190 00:23 21.06.2020
1172 Clouds 31 1011 35 16093 5.7 210 23:45 20.06.2020
1173 Clouds 31 1011 35 16093 5.7 210 23:22 20.06.2020
1174 Clouds 31 1012 35 16093 5.7 210 22:57 20.06.2020
1175 Clouds 31 1012 35 16093 5.7 210 22:39 20.06.2020
1176 Clouds 31 1012 35 16093 5.7 210 22:19 20.06.2020
1177 Clouds 32 1013 38 16093 7.2 220 21:57 20.06.2020
1178 Clouds 32 1013 38 16093 7.2 220 21:39 20.06.2020
1179 Clouds 32 1013 38 16093 7.2 220 21:20 20.06.2020
1180 Clouds 32 1013 38 16093 7.2 220 21:20 20.06.2020
1181 Clouds 31 1013 35 16093 7.2 210 20:57 20.06.2020
1182 Clouds 32 1013 35 16093 7.2 210 20:39 20.06.2020
1183 Clouds 31 1013 35 16093 7.2 210 20:20 20.06.2020
1184 Clouds 32 1014 33 16093 7.2 190 19:44 20.06.2020
1185 Clouds 32 1014 33 16093 7.2 190 19:25 20.06.2020
1186 Clouds 31 1015 42 16093 6.7 220 18:58 20.06.2020
1187 Clouds 31 1015 42 16093 6.7 220 18:40 20.06.2020
1188 Clouds 29 1015 45 16093 4.6 210 18:19 20.06.2020
1189 Clouds 30 1015 45 16093 4.6 210 17:56 20.06.2020
1190 Clouds 30 1015 45 16093 4.6 210 17:38 20.06.2020
1191 Clouds 29 1015 45 16093 4.6 210 17:19 20.06.2020
1192 Clouds 29 1015 39 16093 7.7 210 16:41 20.06.2020
1193 Clouds 29 1015 39 16093 7.7 210 16:19 20.06.2020
1194 Clouds 28 1015 54 16093 3.6 180 15:57 20.06.2020
1195 Clouds 28 1015 54 16093 3.6 180 15:39 20.06.2020
1196 Clouds 27 1015 54 16093 3.6 180 15:18 20.06.2020
1197 Clouds 26 1015 61 16093 1.5 170 14:42 20.06.2020
1198 Clouds 24 1015 61 16093 1.5 170 14:21 20.06.2020
1199 Clouds 23 1015 69 16093 2.6 210 13:42 20.06.2020
1200 Clouds 23 1015 69 16093 2.6 210 13:21 20.06.2020
1201 Clouds 23 1015 64 16093 2.5 204 12:57 20.06.2020
1202 Clouds 23 1015 64 16093 2.5 204 12:38 20.06.2020
1203 Clouds 23 1015 64 16093 2.56 210 12:19 20.06.2020
1204 Clouds 23 1015 69 16093 2.56 210 11:55 20.06.2020
1205 Clouds 23 1015 69 16093 2.56 210 11:36 20.06.2020
1206 Clouds 23 1015 69 16093 2.99 224 11:18 20.06.2020
1207 Clouds 23 1015 60 14484 3.6 270 10:42 20.06.2020
1208 Clouds 23 1015 60 14484 3.6 270 10:20 20.06.2020
1209 Clouds 24 1015 60 14484 3.6 270 09:43 20.06.2020
1210 Clouds 24 1015 60 14484 3.6 270 09:25 20.06.2020
1211 Clouds 24 1015 57 16093 1.24 218 08:59 20.06.2020
1212 Clouds 24 1015 57 16093 1.24 218 08:40 20.06.2020
1213 Clouds 24 1015 57 16093 1.41 240 08:22 20.06.2020
1214 Clouds 24 1015 50 16093 1.41 240 07:51 20.06.2020
1215 Clouds 24 1015 50 16093 1.41 240 07:51 20.06.2020
1216 Clouds 25 1015 50 16093 1.3 243 07:26 20.06.2020
1217 Clouds 25 1016 50 16093 1.3 243 06:49 20.06.2020
1218 Clouds 25 1016 50 16093 0.98 233 06:22 20.06.2020
1219 Clouds 26 1016 47 16093 2.1 60 05:48 20.06.2020
1220 Clouds 26 1017 54 0 0.66 221 04:49 20.06.2020
1221 Clouds 31 1015 31 16093 3.6 220 02:20 20.06.2020
1222 Clouds 31 1015 29 16093 3.6 240 01:45 20.06.2020
1223 Clouds 32 1015 29 16093 4.1 270 00:50 20.06.2020
1224 Clouds 32 1015 29 16093 4.1 270 00:20 20.06.2020
1225 Clouds 32 1015 29 16093 3.6 220 23:48 19.06.2020
1226 Clouds 32 1015 29 16093 3.6 220 23:21 19.06.2020
1227 Clouds 33 1015 29 16093 3.6 190 22:58 19.06.2020
1228 Clouds 32 1015 29 16093 3.6 190 22:40 19.06.2020
1229 Clouds 33 1015 29 16093 3.6 190 22:21 19.06.2020
1230 Clouds 33 1016 29 16093 6.2 280 21:56 19.06.2020
1231 Clouds 33 1016 29 16093 6.2 280 21:56 19.06.2020
1232 Clouds 33 1016 29 16093 6.2 280 21:37 19.06.2020
1233 Clouds 32 1016 29 16093 6.2 280 21:18 19.06.2020
1234 Clouds 32 1016 29 16093 4.6 220 20:57 19.06.2020
1235 Clouds 32 1016 29 16093 4.6 220 20:39 19.06.2020
1236 Clouds 32 1016 29 16093 4.6 220 20:20 19.06.2020
1237 Clouds 31 1017 33 16093 1.5 170 19:55 19.06.2020
1238 Clouds 31 1017 33 16093 1.5 170 19:37 19.06.2020
1239 Clouds 31 1017 33 16093 1.5 170 19:18 19.06.2020
1240 Clouds 30 1017 35 16093 3.1 240 18:40 19.06.2020
1241 Clouds 30 1017 35 16093 3.1 240 18:21 19.06.2020
1242 Clear 30 1017 39 16093 1.85 191 17:54 19.06.2020
1243 Clear 30 1017 39 16093 1.85 191 17:36 19.06.2020
1244 Clouds 29 1017 44 16093 1.72 211 17:18 19.06.2020
1245 Clouds 29 1017 44 16093 1.72 211 16:41 19.06.2020
1246 Clouds 29 1017 44 16093 1.55 222 16:22 19.06.2020
1247 Clouds 27 1017 50 16093 1.5 190 15:54 19.06.2020
1248 Clouds 27 1017 50 16093 1.5 190 15:36 19.06.2020
1249 Clouds 26 1017 50 16093 1.5 190 15:18 19.06.2020
1250 Clouds 24 1017 56 16093 1.5 190 14:42 19.06.2020
1251 Clouds 23 1017 56 16093 1.5 190 14:22 19.06.2020
1252 Clouds 23 1017 56 16093 1.5 190 14:22 19.06.2020
1253 Clouds 21 1016 64 14484 1.48 219 13:59 19.06.2020
1254 Clouds 21 1016 64 14484 1.48 219 13:41 19.06.2020
1255 Clouds 21 1016 64 14484 1.56 210 13:23 19.06.2020
1256 Clouds 21 1015 64 16093 1.56 210 12:46 19.06.2020
1257 Clouds 21 1015 64 16093 1.69 209 12:22 19.06.2020
1258 Clouds 21 1015 60 16093 1.69 209 11:57 19.06.2020
1259 Clouds 21 1015 60 16093 1.69 209 11:37 19.06.2020
1260 Clouds 21 1015 60 16093 1.29 175 11:18 19.06.2020
1261 Clouds 21 1015 56 16093 1.29 175 10:45 19.06.2020
1262 Clouds 22 1015 56 16093 1.16 199 10:26 19.06.2020
1263 Clouds 22 1016 56 16093 1.16 199 09:57 19.06.2020
1264 Clouds 22 1016 56 16093 1.16 199 09:39 19.06.2020
1265 Clouds 22 1016 56 16093 1.45 207 09:19 19.06.2020
1266 Clouds 22 1016 50 16093 1.5 120 08:42 19.06.2020
1267 Clouds 22 1016 50 16093 1.5 120 08:42 19.06.2020
1268 Clouds 22 1016 50 16093 1.5 120 08:23 19.06.2020
1269 Clouds 23 1016 53 16093 1.5 100 07:55 19.06.2020
1270 Clouds 22 1016 53 16093 1.5 100 07:36 19.06.2020
1271 Clouds 22 1016 53 16093 1.5 100 07:18 19.06.2020
1272 Clouds 23 1016 50 16093 2.1 90 06:23 19.06.2020
1273 Clouds 23 1016 47 16093 1.33 145 05:43 19.06.2020
1274 Clouds 24 1015 44 16093 3.6 110 04:23 19.06.2020
1275 Clouds 27 1015 34 16093 4.1 90 02:33 19.06.2020
1276 Clouds 28 1016 30 16093 5.7 60 00:48 19.06.2020
1277 Clouds 28 1016 30 16093 5.7 60 00:22 19.06.2020
1278 Clouds 29 1016 25 16093 5.1 80 23:59 18.06.2020
1279 Clouds 29 1016 25 16093 5.1 80 23:41 18.06.2020
1280 Clouds 29 1016 25 16093 5.1 80 23:23 18.06.2020
1281 Clouds 30 1017 27 16093 6.7 70 22:58 18.06.2020
1282 Clouds 30 1017 27 16093 6.7 70 22:36 18.06.2020
1283 Clouds 30 1017 27 16093 6.7 70 22:18 18.06.2020
1284 Clouds 30 1017 29 16093 6.7 90 21:38 18.06.2020
1285 Clouds 30 1017 29 16093 6.7 90 21:19 18.06.2020
1286 Clouds 30 1017 29 16093 2.1 90 20:55 18.06.2020
1287 Clouds 31 1017 29 16093 2.1 90 20:36 18.06.2020
1288 Clouds 30 1017 29 16093 2.1 90 20:18 18.06.2020
1289 Clouds 30 1018 30 16093 1.5 140 19:42 18.06.2020
1290 Clouds 30 1018 30 16093 1.5 140 19:20 18.06.2020
1291 Clouds 29 1018 32 16093 2.52 98 18:57 18.06.2020
1292 Clouds 29 1018 32 16093 2.52 98 18:36 18.06.2020
1293 Clouds 29 1018 32 16093 2.04 113 18:18 18.06.2020
1294 Clouds 29 1019 34 16093 2.04 113 17:43 18.06.2020
1295 Clouds 29 1019 34 16093 1.83 132 17:25 18.06.2020
1296 Clear 28 1019 39 16093 2.1 170 16:55 18.06.2020
1297 Clear 28 1019 39 16093 2.1 170 16:37 18.06.2020
1298 Clear 27 1019 39 16093 2.1 170 16:18 18.06.2020
1299 Clear 25 1019 47 16093 2.1 170 15:40 18.06.2020
1300 Clear 24 1019 47 16093 2.1 170 15:21 18.06.2020
1301 Clear 23 1019 49 16093 2.6 170 14:58 18.06.2020
1302 Clear 23 1019 49 16093 2.6 170 14:39 18.06.2020
1303 Clear 22 1019 49 16093 2.6 170 14:21 18.06.2020
1304 Clear 20 1019 68 16093 0.68 180 13:55 18.06.2020
1305 Clear 20 1019 68 16093 0.68 180 13:37 18.06.2020
1306 Clear 20 1019 68 16093 1.1 201 13:18 18.06.2020
1307 Clouds 20 1018 63 16093 1.1 201 12:54 18.06.2020
1308 Clouds 20 1018 63 16093 1.1 201 12:36 18.06.2020
1309 Clouds 19 1018 63 16093 1.49 206 12:18 18.06.2020
1310 Clear 21 1018 56 16093 2.1 130 11:44 18.06.2020
1311 Clear 20 1018 56 16093 2.1 130 11:20 18.06.2020
1312 Clear 20 1018 56 16093 2.1 130 11:20 18.06.2020
1313 Clear 21 1018 60 16093 1.67 185 10:41 18.06.2020
1314 Clear 20 1018 60 16093 2.1 173 10:19 18.06.2020
1315 Clear 21 1018 53 16093 1.5 130 09:56 18.06.2020
1316 Clear 21 1018 53 16093 1.5 130 09:38 18.06.2020
1317 Clear 22 1018 53 16093 1.5 130 09:19 18.06.2020
1318 Clear 21 1018 53 16093 2.6 100 08:40 18.06.2020
1319 Clear 22 1018 53 16093 2.6 100 08:21 18.06.2020
1320 Clear 22 1019 53 16093 2.1 100 07:46 18.06.2020
1321 Clear 22 1019 53 16093 2.1 100 07:27 18.06.2020
1322 Clear 21 1019 56 16093 5.1 110 06:55 18.06.2020
1323 Clear 22 1019 49 16093 3.6 100 05:58 18.06.2020
1324 Clouds 24 1019 41 16093 3.1 110 04:24 18.06.2020
1325 Clouds 26 1019 34 16093 4.6 90 02:51 18.06.2020
1326 Clouds 28 1019 32 16093 5.7 90 01:29 18.06.2020
1327 Clouds 28 1019 32 16093 5.1 100 00:57 18.06.2020
1328 Clouds 28 1019 32 16093 5.1 100 00:38 18.06.2020
1329 Clouds 29 1019 32 16093 5.1 100 00:20 18.06.2020
1330 Clouds 29 1020 28 16093 6.7 70 23:43 17.06.2020
1331 Clouds 29 1020 28 16093 6.7 70 23:21 17.06.2020
1332 Clouds 29 1020 28 16093 5.7 90 22:57 17.06.2020
1333 Clouds 29 1020 28 16093 5.7 90 22:38 17.06.2020
1334 Clouds 29 1020 28 16093 5.7 90 22:20 17.06.2020
1335 Clouds 29 1021 28 16093 4.1 90 21:55 17.06.2020
1336 Clouds 29 1021 28 16093 4.1 90 21:37 17.06.2020
1337 Clouds 30 1021 28 16093 4.1 90 21:18 17.06.2020
1338 Clouds 30 1021 28 16093 4.1 90 21:18 17.06.2020
1339 Clouds 29 1021 30 16093 4.26 99 20:38 17.06.2020
1340 Clouds 28 1021 30 16093 3.45 101 20:20 17.06.2020
1341 Clouds 30 1022 32 16093 1.5 190 19:56 17.06.2020
1342 Clouds 29 1022 32 16093 1.5 190 19:37 17.06.2020
1343 Clouds 29 1022 32 16093 1.5 190 19:18 17.06.2020
1344 Clouds 28 1023 36 16093 2.75 115 18:44 17.06.2020
1345 Clouds 27 1023 36 16093 2.5 135 18:26 17.06.2020
1346 Clouds 27 1023 42 16093 2.5 135 17:45 17.06.2020
1347 Clouds 27 1023 42 16093 2.14 152 17:23 17.06.2020
1348 Clouds 25 1023 50 16093 1.5 200 16:58 17.06.2020
1349 Clouds 25 1023 50 16093 1.5 200 16:39 17.06.2020
1350 Clouds 26 1023 50 16093 1.5 200 16:21 17.06.2020
1351 Clouds 25 1023 53 16093 1.5 190 15:56 17.06.2020
1352 Clear 25 1022 54 0 2.04 165 15:38 17.06.2020
1353 Clouds 22 1023 60 16093 2.6 140 15:19 17.06.2020
1354 Clouds 22 1023 60 16093 2.6 140 14:57 17.06.2020
1355 Clouds 21 1023 60 16093 2.6 140 14:39 17.06.2020
1356 Clouds 20 1023 60 16093 2.6 140 14:19 17.06.2020
1357 Clouds 19 1023 72 16093 1.5 110 13:55 17.06.2020
1358 Clouds 18 1023 72 16093 1.5 110 13:36 17.06.2020
1359 Clouds 18 1023 72 16093 1.5 110 13:18 17.06.2020
1360 Clouds 18 1022 77 16093 1.64 177 12:41 17.06.2020
1361 Clouds 18 1022 77 16093 1.75 184 12:21 17.06.2020
1362 Clear 18 1022 68 16093 1.75 184 11:45 17.06.2020
1363 Clear 18 1022 68 16093 2.24 174 11:26 17.06.2020
1364 Clouds 19 1022 72 16093 2.1 80 10:59 17.06.2020
1365 Clouds 19 1022 72 16093 2.1 80 10:38 17.06.2020
1366 Clouds 19 1022 72 16093 2.1 80 10:19 17.06.2020
1367 Clouds 19 1022 68 16093 1.5 60 09:56 17.06.2020
1368 Clouds 19 1022 68 16093 1.5 60 09:37 17.06.2020
1369 Clouds 19 1022 68 16093 1.5 60 09:19 17.06.2020
1370 Clouds 19 1023 64 16093 1.5 90 08:44 17.06.2020
1371 Clouds 20 1023 64 16093 1.5 90 08:20 17.06.2020
1372 Clouds 20 1023 60 16093 2.6 100 07:44 17.06.2020
1373 Clouds 20 1023 60 16093 2.6 100 07:24 17.06.2020
1374 Clouds 20 1023 64 16093 2.1 110 06:59 17.06.2020
1375 Clouds 20 1023 64 16093 2.1 110 06:41 17.06.2020
1376 Clouds 20 1023 64 16093 2.1 110 06:22 17.06.2020
1377 Clouds 20 1023 64 16093 3.1 100 05:49 17.06.2020
1378 Clouds 21 1023 56 16093 3.6 130 04:39 17.06.2020
1379 Clouds 25 1023 44 16093 5.7 90 02:41 17.06.2020
1380 Clouds 27 1023 39 16093 5.7 90 00:53 17.06.2020
1381 Clouds 27 1023 39 16093 5.7 90 00:30 17.06.2020
1382 Clouds 27 1024 39 16093 6.7 120 00:00 17.06.2020
1383 Clouds 27 1024 39 16093 6.7 120 23:41 16.06.2020
1384 Clouds 28 1024 39 16093 6.7 120 23:22 16.06.2020
1385 Clouds 28 1024 37 16093 1.5 90 22:57 16.06.2020
1386 Clouds 28 1024 37 16093 1.5 90 22:38 16.06.2020
1387 Clouds 28 1024 37 16093 1.5 90 22:19 16.06.2020
1388 Clouds 28 1025 44 16093 2.6 80 21:58 16.06.2020
1389 Clouds 28 1025 44 16093 2.6 80 21:40 16.06.2020
1390 Clouds 28 1025 44 16093 2.6 80 21:21 16.06.2020
1391 Clouds 28 1026 37 16093 4.1 180 20:43 16.06.2020
1392 Clouds 27 1026 37 16093 4.1 180 20:23 16.06.2020
1393 Clouds 27 1026 39 16093 2.6 170 19:58 16.06.2020
1394 Clouds 27 1026 39 16093 2.6 170 19:40 16.06.2020
1395 Clouds 27 1026 39 16093 2.6 170 19:22 16.06.2020
1396 Clouds 26 1027 41 16093 2.6 150 18:59 16.06.2020
1397 Clouds 26 1027 41 16093 2.6 150 18:59 16.06.2020
1398 Clouds 26 1027 41 16093 2.6 150 18:40 16.06.2020
1399 Clouds 25 1027 41 16093 2.6 150 18:21 16.06.2020
1400 Clear 24 1027 50 16093 2.6 160 17:57 16.06.2020
1401 Clear 24 1027 50 16093 2.6 160 17:38 16.06.2020
1402 Clear 24 1027 50 16093 2.6 160 17:38 16.06.2020
1403 Clear 24 1027 50 16093 2.6 160 17:19 16.06.2020
1404 Clear 23 1027 53 16093 2.1 0 16:56 16.06.2020
1405 Clear 23 1027 53 16093 2.1 0 16:38 16.06.2020
1406 Clear 24 1027 53 16093 2.1 0 16:19 16.06.2020
1407 Clouds 22 1028 64 16093 3.6 160 15:56 16.06.2020
1408 Clouds 21 1028 64 16093 3.6 160 15:38 16.06.2020
1409 Clouds 20 1028 64 16093 3.6 160 15:20 16.06.2020
1410 Clouds 18 1027 77 16093 2.1 130 14:43 16.06.2020
1411 Clouds 17 1027 77 16093 2.1 130 14:25 16.06.2020
1412 Clouds 15 1027 82 16093 2.82 150 13:57 16.06.2020
1413 Clouds 15 1027 82 16093 2.82 150 13:39 16.06.2020
1414 Clouds 15 1027 82 16093 2.51 140 13:20 16.06.2020
1415 Clear 15 1027 77 16093 2.51 140 12:42 16.06.2020
1416 Clear 15 1027 77 16093 2.51 140 12:42 16.06.2020
1417 Clear 14 1027 77 16093 2.38 134 12:21 16.06.2020
1418 Clear 14 1027 77 16093 2.38 134 11:56 16.06.2020
1419 Clear 14 1027 77 16093 2.38 134 11:38 16.06.2020
1420 Clear 14 1027 77 16093 2.36 134 11:19 16.06.2020
1421 Clear 14 1026 77 16093 2.1 70 10:55 16.06.2020
1422 Clear 14 1026 77 16093 2.1 70 10:37 16.06.2020
1423 Clear 14 1026 77 16093 2.1 70 10:18 16.06.2020
1424 Clear 15 1027 63 16093 3.1 60 09:42 16.06.2020
1425 Clear 15 1027 63 16093 3.1 60 09:21 16.06.2020
1426 Clear 15 1027 59 16093 2.1 80 08:48 16.06.2020
1427 Clear 15 1027 59 16093 2.1 80 08:30 16.06.2020
1428 Clear 15 1027 55 16093 2.6 60 07:51 16.06.2020
1429 Clear 15 1027 55 16093 2.6 60 07:28 16.06.2020
1430 Clear 15 1027 48 16093 3.6 90 06:55 16.06.2020
1431 Clear 16 1027 48 16093 3.6 90 06:27 16.06.2020
1432 Clear 16 1030 55 0 2.1 69 05:45 16.06.2020
1433 Clear 16 1029 51 0 2.13 60 04:40 16.06.2020
1434 Clouds 18 1026 37 16093 2.6 20 03:30 16.06.2020
1435 Clouds 19 1026 32 16093 3.1 70 02:18 16.06.2020
1436 Clouds 20 1026 30 16093 4.6 80 01:31 16.06.2020
1437 Clouds 21 1027 30 16093 4.6 80 00:52 16.06.2020
1438 Clouds 21 1027 30 16093 4.6 80 00:22 16.06.2020
1439 Clouds 21 1027 28 16093 4.6 70 23:43 15.06.2020
1440 Clouds 21 1027 28 16093 4.6 70 23:23 15.06.2020
1441 Clouds 21 1028 28 16093 6.2 80 22:56 15.06.2020
1442 Clouds 21 1028 28 16093 6.2 80 22:38 15.06.2020
1443 Clouds 22 1028 28 16093 6.2 80 22:18 15.06.2020
1444 Clouds 21 1028 30 16093 5.7 70 21:56 15.06.2020
1445 Clouds 22 1028 30 16093 5.7 70 21:37 15.06.2020
1446 Clouds 22 1028 30 16093 5.7 70 21:19 15.06.2020
1447 Clouds 22 1029 33 16093 5.7 80 21:19 15.06.2020
1448 Clouds 21 1029 33 16093 5.7 80 20:56 15.06.2020
1449 Clouds 21 1029 33 16093 5.7 80 20:37 15.06.2020
1450 Clouds 21 1029 32 16093 6.2 90 20:19 15.06.2020
1451 Clouds 21 1029 32 16093 6.2 90 19:55 15.06.2020
1452 Clouds 21 1029 32 16093 6.2 90 19:36 15.06.2020
1453 Clouds 21 1029 32 16093 6.2 90 19:18 15.06.2020
1454 Clouds 21 1029 32 16093 5.1 120 18:44 15.06.2020
1455 Clouds 20 1029 32 16093 5.1 120 18:22 15.06.2020
1456 Clouds 20 1029 37 16093 3.6 130 17:59 15.06.2020
1457 Clouds 20 1029 37 16093 3.6 130 17:41 15.06.2020
1458 Clouds 20 1029 37 16093 3.6 130 17:20 15.06.2020
1459 Clouds 19 1029 42 16093 3.1 110 16:58 15.06.2020
1460 Clouds 19 1029 42 16093 3.1 110 16:39 15.06.2020
1461 Clouds 19 1029 42 16093 3.1 110 16:18 15.06.2020
1462 Clouds 18 1029 52 16093 3.6 130 15:55 15.06.2020
1463 Clouds 18 1029 52 16093 3.6 130 15:36 15.06.2020
1464 Clouds 17 1029 52 16093 3.6 130 15:18 15.06.2020
1465 Clouds 16 1029 63 16093 4.1 120 14:41 15.06.2020
1466 Clouds 15 1029 63 16093 4.1 120 14:20 15.06.2020
1467 Clouds 16 1029 63 16093 4.1 120 14:20 15.06.2020
1468 Clouds 14 1029 87 16093 1.5 110 13:58 15.06.2020
1469 Clouds 14 1029 87 16093 1.5 110 13:38 15.06.2020
1470 Clouds 14 1029 87 16093 1.5 110 13:19 15.06.2020
1471 Clouds 13 1028 82 16093 2.69 121 12:43 15.06.2020
1472 Clouds 13 1028 82 16093 2.46 128 12:23 15.06.2020
1473 Clear 13 1027 82 16093 3.1 90 12:00 15.06.2020
1474 Clear 13 1027 82 16093 3.1 90 11:41 15.06.2020
1475 Clear 13 1027 82 16093 3.1 90 11:23 15.06.2020
1476 Clear 13 1027 82 16093 2.73 134 10:43 15.06.2020
1477 Clear 13 1027 71 16093 2.6 80 10:22 15.06.2020
1478 Clear 13 1027 71 16093 2.6 80 09:45 15.06.2020
1479 Clear 14 1027 71 16093 2.6 80 09:25 15.06.2020
1480 Clear 14 1027 62 16093 3.6 70 08:56 15.06.2020
1481 Clear 14 1027 62 16093 3.6 70 08:37 15.06.2020
1482 Clear 14 1027 62 16093 3.1 50 08:18 15.06.2020
1483 Clear 14 1027 62 16093 3.1 50 07:41 15.06.2020
1484 Clear 14 1027 62 16093 3.1 50 07:20 15.06.2020
1485 Clear 14 1027 62 16093 3.6 50 06:38 15.06.2020
1486 Clear 14 1027 62 16093 3.6 50 06:19 15.06.2020
1487 Clear 14 1027 67 16093 2.6 50 05:39 15.06.2020
1488 Clear 14 1027 67 16093 2.6 50 05:20 15.06.2020
1489 Clear 14 1029 72 0 4.61 59 04:18 15.06.2020
1490 Clouds 15 1026 42 16093 5.7 40 03:37 15.06.2020
1491 Clouds 17 1026 37 16093 5.7 50 02:34 15.06.2020
1492 Clear 18 1026 34 16093 6.2 40 01:53 15.06.2020
1493 Clear 18 1026 34 16093 6.2 40 01:31 15.06.2020
1494 Clear 19 1027 30 16093 4.6 40 00:58 15.06.2020
1495 Clear 19 1027 30 16093 4.6 40 00:39 15.06.2020
1496 Clear 19 1027 30 16093 4.6 40 00:19 15.06.2020
1497 Clouds 19 1027 30 16093 5.1 40 23:46 14.06.2020
1498 Clouds 19 1027 30 16093 5.1 40 23:24 14.06.2020
1499 Clouds 19 1027 30 16093 5.1 40 23:24 14.06.2020
1500 Clouds 20 1027 30 16093 3.6 40 22:58 14.06.2020
1501 Clouds 19 1027 30 16093 3.6 40 22:39 14.06.2020
1502 Clouds 19 1027 30 16093 3.6 40 22:19 14.06.2020
1503 Clouds 20 1028 28 16093 6.2 60 21:57 14.06.2020
1504 Clouds 19 1028 28 16093 6.2 60 21:38 14.06.2020
1505 Clouds 19 1028 28 16093 6.2 60 21:19 14.06.2020
1506 Clouds 19 1028 37 16093 6.2 70 20:58 14.06.2020
1507 Clouds 19 1028 37 16093 6.2 70 20:38 14.06.2020
1508 Clouds 19 1028 37 16093 6.2 70 20:19 14.06.2020
1509 Clouds 18 1028 39 16093 5.1 80 19:57 14.06.2020
1510 Clouds 18 1028 39 16093 5.1 80 19:38 14.06.2020
1511 Clouds 18 1028 39 16093 5.1 80 19:19 14.06.2020
1512 Clouds 18 1028 45 16093 6.7 80 18:56 14.06.2020
1513 Clouds 18 1028 45 16093 6.7 80 18:38 14.06.2020
1514 Clouds 18 1028 45 16093 6.7 80 18:19 14.06.2020
1515 Clouds 18 1029 45 16093 5.1 70 17:57 14.06.2020
1516 Clouds 17 1029 45 16093 5.1 70 17:38 14.06.2020
1517 Clouds 17 1029 45 16093 5.1 70 17:38 14.06.2020
1518 Clouds 17 1029 51 16093 5.7 60 17:19 14.06.2020
1519 Clouds 16 1029 51 16093 5.7 60 16:41 14.06.2020
1520 Clouds 16 1029 51 16093 5.7 60 16:21 14.06.2020
1521 Clouds 16 1028 59 16093 5.1 80 15:59 14.06.2020
1522 Clouds 16 1028 59 16093 5.1 80 15:40 14.06.2020
1523 Clouds 16 1028 59 16093 5.1 80 15:18 14.06.2020
1524 Clouds 15 1028 62 16093 4.1 80 14:58 14.06.2020
1525 Clouds 15 1028 62 16093 4.1 80 14:40 14.06.2020
1526 Clouds 15 1028 62 16093 4.1 80 14:19 14.06.2020
1527 Clouds 14 1027 71 16093 3.6 100 13:55 14.06.2020
1528 Clouds 14 1027 71 16093 3.6 100 13:36 14.06.2020
1529 Clouds 14 1027 71 16093 3.6 100 13:18 14.06.2020
1530 Clouds 13 1027 71 16093 3.1 80 12:54 14.06.2020
1531 Clouds 13 1027 71 16093 3.1 80 12:36 14.06.2020
1532 Clouds 13 1027 71 16093 3.1 80 12:18 14.06.2020
1533 Clouds 13 1026 67 16093 4.1 100 11:55 14.06.2020
1534 Clouds 13 1026 67 16093 4.1 100 11:36 14.06.2020
1535 Clouds 14 1026 67 16093 4.1 100 11:18 14.06.2020
1536 Clear 14 1030 69 0 3.76 99 10:40 14.06.2020
1537 Clouds 14 1026 62 16093 4.1 80 10:19 14.06.2020
1538 Clouds 14 1026 67 16093 3.1 80 09:44 14.06.2020
1539 Clouds 14 1026 67 16093 3.1 80 09:24 14.06.2020
1540 Clear 14 1029 63 0 0.45 139 08:44 14.06.2020
1541 Clouds 14 1029 66 0 5.57 92 08:22 14.06.2020
1542 Clouds 14 1026 58 16093 4.6 60 07:58 14.06.2020
1543 Clouds 14 1026 58 16093 4.6 60 07:37 14.06.2020
1544 Clouds 14 1026 58 16093 4.6 60 07:19 14.06.2020
1545 Clouds 14 1026 62 16093 4.6 20 06:25 14.06.2020
1546 Clouds 13 1026 58 16093 3.6 20 05:39 14.06.2020
1547 Clouds 13 1025 58 16093 5.7 10 04:51 14.06.2020
1548 Clouds 13 1025 58 16093 5.7 10 04:25 14.06.2020
1549 Clouds 13 1028 70 0 5.55 29 02:53 14.06.2020
1550 Clear 13 1028 70 0 4.84 32 02:23 14.06.2020
1551 Clouds 15 1025 48 16093 7.7 50 01:36 14.06.2020
1552 Clouds 16 1025 48 16093 8.2 50 00:50 14.06.2020
1553 Clouds 17 1025 48 16093 8.2 50 00:31 14.06.2020
1554 Clouds 17 1025 45 16093 7.2 40 23:56 13.06.2020
1555 Clouds 17 1025 45 16093 7.2 40 23:38 13.06.2020
1556 Clouds 17 1025 45 16093 7.2 40 23:20 13.06.2020
1557 Clouds 18 1026 45 16093 6.7 40 22:54 13.06.2020
1558 Clouds 18 1026 45 16093 6.7 40 22:54 13.06.2020
1559 Clouds 18 1026 45 16093 6.7 40 22:36 13.06.2020
1560 Clouds 18 1026 45 16093 6.7 40 22:18 13.06.2020
1561 Clouds 18 1026 52 16093 5.1 20 21:42 13.06.2020
1562 Clouds 18 1026 52 16093 5.1 20 21:24 13.06.2020
1563 Clouds 18 1026 59 16093 5.1 60 20:57 13.06.2020
1564 Clouds 18 1026 59 16093 5.1 60 20:39 13.06.2020
1565 Clouds 18 1026 59 16093 5.1 60 20:18 13.06.2020
1566 Clouds 17 1026 67 16093 5.7 30 20:18 13.06.2020
1567 Clouds 17 1026 67 16093 5.7 30 19:41 13.06.2020
1568 Clouds 17 1026 67 16093 5.7 30 19:41 13.06.2020
1569 Clouds 17 1026 67 16093 5.7 30 19:20 13.06.2020
1570 Clouds 16 1026 67 16093 5.7 60 18:59 13.06.2020
1571 Clouds 16 1026 67 16093 5.7 60 18:40 13.06.2020
1572 Clouds 16 1026 67 16093 5.7 60 18:20 13.06.2020
1573 Clouds 16 1026 72 16093 5.1 30 17:57 13.06.2020
1574 Clouds 15 1026 72 16093 5.1 30 17:39 13.06.2020
1575 Clouds 15 1026 67 16093 5.7 30 17:20 13.06.2020
1576 Clouds 15 1026 67 16093 5.7 30 16:55 13.06.2020
1577 Clouds 15 1026 67 16093 5.7 30 16:37 13.06.2020
1578 Clouds 14 1026 67 16093 5.7 30 16:18 13.06.2020
1579 Clouds 13 1026 71 16093 6.2 20 15:42 13.06.2020
1580 Clouds 13 1026 71 16093 6.2 20 15:22 13.06.2020
1581 Clouds 12 1026 71 16093 6.2 30 14:45 13.06.2020
1582 Clouds 12 1026 71 16093 6.2 30 14:26 13.06.2020
1583 Clouds 12 1026 76 16093 5.7 30 13:58 13.06.2020
1584 Clouds 11 1026 76 16093 5.7 30 13:40 13.06.2020
1585 Clouds 11 1026 76 16093 5.7 30 13:21 13.06.2020
1586 Clouds 12 1028 77 0 5.1 45 12:44 13.06.2020
1587 Clouds 12 1028 76 0 5.34 46 12:26 13.06.2020
1588 Clouds 12 1028 76 0 5.34 46 11:57 13.06.2020
1589 Clouds 12 1025 71 16093 6.2 20 11:38 13.06.2020
1590 Clouds 12 1025 71 16093 6.2 20 11:19 13.06.2020
1591 Clouds 12 1024 66 16093 6.2 40 11:19 13.06.2020
1592 Clouds 12 1024 66 16093 6.2 40 10:56 13.06.2020
1593 Rain 12 1027 80 0 5.6 46 10:37 13.06.2020
1594 Rain 12 1027 81 0 5.72 45 10:18 13.06.2020
1595 Rain 13 1024 62 16093 5.1 40 09:42 13.06.2020
1596 Rain 13 1024 62 16093 5.1 40 09:21 13.06.2020
1597 Rain 14 1024 67 16093 6.2 40 08:48 13.06.2020
1598 Thunderstorm 14 1025 62 16093 5.7 330 08:30 13.06.2020
1599 Thunderstorm 14 1024 62 16093 6.7 30 07:50 13.06.2020
1600 Clouds 13 1024 54 16093 6.2 10 07:27 13.06.2020
1601 Clouds 13 1024 54 16093 5.1 20 06:49 13.06.2020
1602 Clouds 13 1024 54 16093 5.1 20 06:28 13.06.2020
1603 Clouds 13 1024 54 16093 6.2 20 05:42 13.06.2020
1604 Clouds 13 1024 54 16093 6.2 20 05:23 13.06.2020
1605 Clouds 13 1026 67 0 4.41 25 03:47 13.06.2020
1606 Rain 13 1027 70 0 0.89 167 02:54 13.06.2020
1607 Clouds 15 1024 59 16093 6.7 20 02:29 13.06.2020
1608 Clouds 16 1023 59 16093 5.7 40 01:41 13.06.2020
1609 Clouds 16 1023 59 16093 5.7 40 01:18 13.06.2020
1610 Clouds 16 1023 56 16093 3.6 50 00:42 13.06.2020
1611 Clear 15 1026 68 0 5.43 34 00:23 13.06.2020
1612 Clouds 16 1024 52 16093 4.6 80 23:41 12.06.2020
1613 Clouds 17 1024 52 16093 4.6 80 23:19 12.06.2020
1614 Clouds 17 1024 52 16093 4.6 80 23:19 12.06.2020
1615 Clouds 19 1024 49 16093 4.1 80 22:56 12.06.2020
1616 Clouds 19 1024 49 16093 4.1 80 22:38 12.06.2020
1617 Clouds 20 1024 49 16093 4.1 80 22:19 12.06.2020
1618 Clouds 19 1025 49 16093 4.1 70 21:47 12.06.2020
1619 Clouds 22 1025 49 16093 4.1 70 21:24 12.06.2020
1620 Clouds 21 1025 46 16093 5.1 80 20:58 12.06.2020
1621 Clouds 19 1025 46 16093 5.1 80 20:39 12.06.2020
1622 Clouds 18 1025 46 16093 5.1 80 20:21 12.06.2020
1623 Clouds 21 1025 49 16093 5.1 80 19:47 12.06.2020
1624 Clouds 26 1025 49 16093 5.1 80 19:22 12.06.2020
1625 Clouds 26 1025 49 16093 5.1 80 19:22 12.06.2020
1626 Clouds 22 1025 44 16093 3.1 80 18:59 12.06.2020
1627 Clouds 21 1025 44 16093 3.1 80 18:37 12.06.2020
1628 Clouds 21 1025 44 16093 3.1 80 18:37 12.06.2020
1629 Clouds 21 1025 44 16093 3.1 80 18:18 12.06.2020
1630 Clear 22 1025 33 16093 2.1 0 17:45 12.06.2020
1631 Clear 21 1025 33 16093 2.1 0 17:26 12.06.2020
1632 Clear 22 1025 36 16093 1.8 31 16:58 12.06.2020
1633 Clear 22 1025 36 16093 1.8 31 16:40 12.06.2020
1634 Clear 24 1025 36 16093 1.53 24 16:19 12.06.2020
1635 Clouds 23 1025 49 16093 1.53 24 15:43 12.06.2020
1636 Clouds 22 1025 49 16093 0.75 16 15:19 12.06.2020
1637 Clear 20 1025 68 16093 1.5 220 14:43 12.06.2020
1638 Clear 19 1025 68 16093 1.5 220 14:23 12.06.2020
1639 Clear 18 1024 72 16093 1.5 230 13:58 12.06.2020
1640 Clear 17 1024 72 16093 1.5 230 13:40 12.06.2020
1641 Clear 17 1024 72 16093 1.5 230 13:19 12.06.2020
1642 Clear 17 1024 72 16093 1.99 318 12:40 12.06.2020
1643 Clear 17 1024 72 16093 1.93 324 12:19 12.06.2020
1644 Clear 17 1024 67 16093 1.93 324 11:56 12.06.2020
1645 Clear 17 1024 67 16093 1.93 324 11:36 12.06.2020
1646 Clear 17 1024 67 16093 1.93 324 11:36 12.06.2020
1647 Clear 16 1024 67 16093 2.47 333 11:18 12.06.2020
1648 Clear 17 1023 63 16093 2.47 333 10:42 12.06.2020
1649 Clear 17 1023 63 16093 2.69 331 10:23 12.06.2020
1650 Clear 18 1025 62 0 2.69 331 09:44 12.06.2020
1651 Clear 18 1023 52 16093 3.19 312 09:21 12.06.2020
1652 Clouds 19 1022 49 16093 2.6 360 08:43 12.06.2020
1653 Clouds 19 1022 49 16093 2.6 360 08:24 12.06.2020
1654 Clouds 20 1022 46 16093 3.6 290 07:44 12.06.2020
1655 Clouds 21 1022 46 16093 3.6 290 07:25 12.06.2020
1656 Clouds 22 1021 43 16093 4.1 250 06:55 12.06.2020
1657 Clouds 23 1021 43 16093 4.1 250 06:25 12.06.2020
1658 Clouds 23 1021 43 16093 3.6 240 05:50 12.06.2020
1659 Clouds 23 1021 43 16093 3.6 240 05:28 12.06.2020
1660 Clouds 24 1020 38 16093 3.6 240 04:41 12.06.2020
1661 Clouds 27 1019 28 16093 9.3 260 02:46 12.06.2020
1662 Clouds 27 1019 28 16093 7.7 260 01:52 12.06.2020
1663 Clouds 27 1019 28 16093 7.7 260 01:25 12.06.2020
1664 Clouds 28 1019 26 16093 10.3 260 00:42 12.06.2020
1665 Clouds 28 1019 26 16093 10.3 260 00:24 12.06.2020
1666 Clouds 27 1019 26 16093 9.3 280 23:59 11.06.2020
1667 Clouds 27 1019 26 16093 9.3 280 23:40 11.06.2020
1668 Clouds 27 1019 26 16093 9.3 280 23:40 11.06.2020
1669 Clouds 27 1019 26 16093 9.3 280 23:40 11.06.2020
1670 Clouds 27 1019 26 16093 9.3 280 23:20 11.06.2020
1671 Clouds 27 1019 24 16093 8.2 280 22:57 11.06.2020
1672 Clouds 27 1019 24 16093 8.2 280 22:38 11.06.2020
1673 Clouds 27 1019 24 16093 8.2 280 22:19 11.06.2020
1674 Clouds 27 1019 31 16093 7.7 250 21:54 11.06.2020
1675 Rain 27 1019 31 16093 7.7 250 21:36 11.06.2020
1676 Rain 27 1019 31 16093 7.7 250 21:18 11.06.2020
1677 Clouds 26 1020 34 16093 6.2 240 20:43 11.06.2020
1678 Clouds 26 1020 34 16093 6.2 240 20:21 11.06.2020
1679 Clear 25 1020 36 16093 4.1 230 19:44 11.06.2020
1680 Clear 25 1020 36 16093 4.1 230 19:23 11.06.2020
1681 Clear 25 1019 36 16093 4.1 270 18:58 11.06.2020
1682 Clear 24 1019 36 16093 4.1 270 18:40 11.06.2020
1683 Clear 24 1019 36 16093 4.1 270 18:20 11.06.2020
1684 Rain 23 1020 38 0 1.79 277 17:56 11.06.2020
1685 Rain 23 1019 40 16093 5.7 280 17:37 11.06.2020
1686 Rain 22 1019 40 16093 5.7 280 17:19 11.06.2020
1687 Clear 21 1019 49 16093 6.7 290 16:46 11.06.2020
1688 Clear 21 1019 49 16093 6.7 290 16:28 11.06.2020
1689 Rain 20 1018 59 16093 5.7 290 15:59 11.06.2020
1690 Clear 19 1018 59 16093 5.7 290 15:41 11.06.2020
1691 Clear 19 1018 59 16093 5.7 290 15:23 11.06.2020
1692 Clear 18 1017 67 16093 5.7 280 14:55 11.06.2020
1693 Clear 18 1017 67 16093 5.7 280 14:36 11.06.2020
1694 Clear 17 1017 67 16093 5.7 280 14:18 11.06.2020
1695 Clear 16 1016 77 16093 4.1 260 13:54 11.06.2020
1696 Clear 16 1016 77 16093 4.1 260 13:36 11.06.2020
1697 Clear 16 1016 77 16093 4.1 260 13:18 11.06.2020
1698 Clear 15 1015 82 16093 4.1 250 12:39 11.06.2020
1699 Clear 15 1015 82 16093 4.1 250 12:20 11.06.2020
1700 Clear 15 1014 77 16093 4.6 250 11:58 11.06.2020
1701 Rain 16 1014 77 16093 4.6 250 11:40 11.06.2020
1702 Rain 16 1014 77 16093 4.6 250 11:21 11.06.2020
1703 Rain 16 1014 77 16093 4.6 250 11:21 11.06.2020
1704 Rain 16 1013 72 16093 4.1 260 10:57 11.06.2020
1705 Clear 16 1013 72 16093 4.1 260 10:38 11.06.2020
1706 Clear 17 1013 72 16093 4.1 260 10:18 11.06.2020
1707 Rain 17 1012 77 16093 5.1 260 09:42 11.06.2020
1708 Rain 17 1012 77 16093 5.1 260 09:23 11.06.2020
1709 Clear 17 1011 77 16093 4.6 260 08:44 11.06.2020
1710 Clear 17 1011 77 16093 4.6 260 08:20 11.06.2020
1711 Clear 17 1011 77 16093 4.1 260 07:58 11.06.2020
1712 Clear 17 1011 77 16093 4.1 260 07:40 11.06.2020
1713 Clear 17 1011 77 16093 4.1 260 07:20 11.06.2020
1714 Rain 17 1009 82 16093 4.6 270 06:29 11.06.2020
1715 Clouds 17 1008 77 16093 7.2 290 05:39 11.06.2020
1716 Rain 17 1005 93 14484 9.8 290 03:54 11.06.2020
1717 Rain 17 1004 88 14484 10.3 290 03:23 11.06.2020
1718 Rain 19 1002 77 16093 8.2 250 02:32 11.06.2020
1719 Clouds 20 1002 56 16093 9.8 240 01:51 11.06.2020
1720 Rain 21 1002 56 16093 9.8 240 01:25 11.06.2020
1721 Clouds 21 1001 49 16093 8.2 230 00:50 11.06.2020
1722 Rain 22 1001 49 16093 8.2 230 00:29 11.06.2020
1723 Rain 22 1001 53 16093 12.3 250 23:47 10.06.2020
1724 Rain 23 1001 53 16093 12.3 250 23:27 10.06.2020
1725 Rain 24 1000 53 16093 12.3 230 22:59 10.06.2020
1726 Clouds 24 1000 53 16093 12.3 230 22:38 10.06.2020
1727 Rain 24 1000 53 16093 12.3 230 22:20 10.06.2020
1728 Rain 25 1001 57 0 0.89 236 21:58 10.06.2020
1729 Rain 26 998 44 16093 11.3 230 21:40 10.06.2020
1730 Rain 27 998 44 16093 11.3 230 21:18 10.06.2020
1731 Rain 28 998 45 16093 9.3 200 20:57 10.06.2020
1732 Rain 28 998 45 16093 9.3 200 20:39 10.06.2020
1733 Rain 29 998 45 16093 9.3 200 20:21 10.06.2020
1734 Rain 29 998 65 16093 6.7 170 19:42 10.06.2020
1735 Rain 29 998 65 16093 6.7 170 19:20 10.06.2020
1736 Rain 28 1000 70 0 0.45 203 19:00 10.06.2020
1737 Clouds 27 998 74 16093 6.2 200 18:41 10.06.2020
1738 Rain 26 998 74 16093 6.2 200 18:20 10.06.2020
1739 Rain 24 999 83 16093 4.6 200 17:58 10.06.2020
1740 Rain 22 999 83 16093 4.6 200 17:40 10.06.2020
1741 Rain 22 999 83 16093 4.6 200 17:19 10.06.2020
1742 Rain 23 998 83 14484 5.1 230 16:58 10.06.2020
1743 Rain 24 998 83 14484 5.1 230 16:39 10.06.2020
1744 Rain 24 998 83 14484 5.1 230 16:39 10.06.2020
1745 Thunderstorm 25 999 83 12874 9.3 190 16:20 10.06.2020
1746 Clouds 25 1000 78 16093 2.1 210 15:55 10.06.2020
1747 Clouds 25 1000 78 16093 2.1 210 15:36 10.06.2020
1748 Rain 25 1000 78 16093 2.1 210 15:18 10.06.2020
1749 Clouds 25 1000 78 16093 2.1 210 15:18 10.06.2020
1750 Clouds 24 1000 83 16093 2.6 180 14:40 10.06.2020
1751 Clouds 24 1000 88 16093 2.6 160 14:21 10.06.2020
1752 Rain 23 1000 88 16093 4.1 190 13:43 10.06.2020
1753 Rain 23 1000 88 16093 4.1 190 13:22 10.06.2020
1754 Rain 23 1000 88 16093 5.7 270 12:55 10.06.2020
1755 Rain 23 1000 88 16093 5.7 270 12:55 10.06.2020
1756 Rain 22 1000 89 0 0.89 264 12:37 10.06.2020
1757 Rain 23 1000 88 16093 5.7 270 12:18 10.06.2020
1758 Rain 24 999 88 11265 6.7 220 11:42 10.06.2020
1759 Rain 25 999 88 11265 6.7 220 11:20 10.06.2020
1760 Rain 26 998 88 14484 7.7 220 10:58 10.06.2020
1761 Rain 26 998 88 14484 7.7 220 10:40 10.06.2020
1762 Rain 26 998 88 14484 7.7 220 10:21 10.06.2020
1763 Rain 25 998 88 16093 5.1 220 09:44 10.06.2020
1764 Rain 25 998 88 16093 5.1 220 09:25 10.06.2020
1765 Rain 25 999 83 16093 6.2 230 08:58 10.06.2020
1766 Rain 25 999 83 16093 5.7 240 08:39 10.06.2020
1767 Rain 25 999 83 16093 5.7 240 08:21 10.06.2020
1768 Rain 25 998 83 16093 7.2 240 07:41 10.06.2020
1769 Rain 25 998 83 16093 6.7 220 07:23 10.06.2020
1770 Rain 25 999 85 0 0.45 225 06:50 10.06.2020
1771 Rain 25 999 85 0 0.89 158 06:30 10.06.2020
1772 Rain 25 997 83 16093 6.7 210 05:58 10.06.2020
1773 Rain 25 997 83 16093 6.7 210 05:29 10.06.2020
1774 Rain 25 998 88 0 0.45 95 04:46 10.06.2020
1775 Rain 25 996 88 16093 5.7 210 04:28 10.06.2020
1776 Rain 24 998 89 0 2.24 224 02:24 10.06.2020
1777 Rain 24 996 88 14484 8.7 170 01:39 10.06.2020
1778 Rain 24 997 94 8047 9.8 170 00:41 10.06.2020
1779 Rain 26 998 94 3219 10.3 170 00:23 10.06.2020
1780 Rain 28 999 74 16093 11.8 140 23:59 09.06.2020
1781 Rain 28 999 74 16093 11.8 140 23:41 09.06.2020
1782 Rain 28 999 74 16093 11.8 140 23:22 09.06.2020
1783 Rain 28 999 46 16093 13.4 140 22:56 09.06.2020
1784 Rain 28 999 46 16093 13.4 140 22:38 09.06.2020
1785 Clouds 30 999 46 16093 13.4 140 22:20 09.06.2020
1786 Clouds 32 1001 46 16093 8.7 150 21:57 09.06.2020
1787 Clouds 32 1001 46 16093 8.7 150 21:57 09.06.2020
1788 Clouds 32 1001 46 16093 8.7 150 21:38 09.06.2020
1789 Clouds 32 1001 46 16093 8.7 150 21:38 09.06.2020
1790 Clouds 32 1001 46 16093 8.7 150 21:20 09.06.2020
1791 Clouds 31 1002 43 16093 10.3 140 20:57 09.06.2020
1792 Clouds 31 1002 43 16093 10.3 140 20:38 09.06.2020
1793 Clouds 31 1002 43 16093 10.3 140 20:19 09.06.2020
1794 Clouds 30 1004 48 16093 6.2 130 19:57 09.06.2020
1795 Clouds 30 1004 48 16093 6.2 130 19:38 09.06.2020
1796 Clouds 29 1004 48 16093 6.2 130 19:20 09.06.2020
1797 Clouds 29 1005 48 16093 8.2 150 18:56 09.06.2020
1798 Clouds 30 1005 48 16093 8.2 150 18:37 09.06.2020
1799 Clouds 29 1005 48 16093 8.2 150 18:18 09.06.2020
1800 Clouds 28 1005 51 16093 5.7 140 17:54 09.06.2020
1801 Clouds 28 1005 51 16093 5.7 140 17:36 09.06.2020
1802 Clouds 28 1005 51 16093 5.7 140 17:18 09.06.2020
1803 Clouds 26 1006 51 16093 4.6 120 16:42 09.06.2020
1804 Clouds 26 1006 51 16093 4.6 120 16:22 09.06.2020
1805 Clouds 25 1007 47 16093 4.6 120 15:55 09.06.2020
1806 Clouds 25 1007 47 16093 4.6 120 15:37 09.06.2020
1807 Clouds 25 1007 47 16093 4.6 120 15:37 09.06.2020
1808 Clouds 25 1007 47 16093 4.6 120 15:18 09.06.2020
1809 Clouds 24 1008 50 16093 3.6 120 14:40 09.06.2020
1810 Clouds 24 1008 50 16093 3.6 120 14:20 09.06.2020
1811 Clouds 23 1008 47 16093 4.1 140 13:57 09.06.2020
1812 Clouds 23 1008 47 16093 4.1 140 13:38 09.06.2020
1813 Clouds 23 1008 47 16093 4.1 140 13:20 09.06.2020
1814 Clouds 23 1008 44 16093 4.6 140 12:42 09.06.2020
1815 Clouds 23 1008 44 16093 4.6 140 12:21 09.06.2020
1816 Clouds 23 1008 44 16093 4.6 140 12:21 09.06.2020
1817 Clouds 23 1010 55 0 4.53 140 11:58 09.06.2020
1818 Clouds 23 1008 44 16093 4.6 140 11:40 09.06.2020
1819 Clouds 24 1008 44 16093 4.6 140 11:20 09.06.2020
1820 Clouds 24 1009 44 16093 4.1 150 10:58 09.06.2020
1821 Clouds 24 1009 44 16093 4.1 150 10:39 09.06.2020
1822 Clouds 24 1009 44 16093 4.1 150 10:19 09.06.2020
1823 Clouds 24 1009 41 16093 3.6 140 09:41 09.06.2020
1824 Clouds 24 1009 41 16093 3.6 140 09:22 09.06.2020
1825 Clouds 25 1011 34 16093 3.6 150 08:56 09.06.2020
1826 Clouds 25 1011 34 16093 3.6 150 08:37 09.06.2020
1827 Clouds 25 1011 34 16093 3.6 150 08:19 09.06.2020
1828 Clouds 26 1011 34 16093 4.6 140 07:37 09.06.2020
1829 Clouds 26 1011 34 16093 4.6 140 07:19 09.06.2020
1830 Clouds 26 1013 41 0 5.23 146 06:52 09.06.2020
1831 Clouds 26 1011 32 16093 4.6 140 06:33 09.06.2020
1832 Clouds 26 1013 36 0 5.23 138 04:57 09.06.2020
1833 Clouds 29 1011 22 16093 6.7 140 02:52 09.06.2020
1834 Clouds 30 1012 27 16093 4.6 120 01:41 09.06.2020
1835 Clouds 30 1012 27 16093 4.6 120 01:19 09.06.2020
1836 Clouds 31 1012 27 16093 4.1 120 00:45 09.06.2020
1837 Clouds 31 1012 27 16093 4.1 120 00:20 09.06.2020
1838 Clouds 31 1013 27 16093 5.7 90 23:54 08.06.2020
1839 Clouds 31 1013 27 16093 5.7 90 23:36 08.06.2020
1840 Clouds 31 1013 27 16093 5.7 90 23:18 08.06.2020
1841 Clouds 31 1014 29 16093 6.2 110 22:41 08.06.2020
1842 Clouds 31 1014 29 16093 6.2 110 22:21 08.06.2020
1843 Clouds 30 1014 25 16093 5.7 140 21:58 08.06.2020
1844 Clouds 30 1014 25 16093 5.7 140 21:39 08.06.2020
1845 Clouds 30 1014 25 16093 5.7 140 21:21 08.06.2020
1846 Clouds 30 1015 27 16093 4.1 150 20:56 08.06.2020
1847 Clouds 29 1015 27 16093 4.1 150 20:38 08.06.2020
1848 Clouds 29 1015 27 16093 4.1 150 20:19 08.06.2020
1849 Clouds 29 1016 32 16093 3.6 180 19:44 08.06.2020
1850 Clouds 29 1016 32 16093 3.6 180 19:22 08.06.2020
1851 Clouds 29 1016 32 16093 5.7 170 18:58 08.06.2020
1852 Clouds 29 1016 32 16093 5.7 170 18:58 08.06.2020
1853 Clouds 29 1016 32 16093 5.7 170 18:39 08.06.2020
1854 Clouds 28 1016 32 16093 5.7 170 18:18 08.06.2020
1855 Clouds 27 1016 34 16093 5.7 190 17:55 08.06.2020
1856 Clouds 27 1016 34 16093 5.7 190 17:36 08.06.2020
1857 Clouds 28 1016 34 16093 5.7 190 17:18 08.06.2020
1858 Clouds 26 1016 38 16093 6.7 170 16:42 08.06.2020
1859 Clouds 26 1016 38 16093 6.7 170 16:23 08.06.2020
1860 Clouds 24 1016 43 16093 4.6 170 15:45 08.06.2020
1861 Clouds 23 1016 43 16093 4.6 170 15:23 08.06.2020
1862 Clouds 22 1016 52 16093 4.6 130 14:59 08.06.2020
1863 Clouds 22 1016 52 16093 4.6 130 14:41 08.06.2020
1864 Clouds 21 1016 52 16093 4.6 130 14:21 08.06.2020
1865 Clouds 19 1016 56 16093 3.6 160 13:44 08.06.2020
1866 Clouds 19 1016 56 16093 3.6 160 13:26 08.06.2020
1867 Clouds 18 1015 59 16093 3.6 150 12:58 08.06.2020
1868 Clouds 18 1015 59 16093 3.6 150 12:40 08.06.2020
1869 Clouds 18 1015 59 16093 3.6 150 12:19 08.06.2020
1870 Clouds 18 1015 77 16093 3.83 141 11:42 08.06.2020
1871 Clouds 17 1015 77 16093 3.73 128 11:23 08.06.2020
1872 Clouds 17 1015 77 16093 3.73 128 10:59 08.06.2020
1873 Clouds 17 1015 77 16093 3.73 128 10:40 08.06.2020
1874 Clouds 17 1015 77 16093 3.6 124 10:21 08.06.2020
1875 Clouds 17 1018 79 0 3.6 124 09:59 08.06.2020
1876 Clouds 17 1018 79 0 3.6 124 09:59 08.06.2020
1877 Clouds 17 1016 72 16093 3.6 124 09:41 08.06.2020
1878 Clouds 17 1016 72 16093 2.72 154 09:22 08.06.2020
1879 Clouds 17 1018 79 0 3.15 153 08:48 08.06.2020
1880 Clouds 18 1016 72 16093 2.6 60 08:23 08.06.2020
1881 Clear 18 1016 72 16093 2.1 50 07:46 08.06.2020
1882 Clear 18 1016 72 16093 2.1 50 07:24 08.06.2020
1883 Clear 18 1016 64 16093 2.1 90 06:54 08.06.2020
1884 Clear 19 1016 64 16093 2.1 90 06:35 08.06.2020
1885 Clouds 19 1016 60 16093 2.6 90 05:53 08.06.2020
1886 Clouds 20 1016 52 16093 4.6 80 04:29 08.06.2020
1887 Clouds 22 1017 44 16093 3.6 80 02:46 08.06.2020
1888 Clouds 24 1017 44 16093 3.6 80 02:21 08.06.2020
1889 Clouds 24 1017 41 16093 4.1 90 01:34 08.06.2020
1890 Clouds 25 1017 44 16093 5.7 70 00:33 08.06.2020
1891 Clouds 26 1018 44 16093 5.1 60 23:59 07.06.2020
1892 Clouds 25 1018 44 16093 5.1 60 23:37 07.06.2020
1893 Clouds 25 1018 44 16093 5.1 60 23:18 07.06.2020
1894 Clouds 26 1018 41 16093 4.6 90 22:40 07.06.2020
1895 Clouds 25 1018 41 16093 4.6 90 22:20 07.06.2020
1896 Clouds 25 1018 41 16093 4.6 90 21:59 07.06.2020
1897 Clouds 26 1018 44 16093 4.6 90 21:39 07.06.2020
1898 Clouds 25 1018 44 16093 4.6 90 21:20 07.06.2020
1899 Clouds 24 1019 47 16093 4.1 110 20:57 07.06.2020
1900 Clouds 24 1019 47 16093 4.1 110 20:38 07.06.2020
1901 Clouds 23 1019 47 16093 4.1 110 20:19 07.06.2020
1902 Clouds 22 1019 53 16093 4.1 70 19:56 07.06.2020
1903 Clouds 22 1019 53 16093 4.1 70 19:38 07.06.2020
1904 Clouds 22 1019 53 16093 4.1 70 19:19 07.06.2020
1905 Clouds 22 1019 49 16093 2.6 150 18:55 07.06.2020
1906 Clouds 22 1019 49 16093 2.6 150 18:36 07.06.2020
1907 Clouds 22 1019 49 16093 2.6 150 18:18 07.06.2020
1908 Clouds 21 1019 56 16093 1.5 0 17:41 07.06.2020
1909 Clouds 21 1019 56 16093 1.5 0 17:23 07.06.2020
1910 Clouds 19 1019 68 16093 3.33 91 16:45 07.06.2020
1911 Clouds 19 1019 68 16093 3.75 98 16:23 07.06.2020
1912 Clouds 18 1019 72 16093 2.6 40 15:59 07.06.2020
1913 Clouds 17 1019 72 16093 2.6 40 15:36 07.06.2020
1914 Clouds 17 1019 72 16093 2.6 40 15:18 07.06.2020
1915 Clouds 16 1019 72 16093 2.6 80 14:38 07.06.2020
1916 Clouds 16 1019 72 16093 2.6 80 14:19 07.06.2020
1917 Clouds 15 1019 77 16093 2.6 40 13:47 07.06.2020
1918 Clouds 15 1019 77 16093 2.6 40 13:47 07.06.2020
1919 Clouds 15 1019 77 16093 2.6 40 13:47 07.06.2020
1920 Clouds 14 1019 77 16093 2.6 40 13:21 07.06.2020
1921 Clouds 14 1021 83 0 2.87 73 12:45 07.06.2020
1922 Clouds 14 1021 82 0 4.13 92 12:27 07.06.2020
1923 Clouds 14 1021 82 0 4.13 92 11:56 07.06.2020
1924 Clouds 14 1021 80 0 4.13 92 11:38 07.06.2020
1925 Clouds 14 1022 79 0 3.96 64 11:20 07.06.2020
1926 Clouds 14 1022 79 0 3.96 64 10:59 07.06.2020
1927 Clouds 14 1021 77 0 3.96 64 10:40 07.06.2020
1928 Clouds 14 1021 75 0 3.89 56 10:19 07.06.2020
1929 Clouds 15 1018 67 16093 3.6 40 09:56 07.06.2020
1930 Clouds 15 1018 67 16093 3.6 40 09:38 07.06.2020
1931 Clouds 15 1018 67 16093 3.6 40 09:19 07.06.2020
1932 Clouds 15 1019 63 16093 4.6 40 08:45 07.06.2020
1933 Clouds 15 1019 63 16093 4.6 40 08:23 07.06.2020
1934 Clouds 15 1022 76 0 3.9 36 07:47 07.06.2020
1935 Clouds 15 1019 59 16093 5.7 40 07:28 07.06.2020
1936 Clouds 15 1019 59 16093 5.7 40 07:28 07.06.2020
1937 Clouds 15 1019 55 16093 5.1 30 06:38 07.06.2020
1938 Clouds 15 1020 55 16093 4.1 30 05:40 07.06.2020
1939 Clouds 16 1019 55 16093 3.6 30 04:20 07.06.2020
1940 Clouds 17 1019 52 16093 6.2 40 02:32 07.06.2020
1941 Clouds 18 1018 43 16093 5.7 20 01:50 07.06.2020
1942 Clouds 20 1018 43 16093 5.7 20 01:25 07.06.2020
1943 Clouds 21 1018 40 16093 5.7 40 00:42 07.06.2020
1944 Clouds 21 1018 40 16093 5.7 40 00:18 07.06.2020
1945 Clouds 21 1018 38 16093 5.7 70 23:57 06.06.2020
1946 Clouds 21 1018 38 16093 5.7 70 23:36 06.06.2020
1947 Clouds 21 1018 38 16093 5.7 70 23:36 06.06.2020
1948 Clouds 22 1018 38 16093 5.7 70 23:18 06.06.2020
1949 Clouds 22 1019 38 16093 6.2 20 22:56 06.06.2020
1950 Clouds 22 1019 38 16093 6.2 20 22:37 06.06.2020
1951 Clouds 22 1019 38 16093 6.2 20 22:18 06.06.2020
1952 Clouds 22 1018 36 16093 6.7 60 21:43 06.06.2020
1953 Clouds 22 1018 36 16093 6.7 60 21:22 06.06.2020
1954 Clear 22 1019 40 16093 6.2 50 20:56 06.06.2020
1955 Clear 22 1019 40 16093 6.2 50 20:37 06.06.2020
1956 Clear 21 1019 40 16093 6.2 50 20:18 06.06.2020
1957 Clouds 22 1019 43 16093 6.2 50 19:56 06.06.2020
1958 Clouds 21 1019 43 16093 6.2 50 19:37 06.06.2020
1959 Clouds 22 1019 43 16093 6.2 50 19:18 06.06.2020
1960 Clouds 21 1019 40 16093 5.1 50 18:42 06.06.2020
1961 Clouds 22 1019 40 16093 5.1 50 18:24 06.06.2020
1962 Clouds 22 1019 40 16093 5.1 50 18:24 06.06.2020
1963 Clouds 22 1018 38 16093 5.7 30 17:57 06.06.2020
1964 Clouds 22 1018 38 16093 5.7 30 17:39 06.06.2020
1965 Clouds 22 1018 38 16093 5.7 30 17:18 06.06.2020
1966 Clouds 22 1018 40 16093 5.7 40 16:40 06.06.2020
1967 Clouds 22 1018 40 16093 5.7 40 16:21 06.06.2020
1968 Clouds 22 1018 40 16093 6.2 20 15:55 06.06.2020
1969 Clouds 22 1018 40 16093 6.2 20 15:37 06.06.2020
1970 Clouds 22 1018 40 16093 6.2 20 15:18 06.06.2020
1971 Clouds 22 1017 53 16093 4.6 10 14:40 06.06.2020
1972 Clouds 22 1017 53 16093 4.6 10 14:22 06.06.2020
1973 Clouds 21 1017 83 11265 2.6 320 13:55 06.06.2020
1974 Clouds 21 1017 83 11265 2.6 320 13:37 06.06.2020
1975 Clouds 21 1017 83 11265 2.6 320 13:18 06.06.2020
1976 Clouds 20 1016 88 11265 2.1 320 12:42 06.06.2020
1977 Clouds 20 1016 88 11265 2.1 320 12:23 06.06.2020
1978 Clear 20 1015 78 14484 2.1 340 11:58 06.06.2020
1979 Clear 20 1017 86 0 3.27 337 11:38 06.06.2020
1980 Clear 20 1015 78 14484 2.1 340 11:19 06.06.2020
1981 Clear 21 1014 78 14484 1.5 350 10:57 06.06.2020
1982 Clear 20 1016 83 0 3.2 343 10:39 06.06.2020
1983 Clear 20 1016 83 0 3.2 343 10:39 06.06.2020
1984 Clear 21 1014 78 14484 1.5 350 10:20 06.06.2020
1985 Clear 21 1014 78 14484 2.76 344 09:45 06.06.2020
1986 Clear 21 1014 78 14484 2.2 353 09:27 06.06.2020
1987 Clear 22 1014 78 16093 3.1 30 08:56 06.06.2020
1988 Clear 22 1014 78 16093 3.1 30 08:38 06.06.2020
1989 Clear 22 1014 78 16093 3.1 30 08:19 06.06.2020
1990 Clear 22 1014 78 16093 3.1 30 08:19 06.06.2020
1991 Clouds 22 1014 73 16093 3.1 40 07:45 06.06.2020
1992 Clouds 23 1014 73 16093 3.1 40 07:21 06.06.2020
1993 Clouds 23 1014 73 16093 3.6 70 06:46 06.06.2020
1994 Clouds 23 1014 73 16093 3.6 70 06:27 06.06.2020
1995 Clouds 24 1013 51 16093 2.6 60 05:52 06.06.2020
1996 Clouds 25 1013 51 16093 2.6 60 05:26 06.06.2020
1997 Clouds 26 1012 45 16093 1.5 90 04:38 06.06.2020
1998 Clouds 30 1010 43 16093 4.1 280 02:36 06.06.2020
1999 Clouds 31 1010 43 16093 4.6 290 01:45 06.06.2020
2000 Clouds 31 1010 43 16093 4.6 290 01:18 06.06.2020
2001 Clouds 31 1010 43 16093 2.6 210 00:43 06.06.2020
2002 Clouds 31 1010 43 16093 2.6 210 00:25 06.06.2020
2003 Clouds 31 1010 43 16093 4.1 270 23:40 05.06.2020
2004 Clouds 32 1010 43 16093 4.1 270 23:21 05.06.2020
2005 Clouds 32 1011 40 16093 5.1 270 22:59 05.06.2020
2006 Clouds 32 1011 40 16093 5.1 270 22:41 05.06.2020
2007 Clouds 32 1011 40 16093 5.1 270 22:23 05.06.2020
2008 Clouds 32 1011 43 16093 5.1 240 21:58 05.06.2020
2009 Clouds 32 1011 43 16093 5.1 240 21:40 05.06.2020
2010 Clouds 32 1011 43 16093 5.1 240 21:19 05.06.2020
2011 Clouds 31 1011 43 16093 6.2 250 20:56 05.06.2020
2012 Clouds 31 1011 43 16093 6.2 250 20:37 05.06.2020
2013 Clouds 31 1011 43 16093 6.2 250 20:19 05.06.2020
2014 Clouds 31 1011 51 16093 5.1 250 19:40 05.06.2020
2015 Clouds 30 1011 51 16093 5.1 250 19:21 05.06.2020
2016 Clouds 30 1012 61 16093 5.1 230 18:54 05.06.2020
2017 Clouds 29 1012 61 16093 5.1 230 18:36 05.06.2020
2018 Clouds 29 1012 61 16093 5.1 230 18:18 05.06.2020
2019 Clouds 29 1011 61 16093 3.6 250 17:55 05.06.2020
2020 Clouds 28 1011 61 16093 3.6 250 17:37 05.06.2020
2021 Clouds 28 1011 61 16093 3.6 250 17:18 05.06.2020
2022 Clouds 27 1011 69 16093 4.6 240 16:37 05.06.2020
2023 Clouds 26 1011 69 16093 4.6 240 16:19 05.06.2020
2024 Clouds 25 1013 76 0 3.01 223 15:41 05.06.2020
2025 Clouds 25 1011 83 16093 3.6 230 15:21 05.06.2020
2026 Clouds 24 1011 83 16093 2.6 230 14:58 05.06.2020
2027 Clouds 24 1011 83 16093 2.6 230 14:40 05.06.2020
2028 Clouds 23 1011 83 16093 2.6 230 14:21 05.06.2020
2029 Clouds 22 1010 83 16093 2.6 210 13:47 05.06.2020
2030 Clouds 22 1010 83 16093 2.6 210 13:28 05.06.2020
2031 Clouds 22 1009 83 16093 2.6 210 12:57 05.06.2020
2032 Clouds 21 1009 83 16093 2.6 210 12:39 05.06.2020
2033 Clouds 21 1009 83 16093 2.6 210 12:19 05.06.2020
2034 Clouds 22 1009 78 16093 3.6 200 11:43 05.06.2020
2035 Clouds 22 1009 78 16093 3.6 200 11:43 05.06.2020
2036 Clouds 22 1009 78 16093 3.6 200 11:43 05.06.2020
2037 Clouds 21 1009 78 16093 3.6 200 11:24 05.06.2020
2038 Clouds 22 1009 78 16093 3.6 200 10:59 05.06.2020
2039 Clouds 22 1010 78 16093 2.1 190 10:41 05.06.2020
2040 Clouds 22 1010 78 16093 2.1 190 10:20 05.06.2020
2041 Clouds 22 1010 78 16093 2.37 220 09:57 05.06.2020
2042 Clouds 21 1010 78 16093 2.37 220 09:39 05.06.2020
2043 Clouds 21 1010 78 16093 1.52 150 09:20 05.06.2020
2044 Clouds 21 1010 78 16093 1.5 60 08:58 05.06.2020
2045 Clouds 20 1010 78 16093 1.5 60 08:40 05.06.2020
2046 Clouds 20 1010 78 16093 1.5 60 08:18 05.06.2020
2047 Clouds 20 1009 73 16093 1.5 100 07:50 05.06.2020
2048 Clouds 20 1009 73 16093 1.5 100 07:31 05.06.2020
2049 Clear 22 1010 73 16093 1.5 80 06:49 05.06.2020
2050 Clouds 23 1009 57 16093 2.1 110 05:23 05.06.2020
2051 Clouds 24 1009 51 16093 3.1 130 04:28 05.06.2020
2052 Clouds 27 1008 51 16093 4.1 130 03:30 05.06.2020
2053 Clouds 27 1008 51 16093 5.1 140 02:30 05.06.2020
2054 Clouds 27 1008 51 16093 5.1 140 01:58 05.06.2020
2055 Clouds 28 1007 51 16093 5.1 130 01:33 05.06.2020
2056 Clouds 28 1007 48 16093 3.6 120 00:46 05.06.2020
2057 Clouds 29 1007 48 16093 3.6 120 00:22 05.06.2020
2058 Clouds 29 1007 51 16093 3.6 100 23:55 04.06.2020
2059 Clouds 29 1007 51 16093 3.6 100 23:37 04.06.2020
2060 Clouds 29 1007 51 16093 3.6 100 23:18 04.06.2020
2061 Clouds 27 1008 54 16093 7.7 80 22:42 04.06.2020
2062 Clouds 28 1008 54 16093 7.7 80 22:21 04.06.2020
2063 Thunderstorm 30 1008 51 16093 2.1 90 21:58 04.06.2020
2064 Thunderstorm 30 1008 51 16093 2.1 90 21:38 04.06.2020
2065 Clouds 29 1008 51 16093 2.1 90 21:20 04.06.2020
2066 Clouds 30 1008 45 16093 2.93 54 20:57 04.06.2020
2067 Clouds 30 1008 45 16093 2.93 54 20:38 04.06.2020
2068 Clouds 30 1008 45 16093 2.53 63 20:19 04.06.2020
2069 Clouds 29 1009 54 16093 1.5 0 19:55 04.06.2020
2070 Clouds 29 1009 54 16093 1.5 0 19:37 04.06.2020
2071 Clouds 29 1009 54 16093 1.5 0 19:18 04.06.2020
2072 Clouds 28 1008 58 16093 3.1 290 18:38 04.06.2020
2073 Clouds 28 1008 58 16093 3.1 290 18:20 04.06.2020
2074 Clouds 28 1008 65 16093 4.1 280 17:56 04.06.2020
2075 Clouds 27 1008 65 16093 4.1 280 17:38 04.06.2020
2076 Clouds 27 1008 65 16093 4.1 280 17:19 04.06.2020
2077 Clouds 26 1010 71 0 0.85 9 16:40 04.06.2020
2078 Clouds 25 1008 73 16093 3.6 270 16:20 04.06.2020
2079 Clouds 24 1008 78 16093 4.1 270 15:46 04.06.2020
2080 Clouds 23 1008 78 16093 4.1 270 15:27 04.06.2020
2081 Clouds 23 1008 83 16093 2.6 260 14:55 04.06.2020
2082 Clouds 22 1008 83 16093 2.6 260 14:37 04.06.2020
2083 Clouds 22 1008 83 16093 2.6 260 14:18 04.06.2020
2084 Clouds 21 1008 88 16093 1.5 260 13:41 04.06.2020
2085 Clouds 21 1008 88 16093 1.5 260 13:21 04.06.2020
2086 Clouds 21 1008 88 16093 3.1 250 12:59 04.06.2020
2087 Clouds 21 1008 88 16093 3.1 250 12:41 04.06.2020
2088 Clouds 21 1008 88 16093 3.1 250 12:22 04.06.2020
2089 Clouds 21 1007 83 16093 3.1 230 11:55 04.06.2020
2090 Clouds 21 1007 83 16093 3.1 230 11:37 04.06.2020
2091 Clouds 21 1007 83 16093 3.1 230 11:19 04.06.2020
2092 Clouds 22 1008 78 16093 3.1 180 10:42 04.06.2020
2093 Clouds 22 1008 78 16093 3.1 180 10:23 04.06.2020
2094 Clouds 23 1008 73 16093 2.1 180 09:58 04.06.2020
2095 Clouds 23 1008 73 16093 2.1 180 09:40 04.06.2020
2096 Clouds 23 1008 73 16093 2.1 180 09:21 04.06.2020
2097 Clouds 23 1008 73 16093 3.1 220 08:44 04.06.2020
2098 Clouds 23 1008 73 16093 3.1 220 08:25 04.06.2020
2099 Clouds 23 1008 64 16093 2.6 170 07:47 04.06.2020
2100 Clouds 23 1008 64 16093 2.6 170 07:23 04.06.2020
2101 Clouds 23 1008 57 16093 2.6 130 06:42 04.06.2020
2102 Clouds 23 1008 57 16093 2.6 130 06:24 04.06.2020
2103 Clouds 23 1008 53 16093 2.1 110 05:34 04.06.2020
2104 Clouds 25 1008 39 16093 3.6 110 03:55 04.06.2020
2105 Clouds 26 1008 39 16093 2.6 110 02:56 04.06.2020
2106 Clouds 27 1008 39 16093 4.6 90 01:48 04.06.2020
2107 Clouds 27 1008 39 16093 4.6 90 01:19 04.06.2020
2108 Clouds 27 1009 48 16093 2.18 117 00:36 04.06.2020
2109 Clouds 28 1009 42 16093 1.86 80 23:41 03.06.2020
2110 Clouds 28 1009 42 16093 2.98 49 23:20 03.06.2020
2111 Clouds 29 1009 48 16093 2.98 49 22:58 03.06.2020
2112 Clouds 29 1009 48 16093 2.98 49 22:58 03.06.2020
2113 Clouds 29 1009 48 16093 2.98 49 22:39 03.06.2020
2114 Clouds 29 1009 48 16093 2.93 25 22:18 03.06.2020
2115 Clouds 28 1010 57 16093 3.1 280 21:56 03.06.2020
2116 Clouds 28 1010 57 16093 3.1 280 21:38 03.06.2020
2117 Clouds 28 1010 57 16093 3.1 280 21:20 03.06.2020
2118 Clouds 27 1011 54 16093 3.6 330 20:43 03.06.2020
2119 Clouds 26 1011 54 16093 3.6 330 20:22 03.06.2020
2120 Clouds 25 1012 69 16093 3.1 350 19:58 03.06.2020
2121 Clouds 24 1012 69 16093 3.1 350 19:40 03.06.2020
2122 Clouds 24 1012 69 16093 3.1 350 19:22 03.06.2020
2123 Clouds 22 1013 78 16093 4.6 290 18:59 03.06.2020
2124 Clouds 22 1013 78 16093 4.6 290 18:41 03.06.2020
2125 Clouds 22 1013 78 16093 4.6 290 18:20 03.06.2020
2126 Clouds 21 1012 83 16093 5.7 270 17:54 03.06.2020
2127 Clouds 21 1012 83 16093 5.7 270 17:36 03.06.2020
2128 Clouds 21 1012 83 16093 5.7 270 17:18 03.06.2020
2129 Clouds 21 1011 83 16093 4.1 270 16:41 03.06.2020
2130 Clouds 22 1011 83 16093 4.1 270 16:20 03.06.2020
2131 Rain 22 1010 83 16093 5.1 290 15:55 03.06.2020
2132 Rain 22 1010 83 16093 5.1 290 15:55 03.06.2020
2133 Rain 20 1010 83 16093 5.1 290 15:37 03.06.2020
2134 Rain 21 1010 83 16093 5.1 290 15:19 03.06.2020
2135 Rain 21 1011 73 16093 6.7 250 14:45 03.06.2020
2136 Rain 22 1011 73 16093 6.7 250 14:24 03.06.2020
2137 Clouds 22 1011 73 16093 3.6 220 13:54 03.06.2020
2138 Clouds 23 1011 73 16093 3.6 220 13:36 03.06.2020
2139 Clouds 23 1011 73 16093 3.6 220 13:18 03.06.2020
2140 Clouds 22 1011 73 16093 4.1 230 12:42 03.06.2020
2141 Clouds 22 1011 73 16093 4.1 230 12:19 03.06.2020
2142 Clouds 22 1010 73 16093 4.6 190 11:44 03.06.2020
2143 Clouds 22 1010 73 16093 4.6 190 11:26 03.06.2020
2144 Clouds 23 1011 64 16093 2.6 150 10:55 03.06.2020
2145 Clouds 23 1011 64 16093 2.6 150 10:36 03.06.2020
2146 Clouds 23 1011 64 16093 2.6 150 10:18 03.06.2020
2147 Rain 23 1013 69 0 0.47 339 09:41 03.06.2020
2148 Rain 23 1013 69 0 4.03 293 09:19 03.06.2020
2149 Clouds 23 1012 60 16093 5.7 30 08:47 03.06.2020
2150 Clouds 23 1012 60 16093 6.2 50 08:22 03.06.2020
2151 Clouds 24 1011 57 16093 6.2 260 07:58 03.06.2020
2152 Clouds 25 1011 57 16093 6.2 260 07:36 03.06.2020
2153 Clouds 27 1011 54 16093 7.7 250 07:18 03.06.2020
2154 Clouds 28 1011 54 16093 7.7 250 06:44 03.06.2020
2155 Clouds 28 1011 54 16093 7.7 250 06:22 03.06.2020
2156 Clouds 29 1010 51 16093 7.2 240 05:44 03.06.2020
2157 Clouds 31 1009 43 16093 5.7 240 04:26 03.06.2020
2158 Clouds 31 1008 40 16093 5.1 230 03:42 03.06.2020
2159 Clouds 33 1009 36 16093 7.7 250 02:39 03.06.2020
2160 Clouds 34 1009 34 16093 7.7 240 01:44 03.06.2020
2161 Clouds 34 1009 36 16093 9.8 240 00:39 03.06.2020
2162 Clouds 34 1009 36 16093 9.8 240 00:20 03.06.2020
2163 Clouds 34 1010 36 16093 8.7 250 23:45 02.06.2020
2164 Clouds 34 1010 36 16093 8.7 250 23:27 02.06.2020
2165 Clouds 33 1011 41 16093 7.2 220 22:55 02.06.2020
2166 Clouds 33 1011 41 16093 7.2 220 22:36 02.06.2020
2167 Clouds 33 1011 41 16093 7.2 220 22:18 02.06.2020
2168 Clouds 33 1011 43 16093 6.7 240 21:54 02.06.2020
2169 Clouds 32 1011 43 16093 6.7 240 21:36 02.06.2020
2170 Clouds 32 1011 43 16093 6.7 240 21:36 02.06.2020
2171 Clouds 32 1011 43 16093 6.7 240 21:18 02.06.2020
2172 Clouds 31 1012 45 16093 6.7 240 20:42 02.06.2020
2173 Clouds 31 1012 45 16093 6.7 240 20:23 02.06.2020
2174 Clouds 30 1012 48 16093 7.7 230 19:46 02.06.2020
2175 Clouds 30 1012 48 16093 7.7 230 19:27 02.06.2020
2176 Clouds 29 1013 51 16093 6.7 250 18:59 02.06.2020
2177 Clouds 29 1013 51 16093 6.7 250 18:41 02.06.2020
2178 Clouds 28 1013 51 16093 6.7 250 18:22 02.06.2020
2179 Clouds 27 1013 54 16093 7.2 250 17:59 02.06.2020
2180 Clouds 27 1013 54 16093 7.2 250 17:41 02.06.2020
2181 Clouds 27 1013 54 16093 7.2 250 17:22 02.06.2020
2182 Clouds 25 1014 60 16093 7.2 260 16:56 02.06.2020
2183 Clouds 26 1013 58 0 1.79 271 16:38 02.06.2020
2184 Clouds 25 1014 60 16093 7.2 260 16:20 02.06.2020
2185 Clouds 24 1014 61 0 3.58 289 15:42 02.06.2020
2186 Clouds 23 1014 64 16093 6.2 250 15:23 02.06.2020
2187 Clouds 22 1014 64 16093 8.2 240 14:49 02.06.2020
2188 Clouds 22 1014 64 16093 8.2 240 14:30 02.06.2020
2189 Clouds 21 1014 64 16093 8.2 240 13:58 02.06.2020
2190 Clouds 21 1014 68 16093 5.1 230 13:39 02.06.2020
2191 Clouds 20 1014 68 16093 5.1 230 13:19 02.06.2020
2192 Clouds 20 1014 68 16093 4.6 220 12:58 02.06.2020
2193 Clouds 20 1014 68 16093 4.6 220 12:40 02.06.2020
2194 Clouds 20 1014 68 16093 4.6 220 12:20 02.06.2020
2195 Clouds 20 1014 63 16093 4.6 220 11:55 02.06.2020
2196 Clouds 20 1014 63 16093 4.6 220 11:37 02.06.2020
2197 Rain 20 1014 63 16093 4.6 220 11:18 02.06.2020
2198 Rain 19 1014 59 16093 6.2 210 10:47 02.06.2020
2199 Clouds 19 1014 59 16093 6.2 210 10:28 02.06.2020
2200 Clouds 20 1015 56 16093 6.2 220 09:56 02.06.2020
2201 Clouds 20 1015 56 16093 6.2 220 09:37 02.06.2020
2202 Clouds 20 1015 56 16093 6.2 220 09:19 02.06.2020
2203 Clouds 20 1017 61 0 0.89 229 08:46 02.06.2020
2204 Clouds 20 1016 52 16093 5.7 210 08:20 02.06.2020
2205 Clouds 21 1016 52 16093 5.7 210 07:46 02.06.2020
2206 Clouds 21 1016 52 16093 5.7 210 07:25 02.06.2020
2207 Clear 21 1018 57 0 5.75 220 06:43 02.06.2020
2208 Clear 21 1018 54 0 0.45 238 05:57 02.06.2020
2209 Clear 21 1018 49 0 0.45 140 04:58 02.06.2020
2210 Clouds 23 1016 36 16093 7.2 180 03:21 02.06.2020
2211 Clouds 24 1018 43 0 2.24 231 02:25 02.06.2020
2212 Clouds 24 1017 41 16093 6.2 190 01:21 02.06.2020
2213 Clouds 24 1018 38 16093 7.2 200 00:25 02.06.2020
2214 Clouds 23 1019 40 16093 7.2 200 23:55 01.06.2020
2215 Clouds 23 1019 40 16093 7.2 200 23:36 01.06.2020
2216 Clouds 23 1019 40 16093 7.2 200 23:18 01.06.2020
2217 Rain 23 1020 38 16093 7.2 190 22:41 01.06.2020
2218 Clouds 23 1020 38 16093 7.2 190 22:21 01.06.2020
2219 Clouds 23 1020 38 16093 7.2 190 22:21 01.06.2020
2220 Rain 20 1021 52 16093 4.6 190 21:58 01.06.2020
2221 Rain 20 1021 52 16093 4.6 190 21:39 01.06.2020
2222 Rain 20 1021 52 16093 4.6 190 21:19 01.06.2020
2223 Rain 19 1023 55 14484 5.7 210 20:55 01.06.2020
2224 Rain 19 1023 55 14484 5.7 210 20:55 01.06.2020
2225 Rain 19 1023 55 14484 5.7 210 20:37 01.06.2020
2226 Clouds 19 1024 62 0 1.79 283 20:19 01.06.2020
2227 Clouds 19 1024 45 16093 5.1 210 19:43 01.06.2020
2228 Clouds 19 1024 45 16093 5.1 210 19:21 01.06.2020
2229 Clouds 19 1024 45 16093 5.1 200 18:59 01.06.2020
2230 Clouds 19 1024 45 16093 5.1 200 18:39 01.06.2020
2231 Clouds 19 1024 45 16093 5.1 200 18:20 01.06.2020
2232 Clouds 19 1024 45 16093 5.1 210 17:58 01.06.2020
2233 Clouds 19 1024 45 16093 5.1 210 17:40 01.06.2020
2234 Clouds 19 1024 45 16093 5.1 210 17:19 01.06.2020
2235 Clouds 18 1024 45 16093 3.6 200 16:42 01.06.2020
2236 Clouds 19 1024 45 16093 3.6 200 16:22 01.06.2020
2237 Clouds 18 1024 42 16093 4.1 190 15:56 01.06.2020
2238 Clouds 18 1024 42 16093 4.1 190 15:37 01.06.2020
2239 Clouds 17 1024 42 16093 4.1 190 15:19 01.06.2020
2240 Clouds 16 1025 44 16093 3.6 180 14:57 01.06.2020
2241 Clouds 16 1025 44 16093 3.6 180 14:38 01.06.2020
2242 Clouds 15 1025 44 16093 3.6 180 14:20 01.06.2020
2243 Smoke 14 1024 44 16093 3.1 170 13:44 01.06.2020
2244 Smoke 14 1024 44 16093 3.1 170 13:22 01.06.2020
2245 Clouds 13 1025 47 16093 2.6 200 12:59 01.06.2020
2246 Clouds 13 1025 47 16093 2.6 200 12:40 01.06.2020
2247 Clouds 13 1025 47 16093 2.6 200 12:40 01.06.2020
2248 Clouds 13 1025 47 16093 2.6 200 12:40 01.06.2020
2249 Clouds 13 1025 47 16093 2.6 200 12:22 01.06.2020
2250 Clouds 13 1025 50 16093 2.6 190 11:58 01.06.2020
2251 Clouds 13 1025 50 16093 2.6 190 11:37 01.06.2020
2252 Clouds 12 1025 50 16093 2.6 190 11:19 01.06.2020
2253 Clouds 12 1025 50 16093 2.6 190 11:19 01.06.2020
2254 Clouds 13 1025 50 16093 1.5 160 10:56 01.06.2020
2255 Clouds 12 1025 50 16093 1.5 160 10:36 01.06.2020
2256 Clouds 12 1025 50 16093 1.5 160 10:18 01.06.2020
2257 Clouds 12 1025 50 16093 2.6 160 09:44 01.06.2020
2258 Clouds 13 1025 50 16093 2.6 160 09:25 01.06.2020
2259 Clouds 14 1025 47 16093 2.1 140 08:57 01.06.2020
2260 Clouds 14 1025 47 16093 2.1 140 08:57 01.06.2020
2261 Clouds 14 1025 47 16093 2.1 140 08:36 01.06.2020
2262 Clouds 14 1025 47 16093 2.1 140 08:18 01.06.2020
2263 Clouds 14 1025 50 16093 2.6 140 07:41 01.06.2020
2264 Clouds 14 1025 50 16093 2.6 140 07:22 01.06.2020
2265 Clouds 14 1025 54 16093 3.1 140 06:49 01.06.2020
2266 Clouds 14 1025 58 14484 2.6 110 05:57 01.06.2020
2267 Clear 14 1028 59 0 3.99 136 04:58 01.06.2020
2268 Clear 14 1028 61 0 3.66 124 03:57 01.06.2020
2269 Clear 14 1028 61 0 3.66 124 03:37 01.06.2020
2270 Clouds 15 1025 42 16093 4.6 100 02:49 01.06.2020
2271 Clouds 16 1025 42 16093 5.1 100 01:40 01.06.2020
2272 Clouds 16 1025 42 16093 5.1 100 01:18 01.06.2020
2273 Clouds 16 1026 39 16093 6.2 80 00:46 01.06.2020
2274 Clouds 17 1026 39 16093 6.2 80 00:21 01.06.2020
2275 Clouds 17 1026 36 16093 4.1 80 23:59 31.05.2020
2276 Clouds 17 1026 36 16093 4.1 80 23:40 31.05.2020
2277 Clouds 18 1026 36 16093 4.1 80 23:22 31.05.2020
2278 Clouds 18 1027 39 16093 4.1 90 22:58 31.05.2020
2279 Clouds 18 1027 39 16093 4.1 90 22:40 31.05.2020
2280 Clouds 18 1027 39 16093 4.1 90 22:21 31.05.2020
2281 Clouds 18 1027 39 16093 3.6 90 21:57 31.05.2020
2282 Clouds 18 1027 39 16093 3.6 90 21:38 31.05.2020
2283 Clouds 18 1027 39 16093 3.6 90 21:20 31.05.2020
2284 Clouds 18 1028 39 16093 3.1 30 20:42 31.05.2020
2285 Clouds 17 1028 39 16093 3.1 30 20:24 31.05.2020
2286 Clouds 17 1028 39 16093 3.1 30 19:56 31.05.2020
2287 Clouds 16 1028 39 16093 3.1 30 19:37 31.05.2020
2288 Clouds 16 1028 39 16093 3.1 30 19:19 31.05.2020
2289 Clouds 16 1029 41 16093 3.1 90 18:44 31.05.2020
2290 Clouds 16 1029 41 16093 3.1 90 18:25 31.05.2020
2291 Clouds 15 1029 44 16093 4.6 90 17:58 31.05.2020
2292 Clouds 15 1029 44 16093 4.6 90 17:39 31.05.2020
2293 Clouds 14 1029 44 16093 4.6 90 17:20 31.05.2020
2294 Clouds 14 1029 50 16093 5.1 80 16:41 31.05.2020
2295 Clouds 13 1029 50 16093 5.1 80 16:21 31.05.2020
2296 Clouds 13 1029 50 16093 5.1 80 16:21 31.05.2020
2297 Clouds 13 1029 50 16093 5.1 80 16:21 31.05.2020
2298 Rain 13 1028 50 16093 5.1 90 15:41 31.05.2020
2299 Rain 13 1028 50 16093 5.1 90 15:23 31.05.2020
2300 Rain 13 1028 58 16093 5.1 70 14:59 31.05.2020
2301 Clouds 12 1028 58 16093 5.1 70 14:40 31.05.2020
2302 Clouds 12 1028 58 16093 5.1 70 14:19 31.05.2020
2303 Clouds 12 1027 58 16093 4.6 60 13:55 31.05.2020
2304 Clouds 11 1027 58 16093 4.6 60 13:36 31.05.2020
2305 Clouds 11 1027 58 16093 4.6 60 13:18 31.05.2020
2306 Clear 11 1027 71 16093 5.7 50 12:41 31.05.2020
2307 Clear 11 1027 71 16093 5.7 50 12:23 31.05.2020
2308 Clear 11 1026 76 16093 3.6 50 11:49 31.05.2020
2309 Clear 11 1026 76 16093 3.6 50 11:25 31.05.2020
2310 Clear 11 1026 76 16093 4.1 30 10:59 31.05.2020
2311 Clear 11 1026 76 16093 4.1 30 10:41 31.05.2020
2312 Clear 11 1026 76 16093 4.1 30 10:23 31.05.2020
2313 Clear 11 1028 80 0 4.28 69 09:57 31.05.2020
2314 Clear 12 1028 79 0 4.28 69 09:39 31.05.2020
2315 Clear 12 1028 79 0 4.32 41 09:19 31.05.2020
2316 Clear 12 1025 62 16093 3.1 30 08:42 31.05.2020
2317 Clear 12 1025 62 16093 3.1 30 08:23 31.05.2020
2318 Clear 12 1025 62 16093 3.1 30 08:23 31.05.2020
2319 Clear 13 1024 54 16093 3.1 50 07:48 31.05.2020
2320 Clear 13 1024 54 16093 3.1 50 07:21 31.05.2020
2321 Clear 13 1024 54 16093 3.1 50 07:21 31.05.2020
2322 Clear 13 1024 54 16093 2.6 70 06:56 31.05.2020
2323 Clear 13 1024 54 16093 2.6 70 06:34 31.05.2020
2324 Clear 14 1024 58 16093 5.1 70 05:48 31.05.2020
2325 Clear 14 1024 58 16093 5.1 70 05:30 31.05.2020
2326 Clouds 14 1026 70 0 4.07 42 03:57 31.05.2020
2327 Smoke 15 1022 55 16093 5.1 70 03:22 31.05.2020
2328 Clouds 16 1022 48 16093 4.1 70 02:44 31.05.2020
2329 Clouds 17 1022 52 16093 4.6 100 01:45 31.05.2020
2330 Clouds 18 1022 52 16093 5.7 90 00:37 31.05.2020
2331 Clouds 18 1022 52 16093 5.7 90 00:19 31.05.2020
2332 Clouds 18 1021 49 16093 6.2 60 23:41 30.05.2020
2333 Clouds 19 1021 49 16093 6.2 60 23:23 30.05.2020
2334 Clouds 20 1021 49 16093 5.1 70 22:42 30.05.2020
2335 Clouds 19 1021 49 16093 5.1 70 22:23 30.05.2020
2336 Clouds 20 1021 52 16093 2.1 0 21:58 30.05.2020
2337 Clouds 20 1021 52 16093 2.1 0 21:40 30.05.2020
2338 Clouds 20 1021 52 16093 2.1 0 21:22 30.05.2020
2339 Clouds 21 1021 40 16093 4.6 300 20:57 30.05.2020
2340 Clouds 20 1021 40 16093 4.6 300 20:39 30.05.2020
2341 Clouds 20 1021 40 16093 4.6 300 20:21 30.05.2020
2342 Clouds 20 1022 43 16093 5.1 330 19:44 30.05.2020
2343 Clouds 19 1022 43 16093 5.1 330 19:22 30.05.2020
2344 Clouds 19 1022 49 16093 2.6 320 18:59 30.05.2020
2345 Clouds 19 1022 49 16093 2.6 320 18:40 30.05.2020
2346 Clouds 19 1022 49 16093 2.6 320 18:18 30.05.2020
2347 Rain 19 1022 52 16093 2.1 310 17:40 30.05.2020
2348 Rain 19 1022 52 16093 2.1 310 17:22 30.05.2020
2349 Clouds 18 1022 55 16093 2.6 320 16:45 30.05.2020
2350 Clouds 18 1022 55 16093 2.6 320 16:24 30.05.2020
2351 Clouds 18 1022 55 16093 2.6 320 16:24 30.05.2020
2352 Clouds 17 1022 63 16093 2.1 340 15:59 30.05.2020
2353 Clouds 17 1022 63 16093 2.1 340 15:41 30.05.2020
2354 Clouds 17 1022 63 16093 2.1 340 15:41 30.05.2020
2355 Clouds 16 1022 63 16093 2.1 340 15:22 30.05.2020
2356 Clouds 15 1022 72 16093 3.6 340 14:43 30.05.2020
2357 Clouds 15 1022 72 16093 3.6 340 14:23 30.05.2020
2358 Clouds 14 1022 82 16093 2.6 320 13:43 30.05.2020
2359 Clouds 13 1022 82 16093 2.6 320 13:22 30.05.2020
2360 Clouds 13 1021 76 16093 2.1 330 12:42 30.05.2020
2361 Clouds 13 1021 76 16093 2.1 330 12:20 30.05.2020
2362 Clear 13 1020 76 16093 2.6 320 11:57 30.05.2020
2363 Clear 13 1020 76 16093 2.6 320 11:39 30.05.2020
2364 Clear 13 1020 76 16093 2.6 320 11:20 30.05.2020
2365 Clear 13 1020 76 16093 2.6 300 10:40 30.05.2020
2366 Clear 13 1020 76 16093 2.6 300 10:21 30.05.2020
2367 Clear 14 1020 71 16093 2.6 300 09:49 30.05.2020
2368 Clear 14 1020 71 16093 2.6 300 09:30 30.05.2020
2369 Clear 14 1020 62 16093 2.6 300 08:51 30.05.2020
2370 Clear 14 1020 62 16093 2.6 300 08:51 30.05.2020
2371 Clear 15 1020 62 16093 2.6 300 08:32 30.05.2020
2372 Clear 15 1020 59 16093 3.1 300 07:45 30.05.2020
2373 Clear 15 1020 59 16093 3.1 300 07:24 30.05.2020
2374 Clouds 16 1019 59 16093 2.6 300 06:51 30.05.2020
2375 Clouds 16 1019 59 16093 2.6 300 06:23 30.05.2020
2376 Clouds 16 1019 51 16093 4.1 310 05:49 30.05.2020
2377 Clouds 18 1020 57 0 0.45 110 03:39 30.05.2020
2378 Clouds 19 1017 49 16093 7.2 320 02:30 30.05.2020
2379 Clouds 19 1016 46 16093 7.2 310 01:48 30.05.2020
2380 Smoke 21 1015 43 16093 6.7 330 00:38 30.05.2020
2381 Smoke 20 1015 43 16093 6.7 330 00:19 30.05.2020
2382 Clouds 21 1015 43 16093 6.2 320 23:57 29.05.2020
2383 Clouds 21 1015 43 16093 6.2 320 23:37 29.05.2020
2384 Clouds 21 1014 40 16093 7.2 310 23:18 29.05.2020
2385 Clouds 23 1014 40 16093 7.2 310 22:40 29.05.2020
2386 Clouds 23 1014 40 16093 7.2 310 22:19 29.05.2020
2387 Clouds 23 1014 41 16093 8.2 310 21:58 29.05.2020
2388 Clouds 23 1014 41 16093 8.2 310 21:38 29.05.2020
2389 Clouds 23 1014 41 16093 8.2 310 21:20 29.05.2020
2390 Clouds 24 1014 44 16093 5.7 280 20:45 29.05.2020
2391 Clouds 24 1014 44 16093 5.7 280 20:20 29.05.2020
2392 Clouds 24 1014 49 16093 6.2 260 19:59 29.05.2020
2393 Clouds 24 1014 49 16093 6.2 260 19:39 29.05.2020
2394 Clouds 24 1014 49 16093 6.2 260 19:21 29.05.2020
2395 Clouds 23 1014 53 16093 5.7 250 18:46 29.05.2020
2396 Clouds 23 1014 53 16093 5.7 250 18:20 29.05.2020
2397 Clouds 22 1014 56 16093 2.6 220 17:56 29.05.2020
2398 Clouds 22 1014 56 16093 2.6 220 17:38 29.05.2020
2399 Clouds 22 1014 56 16093 2.6 220 17:19 29.05.2020
2400 Clouds 20 1014 68 16093 3.1 250 16:43 29.05.2020
2401 Clouds 20 1014 68 16093 3.1 250 16:24 29.05.2020
2402 Clouds 19 1014 72 16093 2.6 200 15:56 29.05.2020
2403 Clouds 19 1014 72 16093 2.6 200 15:38 29.05.2020
2404 Clouds 18 1014 72 16093 2.6 200 15:19 29.05.2020
2405 Clouds 16 1014 77 16093 1.5 190 14:43 29.05.2020
2406 Clouds 16 1014 77 16093 1.5 190 14:22 29.05.2020
2407 Clouds 15 1013 77 16093 2.1 60 13:44 29.05.2020
2408 Clouds 15 1013 77 16093 2.1 60 13:25 29.05.2020
2409 Clouds 15 1013 77 16093 1.5 40 12:59 29.05.2020
2410 Clouds 15 1013 77 16093 1.5 40 12:41 29.05.2020
2411 Clouds 15 1013 77 16093 1.5 40 12:22 29.05.2020
2412 Clouds 15 1015 81 0 3.7 1 11:45 29.05.2020
2413 Rain 15 1012 72 16093 4.6 40 11:26 29.05.2020
2414 Rain 16 1012 82 16093 6.7 10 10:57 29.05.2020
2415 Rain 16 1014 83 0 4.99 4 10:37 29.05.2020
2416 Rain 16 1014 84 0 7.55 348 10:18 29.05.2020
2417 Rain 16 1014 90 0 0.89 127 09:43 29.05.2020
2418 Rain 16 1012 88 16093 7.7 340 09:20 29.05.2020
2419 Rain 17 1012 93 14484 8.7 330 08:49 29.05.2020
2420 Rain 17 1014 91 0 0.45 139 08:26 29.05.2020
2421 Mist 18 1011 93 3219 3.6 290 07:59 29.05.2020
2422 Rain 18 1011 93 3219 3.6 290 07:59 29.05.2020
2423 Rain 19 1011 82 16093 2.6 50 07:39 29.05.2020
2424 Clouds 19 1011 82 16093 2.6 50 07:21 29.05.2020
2425 Clouds 19 1011 88 16093 2.6 50 06:47 29.05.2020
2426 Clouds 19 1011 88 16093 2.6 50 06:27 29.05.2020
2427 Clouds 19 1012 82 16093 2.1 10 05:46 29.05.2020
2428 Clouds 21 1009 64 16093 6.2 330 02:37 29.05.2020
2429 Clouds 25 1008 51 16093 6.2 220 01:30 29.05.2020
2430 Clouds 27 1009 51 16093 5.7 250 00:55 29.05.2020
2431 Clouds 27 1009 51 16093 5.7 250 00:34 29.05.2020
2432 Clouds 28 1009 48 16093 7.2 240 23:59 28.05.2020
2433 Clouds 28 1009 48 16093 7.2 240 23:39 28.05.2020
2434 Clouds 28 1009 48 16093 7.2 240 23:39 28.05.2020
2435 Clouds 28 1009 48 16093 7.2 240 23:19 28.05.2020
2436 Clouds 28 1009 48 16093 7.2 240 23:19 28.05.2020
2437 Clouds 28 1009 48 16093 7.2 240 23:19 28.05.2020
2438 Clouds 28 1009 54 16093 9.8 220 22:44 28.05.2020
2439 Clouds 28 1009 54 16093 9.8 220 22:26 28.05.2020
2440 Clouds 28 1010 57 16093 5.7 230 21:57 28.05.2020
2441 Clouds 27 1010 57 16093 5.7 230 21:39 28.05.2020
2442 Clouds 26 1010 57 16093 5.7 230 21:20 28.05.2020
2443 Clouds 25 1011 69 16093 5.1 230 20:57 28.05.2020
2444 Clouds 26 1011 69 16093 5.1 230 20:38 28.05.2020
2445 Clouds 25 1011 69 16093 5.1 230 20:18 28.05.2020
2446 Rain 25 1012 75 0 0.89 221 19:55 28.05.2020
2447 Rain 24 1012 77 0 0.89 233 19:37 28.05.2020
2448 Rain 24 1011 88 14484 3.6 210 19:18 28.05.2020
2449 Rain 23 1013 84 0 0.45 240 18:42 28.05.2020
2450 Rain 23 1011 83 12874 4.43 193 18:22 28.05.2020
2451 Rain 23 1012 78 16093 4.6 230 17:43 28.05.2020
2452 Rain 23 1012 78 16093 4.6 230 17:23 28.05.2020
2453 Clouds 23 1012 78 16093 5.7 210 16:58 28.05.2020
2454 Clouds 23 1012 78 16093 4.6 200 16:39 28.05.2020
2455 Clouds 23 1012 78 16093 4.6 200 16:20 28.05.2020
2456 Clouds 22 1012 83 16093 4.6 210 15:45 28.05.2020
2457 Clouds 22 1012 83 16093 4.6 210 15:24 28.05.2020
2458 Clouds 22 1012 83 16093 3.1 200 14:57 28.05.2020
2459 Clouds 22 1012 83 16093 3.6 180 14:38 28.05.2020
2460 Clouds 22 1012 83 16093 3.6 180 14:20 28.05.2020
2461 Clouds 21 1012 88 16093 3.1 170 13:43 28.05.2020
2462 Clouds 21 1012 88 16093 3.1 170 13:24 28.05.2020
2463 Clouds 21 1012 88 16093 2.6 190 12:42 28.05.2020
2464 Clouds 21 1012 88 16093 2.6 190 12:19 28.05.2020
2465 Clouds 21 1012 83 16093 2.6 190 11:44 28.05.2020
2466 Clouds 22 1012 83 16093 2.6 190 11:26 28.05.2020
2467 Clouds 22 1012 83 16093 3.1 200 10:57 28.05.2020
2468 Clouds 22 1012 83 16093 3.1 200 10:57 28.05.2020
2469 Clouds 22 1012 83 16093 3.1 200 10:39 28.05.2020
2470 Clouds 22 1012 83 16093 3.1 200 10:21 28.05.2020
2471 Clouds 22 1013 83 16093 3.1 200 09:39 28.05.2020
2472 Clouds 22 1013 83 16093 3.1 200 09:39 28.05.2020
2473 Clouds 22 1013 83 16093 3.1 200 09:21 28.05.2020
2474 Clouds 23 1013 78 16093 3.1 200 08:51 28.05.2020
2475 Clouds 23 1013 78 16093 3.1 200 08:31 28.05.2020
2476 Clouds 23 1013 88 16093 3.6 200 07:54 28.05.2020
2477 Clouds 23 1013 88 16093 3.6 200 07:36 28.05.2020
2478 Clouds 23 1013 88 16093 3.6 200 07:18 28.05.2020
2479 Rain 23 1013 88 16093 3.1 210 06:39 28.05.2020
2480 Rain 23 1013 88 16093 3.1 210 06:20 28.05.2020
2481 Clouds 23 1013 73 16093 2.1 100 05:36 28.05.2020
2482 Clouds 23 1013 78 16093 2.6 90 04:33 28.05.2020
2483 Clouds 23 1013 78 16093 3.6 100 03:48 28.05.2020
2484 Rain 24 1013 83 16093 3.1 70 02:47 28.05.2020
2485 Clouds 25 1013 65 16093 1.5 210 01:54 28.05.2020
2486 Clouds 26 1012 65 16093 3.43 136 00:56 28.05.2020
2487 Clouds 26 1012 65 16093 3.43 136 00:38 28.05.2020
2488 Clouds 26 1012 65 16093 3.89 132 00:18 28.05.2020
2489 Clouds 27 1012 54 16093 4.6 100 23:39 27.05.2020
2490 Clouds 28 1012 54 16093 4.6 100 23:21 27.05.2020
2491 Clouds 29 1012 48 16093 5.1 100 22:59 27.05.2020
2492 Clouds 28 1012 48 16093 5.1 100 22:40 27.05.2020
2493 Clouds 29 1012 48 16093 5.1 100 22:21 27.05.2020
2494 Clouds 30 1013 45 16093 5.1 140 21:42 27.05.2020
2495 Clouds 29 1013 45 16093 5.1 140 21:24 27.05.2020
2496 Clouds 29 1013 48 16093 5.7 140 20:59 27.05.2020
2497 Clouds 29 1013 48 16093 5.7 140 20:41 27.05.2020
2498 Clouds 29 1014 48 16093 3.1 170 20:22 27.05.2020
2499 Clouds 30 1013 48 16093 5.7 140 20:22 27.05.2020
2500 Clouds 29 1014 48 16093 3.1 170 19:59 27.05.2020
2501 Clouds 29 1014 48 16093 3.1 170 19:40 27.05.2020
2502 Clouds 29 1014 48 16093 3.1 170 19:19 27.05.2020
2503 Clouds 28 1014 54 16093 1.5 190 18:41 27.05.2020
2504 Clouds 28 1014 54 16093 1.5 190 18:20 27.05.2020
2505 Clouds 28 1015 54 16093 2.1 200 17:56 27.05.2020
2506 Clouds 28 1015 54 16093 2.1 200 17:37 27.05.2020
2507 Clouds 27 1015 54 16093 2.1 200 17:19 27.05.2020
2508 Clouds 27 1015 57 16093 2.6 200 16:55 27.05.2020
2509 Clouds 27 1015 54 0 1.34 219 16:36 27.05.2020
2510 Clouds 27 1015 57 16093 2.6 200 16:18 27.05.2020
2511 Clouds 26 1015 63 0 0.89 255 15:40 27.05.2020
2512 Clouds 25 1015 73 16093 2.6 220 15:21 27.05.2020
2513 Clouds 24 1015 78 16093 3.1 170 14:45 27.05.2020
2514 Clouds 24 1015 78 16093 3.1 170 14:22 27.05.2020
2515 Clouds 23 1014 78 16093 1.5 190 13:55 27.05.2020
2516 Clouds 23 1014 78 16093 1.5 190 13:37 27.05.2020
2517 Clouds 23 1014 78 16093 1.5 190 13:37 27.05.2020
2518 Clouds 23 1014 78 16093 1.5 190 13:37 27.05.2020
2519 Clouds 23 1014 78 16093 1.5 190 13:19 27.05.2020
2520 Clouds 23 1014 78 16093 3.1 200 12:40 27.05.2020
2521 Clouds 23 1014 78 16093 3.1 200 12:40 27.05.2020
2522 Clouds 23 1014 78 16093 3.1 200 12:22 27.05.2020
2523 Clouds 23 1014 73 16093 3.1 190 11:41 27.05.2020
2524 Clouds 23 1014 73 16093 3.1 190 11:22 27.05.2020
2525 Clouds 23 1014 73 16093 2.1 190 10:59 27.05.2020
2526 Clouds 23 1014 73 16093 2.1 190 10:40 27.05.2020
2527 Clouds 23 1014 73 16093 2.1 190 10:22 27.05.2020
2528 Rain 24 1014 73 16093 2.1 200 09:42 27.05.2020
2529 Rain 24 1014 73 16093 2.1 200 09:24 27.05.2020
2530 Rain 24 1015 65 16093 2.6 190 08:58 27.05.2020
2531 Clouds 24 1015 65 16093 2.6 190 08:40 27.05.2020
2532 Clouds 24 1015 65 16093 2.6 190 08:22 27.05.2020
2533 Clouds 24 1015 65 16093 2.6 190 08:22 27.05.2020
2534 Clouds 24 1016 74 0 3.87 198 07:51 27.05.2020
2535 Clouds 25 1013 72 0 3.87 198 07:33 27.05.2020
2536 Rain 25 1016 72 0 4.43 184 06:52 27.05.2020
2537 Clouds 26 1014 57 16093 3.6 170 06:24 27.05.2020
2538 Clouds 26 1014 57 16093 3.6 190 05:50 27.05.2020
2539 Clouds 27 1014 57 16093 3.6 190 05:23 27.05.2020
2540 Clouds 29 1013 51 16093 5.1 150 02:46 27.05.2020
2541 Clouds 29 1013 51 16093 5.1 150 02:24 27.05.2020
2542 Clouds 30 1013 48 16093 4.6 140 01:31 27.05.2020
2543 Clouds 30 1013 51 16093 7.2 120 00:47 27.05.2020
2544 Clouds 30 1013 51 16093 7.2 120 00:21 27.05.2020
2545 Clouds 30 1013 54 16093 4.6 130 23:58 26.05.2020
2546 Thunderstorm 30 1014 51 16093 7.2 120 23:39 26.05.2020
2547 Thunderstorm 31 1014 51 16093 7.2 120 23:20 26.05.2020
2548 Clouds 31 1014 45 16093 5.7 150 22:42 26.05.2020
2549 Clouds 31 1014 45 16093 5.7 150 22:23 26.05.2020
2550 Clouds 30 1015 48 16093 3.6 170 21:59 26.05.2020
2551 Clouds 31 1015 48 16093 3.6 170 21:41 26.05.2020
2552 Clouds 31 1015 48 16093 3.6 170 21:22 26.05.2020
2553 Clouds 31 1015 48 16093 3.6 170 21:22 26.05.2020
2554 Clouds 31 1016 54 16093 3.6 190 20:59 26.05.2020
2555 Clouds 31 1016 54 16093 3.6 190 20:41 26.05.2020
2556 Clouds 31 1016 54 16093 3.6 190 20:20 26.05.2020
2557 Clear 29 1017 55 0 0.45 126 19:41 26.05.2020
2558 Clouds 29 1016 58 16093 4.6 180 19:22 26.05.2020
2559 Clouds 28 1016 54 16093 5.7 180 18:59 26.05.2020
2560 Clouds 28 1016 54 16093 5.7 180 18:39 26.05.2020
2561 Clouds 28 1016 54 16093 5.7 180 18:21 26.05.2020
2562 Clouds 28 1016 54 16093 4.1 150 17:42 26.05.2020
2563 Clouds 28 1016 54 16093 4.1 150 17:23 26.05.2020
2564 Clouds 27 1016 57 16093 4.1 160 16:49 26.05.2020
2565 Clouds 27 1016 57 16093 4.1 160 16:24 26.05.2020
2566 Clouds 26 1016 69 16093 4.1 130 15:59 26.05.2020
2567 Clouds 26 1016 69 16093 4.1 130 15:41 26.05.2020
2568 Clouds 24 1016 69 16093 4.1 130 15:20 26.05.2020
2569 Clouds 24 1016 73 16093 3.1 120 14:55 26.05.2020
2570 Clouds 24 1016 73 16093 3.1 120 14:37 26.05.2020
2571 Clouds 23 1016 73 16093 3.1 120 14:18 26.05.2020
2572 Clouds 22 1015 78 16093 3.1 100 13:41 26.05.2020
2573 Clouds 21 1015 78 16093 3.1 100 13:22 26.05.2020
2574 Clouds 21 1015 83 16093 3.1 110 12:44 26.05.2020
2575 Clouds 21 1015 83 16093 3.1 110 12:23 26.05.2020
2576 Clouds 21 1015 83 16093 2.1 100 11:59 26.05.2020
2577 Clouds 21 1015 83 16093 2.1 100 11:41 26.05.2020
2578 Clouds 21 1015 83 16093 2.1 100 11:20 26.05.2020
2579 Clear 22 1015 73 16093 2.68 175 10:47 26.05.2020
2580 Clear 22 1015 73 16093 2.91 183 10:19 26.05.2020
2581 Clouds 22 1015 83 16093 2.91 183 09:57 26.05.2020
2582 Clouds 22 1015 83 16093 2.91 183 09:57 26.05.2020
2583 Clouds 22 1015 83 16093 2.91 183 09:37 26.05.2020
2584 Clouds 23 1016 73 16093 3.1 290 09:18 26.05.2020
2585 Clouds 23 1016 73 16093 3.1 290 09:18 26.05.2020
2586 Clouds 23 1016 73 16093 3.1 290 08:41 26.05.2020
2587 Clouds 23 1016 73 16093 3.1 290 08:22 26.05.2020
2588 Clouds 24 1016 69 16093 1.5 170 07:43 26.05.2020
2589 Clouds 25 1016 69 16093 1.5 170 07:23 26.05.2020
2590 Clouds 24 1016 61 16093 2.1 190 06:53 26.05.2020
2591 Clouds 25 1016 61 16093 2.1 190 06:28 26.05.2020
2592 Clouds 25 1016 61 16093 2.1 180 05:43 26.05.2020
2593 Clouds 25 1016 61 16093 2.1 180 05:20 26.05.2020
2594 Clouds 25 1014 65 16093 2.6 180 04:48 26.05.2020
2595 Clouds 25 1014 65 16093 2.6 180 04:29 26.05.2020
2596 Clouds 24 1014 65 16093 2.6 180 04:29 26.05.2020
2597 Clouds 25 1014 61 16093 3.6 180 03:46 26.05.2020
2598 Clouds 27 1014 51 16093 4.6 160 02:36 26.05.2020
2599 Clouds 28 1014 51 16093 4.6 220 01:47 26.05.2020
2600 Clouds 29 1014 45 16093 6.2 220 00:44 26.05.2020
2601 Clouds 30 1014 45 16093 6.2 220 00:26 26.05.2020
2602 Clouds 31 1014 40 16093 4.6 180 23:59 25.05.2020
2603 Clouds 31 1014 40 16093 4.6 180 23:39 25.05.2020
2604 Rain 31 1014 40 16093 4.6 180 23:20 25.05.2020
2605 Rain 31 1014 43 16093 3.1 250 22:56 25.05.2020
2606 Rain 31 1014 43 16093 3.1 250 22:37 25.05.2020
2607 Clouds 31 1014 43 16093 3.1 250 22:19 25.05.2020
2608 Clouds 31 1015 45 16093 2.1 0 21:58 25.05.2020
2609 Clear 31 1016 48 0 3.63 186 21:38 25.05.2020
2610 Clouds 30 1015 45 16093 2.1 0 21:20 25.05.2020
2611 Clear 31 1017 45 0 0.45 133 20:59 25.05.2020
2612 Clouds 30 1016 45 16093 2.6 230 20:59 25.05.2020
2613 -273 0 0 0 0 0 20:59 25.05.2020
2614 Clouds 30 1016 45 16093 2.6 230 20:59 25.05.2020
2615 Clouds 30 1016 45 16093 2.6 230 20:40 25.05.2020
2616 Clouds 30 1016 43 0 1.34 227 20:20 25.05.2020
2617 Clouds 30 1015 51 16093 2.6 0 19:55 25.05.2020
2618 Clouds 30 1015 51 16093 2.6 0 19:37 25.05.2020
2619 Clouds 29 1015 51 16093 2.6 0 19:18 25.05.2020
2620 Clouds 28 1015 57 16093 5.1 230 18:43 25.05.2020
2621 Clouds 28 1015 57 16093 5.1 230 18:21 25.05.2020
2622 Clouds 27 1016 69 16093 4.6 210 17:55 25.05.2020
2623 Clear 27 1016 62 0 1.34 177 17:37 25.05.2020
2624 Clouds 26 1016 69 16093 4.6 210 17:18 25.05.2020
2625 Clouds 26 1017 67 0 0.45 142 16:41 25.05.2020
2626 Clouds 25 1015 73 16093 4.1 190 16:22 25.05.2020
2627 Clouds 24 1016 73 0 2.24 260 15:58 25.05.2020
2628 Clouds 24 1015 78 16093 4.1 190 15:40 25.05.2020
2629 Clouds 23 1015 78 16093 4.1 190 15:18 25.05.2020
2630 Clouds 22 1015 83 16093 4.6 200 14:43 25.05.2020
2631 Clouds 22 1015 83 16093 4.6 200 14:24 25.05.2020
2632 Clouds 21 1014 88 16093 3.6 180 13:57 25.05.2020
2633 Clouds 21 1014 88 16093 3.6 180 13:38 25.05.2020
2634 Clouds 21 1014 88 16093 3.6 180 13:19 25.05.2020
2635 Clouds 21 1014 88 16093 3.6 200 12:54 25.05.2020
2636 Clouds 21 1015 84 0 4.08 204 12:36 25.05.2020
2637 Clouds 21 1013 83 16093 3.1 180 12:18 25.05.2020
2638 Clouds 21 1015 84 0 4.33 196 11:38 25.05.2020
2639 Clouds 21 1013 83 16093 4.6 200 11:19 25.05.2020
2640 Clouds 21 1013 83 16093 3.1 180 10:44 25.05.2020
2641 Clouds 22 1013 83 16093 3.1 180 10:21 25.05.2020
2642 Clouds 22 1014 83 16093 5.1 200 09:57 25.05.2020
2643 Clouds 22 1014 83 16093 5.1 200 09:39 25.05.2020
2644 Clouds 22 1014 83 16093 5.1 200 09:19 25.05.2020
2645 Clouds 22 1013 73 16093 5.7 180 08:58 25.05.2020
2646 Clouds 23 1013 73 16093 5.7 180 08:36 25.05.2020
2647 Clouds 23 1013 73 16093 5.7 180 08:18 25.05.2020
2648 Clouds 24 1013 73 16093 2.1 160 07:43 25.05.2020
2649 Clouds 24 1013 73 16093 2.1 160 07:21 25.05.2020
2650 Clouds 25 1013 61 16093 5.7 200 06:52 25.05.2020
2651 Clouds 25 1013 61 16093 5.7 200 06:31 25.05.2020
2652 Rain 25 1012 61 16093 3.6 150 04:18 25.05.2020
2653 Clouds 26 1011 57 16093 4.1 120 03:23 25.05.2020
2654 Clouds 26 1011 54 16093 4.1 120 02:45 25.05.2020
2655 Clouds 29 1011 54 16093 4.6 90 01:54 25.05.2020
2656 Clouds 30 1011 54 16093 4.6 90 01:28 25.05.2020
2657 Clouds 30 1011 54 16093 4.6 90 01:28 25.05.2020
2658 Clouds 31 1012 40 16093 2.1 190 00:38 25.05.2020
2659 Clouds 31 1012 40 16093 2.1 190 00:19 25.05.2020
2660 Clouds 31 1012 45 16093 3.6 200 23:56 24.05.2020
2661 Clouds 32 1012 45 16093 3.6 200 23:37 24.05.2020
2662 Clouds 31 1012 45 16093 3.6 200 23:18 24.05.2020
2663 Clouds 31 1013 43 16093 2.1 240 22:41 24.05.2020
2664 Clouds 31 1013 43 16093 2.1 240 22:19 24.05.2020
2665 Clouds 31 1013 45 16093 2.17 160 21:56 24.05.2020
2666 Clouds 32 1013 45 16093 2.17 160 21:38 24.05.2020
2667 Clouds 30 1013 45 16093 2.56 166 21:19 24.05.2020
2668 Clouds 30 1013 54 16093 3.1 200 20:44 24.05.2020
2669 Clouds 29 1013 54 16093 3.1 200 20:23 24.05.2020
2670 Clouds 29 1014 51 16093 2.6 200 19:59 24.05.2020
2671 Clouds 29 1014 51 16093 2.6 200 19:41 24.05.2020
2672 Clouds 29 1014 51 16093 2.6 200 19:19 24.05.2020
2673 Clouds 29 1014 51 16093 2.6 200 19:19 24.05.2020
2674 Clouds 28 1014 54 16093 3.1 210 18:59 24.05.2020
2675 Clouds 28 1014 54 16093 3.1 210 18:40 24.05.2020
2676 Clouds 27 1014 54 16093 3.1 210 18:22 24.05.2020
2677 Clouds 26 1014 61 16093 3.6 210 17:55 24.05.2020
2678 Clouds 26 1014 61 16093 3.6 210 17:36 24.05.2020
2679 Clouds 26 1014 61 16093 3.6 210 17:36 24.05.2020
2680 Clouds 25 1014 61 16093 3.6 210 17:18 24.05.2020
2681 Clouds 24 1014 62 0 1.79 264 16:39 24.05.2020
2682 Clouds 24 1014 69 16093 2.1 0 16:21 24.05.2020
2683 Clouds 23 1014 73 16093 2.6 260 15:57 24.05.2020
2684 Clouds 23 1014 73 16093 2.6 260 15:39 24.05.2020
2685 Clouds 21 1014 73 16093 2.6 260 15:19 24.05.2020
2686 Clouds 20 1014 88 16093 2.6 220 14:55 24.05.2020
2687 Clouds 19 1014 88 16093 2.6 220 14:37 24.05.2020
2688 Clouds 19 1014 88 16093 2.6 220 14:18 24.05.2020
2689 Clouds 18 1013 93 16093 2.1 220 13:44 24.05.2020
2690 Clouds 17 1013 93 16093 2.1 220 13:23 24.05.2020
2691 Clouds 17 1013 93 16093 2.1 220 13:23 24.05.2020
2692 Clouds 17 1013 93 16093 1.5 180 12:59 24.05.2020
2693 Clouds 17 1013 93 16093 1.5 180 12:41 24.05.2020
2694 Clouds 17 1013 93 16093 1.5 180 12:23 24.05.2020
2695 Clouds 18 1015 92 0 2.78 241 11:59 24.05.2020
2696 Clouds 18 1012 88 16093 1.5 220 11:41 24.05.2020
2697 Clouds 18 1014 92 0 2.96 238 11:23 24.05.2020
2698 Clouds 18 1014 92 0 2.96 238 11:23 24.05.2020
2699 Clouds 18 1012 88 16093 2.6 210 10:59 24.05.2020
2700 Clouds 18 1012 88 16093 2.6 210 10:39 24.05.2020
2701 Clouds 18 1012 88 16093 2.6 210 10:21 24.05.2020
2702 Clouds 18 1011 93 16093 3.1 220 09:42 24.05.2020
2703 Clouds 18 1011 93 16093 3.1 220 09:19 24.05.2020
2704 Clouds 19 1011 94 16093 2.6 220 08:59 24.05.2020
2705 Clouds 19 1011 94 16093 2.6 220 08:40 24.05.2020
2706 Clouds 19 1011 94 16093 2.6 220 08:40 24.05.2020
2707 Clouds 19 1011 94 16093 2.6 220 08:22 24.05.2020
2708 Clouds 19 1013 95 0 3.59 225 07:52 24.05.2020
2709 Clouds 19 1012 94 16093 1.5 140 07:27 24.05.2020
2710 Clouds 19 1011 94 16093 3.37 225 06:58 24.05.2020
2711 Clouds 19 1011 94 16093 3.37 225 06:37 24.05.2020
2712 Clouds 19 1011 94 16093 3.37 225 06:37 24.05.2020
2713 Rain 19 1011 88 16093 4.56 210 05:24 24.05.2020
2714 Clouds 20 1009 83 16093 5.1 130 03:42 24.05.2020
2715 Clouds 21 1009 83 16093 5.7 150 02:48 24.05.2020
2716 Clouds 23 1010 83 16093 6.2 120 01:59 24.05.2020
2717 Rain 23 1011 78 16093 4.1 130 00:43 24.05.2020
2718 Rain 21 1011 78 16093 4.1 130 00:25 24.05.2020
2719 Rain 21 1011 78 16093 4.1 130 00:25 24.05.2020
2720 Rain 20 1011 73 16093 2.1 130 23:54 23.05.2020
2721 Rain 19 1012 94 2012 5.7 250 23:36 23.05.2020
2722 Rain 19 1012 94 2012 5.7 250 23:18 23.05.2020
2723 Thunderstorm 23 1011 57 16093 5.1 140 22:55 23.05.2020
2724 Clouds 24 1011 54 16093 8.2 130 22:36 23.05.2020
2725 Clouds 25 1011 54 16093 8.2 130 22:18 23.05.2020
2726 Clouds 25 1012 51 16093 5.7 160 21:42 23.05.2020
2727 Clouds 26 1012 51 16093 5.7 160 21:21 23.05.2020
2728 Clouds 26 1013 47 16093 7.7 170 20:59 23.05.2020
2729 Clouds 26 1013 47 16093 7.7 170 20:39 23.05.2020
2730 Clouds 25 1013 47 16093 7.7 170 20:19 23.05.2020
2731 Clouds 25 1014 47 16093 7.7 140 19:58 23.05.2020
2732 Clouds 26 1014 47 16093 7.7 140 19:40 23.05.2020
2733 Clouds 24 1014 47 16093 7.7 140 19:18 23.05.2020
2734 Clouds 24 1015 60 16093 5.1 80 18:41 23.05.2020
2735 Clouds 22 1015 60 16093 5.1 80 18:22 23.05.2020
2736 Clouds 22 1015 60 16093 4.1 120 17:58 23.05.2020
2737 Clouds 22 1015 60 16093 4.1 120 17:40 23.05.2020
2738 Clouds 21 1015 60 16093 4.1 120 17:20 23.05.2020
2739 Clouds 20 1016 72 16093 3.1 130 16:59 23.05.2020
2740 Clouds 19 1016 72 16093 3.1 130 16:40 23.05.2020
2741 Rain 18 1016 72 16093 3.1 130 16:20 23.05.2020
2742 Rain 17 1015 82 16093 3.1 110 15:55 23.05.2020
2743 Rain 16 1015 82 16093 3.1 110 15:37 23.05.2020
2744 Clouds 15 1015 82 16093 3.1 110 15:19 23.05.2020
2745 Clouds 13 1015 93 12874 2.6 60 14:41 23.05.2020
2746 Clouds 13 1015 93 12874 2.6 60 14:23 23.05.2020
2747 Mist 12 1015 93 9656 2.6 80 13:42 23.05.2020
2748 Mist 12 1015 93 9656 2.6 80 13:19 23.05.2020
2749 Mist 12 1015 93 9656 2.1 70 12:59 23.05.2020
2750 Mist 12 1015 93 9656 2.1 70 12:40 23.05.2020
2751 Mist 12 1015 93 9656 2.1 70 12:40 23.05.2020
2752 Mist 12 1015 93 9656 2.1 70 12:19 23.05.2020
2753 Clouds 12 1015 100 11265 2.1 80 11:54 23.05.2020
2754 Clouds 12 1015 100 11265 2.1 80 11:36 23.05.2020
2755 Clouds 12 1015 100 11265 2.1 80 11:18 23.05.2020
2756 Clouds 12 1015 93 11265 2.75 119 10:54 23.05.2020
2757 Clouds 12 1015 93 11265 2.75 119 10:36 23.05.2020
2758 Clouds 12 1015 93 11265 2.16 129 10:18 23.05.2020
2759 Clouds 13 1015 100 11265 1.5 40 09:41 23.05.2020
2760 Clouds 13 1015 100 11265 1.5 40 09:23 23.05.2020
2761 Clear 13 1016 93 16093 2.73 120 08:54 23.05.2020
2762 Clear 13 1016 93 16093 2.73 120 08:36 23.05.2020
2763 Clear 13 1016 93 16093 2.62 124 08:18 23.05.2020
2764 Clear 13 1016 93 16093 2.1 90 07:41 23.05.2020
2765 Clouds 13 1016 93 16093 3.6 80 07:21 23.05.2020
2766 Clouds 14 1016 93 16093 3.6 80 06:42 23.05.2020
2767 Clouds 13 1016 87 16093 3.6 90 05:51 23.05.2020
2768 Clouds 15 1015 77 16093 3.1 90 03:52 23.05.2020
2769 Clouds 15 1015 77 16093 3.1 90 03:23 23.05.2020
2770 Clouds 17 1015 68 16093 5.1 80 02:28 23.05.2020
2771 Clouds 19 1015 64 16093 3.6 90 01:28 23.05.2020
2772 Clouds 20 1015 64 16093 5.1 70 00:49 23.05.2020
2773 Clouds 20 1015 64 16093 5.1 70 00:30 23.05.2020
2774 Clouds 20 1016 60 16093 3.1 80 23:59 22.05.2020
2775 Clouds 20 1016 60 16093 3.1 80 23:40 22.05.2020
2776 Clouds 20 1016 60 16093 3.1 80 23:40 22.05.2020
2777 Clouds 20 1016 60 16093 3.1 80 23:20 22.05.2020
2778 Clouds 19 1017 72 16093 3.1 90 22:57 22.05.2020
2779 Clouds 19 1017 72 16093 3.1 90 22:38 22.05.2020
2780 Clouds 19 1017 72 16093 3.1 90 22:19 22.05.2020
2781 Clouds 17 1017 63 16093 2.1 190 21:45 22.05.2020
2782 Clouds 19 1017 63 16093 2.1 190 21:22 22.05.2020
2783 Clouds 17 1017 63 16093 1.5 210 20:55 22.05.2020
2784 Clouds 16 1017 68 16093 2.6 160 20:37 22.05.2020
2785 Rain 17 1017 68 16093 2.6 160 20:18 22.05.2020
2786 Clouds 19 1017 63 16093 2.6 180 19:44 22.05.2020
2787 Clouds 20 1017 63 16093 2.6 180 19:25 22.05.2020
2788 Clouds 20 1017 72 14484 2.6 140 18:41 22.05.2020
2789 Clouds 19 1017 72 14484 2.6 140 18:21 22.05.2020
2790 Clouds 18 1017 82 12874 2.6 120 17:59 22.05.2020
2791 Clouds 18 1017 82 12874 2.6 120 17:39 22.05.2020
2792 Clouds 18 1017 82 12874 2.6 120 17:19 22.05.2020
2793 Mist 16 1018 87 8047 1.33 160 16:55 22.05.2020
2794 Mist 16 1018 87 8047 1.33 160 16:37 22.05.2020
2795 Mist 16 1018 87 8047 1.92 169 16:18 22.05.2020
2796 Mist 14 1018 93 4828 1.92 169 15:41 22.05.2020
2797 Mist 14 1018 93 4828 1.98 161 15:21 22.05.2020
2798 Mist 13 1018 100 4828 2.1 50 14:45 22.05.2020
2799 Mist 13 1018 100 4828 2.1 50 14:26 22.05.2020
2800 Mist 13 1018 93 4828 2 147 13:50 22.05.2020
2801 Mist 13 1018 93 4023 2.6 90 13:22 22.05.2020
2802 Mist 13 1018 93 4023 2.6 90 13:22 22.05.2020
2803 Mist 13 1017 93 4828 1.5 110 12:59 22.05.2020
2804 Mist 13 1017 93 4828 1.5 110 12:39 22.05.2020
2805 Rain 13 1017 93 4828 1.5 110 12:21 22.05.2020
2806 Rain 14 1017 93 4828 2.1 90 11:44 22.05.2020
2807 Drizzle 14 1017 93 4828 2.1 90 11:22 22.05.2020
2808 Rain 14 1017 93 6437 2.22 134 10:57 22.05.2020
2809 Drizzle 14 1017 93 6437 2.22 134 10:38 22.05.2020
2810 Rain 14 1017 93 6437 2.4 136 10:19 22.05.2020
2811 Rain 14 1018 87 9656 2.4 136 09:48 22.05.2020
2812 Mist 14 1018 87 9656 3.04 128 09:21 22.05.2020
2813 Drizzle 15 1018 93 9656 3.14 129 08:58 22.05.2020
2814 Clouds 14 1018 93 11265 3.14 129 08:39 22.05.2020
2815 Clouds 14 1018 93 11265 3.14 129 08:39 22.05.2020
2816 Clouds 14 1018 93 11265 3.36 125 08:18 22.05.2020
2817 Clouds 14 1018 93 12874 1.5 100 07:52 22.05.2020
2818 Clouds 13 1018 93 12874 1.5 100 07:23 22.05.2020
2819 Clouds 13 1018 93 12874 2.6 100 06:48 22.05.2020
2820 Clouds 13 1018 93 12874 2.6 100 06:29 22.05.2020
2821 Mist 13 1019 93 9656 2.6 80 05:37 22.05.2020
2822 Mist 13 1019 87 9656 2.6 90 04:49 22.05.2020
2823 Drizzle 14 1018 72 12874 3.1 100 03:51 22.05.2020
2824 Drizzle 15 1018 72 12874 3.1 100 03:32 22.05.2020
2825 Clouds 17 1018 63 16093 2.6 220 02:23 22.05.2020
2826 Clouds 17 1017 63 16093 2.8 109 01:42 22.05.2020
2827 Clouds 18 1017 63 16093 2.42 101 01:20 22.05.2020
2828 Clouds 19 1017 63 16093 2.42 101 00:33 22.05.2020
2829 Clouds 18 1018 59 16093 1.5 150 23:57 21.05.2020
2830 Clouds 19 1018 59 16093 1.5 150 23:39 21.05.2020
2831 Clouds 19 1018 59 16093 1.5 150 23:21 21.05.2020
2832 Clouds 19 1018 59 16093 3.1 90 22:57 21.05.2020
2833 Rain 19 1018 59 16093 3.1 90 22:37 21.05.2020
2834 Clouds 19 1018 59 16093 3.1 90 22:19 21.05.2020
2835 Rain 19 1019 59 16093 3.6 90 21:47 21.05.2020
2836 Clouds 19 1019 59 16093 3.6 90 21:27 21.05.2020
2837 Clouds 19 1019 59 16093 5.1 110 20:57 21.05.2020
2838 Clouds 19 1019 59 16093 5.1 110 20:39 21.05.2020
2839 Clouds 18 1019 59 16093 5.1 110 20:20 21.05.2020
2840 Clouds 18 1019 59 16093 4.6 100 19:40 21.05.2020
2841 Clouds 18 1019 59 16093 4.6 100 19:19 21.05.2020
2842 Clouds 17 1020 59 16093 3.1 70 18:56 21.05.2020
2843 Clouds 17 1020 59 16093 3.1 70 18:36 21.05.2020
2844 Rain 16 1020 59 16093 3.1 70 18:18 21.05.2020
2845 Rain 15 1021 63 16093 3.6 80 17:43 21.05.2020
2846 Clouds 15 1021 63 16093 3.6 80 17:25 21.05.2020
2847 Clouds 14 1021 63 16093 2.6 90 16:48 21.05.2020
2848 Clouds 14 1021 63 16093 2.6 90 16:27 21.05.2020
2849 Clouds 14 1021 71 16093 2.6 70 15:59 21.05.2020
2850 Clouds 14 1021 71 16093 2.6 80 15:40 21.05.2020
2851 Clouds 13 1021 71 16093 2.6 80 15:21 21.05.2020
2852 Clouds 13 1020 76 16093 3.1 80 14:41 21.05.2020
2853 Clouds 13 1020 76 16093 3.1 80 14:22 21.05.2020
2854 Clouds 13 1020 82 16093 2.6 80 13:55 21.05.2020
2855 Clouds 13 1020 82 16093 2.6 80 13:37 21.05.2020
2856 Clouds 13 1020 82 16093 2.6 80 13:18 21.05.2020
2857 Clouds 12 1020 82 16093 4.1 80 12:39 21.05.2020
2858 Clouds 13 1020 82 16093 4.1 80 12:20 21.05.2020
2859 Clouds 13 1020 82 16093 3.6 80 11:57 21.05.2020
2860 Clouds 13 1019 82 16093 2.1 90 11:39 21.05.2020
2861 Clouds 13 1019 82 16093 2.1 90 11:39 21.05.2020
2862 Clouds 13 1019 82 16093 2.1 90 11:20 21.05.2020
2863 Clouds 13 1020 82 16093 4.1 100 10:43 21.05.2020
2864 Clouds 13 1020 82 16093 4.1 100 10:23 21.05.2020
2865 Clouds 13 1020 76 16093 3.6 80 09:58 21.05.2020
2866 Rain 13 1020 76 16093 3.6 80 09:39 21.05.2020
2867 Rain 13 1020 76 16093 3.6 80 09:21 21.05.2020
2868 Rain 13 1020 71 16093 4.6 100 08:50 21.05.2020
2869 Clouds 14 1020 71 16093 4.6 100 08:31 21.05.2020
2870 Clouds 14 1020 67 16093 4.6 110 07:54 21.05.2020
2871 Clouds 14 1020 67 16093 4.6 110 07:36 21.05.2020
2872 Clouds 14 1020 62 16093 5.7 100 07:18 21.05.2020
2873 Clouds 14 1020 67 16093 6.2 120 06:26 21.05.2020
2874 Clouds 13 1021 76 16093 4.1 100 05:49 21.05.2020
2875 Rain 13 1020 63 16093 6.2 70 03:23 21.05.2020
2876 Rain 13 1020 63 16093 6.2 70 02:57 21.05.2020
2877 Rain 14 1020 63 16093 6.2 70 02:31 21.05.2020
2878 Clouds 15 1020 63 16093 8.2 80 01:49 21.05.2020
2879 Clouds 15 1020 63 16093 8.2 80 01:24 21.05.2020
2880 Clouds 16 1019 67 16093 6.7 60 00:54 21.05.2020
2881 Clouds 17 1019 67 16093 6.7 60 00:26 21.05.2020
2882 Clouds 16 1020 63 16093 7.7 60 23:56 20.05.2020
2883 Clouds 17 1020 63 16093 7.7 60 23:37 20.05.2020
2884 Clouds 17 1020 63 16093 7.7 60 23:18 20.05.2020
2885 Clouds 16 1020 63 16093 6.7 60 22:42 20.05.2020
2886 Clouds 15 1020 63 16093 6.7 60 22:23 20.05.2020
2887 Clouds 16 1021 67 16093 6.7 60 21:42 20.05.2020
2888 Clouds 16 1021 67 16093 6.7 60 21:23 20.05.2020
2889 Clouds 16 1021 63 16093 7.2 60 20:59 20.05.2020
2890 Clouds 17 1021 63 16093 7.2 60 20:41 20.05.2020
2891 Clouds 16 1021 63 16093 7.2 60 20:22 20.05.2020
2892 Clouds 16 1021 67 16093 7.7 70 19:42 20.05.2020
2893 Rain 16 1021 67 16093 7.7 70 19:23 20.05.2020
2894 Clouds 16 1021 67 16093 5.7 80 18:58 20.05.2020
2895 Clouds 15 1021 67 16093 5.7 80 18:38 20.05.2020
2896 Clouds 15 1021 67 16093 5.7 80 18:20 20.05.2020
2897 Clouds 15 1021 67 16093 5.1 80 17:39 20.05.2020
2898 Clouds 15 1021 67 16093 5.1 80 17:21 20.05.2020
2899 Clouds 14 1020 82 16093 3.6 70 16:43 20.05.2020
2900 Clouds 13 1020 82 16093 3.6 70 16:24 20.05.2020
2901 Clouds 13 1020 76 16093 5.1 90 15:58 20.05.2020
2902 Clouds 13 1020 76 16093 5.1 90 15:40 20.05.2020
2903 Rain 13 1020 76 16093 5.1 90 15:22 20.05.2020
2904 Rain 13 1019 82 16093 2.6 80 14:43 20.05.2020
2905 Clouds 13 1019 82 16093 2.6 80 14:21 20.05.2020
2906 Clouds 12 1019 82 16093 3.6 80 13:41 20.05.2020
2907 Clouds 12 1019 82 16093 3.6 80 13:20 20.05.2020
2908 Clouds 12 1019 82 16093 3.6 80 12:58 20.05.2020
2909 Clouds 12 1018 87 16093 3.6 90 12:37 20.05.2020
2910 Clouds 12 1018 87 16093 3.6 90 12:19 20.05.2020
2911 Clouds 12 1018 82 16093 4.6 90 11:36 20.05.2020
2912 Clouds 12 1018 82 16093 4.6 90 11:18 20.05.2020
2913 Clouds 12 1018 82 16093 4.6 90 11:18 20.05.2020
2914 Clouds 12 1017 87 16093 5.1 90 10:43 20.05.2020
2915 Clouds 12 1017 87 16093 5.1 90 10:20 20.05.2020
2916 Clouds 12 1018 87 16093 7.2 70 09:45 20.05.2020
2917 Clouds 12 1018 87 16093 7.2 70 09:22 20.05.2020
2918 Clouds 12 1018 87 16093 6.2 70 08:57 20.05.2020
2919 Clouds 12 1018 87 16093 6.2 70 08:39 20.05.2020
2920 Clouds 12 1018 87 16093 6.2 70 08:18 20.05.2020
2921 Clouds 12 1018 87 16093 5.7 60 07:46 20.05.2020
2922 Clouds 12 1018 87 16093 5.7 60 07:21 20.05.2020
2923 Clouds 12 1018 87 16093 5.7 60 07:21 20.05.2020
2924 Clouds 12 1018 93 16093 4.1 60 06:42 20.05.2020
2925 Clouds 13 1017 87 16093 4.6 70 05:24 20.05.2020
2926 Clouds 13 1017 87 16093 5.7 70 04:33 20.05.2020
2927 Clouds 13 1020 89 0 6.22 83 03:52 20.05.2020
2928 Rain 13 1016 93 14484 6.7 80 02:31 20.05.2020
2929 Mist 13 1015 100 11265 6.2 60 01:30 20.05.2020
2930 Rain 13 1015 87 14484 7.7 60 00:45 20.05.2020
2931 Clouds 13 1015 87 14484 7.7 60 00:24 20.05.2020
2932 Clouds 14 1014 87 12874 6.2 60 23:43 19.05.2020
2933 Clouds 14 1014 87 12874 6.2 60 23:19 19.05.2020
2934 Mist 14 1014 100 9656 5.1 50 22:56 19.05.2020
2935 Mist 13 1014 100 9656 5.1 50 22:38 19.05.2020
2936 Rain 13 1014 100 9656 5.1 50 22:19 19.05.2020
2937 Mist 12 1014 100 9656 6.2 10 21:58 19.05.2020
2938 Mist 12 1014 100 9656 6.2 10 21:38 19.05.2020
2939 Mist 12 1014 100 9656 6.2 10 21:38 19.05.2020
2940 Rain 12 1014 100 9656 6.2 10 21:19 19.05.2020
2941 Clouds 12 1014 100 12874 4.6 30 20:57 19.05.2020
2942 Clouds 12 1014 100 12874 4.6 30 20:39 19.05.2020
2943 Clouds 12 1014 100 12874 4.6 30 20:21 19.05.2020
2944 Mist 12 1013 93 9656 8.7 40 19:55 19.05.2020
2945 Mist 12 1013 93 9656 8.7 40 19:37 19.05.2020
2946 Mist 12 1013 100 6437 6.7 40 19:18 19.05.2020
2947 Mist 12 1013 100 6437 6.7 40 18:40 19.05.2020
2948 Mist 12 1013 100 6437 6.7 40 18:20 19.05.2020
2949 Mist 12 1013 100 3219 5.1 20 17:43 19.05.2020
2950 Mist 12 1013 100 3219 5.1 20 17:21 19.05.2020
2951 Mist 12 1013 100 1609 4.6 30 16:59 19.05.2020
2952 Fog 12 1013 100 402 4.6 20 16:38 19.05.2020
2953 Fog 12 1013 100 402 4.6 20 16:20 19.05.2020
2954 Drizzle 11 1013 100 1207 6.2 30 15:47 19.05.2020
2955 Rain 11 1013 100 1207 6.2 30 15:23 19.05.2020
2956 Rain 11 1012 100 805 6.2 30 14:58 19.05.2020
2957 Rain 11 1012 100 1207 7.2 20 14:39 19.05.2020
2958 Rain 10 1012 100 1207 7.2 20 14:20 19.05.2020
2959 Rain 11 1011 100 1207 5.1 20 13:58 19.05.2020
2960 Rain 11 1011 100 1207 5.1 20 13:39 19.05.2020
2961 Rain 11 1011 100 1207 5.1 20 13:20 19.05.2020
2962 Rain 11 1010 100 2816 5.1 10 12:57 19.05.2020
2963 Mist 11 1010 100 2816 5.1 10 12:38 19.05.2020
2964 Drizzle 11 1010 100 2816 5.1 10 12:20 19.05.2020
2965 Rain 11 1011 100 4023 4.6 10 11:54 19.05.2020
2966 Rain 11 1011 100 3219 3.6 10 11:36 19.05.2020
2967 Rain 11 1011 100 3219 3.6 10 11:36 19.05.2020
2968 Rain 11 1011 100 3219 3.6 10 11:18 19.05.2020
2969 Rain 11 1011 100 3219 4.6 10 10:42 19.05.2020
2970 Rain 11 1011 100 3219 4.6 10 10:23 19.05.2020
2971 Rain 11 1011 100 2414 5.1 360 09:47 19.05.2020
2972 Rain 11 1011 100 2414 4.6 360 09:25 19.05.2020
2973 Mist 11 1011 100 2414 4.6 360 09:25 19.05.2020
2974 Mist 10 1011 100 1609 4.1 360 08:59 19.05.2020
2975 Mist 10 1011 100 1207 5.7 10 08:41 19.05.2020
2976 Mist 10 1011 100 1207 5.7 10 08:23 19.05.2020
2977 Mist 11 1011 100 2414 5.7 20 07:42 19.05.2020
2978 Mist 11 1011 100 2414 5.7 20 07:42 19.05.2020
2979 Mist 10 1011 100 2414 5.7 20 07:24 19.05.2020
2980 Mist 11 1011 100 4828 5.1 10 06:41 19.05.2020
2981 Mist 11 1011 100 4828 5.1 10 06:22 19.05.2020
2982 Mist 11 1011 100 4828 4.6 20 05:39 19.05.2020
2983 Rain 10 1014 93 0 1.34 333 04:54 19.05.2020
2984 Clouds 11 1013 92 0 4.92 9 02:59 19.05.2020
2985 Clouds 12 1012 89 0 0.45 191 01:22 19.05.2020
2986 Clouds 12 1012 90 0 4.76 13 00:41 19.05.2020
2987 Clouds 12 1012 88 0 0.45 188 00:21 19.05.2020
2988 Rain 13 1012 85 0 5.14 23 23:40 18.05.2020
2989 Rain 13 1010 85 0 2.24 73 23:21 18.05.2020
2990 Rain 15 1008 68 16093 4.1 90 22:59 18.05.2020
2991 Clouds 16 1008 72 16093 4.1 80 22:39 18.05.2020
2992 Clouds 19 1008 72 16093 4.1 80 22:21 18.05.2020
2993 Clouds 15 1008 77 16093 4.1 80 21:43 18.05.2020
2994 Clouds 15 1008 77 16093 4.1 80 21:22 18.05.2020
2995 Clouds 16 1008 77 16093 4.6 60 20:58 18.05.2020
2996 Clouds 15 1008 77 16093 4.6 60 20:39 18.05.2020
2997 Clouds 15 1007 77 16093 5.1 80 20:20 18.05.2020
2998 Clouds 13 1011 84 0 2.37 104 19:56 18.05.2020
2999 Clouds 15 1007 77 16093 5.1 80 19:38 18.05.2020
3000 Clouds 14 1007 77 16093 5.1 80 19:18 18.05.2020
3001 Clouds 15 1007 68 16093 3.6 100 18:45 18.05.2020
3002 Clouds 14 1007 68 16093 3.6 100 18:22 18.05.2020
3003 Clouds 14 1007 87 16093 3.1 130 17:40 18.05.2020
3004 Clouds 15 1007 87 16093 3.1 130 17:18 18.05.2020
3005 Clouds 14 1007 93 16093 2.6 140 16:56 18.05.2020
3006 Clouds 14 1007 93 16093 2.6 140 16:38 18.05.2020
3007 Clouds 14 1007 93 16093 2.6 140 16:18 18.05.2020
3008 Mist 14 1007 100 8047 1.5 130 15:55 18.05.2020
3009 Mist 14 1007 100 8047 1.5 130 15:37 18.05.2020
3010 Mist 14 1007 100 8047 1.5 130 15:18 18.05.2020
3011 Mist 13 1006 100 8047 2.1 170 14:43 18.05.2020
3012 Mist 13 1006 100 8047 2.1 170 14:24 18.05.2020
3013 Mist 13 1005 100 6437 1.59 196 13:57 18.05.2020
3014 Mist 13 1005 100 6437 1.59 196 13:39 18.05.2020
3015 Rain 13 1005 100 6437 1.15 157 13:19 18.05.2020
3016 Rain 13 1005 100 11265 3.1 200 12:56 18.05.2020
3017 Rain 13 1005 100 11265 3.1 200 12:37 18.05.2020
3018 Clouds 13 1005 100 11265 3.1 200 12:18 18.05.2020
3019 Clouds 14 1005 100 16093 2.6 220 11:46 18.05.2020
3020 Clouds 14 1005 100 16093 2.6 220 11:27 18.05.2020
3021 Clouds 15 1004 93 16093 3.6 240 10:57 18.05.2020
3022 Clouds 15 1004 93 16093 3.6 240 10:38 18.05.2020
3023 Clouds 15 1004 93 16093 3.6 240 10:20 18.05.2020
3024 Clouds 15 1005 100 16093 3.1 210 09:42 18.05.2020
3025 Clouds 15 1005 100 16093 3.1 210 09:24 18.05.2020
3026 Rain 15 1005 100 16093 2.1 270 08:44 18.05.2020
3027 Rain 15 1005 100 16093 2.1 270 08:25 18.05.2020
3028 Rain 15 1007 97 0 3.38 221 07:52 18.05.2020
3029 Rain 16 1005 100 3219 3.1 0 07:26 18.05.2020
3030 Mist 16 1005 100 4023 3.59 209 06:50 18.05.2020
3031 Clouds 16 1005 100 11265 1.5 0 06:32 18.05.2020
3032 Clouds 16 1005 100 16093 1.5 240 05:49 18.05.2020
3033 Rain 17 1005 100 16093 2.6 190 04:42 18.05.2020
3034 Rain 17 1008 96 0 4.12 76 03:30 18.05.2020
3035 Rain 18 1005 100 2816 3.1 180 02:21 18.05.2020
3036 Rain 18 1005 100 4828 2.1 140 00:55 18.05.2020
3037 Rain 18 1008 95 0 2.9 203 00:24 18.05.2020
3038 Rain 18 1008 95 0 0.45 216 23:57 17.05.2020
3039 Rain 18 1009 95 0 0.45 200 23:38 17.05.2020
3040 Rain 18 1006 100 8047 6.2 170 23:19 17.05.2020
3041 Rain 18 1006 100 8047 6.7 170 22:55 17.05.2020
3042 Rain 18 1006 100 4828 7.7 170 22:37 17.05.2020
3043 Thunderstorm 17 1006 100 4828 7.7 170 22:18 17.05.2020
3044 Rain 17 1007 93 2816 4.6 140 21:42 17.05.2020
3045 Rain 17 1007 93 2816 4.6 140 21:20 17.05.2020
3046 Rain 17 1007 93 2414 3.6 150 20:59 17.05.2020
3047 Rain 17 1007 93 11265 5.7 140 20:40 17.05.2020
3048 Rain 17 1007 93 11265 5.7 140 20:19 17.05.2020
3049 Mist 17 1008 93 9656 5.7 140 19:55 17.05.2020
3050 Rain 16 1008 93 9656 5.7 140 19:37 17.05.2020
3051 Rain 15 1008 93 9656 5.7 140 19:18 17.05.2020
3052 Rain 15 1009 93 6437 4.1 140 18:39 17.05.2020
3053 Rain 14 1009 93 6437 4.1 140 18:21 17.05.2020
3054 Rain 14 1010 100 8047 5.7 130 17:56 17.05.2020
3055 Rain 14 1010 93 4023 3.6 140 17:36 17.05.2020
3056 Rain 14 1010 93 4023 3.6 140 17:18 17.05.2020
3057 Mist 13 1010 93 4828 5.7 100 16:39 17.05.2020
3058 Mist 13 1010 93 4828 5.7 100 16:20 17.05.2020
3059 Rain 13 1010 93 4828 5.7 100 16:20 17.05.2020
3060 Rain 13 1011 93 2414 4.1 110 15:56 17.05.2020
3061 Rain 13 1011 100 4023 3.6 110 15:36 17.05.2020
3062 Rain 13 1011 100 4023 3.6 110 15:18 17.05.2020
3063 Rain 13 1012 100 4023 3.6 100 14:42 17.05.2020
3064 Rain 13 1012 100 4023 3.6 100 14:24 17.05.2020
3065 Rain 13 1012 100 4023 5.1 100 13:43 17.05.2020
3066 Rain 13 1012 100 4023 5.1 100 13:21 17.05.2020
3067 Mist 13 1014 100 8047 4.1 70 10:50 17.05.2020
3068 Clouds 11 1018 71 16093 5.1 10 04:19 17.05.2020
3069 Clouds 11 1018 76 16093 6.7 30 02:29 17.05.2020
3070 Clouds 12 1017 67 16093 7.2 30 01:55 17.05.2020
3071 Rain 13 1018 63 16093 5.7 40 00:57 17.05.2020
3072 Rain 13 1018 63 16093 5.7 40 00:38 17.05.2020
3073 Clouds 13 1021 74 0 4.73 50 23:57 16.05.2020
3074 Clouds 13 1021 74 0 0.45 180 23:39 16.05.2020
3075 Clouds 13 1021 74 0 5.01 48 23:19 16.05.2020
3076 Clouds 14 1019 48 16093 6.2 40 22:57 16.05.2020
3077 Clouds 15 1019 48 16093 6.2 40 22:39 16.05.2020
3078 Clouds 15 1019 48 16093 6.2 40 22:19 16.05.2020
3079 Rain 16 1019 45 16093 6.2 70 21:44 16.05.2020
3080 Clouds 18 1019 45 16093 6.2 70 21:25 16.05.2020
3081 Clouds 17 1020 59 16093 4.6 40 20:57 16.05.2020
3082 Clouds 16 1020 59 16093 4.6 40 20:39 16.05.2020
3083 Clouds 16 1020 59 16093 4.6 40 20:20 16.05.2020
3084 Clouds 15 1020 59 16093 4.6 30 19:56 16.05.2020
3085 Clouds 14 1020 59 16093 4.6 30 19:37 16.05.2020
3086 Clouds 14 1020 59 16093 4.6 30 19:19 16.05.2020
3087 Clouds 14 1020 67 16093 4.6 30 18:41 16.05.2020
3088 Clouds 14 1020 67 16093 4.6 30 18:22 16.05.2020
3089 Clouds 14 1020 67 16093 4.1 70 17:55 16.05.2020
3090 Clouds 14 1020 67 16093 4.1 70 17:36 16.05.2020
3091 Clouds 13 1020 67 16093 4.1 70 17:18 16.05.2020
3092 Clouds 13 1020 76 16093 3.6 70 16:39 16.05.2020
3093 Clouds 13 1020 76 16093 3.6 70 16:20 16.05.2020
3094 Clouds 13 1020 71 16093 3.1 70 15:55 16.05.2020
3095 Clouds 12 1020 71 16093 3.1 70 15:37 16.05.2020
3096 Clouds 12 1019 76 16093 2.1 20 15:18 16.05.2020
3097 Clouds 12 1019 76 16093 2.1 20 14:42 16.05.2020
3098 Clouds 12 1019 76 16093 2.1 20 14:20 16.05.2020
3099 Clouds 11 1018 81 16093 2.6 30 13:56 16.05.2020
3100 Rain 11 1018 81 16093 2.6 30 13:37 16.05.2020
3101 Rain 10 1018 81 16093 2.6 30 13:19 16.05.2020
3102 Rain 10 1018 81 16093 3.1 40 12:44 16.05.2020
3103 Clouds 10 1018 81 16093 3.1 40 12:20 16.05.2020
3104 Clouds 10 1018 76 16093 3.1 30 11:56 16.05.2020
3105 Clouds 10 1018 76 16093 3.1 30 11:37 16.05.2020
3106 Clouds 10 1018 81 16093 3.6 30 11:18 16.05.2020
3107 Clouds 10 1018 81 16093 3.6 30 10:54 16.05.2020
3108 Clouds 11 1018 81 16093 3.6 30 10:36 16.05.2020
3109 Clouds 11 1018 81 16093 3.6 30 10:36 16.05.2020
3110 Clouds 11 1017 76 16093 4.1 20 10:18 16.05.2020
3111 Clouds 11 1017 76 16093 4.1 20 09:40 16.05.2020
3112 Clouds 11 1017 76 16093 4.1 20 09:18 16.05.2020
3113 Clouds 12 1017 87 16093 3.6 30 08:42 16.05.2020
3114 Clouds 12 1017 87 16093 3.6 30 08:21 16.05.2020
3115 Rain 12 1017 87 14484 2.6 20 07:46 16.05.2020
3116 Rain 12 1017 87 14484 2.6 20 07:26 16.05.2020
3117 Clouds 13 1019 87 0 2.72 47 06:57 16.05.2020
3118 Clouds 13 1019 86 0 2.72 47 06:37 16.05.2020
3119 Clouds 14 1019 85 0 3.19 55 06:18 16.05.2020
3120 Clouds 14 1016 59 16093 3.6 50 05:32 16.05.2020
3121 Clouds 19 1017 67 0 4.36 66 03:36 16.05.2020
3122 Clouds 20 1014 60 16093 4.1 110 02:59 16.05.2020
3123 Clouds 20 1014 60 16093 4.1 110 02:21 16.05.2020
3124 Rain 21 1014 60 16093 5.7 120 01:47 16.05.2020
3125 Rain 21 1014 60 16093 5.7 120 01:22 16.05.2020
3126 Clouds 22 1013 56 16093 4.1 130 00:46 16.05.2020
3127 Clouds 23 1013 56 16093 4.1 130 00:21 16.05.2020
3128 Clouds 24 1013 56 16093 1.5 90 23:41 15.05.2020
3129 Clouds 24 1013 56 16093 1.5 90 23:20 15.05.2020
3130 Rain 24 1013 47 16093 3.1 340 22:58 15.05.2020
3131 Rain 24 1013 47 16093 3.1 340 22:38 15.05.2020
3132 Clouds 24 1013 47 16093 3.1 340 22:18 15.05.2020
3133 Clouds 24 1013 47 16093 3.1 340 22:18 15.05.2020
3134 Rain 24 1013 56 16093 3.6 320 21:40 15.05.2020
3135 Clouds 23 1013 56 16093 3.6 320 21:21 15.05.2020
3136 Clouds 23 1013 73 16093 2.6 340 20:59 15.05.2020
3137 Rain 22 1013 73 16093 2.6 340 20:40 15.05.2020
3138 Rain 22 1013 73 16093 2.6 340 20:22 15.05.2020
3139 Rain 21 1013 77 16093 3.1 330 19:56 15.05.2020
3140 Rain 20 1013 88 16093 3.1 280 19:37 15.05.2020
3141 Rain 20 1013 88 16093 3.1 280 19:37 15.05.2020
3142 Rain 20 1013 88 16093 3.1 280 19:19 15.05.2020
3143 Clouds 18 1012 93 16093 4.6 250 18:43 15.05.2020
3144 Clouds 18 1012 93 16093 4.6 250 18:24 15.05.2020
3145 Rain 18 1012 93 11265 4.6 230 17:40 15.05.2020
3146 Rain 17 1012 93 11265 4.6 230 17:20 15.05.2020
3147 Rain 17 1011 100 4828 3.6 230 16:58 15.05.2020
3148 Rain 17 1011 100 14484 3.1 230 16:39 15.05.2020
3149 Rain 17 1011 100 14484 3.1 230 16:19 15.05.2020
3150 Rain 17 1011 100 14484 5.1 240 15:55 15.05.2020
3151 Rain 17 1011 100 14484 5.1 240 15:37 15.05.2020
3152 Rain 17 1011 100 14484 5.1 240 15:18 15.05.2020
3153 Rain 17 1011 100 11265 3.1 220 14:42 15.05.2020
3154 Rain 16 1013 96 0 2.15 217 14:24 15.05.2020
3155 Rain 16 1009 100 4828 1.5 210 13:58 15.05.2020
3156 Rain 16 1012 95 0 2.15 217 13:39 15.05.2020
3157 Rain 16 1012 95 0 2.54 218 13:20 15.05.2020
3158 Rain 16 1008 100 14484 2.1 170 12:40 15.05.2020
3159 Rain 16 1008 100 14484 2.1 170 12:40 15.05.2020
3160 Rain 16 1008 100 14484 2.1 170 12:19 15.05.2020
3161 Rain 16 1008 100 14484 2.1 170 12:19 15.05.2020
3162 Rain 16 1009 100 16093 3.6 170 11:57 15.05.2020
3163 Rain 16 1010 100 14484 3.1 180 11:38 15.05.2020
3164 Rain 15 1010 100 14484 3.1 180 11:20 15.05.2020
3165 Rain 16 1009 93 16093 2.6 70 10:58 15.05.2020
3166 Rain 16 1009 93 16093 2.6 70 10:39 15.05.2020
3167 Rain 16 1009 93 16093 2.6 70 10:21 15.05.2020
3168 Rain 17 1009 100 14484 4.1 340 09:58 15.05.2020
3169 Rain 16 1009 100 14484 4.1 340 09:37 15.05.2020
3170 Rain 17 1009 100 14484 4.1 340 09:18 15.05.2020
3171 Rain 17 1012 94 0 1.33 198 08:54 15.05.2020
3172 Rain 16 1012 93 0 0.89 83 08:36 15.05.2020
3173 Rain 16 1012 93 0 1.99 208 08:18 15.05.2020
3174 Thunderstorm 17 1009 93 9656 5.7 310 07:42 15.05.2020
3175 Thunderstorm 17 1009 93 9656 5.7 310 07:23 15.05.2020
3176 Mist 18 1009 93 4828 1.5 200 06:35 15.05.2020
3177 Clouds 19 1010 94 12874 1.5 160 05:38 15.05.2020
3178 Rain 20 1012 83 0 2.77 269 03:52 15.05.2020
3179 Rain 21 1013 82 0 3.8 198 03:31 15.05.2020
3180 Clouds 22 1012 78 16093 6.2 210 01:37 15.05.2020
3181 Clouds 22 1012 78 16093 6.2 210 01:19 15.05.2020
3182 Clouds 22 1012 78 16093 5.7 230 00:43 15.05.2020
3183 Clouds 22 1012 78 16093 5.7 230 00:22 15.05.2020
3184 Clouds 21 1012 88 12874 4.1 220 23:42 14.05.2020
3185 Clouds 21 1012 88 12874 4.1 220 23:20 14.05.2020
3186 Clouds 20 1012 93 11265 3.6 200 22:55 14.05.2020
3187 Clouds 19 1012 93 11265 3.6 200 22:37 14.05.2020
3188 Rain 19 1012 93 11265 3.6 200 22:19 14.05.2020
3189 Rain 18 1012 100 12874 4.1 220 21:42 14.05.2020
3190 Rain 18 1012 100 12874 4.1 220 21:42 14.05.2020
3191 Rain 18 1012 100 12874 4.1 220 21:20 14.05.2020
3192 Rain 17 1012 93 11265 4.6 220 20:59 14.05.2020
3193 Rain 17 1013 100 6437 5.7 220 20:40 14.05.2020
3194 Rain 16 1013 100 6437 5.7 220 20:20 14.05.2020
3195 Rain 16 1015 96 0 4.07 203 19:57 14.05.2020
3196 Mist 16 1013 100 4828 2.6 200 19:39 14.05.2020
3197 Rain 16 1013 100 4828 2.6 200 19:20 14.05.2020
3198 Rain 16 1013 100 4828 2.6 200 19:20 14.05.2020
3199 Rain 15 1015 95 0 3.56 208 18:57 14.05.2020
3200 Rain 15 1015 95 0 3.56 208 18:38 14.05.2020
3201 Rain 15 1015 95 0 4.29 211 18:19 14.05.2020
3202 Rain 15 1013 100 8047 5.7 180 17:57 14.05.2020
3203 Rain 15 1013 100 4023 3.6 170 17:37 14.05.2020
3204 Rain 14 1013 100 4023 3.6 170 17:18 14.05.2020
3205 Rain 13 1015 100 2816 1.5 40 16:41 14.05.2020
3206 Mist 13 1015 100 2816 1.5 40 16:23 14.05.2020
3207 Rain 13 1014 100 8047 2.6 160 15:59 14.05.2020
3208 Rain 13 1014 100 8047 2.6 160 15:40 14.05.2020
3209 Rain 13 1014 100 8047 2.6 160 15:21 14.05.2020
3210 Rain 13 1014 100 4023 3.6 160 14:57 14.05.2020
3211 Rain 13 1015 100 4828 3.1 240 14:39 14.05.2020
3212 Rain 13 1015 100 4828 3.1 240 14:20 14.05.2020
3213 Rain 13 1014 93 14484 5.1 170 13:57 14.05.2020
3214 Rain 13 1014 93 14484 5.1 170 13:38 14.05.2020
3215 Rain 13 1014 93 14484 5.1 170 13:38 14.05.2020
3216 Clouds 13 1014 93 14484 5.1 170 13:19 14.05.2020
3217 Clouds 13 1014 93 14484 5.1 170 13:19 14.05.2020
3218 Clouds 13 1015 93 16093 3.6 180 12:57 14.05.2020
3219 Clouds 13 1015 87 11265 4.1 170 12:38 14.05.2020
3220 Clouds 13 1015 87 11265 4.1 170 12:38 14.05.2020
3221 Clouds 12 1015 87 11265 4.1 170 12:18 14.05.2020
3222 Clouds 13 1015 87 16093 5.1 170 11:57 14.05.2020
3223 Clouds 13 1015 87 16093 5.1 170 11:38 14.05.2020
3224 Clouds 13 1015 87 16093 5.1 170 11:19 14.05.2020
3225 Rain 13 1016 87 16093 4.6 160 10:45 14.05.2020
3226 Rain 13 1016 87 16093 4.6 160 10:26 14.05.2020
3227 Rain 12 1018 87 16093 1.5 180 09:56 14.05.2020
3228 Clouds 12 1019 87 0 5.09 173 09:38 14.05.2020
3229 Rain 12 1018 87 16093 1.5 180 09:19 14.05.2020
3230 Rain 13 1019 87 6437 5.1 250 08:40 14.05.2020
3231 Rain 13 1019 87 6437 5.1 250 08:20 14.05.2020
3232 Clouds 15 1018 58 16093 7.2 170 07:45 14.05.2020
3233 Clouds 15 1018 58 16093 7.2 170 07:24 14.05.2020
3234 Clouds 15 1021 61 0 0.89 204 06:53 14.05.2020
3235 Clouds 15 1018 55 16093 5.1 170 06:28 14.05.2020
3236 Clouds 16 1019 51 16093 5.1 170 05:44 14.05.2020
3237 Clouds 16 1019 51 16093 5.1 170 05:23 14.05.2020
3238 Clouds 16 1019 51 16093 6.7 170 04:24 14.05.2020
3239 Clouds 17 1019 39 16093 5.1 170 03:21 14.05.2020
3240 Clouds 17 1021 42 0 0.45 46 02:40 14.05.2020
3241 Clouds 18 1019 32 16093 5.7 170 01:55 14.05.2020
3242 Clouds 18 1019 49 16093 8.7 140 00:58 14.05.2020
3243 Clouds 17 1019 49 16093 8.7 140 00:37 14.05.2020
3244 Clouds 18 1019 43 16093 8.7 140 00:19 14.05.2020
3245 Clouds 17 1020 43 16093 6.7 180 23:39 13.05.2020
3246 Clouds 18 1020 43 16093 6.7 180 23:18 13.05.2020
3247 Clouds 18 1021 24 16093 7.7 150 22:42 13.05.2020
3248 Clouds 18 1021 24 16093 7.7 150 22:23 13.05.2020
3249 Clouds 18 1022 25 16093 6.7 150 21:59 13.05.2020
3250 Clouds 18 1022 25 16093 6.7 150 21:59 13.05.2020
3251 Clouds 18 1022 25 16093 6.7 150 21:40 13.05.2020
3252 Clouds 18 1022 25 16093 6.7 150 21:20 13.05.2020
3253 Clouds 17 1023 27 16093 5.7 150 20:58 13.05.2020
3254 Clouds 17 1023 27 16093 5.7 150 20:39 13.05.2020
3255 Clouds 17 1023 27 16093 5.7 150 20:21 13.05.2020
3256 Clouds 16 1023 29 16093 7.2 130 19:43 13.05.2020
3257 Clouds 16 1023 29 16093 7.2 130 19:24 13.05.2020
3258 Clouds 15 1024 31 16093 3.1 120 18:45 13.05.2020
3259 Clouds 15 1024 31 16093 3.1 120 18:22 13.05.2020
3260 -273 0 0 0 0 0 17:59 13.05.2020
3261 Clouds 14 1025 30 16093 5.7 120 17:38 13.05.2020
3262 Clouds 14 1025 30 16093 5.7 120 17:38 13.05.2020
3263 Clouds 13 1025 30 16093 5.7 120 17:19 13.05.2020
3264 Clouds 13 1025 30 16093 5.7 120 17:19 13.05.2020
3265 Clouds 13 1025 32 16093 6.7 120 16:41 13.05.2020
3266 Clouds 12 1025 32 16093 6.7 120 16:20 13.05.2020
3267 Clouds 12 1026 34 16093 4.6 130 15:59 13.05.2020
3268 Clouds 11 1026 34 16093 4.6 130 15:41 13.05.2020
3269 Clouds 10 1026 34 16093 4.6 130 15:18 13.05.2020
3270 Clouds 10 1025 39 16093 6.2 130 14:55 13.05.2020
3271 Clouds 9 1025 39 16093 6.2 130 14:37 13.05.2020
3272 Clouds 9 1025 39 16093 6.2 130 14:19 13.05.2020
3273 Clouds 8 1025 42 16093 4.6 120 13:43 13.05.2020
3274 Clouds 7 1025 42 16093 4.6 120 13:23 13.05.2020
3275 Clouds 7 1025 42 16093 3.6 120 12:59 13.05.2020
3276 Clouds 7 1025 42 16093 3.6 120 12:41 13.05.2020
3277 Clouds 7 1025 42 16093 3.6 120 12:21 13.05.2020
3278 Clouds 8 1024 48 16093 3.1 130 11:56 13.05.2020
3279 Clouds 7 1024 48 16093 3.1 130 11:38 13.05.2020
3280 Clouds 7 1024 48 16093 3.1 130 11:20 13.05.2020
3281 Clouds 8 1024 56 16093 2.6 140 10:58 13.05.2020
3282 Clouds 8 1024 56 16093 2.6 140 10:38 13.05.2020
3283 Clouds 7 1024 56 16093 2.6 140 10:19 13.05.2020
3284 Clouds 8 1024 49 16093 2.6 110 09:47 13.05.2020
3285 Clouds 8 1024 49 16093 2.6 110 09:24 13.05.2020
3286 Clouds 8 1024 49 16093 3.6 90 08:58 13.05.2020
3287 Clouds 8 1024 49 16093 3.6 90 08:39 13.05.2020
3288 Clouds 8 1024 49 16093 3.6 90 08:20 13.05.2020
3289 Clouds 8 1024 45 16093 2.6 100 07:52 13.05.2020
3290 Clouds 8 1024 45 16093 2.6 100 07:32 13.05.2020
3291 Clouds 8 1024 42 16093 3.6 70 06:52 13.05.2020
3292 Clouds 7 1024 42 16093 3.6 70 06:34 13.05.2020
3293 Clouds 7 1027 45 0 4.13 89 05:37 13.05.2020
3294 Clouds 7 1026 59 0 4.11 71 03:58 13.05.2020
3295 Clouds 8 1022 32 16093 5.7 60 02:38 13.05.2020
3296 Clouds 10 1022 34 16093 5.1 70 01:46 13.05.2020
3297 Clouds 11 1022 35 16093 5.7 90 00:58 13.05.2020
3298 Clouds 12 1022 35 16093 5.7 90 00:23 13.05.2020
3299 Clouds 12 1022 33 16093 4.6 80 23:58 12.05.2020
3300 Clouds 13 1022 33 16093 4.6 80 23:39 12.05.2020
3301 Clouds 14 1022 27 16093 2.6 300 23:18 12.05.2020
3302 Clouds 15 1022 27 16093 2.6 300 22:42 12.05.2020
3303 Clouds 15 1022 27 16093 2.6 300 22:22 12.05.2020
3304 Clouds 14 1023 29 16093 4.6 300 21:57 12.05.2020
3305 Clouds 15 1023 29 16093 4.6 300 21:38 12.05.2020
3306 Clouds 15 1023 29 16093 4.6 300 21:20 12.05.2020
3307 Clouds 15 1023 29 16093 4.6 300 21:20 12.05.2020
3308 Clouds 15 1023 28 16093 4.1 270 20:59 12.05.2020
3309 Clouds 15 1023 28 16093 4.1 270 20:39 12.05.2020
3310 Clouds 14 1023 28 16093 4.1 270 20:21 12.05.2020
3311 Clouds 14 1023 30 16093 6.7 280 19:58 12.05.2020
3312 Clouds 15 1023 30 16093 6.7 280 19:39 12.05.2020
3313 Clouds 14 1023 30 16093 6.7 280 19:21 12.05.2020
3314 Clouds 15 1024 30 0 2.24 287 18:56 12.05.2020
3315 Clouds 14 1023 32 16093 6.7 280 18:38 12.05.2020
3316 Clouds 13 1023 32 16093 6.7 280 18:19 12.05.2020
3317 Clouds 13 1023 37 16093 4.1 290 17:42 12.05.2020
3318 Clouds 13 1023 37 16093 4.1 290 17:24 12.05.2020
3319 Clouds 12 1024 40 16093 4.1 280 16:47 12.05.2020
3320 Clouds 12 1024 40 16093 4.1 280 16:26 12.05.2020
3321 Clouds 11 1024 45 0 1.79 313 15:56 12.05.2020
3322 Clouds 10 1023 49 16093 3.6 280 15:38 12.05.2020
3323 Clouds 10 1023 49 16093 3.6 280 15:38 12.05.2020
3324 Clouds 9 1023 49 16093 3.6 280 15:19 12.05.2020
3325 Clouds 8 1023 54 0 2.24 297 14:57 12.05.2020
3326 Clouds 8 1023 57 0 1.34 275 14:37 12.05.2020
3327 Clouds 7 1023 70 16093 2.6 250 14:19 12.05.2020
3328 Clouds 6 1022 70 16093 2.6 250 13:58 12.05.2020
3329 Clouds 5 1022 70 16093 2.6 250 13:39 12.05.2020
3330 Clouds 4 1022 72 16093 2.6 250 13:19 12.05.2020
3331 Clear 4 1022 72 16093 2.6 250 12:57 12.05.2020
3332 Clear 4 1022 72 16093 2.6 250 12:39 12.05.2020
3333 Clear 4 1022 71 16093 2.6 250 12:21 12.05.2020
3334 Clear 4 1022 75 16093 3.1 250 11:58 12.05.2020
3335 Clear 5 1022 75 16093 3.1 250 11:38 12.05.2020
3336 Clear 5 1022 75 16093 3.1 250 11:20 12.05.2020
3337 Clear 5 1022 69 16093 2.1 250 10:58 12.05.2020
3338 Clear 5 1022 69 16093 2.1 250 10:39 12.05.2020
3339 Clear 5 1022 67 16093 2.1 250 10:21 12.05.2020
3340 Clear 6 1022 67 16093 3.1 220 09:58 12.05.2020
3341 Clear 6 1022 67 16093 3.1 220 09:39 12.05.2020
3342 Clear 6 1022 66 16093 3.1 220 09:20 12.05.2020
3343 Clear 6 1022 56 16093 3.1 220 08:42 12.05.2020
3344 Clear 6 1022 56 16093 3.1 220 08:22 12.05.2020
3345 Clear 6 1022 56 16093 3.1 230 07:58 12.05.2020
3346 Clear 6 1022 56 16093 3.1 230 07:40 12.05.2020
3347 Clear 6 1022 56 16093 3.1 230 07:21 12.05.2020
3348 Clouds 6 1022 65 16093 3.1 210 06:39 12.05.2020
3349 Clouds 6 1022 65 16093 3.1 210 06:21 12.05.2020
3350 Clouds 6 1025 73 0 3.19 257 05:49 12.05.2020
3351 Clouds 7 1022 61 16093 3.1 180 04:41 12.05.2020
3352 Clouds 7 1022 61 16093 3.1 0 03:24 12.05.2020
3353 Clouds 8 1022 61 16093 3.1 130 02:28 12.05.2020
3354 Clouds 8 1022 61 16093 4.1 120 01:48 12.05.2020
3355 Clouds 8 1022 61 16093 4.1 120 01:20 12.05.2020
3356 Clouds 7 1023 61 16093 5.1 120 00:25 12.05.2020
3357 Clouds 8 1023 61 16093 4.6 90 23:58 11.05.2020
3358 Clouds 8 1023 61 16093 4.6 90 23:40 11.05.2020
3359 Clouds 8 1023 61 16093 4.6 90 23:20 11.05.2020
3360 Clouds 9 1023 54 16093 1.5 10 22:58 11.05.2020
3361 Clouds 9 1023 54 16093 1.5 10 22:40 11.05.2020
3362 Clouds 8 1023 57 16093 1.5 10 22:19 11.05.2020
3363 Clouds 9 1023 61 16093 3.6 10 21:57 11.05.2020
3364 Clouds 8 1023 61 16093 3.6 10 21:38 11.05.2020
3365 Clouds 7 1023 61 16093 3.6 10 21:19 11.05.2020
3366 Clouds 7 1023 49 16093 4.6 340 20:57 11.05.2020
3367 Clouds 7 1023 49 16093 4.6 340 20:38 11.05.2020
3368 Clouds 7 1023 49 16093 4.6 340 20:19 11.05.2020
3369 Clouds 7 1023 49 16093 4.1 300 19:54 11.05.2020
3370 Clouds 7 1023 49 16093 4.1 300 19:36 11.05.2020
3371 Clouds 7 1023 49 16093 4.1 300 19:18 11.05.2020
3372 Clouds 7 1023 49 16093 4.6 330 18:54 11.05.2020
3373 Clouds 7 1023 49 16093 4.6 330 18:36 11.05.2020
3374 Clouds 7 1027 56 0 1.34 356 18:18 11.05.2020
3375 Clouds 7 1023 49 16093 5.1 290 17:40 11.05.2020
3376 Clouds 7 1023 49 16093 5.1 290 17:22 11.05.2020
3377 Clouds 7 1023 52 16093 5.1 340 16:58 11.05.2020
3378 Clouds 7 1023 52 16093 5.1 340 16:38 11.05.2020
3379 Clouds 7 1023 52 16093 5.1 340 16:20 11.05.2020
3380 Clouds 6 1022 60 16093 4.6 320 15:54 11.05.2020
3381 Clouds 5 1022 60 16093 4.6 320 15:36 11.05.2020
3382 Clouds 5 1022 60 16093 4.6 320 15:18 11.05.2020
3383 Clouds 5 1022 80 16093 2.6 310 14:41 11.05.2020
3384 Clouds 5 1022 80 16093 2.6 310 14:22 11.05.2020
3385 Clouds 4 1021 86 16093 2.6 290 13:58 11.05.2020
3386 Clouds 4 1021 86 16093 2.6 290 13:39 11.05.2020
3387 Clouds 4 1021 86 16093 2.6 290 13:18 11.05.2020
3388 Clouds 4 1021 86 16093 2.6 290 13:18 11.05.2020
3389 Clouds 4 1021 86 16093 3.1 310 12:56 11.05.2020
3390 Clouds 4 1021 86 16093 3.1 310 12:38 11.05.2020
3391 Clouds 5 1021 86 16093 3.1 310 12:19 11.05.2020
3392 Clouds 4 1021 86 16093 3.1 290 11:42 11.05.2020
3393 Clouds 5 1021 86 16093 3.1 290 11:22 11.05.2020
3394 Clouds 5 1021 86 16093 3.6 290 10:59 11.05.2020
3395 Clouds 4 1021 86 16093 3.6 290 10:40 11.05.2020
3396 Clouds 4 1021 86 16093 3.6 290 10:22 11.05.2020
3397 Clouds 4 1021 93 16093 2.6 260 09:59 11.05.2020
3398 Clouds 4 1021 93 16093 2.6 260 09:41 11.05.2020
3399 Clouds 4 1021 93 16093 2.6 260 09:20 11.05.2020
3400 Clouds 4 1021 93 16093 1.5 240 08:56 11.05.2020
3401 Clouds 4 1021 93 16093 1.5 240 08:37 11.05.2020
3402 Clouds 4 1021 93 16093 1.5 240 08:18 11.05.2020
3403 Clouds 4 1021 93 16093 1.5 320 07:42 11.05.2020
3404 Clouds 4 1021 93 16093 1.5 320 07:23 11.05.2020
3405 Clouds 4 1021 93 16093 3.8 352 06:43 11.05.2020
3406 Clouds 4 1021 86 16093 4.41 350 05:58 11.05.2020
3407 Clouds 4 1021 86 16093 4.51 342 05:25 11.05.2020
3408 Rain 3 1020 93 16093 2.6 350 04:31 11.05.2020
3409 Rain 3 1020 93 12874 5.1 320 02:59 11.05.2020
3410 Rain 3 1020 93 12874 5.1 320 02:29 11.05.2020
3411 Rain 3 1019 93 12874 6.7 340 01:34 11.05.2020
3412 Rain 3 1021 88 0 1.79 302 00:52 11.05.2020
3413 Rain 3 1018 86 12874 9.8 350 00:19 11.05.2020
3414 Rain 3 1018 86 12874 9.8 350 00:19 11.05.2020
3415 Rain 3 1016 93 16093 7.7 360 23:43 10.05.2020
3416 Rain 4 1016 93 16093 7.7 360 23:24 10.05.2020
3417 Rain 4 1019 88 0 1.34 326 22:55 10.05.2020
3418 Rain 4 1019 88 0 1.79 158 22:37 10.05.2020
3419 Rain 4 1016 86 8047 7.2 360 22:19 10.05.2020
3420 Rain 5 1018 88 0 0.45 53 21:44 10.05.2020
3421 Rain 6 1014 66 16093 5.1 300 21:20 10.05.2020
3422 Rain 7 1014 81 16093 4.6 280 20:55 10.05.2020
3423 Clouds 8 1014 81 16093 5.7 260 20:36 10.05.2020
3424 Clouds 8 1014 81 16093 5.7 260 20:36 10.05.2020
3425 Clouds 9 1014 81 16093 5.7 260 20:18 10.05.2020
3426 Rain 8 1014 76 16093 5.1 250 19:40 10.05.2020
3427 Rain 9 1014 76 16093 5.1 250 19:22 10.05.2020
3428 Clouds 9 1014 81 16093 5.7 270 18:57 10.05.2020
3429 Clouds 9 1014 76 16093 7.2 270 18:37 10.05.2020
3430 Clouds 9 1014 76 16093 7.2 270 18:19 10.05.2020
3431 Rain 9 1014 81 16093 6.7 270 17:59 10.05.2020
3432 Rain 9 1013 93 9656 5.1 250 17:40 10.05.2020
3433 Rain 9 1013 93 9656 5.1 250 17:21 10.05.2020
3434 Rain 8 1014 93 9656 5.7 290 16:57 10.05.2020
3435 Rain 9 1014 93 9656 5.7 290 16:38 10.05.2020
3436 Rain 9 1014 93 9656 5.7 290 16:19 10.05.2020
3437 Clouds 11 1014 71 16093 4.6 260 15:44 10.05.2020
3438 Clouds 10 1014 71 16093 4.6 260 15:25 10.05.2020
3439 Rain 10 1017 74 0 4.07 234 14:59 10.05.2020
3440 Rain 10 1014 73 0 2.24 267 14:38 10.05.2020
3441 Clouds 10 1014 71 0 2.24 294 14:20 10.05.2020
3442 Clouds 11 1014 62 16093 4.6 260 13:59 10.05.2020
3443 Clouds 11 1014 62 16093 4.6 260 13:38 10.05.2020
3444 Clouds 11 1014 62 16093 4.6 260 13:20 10.05.2020
3445 Clouds 11 1014 53 16093 4.6 230 12:57 10.05.2020
3446 Clouds 11 1014 53 16093 4.6 230 12:38 10.05.2020
3447 Clouds 11 1014 53 16093 4.6 230 12:20 10.05.2020
3448 Clouds 11 1015 50 16093 5.7 210 11:56 10.05.2020
3449 Clouds 11 1015 50 16093 5.7 210 11:38 10.05.2020
3450 Clouds 11 1015 50 16093 5.7 210 11:19 10.05.2020
3451 Clouds 11 1015 70 16093 4.1 240 10:46 10.05.2020
3452 Clouds 11 1015 66 16093 4.1 240 10:27 10.05.2020
3453 Clouds 11 1016 43 16093 6.2 210 09:58 10.05.2020
3454 Clouds 11 1016 43 16093 6.2 210 09:39 10.05.2020
3455 Clouds 11 1016 43 16093 6.2 210 09:20 10.05.2020
3456 Clouds 11 1017 34 16093 6.2 200 08:48 10.05.2020
3457 Clouds 11 1017 34 16093 6.2 200 08:24 10.05.2020
3458 Clouds 12 1017 34 16093 5.1 210 07:45 10.05.2020
3459 Clouds 12 1017 34 16093 5.1 210 07:21 10.05.2020
3460 Clouds 11 1018 37 16093 4.6 210 06:56 10.05.2020
3461 Clouds 11 1018 37 16093 4.6 210 06:30 10.05.2020
3462 Clouds 12 1018 32 16093 3.6 190 05:50 10.05.2020
3463 Clouds 12 1018 28 16093 3.1 190 04:54 10.05.2020
3464 Clouds 12 1018 28 16093 3.1 190 04:34 10.05.2020
3465 Clouds 12 1018 26 16093 4.1 240 03:54 10.05.2020
3466 Clouds 13 1018 26 16093 4.1 240 03:36 10.05.2020
3467 Clear 14 1018 26 0 3.13 276 02:41 10.05.2020
3468 Clouds 14 1018 24 16093 6.2 250 02:19 10.05.2020
3469 Clouds 14 1019 22 16093 4.6 250 01:42 10.05.2020
3470 Clouds 14 1019 22 16093 4.6 250 01:19 10.05.2020
3471 Clouds 15 1020 20 16093 6.2 270 00:54 10.05.2020
3472 Clouds 14 1020 20 16093 6.2 270 00:24 10.05.2020
3473 Clouds 14 1020 20 16093 5.1 270 23:59 09.05.2020
3474 Clouds 14 1020 20 16093 5.1 270 23:39 09.05.2020
3475 Clouds 14 1020 20 16093 5.1 270 23:20 09.05.2020
3476 Clouds 14 1021 24 16093 8.7 280 22:42 09.05.2020
3477 Clouds 14 1021 24 16093 8.7 280 22:24 09.05.2020
3478 Clouds 13 1022 26 16093 5.7 250 21:58 09.05.2020
3479 Clouds 13 1022 26 16093 5.7 250 21:40 09.05.2020
3480 Clouds 13 1022 26 16093 5.7 250 21:21 09.05.2020
3481 Clouds 12 1023 25 16093 5.7 260 20:58 09.05.2020
3482 Clouds 12 1023 25 16093 5.7 260 20:38 09.05.2020
3483 Clouds 12 1023 25 16093 5.7 260 20:20 09.05.2020
3484 Clouds 12 1023 29 16093 3.6 240 19:56 09.05.2020
3485 Clouds 11 1023 29 16093 3.6 240 19:38 09.05.2020
3486 Clouds 11 1023 29 16093 3.6 240 19:18 09.05.2020
3487 Clouds 10 1024 29 16093 5.1 290 18:43 09.05.2020
3488 Clouds 10 1024 29 16093 5.1 290 18:24 09.05.2020
3489 Clear 9 1024 33 16093 5.7 260 17:46 09.05.2020
3490 Clear 9 1024 33 16093 5.7 260 17:23 09.05.2020
3491 Clear 8 1027 37 0 4.83 276 16:57 09.05.2020
3492 Clouds 7 1024 41 16093 6.2 240 16:39 09.05.2020
3493 Clouds 7 1024 41 16093 6.2 240 16:19 09.05.2020
3494 Clouds 7 1024 41 16093 6.2 240 16:19 09.05.2020
3495 Clear 5 1028 45 0 5.3 264 15:44 09.05.2020
3496 Clear 4 1024 51 0 2.24 263 15:26 09.05.2020
3497 Clear 3 1027 54 0 5.18 256 14:57 09.05.2020
3498 Clouds 3 1023 74 16093 4.6 230 14:39 09.05.2020
3499 Clouds 2 1023 74 16093 4.6 230 14:18 09.05.2020
3500 Clouds 1 1023 71 16093 3.6 250 13:56 09.05.2020
3501 Clouds 1 1023 71 16093 3.6 250 13:38 09.05.2020
3502 Clouds 0 1022 75 16093 2.1 240 13:18 09.05.2020
3503 Clouds 0 1022 75 16093 2.1 240 13:18 09.05.2020
3504 Clouds 0 1022 75 16093 2.1 240 12:41 09.05.2020
3505 Clouds 0 1022 74 16093 2.1 240 12:22 09.05.2020
3506 Clear 0 1023 74 16093 2.1 260 11:45 09.05.2020
3507 Clear 0 1023 74 16093 2.1 260 11:20 09.05.2020
3508 Clear 0 1022 74 16093 1.5 270 10:56 09.05.2020
3509 Clear 0 1022 74 16093 1.5 270 10:38 09.05.2020
3510 Clear 0 1022 73 16093 1.5 270 10:20 09.05.2020
3511 Clear 1 1023 69 16093 2.1 300 09:54 09.05.2020
3512 Clear 1 1023 69 16093 2.1 300 09:36 09.05.2020
3513 Clear 1 1023 69 16093 2.1 300 09:18 09.05.2020
3514 Clear 1 1022 59 16093 4.21 298 08:43 09.05.2020
3515 Clear 1 1022 59 16093 4.03 280 08:25 09.05.2020
3516 Clear 1 1022 55 16093 1.5 130 07:48 09.05.2020
3517 Clear 1 1022 55 16093 1.5 130 07:30 09.05.2020
3518 Clear 1 1022 55 16093 2.6 100 06:45 09.05.2020
3519 Clear 1 1022 55 16093 2.6 100 06:21 09.05.2020
3520 Clear 2 1022 59 16093 3.1 80 05:44 09.05.2020
3521 Clouds 2 1021 51 16093 4.6 80 03:44 09.05.2020
3522 Clouds 2 1021 51 16093 4.6 80 03:21 09.05.2020
3523 Clouds 3 1020 48 16093 5.1 70 02:30 09.05.2020
3524 Clouds 3 1020 48 16093 5.7 60 01:51 09.05.2020
3525 Clouds 4 1020 48 16093 5.7 60 01:23 09.05.2020
3526 Clouds 4 1020 41 16093 5.7 30 00:46 09.05.2020
3527 Clouds 5 1020 41 16093 5.7 30 00:28 09.05.2020
3528 Clouds 5 1019 41 16093 7.2 40 23:48 08.05.2020
3529 Clouds 5 1019 41 16093 7.2 40 23:28 08.05.2020
3530 Clouds 5 1019 48 16093 7.2 30 22:57 08.05.2020
3531 Clouds 5 1019 48 16093 7.2 30 22:39 08.05.2020
3532 Clouds 5 1019 48 16093 7.2 30 22:19 08.05.2020
3533 Clouds 5 1019 48 16093 8.7 40 21:58 08.05.2020
3534 Clouds 5 1019 48 16093 8.7 40 21:39 08.05.2020
3535 Clouds 5 1019 48 16093 9.3 40 21:18 08.05.2020
3536 Clouds 5 1019 48 16093 9.3 40 20:56 08.05.2020
3537 Clouds 5 1019 48 16093 9.3 40 20:38 08.05.2020
3538 Clouds 5 1019 48 16093 9.3 40 20:20 08.05.2020
3539 Clouds 5 1019 52 16093 9.3 30 19:43 08.05.2020
3540 Clouds 5 1019 52 16093 9.3 30 19:23 08.05.2020
3541 Clouds 5 1018 48 16093 8.2 10 18:50 08.05.2020
3542 Clouds 5 1018 48 16093 8.2 10 18:31 08.05.2020
3543 Clouds 5 1021 53 0 2.24 276 17:55 08.05.2020
3544 Clouds 5 1017 55 16093 9.3 10 17:37 08.05.2020
3545 Clouds 5 1017 55 16093 9.3 10 17:18 08.05.2020
3546 Clouds 4 1017 60 16093 8.7 30 16:42 08.05.2020
3547 Clouds 4 1017 60 16093 8.7 30 16:24 08.05.2020
3548 Clouds 4 1016 56 16093 9.8 30 15:55 08.05.2020
3549 Clouds 4 1016 56 16093 9.8 30 15:37 08.05.2020
3550 Clouds 4 1016 56 16093 9.8 30 15:18 08.05.2020
3551 Clouds 4 1015 60 16093 9.8 10 14:41 08.05.2020
3552 Clouds 4 1015 60 16093 9.8 10 14:20 08.05.2020
3553 Clouds 4 1018 64 0 2.24 198 13:58 08.05.2020
3554 Clouds 4 1018 65 0 0.45 162 13:39 08.05.2020
3555 Clouds 4 1018 65 0 0.45 162 13:39 08.05.2020
3556 Clouds 4 1018 66 0 2.24 169 13:19 08.05.2020
3557 Clouds 4 1017 66 0 0.45 34 12:45 08.05.2020
3558 Clouds 5 1012 64 16093 7.7 20 12:25 08.05.2020
3559 Clouds 5 1015 72 0 6.73 22 11:55 08.05.2020
3560 Clouds 5 1012 64 16093 7.2 10 11:37 08.05.2020
3561 Clouds 5 1012 64 16093 7.2 10 11:37 08.05.2020
3562 Clouds 5 1012 59 16093 7.2 10 11:18 08.05.2020
3563 Clouds 5 1015 75 0 4.13 10 10:54 08.05.2020
3564 Clouds 5 1015 75 0 4.13 10 10:54 08.05.2020
3565 Clouds 6 1015 73 0 0.45 292 10:36 08.05.2020
3566 Clouds 6 1015 70 0 0.45 288 10:18 08.05.2020
3567 Clouds 6 1012 56 16093 3.6 20 09:41 08.05.2020
3568 Clouds 6 1012 56 16093 3.6 20 09:19 08.05.2020
3569 Clouds 6 1012 52 16093 5.1 30 08:51 08.05.2020
3570 Clouds 7 1012 52 16093 5.1 30 08:25 08.05.2020
3571 Clouds 7 1015 67 0 1.18 41 07:54 08.05.2020
3572 Clouds 7 1012 49 16093 1.5 10 07:36 08.05.2020
3573 Clouds 7 1015 64 0 0.46 115 07:18 08.05.2020
3574 Clouds 8 1012 45 16093 0.46 115 06:39 08.05.2020
3575 Clouds 8 1012 45 16093 1.35 144 06:18 08.05.2020
3576 Clouds 8 1012 45 16093 1.5 90 05:24 08.05.2020
3577 Clouds 8 1013 37 16093 3.6 70 02:59 08.05.2020
3578 Clouds 9 1013 37 16093 3.6 70 02:24 08.05.2020
3579 Clouds 9 1013 37 16093 5.7 80 01:38 08.05.2020
3580 Clouds 10 1013 37 16093 5.7 80 01:19 08.05.2020
3581 Clouds 12 1013 40 16093 6.7 70 00:46 08.05.2020
3582 Clouds 12 1013 40 16093 6.7 70 00:24 08.05.2020
3583 Clouds 14 1014 45 16093 5.7 70 23:46 07.05.2020
3584 Clouds 16 1014 42 16093 5.7 70 23:24 07.05.2020
3585 Clouds 16 1014 43 16093 6.2 60 22:59 07.05.2020
3586 Clouds 15 1014 43 16093 6.2 60 22:41 07.05.2020
3587 Clouds 15 1014 43 16093 6.2 60 22:20 07.05.2020
3588 Clouds 15 1014 43 16093 6.2 60 22:20 07.05.2020
3589 Clouds 17 1014 27 16093 6.7 300 21:56 07.05.2020
3590 Clouds 16 1014 27 16093 6.7 300 21:38 07.05.2020
3591 Clouds 13 1014 27 16093 6.7 300 21:19 07.05.2020
3592 Clouds 14 1015 27 16093 7.2 310 20:55 07.05.2020
3593 Clouds 18 1015 27 16093 7.2 310 20:36 07.05.2020
3594 Clouds 18 1015 27 16093 7.2 310 20:18 07.05.2020
3595 Clouds 18 1015 27 16093 9.8 310 19:43 07.05.2020
3596 Clouds 18 1015 27 16093 9.8 310 19:21 07.05.2020
3597 Clouds 17 1015 29 16093 8.2 290 18:46 07.05.2020
3598 Clouds 17 1015 29 16093 8.2 290 18:28 07.05.2020
3599 Clouds 17 1015 29 16093 6.2 290 17:58 07.05.2020
3600 Clouds 17 1015 29 16093 6.2 290 17:37 07.05.2020
3601 Clouds 17 1015 29 16093 6.2 290 17:19 07.05.2020
3602 Clouds 15 1016 41 16093 5.1 300 16:42 07.05.2020
3603 Clouds 15 1016 41 16093 5.1 300 16:19 07.05.2020
3604 Clear 14 1018 45 0 0.45 333 15:57 07.05.2020
3605 Clouds 13 1016 58 16093 4.6 290 15:37 07.05.2020
3606 Clouds 12 1016 58 16093 4.6 290 15:18 07.05.2020
3607 Clear 11 1018 59 0 0.89 316 14:55 07.05.2020
3608 Clear 11 1015 71 16093 5.1 270 14:37 07.05.2020
3609 Clear 10 1015 71 16093 5.1 270 14:18 07.05.2020
3610 Clear 9 1015 76 16093 4.1 270 13:40 07.05.2020
3611 Clear 9 1015 76 16093 4.1 270 13:21 07.05.2020
3612 Clear 9 1015 76 16093 3.1 260 12:41 07.05.2020
3613 Clear 9 1015 76 16093 3.6 270 12:20 07.05.2020
3614 Clear 9 1015 76 16093 3.6 270 11:40 07.05.2020
3615 Clear 9 1015 76 16093 3.6 270 11:21 07.05.2020
3616 Clear 10 1016 66 16093 4.6 270 10:57 07.05.2020
3617 Clear 10 1016 66 16093 4.6 270 10:38 07.05.2020
3618 Clear 10 1016 66 16093 4.6 270 10:19 07.05.2020
3619 Clear 11 1016 58 16093 5.1 270 09:39 07.05.2020
3620 Clear 11 1016 58 16093 5.1 270 09:20 07.05.2020
3621 Clouds 11 1016 58 16093 4.6 280 08:54 07.05.2020
3622 Clouds 11 1016 58 16093 4.6 280 08:36 07.05.2020
3623 Clouds 11 1017 58 16093 4.6 270 08:18 07.05.2020
3624 Clouds 12 1017 58 16093 4.6 270 07:41 07.05.2020
3625 Clouds 12 1017 58 16093 4.6 270 07:21 07.05.2020
3626 Clouds 12 1017 58 16093 4.1 250 06:38 07.05.2020
3627 Clouds 12 1017 58 16093 4.1 250 06:19 07.05.2020
3628 Clouds 12 1020 44 0 2.71 213 04:41 07.05.2020
3629 Clouds 12 1020 40 0 2.22 198 03:47 07.05.2020
3630 Clouds 13 1017 30 16093 2.1 170 03:20 07.05.2020
3631 Clouds 13 1018 28 16093 3.6 150 02:41 07.05.2020
3632 Clouds 14 1018 26 16093 3.1 130 01:40 07.05.2020
3633 Clouds 15 1018 26 16093 3.1 130 01:22 07.05.2020
3634 Clouds 15 1018 25 16093 4.1 60 00:44 07.05.2020
3635 Clouds 15 1018 25 16093 4.1 60 00:25 07.05.2020
3636 Clouds 15 1019 26 16093 3.1 80 23:45 06.05.2020
3637 Clouds 15 1019 26 16093 3.1 80 23:24 06.05.2020
3638 Clouds 15 1019 26 16093 2.6 60 22:57 06.05.2020
3639 Clouds 15 1019 26 16093 2.6 60 22:38 06.05.2020
3640 Clouds 15 1019 26 16093 2.6 60 22:38 06.05.2020
3641 Clouds 15 1019 26 16093 2.6 60 22:19 06.05.2020
3642 Clouds 15 1020 26 16093 3.1 340 21:56 06.05.2020
3643 Clouds 15 1020 26 16093 3.1 340 21:37 06.05.2020
3644 Clouds 14 1020 26 16093 3.1 340 21:18 06.05.2020
3645 Clouds 13 1020 28 16093 3.1 360 20:42 06.05.2020
3646 Clouds 13 1020 28 16093 3.1 360 20:22 06.05.2020
3647 Clouds 13 1020 28 16093 3.1 360 20:22 06.05.2020
3648 Clouds 13 1020 30 16093 3.6 20 19:57 06.05.2020
3649 Clouds 13 1020 30 16093 3.6 20 19:38 06.05.2020
3650 Clouds 12 1020 30 16093 3.6 20 19:19 06.05.2020
3651 Clouds 12 1020 34 16093 5.1 50 18:58 06.05.2020
3652 Clouds 11 1020 34 16093 5.1 50 18:38 06.05.2020
3653 Clouds 11 1020 34 16093 5.1 50 18:20 06.05.2020
3654 Clouds 11 1020 34 16093 5.1 50 18:20 06.05.2020
3655 Clouds 11 1020 37 16093 5.1 350 17:56 06.05.2020
3656 Clouds 11 1020 37 16093 5.1 350 17:56 06.05.2020
3657 Clouds 11 1020 37 16093 5.1 350 17:38 06.05.2020
3658 Clouds 10 1020 37 16093 5.1 350 17:20 06.05.2020
3659 Clouds 10 1019 39 16093 3.1 350 16:58 06.05.2020
3660 Clouds 9 1019 39 16093 3.1 350 16:40 06.05.2020
3661 Clouds 9 1019 39 16093 3.1 350 16:20 06.05.2020
3662 Clouds 9 1019 39 16093 4.6 360 15:57 06.05.2020
3663 Clouds 8 1019 39 16093 4.6 360 15:39 06.05.2020
3664 Clouds 8 1019 39 16093 4.6 360 15:20 06.05.2020
3665 Clouds 6 1019 48 16093 3.1 340 14:42 06.05.2020
3666 Clouds 6 1019 48 16093 3.1 340 14:19 06.05.2020
3667 Clouds 5 1022 55 0 5.14 348 13:59 06.05.2020
3668 Clouds 4 1018 64 16093 3.1 310 13:39 06.05.2020
3669 Clouds 4 1018 64 16093 3.1 310 13:21 06.05.2020
3670 Clouds 4 1018 55 16093 2.1 300 12:44 06.05.2020
3671 Clouds 4 1018 55 16093 2.1 300 12:26 06.05.2020
3672 Clouds 5 1021 54 0 5.42 344 11:59 06.05.2020
3673 Clouds 5 1021 53 0 5.42 344 11:39 06.05.2020
3674 Clouds 5 1018 45 16093 2.6 330 11:21 06.05.2020
3675 Clouds 5 1017 41 16093 3.6 330 10:56 06.05.2020
3676 Clouds 5 1021 52 0 5.31 347 10:37 06.05.2020
3677 Clouds 5 1021 53 0 5.05 347 10:18 06.05.2020
3678 Clouds 5 1017 48 16093 3.1 300 09:40 06.05.2020
3679 Clouds 5 1017 48 16093 3.1 300 09:21 06.05.2020
3680 Clouds 5 1017 48 16093 3.1 320 08:45 06.05.2020
3681 Clouds 5 1017 48 16093 3.1 320 08:22 06.05.2020
3682 Clouds 5 1021 55 0 4.68 354 07:58 06.05.2020
3683 Clouds 6 1018 48 16093 3.6 340 07:39 06.05.2020
3684 Clouds 6 1018 48 16093 3.6 340 07:20 06.05.2020
3685 Clouds 6 1018 52 16093 2.1 340 06:49 06.05.2020
3686 Clouds 6 1018 52 16093 2.1 340 06:21 06.05.2020
3687 Clouds 6 1018 56 16093 3.6 20 05:51 06.05.2020
3688 Clouds 6 1018 56 16093 3.6 20 05:32 06.05.2020
3689 Clouds 6 1017 56 16093 3.6 20 04:31 06.05.2020
3690 Clouds 6 1017 69 16093 5.7 40 03:36 06.05.2020
3691 Clouds 6 1020 71 0 3.82 21 02:58 06.05.2020
3692 Clouds 7 1016 52 16093 4.6 30 02:29 06.05.2020
3693 Clouds 7 1015 49 16093 6.2 30 01:53 06.05.2020
3694 Clouds 7 1015 49 16093 6.2 30 01:28 06.05.2020
3695 Clouds 8 1015 65 16093 4.1 30 00:46 06.05.2020
3696 Clouds 8 1015 63 16093 4.1 30 00:23 06.05.2020
3697 Rain 8 1015 75 16093 4.6 50 23:43 05.05.2020
3698 Rain 7 1015 75 16093 4.6 50 23:21 05.05.2020
3699 Rain 7 1015 81 14484 3.6 60 22:59 05.05.2020
3700 Rain 7 1015 81 14484 3.6 60 22:40 05.05.2020
3701 Rain 7 1015 81 14484 3.6 60 22:19 05.05.2020
3702 Rain 7 1015 75 16093 5.7 70 21:56 05.05.2020
3703 Rain 6 1015 75 16093 5.7 70 21:38 05.05.2020
3704 Rain 6 1015 75 16093 5.7 70 21:19 05.05.2020
3705 Rain 6 1019 75 0 4.94 76 20:56 05.05.2020
3706 Rain 6 1019 75 0 4.94 76 20:56 05.05.2020
3707 Rain 6 1019 74 0 4.94 76 20:37 05.05.2020
3708 Rain 7 1019 73 0 5.19 91 20:18 05.05.2020
3709 Rain 7 1015 75 16093 4.6 90 19:42 05.05.2020
3710 Rain 7 1015 75 16093 4.6 90 19:23 05.05.2020
3711 Rain 7 1016 70 16093 6.7 90 18:58 05.05.2020
3712 Rain 7 1016 70 16093 6.7 90 18:40 05.05.2020
3713 Rain 7 1016 70 16093 6.7 90 18:20 05.05.2020
3714 Rain 8 1015 81 12874 6.2 90 17:57 05.05.2020
3715 Rain 8 1015 81 12874 6.2 90 17:39 05.05.2020
3716 Rain 7 1015 81 12874 6.2 90 17:21 05.05.2020
3717 Rain 8 1015 93 16093 5.7 90 16:55 05.05.2020
3718 Rain 8 1019 82 0 1.34 101 16:36 05.05.2020
3719 Rain 8 1015 81 0 3.13 161 16:18 05.05.2020
3720 Rain 8 1018 84 0 0.89 169 15:40 05.05.2020
3721 Rain 8 1014 87 16093 2.1 30 15:21 05.05.2020
3722 Rain 8 1014 87 16093 2.1 30 15:21 05.05.2020
3723 Rain 8 1014 87 16093 2.1 30 14:56 05.05.2020
3724 Rain 8 1014 87 16093 2.1 30 14:38 05.05.2020
3725 Rain 7 1014 87 16093 2.1 30 14:19 05.05.2020
3726 Rain 7 1013 93 14484 2.6 360 13:57 05.05.2020
3727 Rain 7 1013 93 14484 2.6 360 13:38 05.05.2020
3728 Rain 7 1013 93 14484 2.6 360 13:19 05.05.2020
3729 Rain 6 1013 87 16093 3.1 30 12:58 05.05.2020
3730 Rain 6 1013 87 16093 3.1 30 12:38 05.05.2020
3731 Rain 6 1013 87 16093 3.1 30 12:19 05.05.2020
3732 Rain 6 1014 81 16093 3.6 40 11:41 05.05.2020
3733 Rain 6 1014 81 16093 3.6 40 11:20 05.05.2020
3734 Rain 6 1016 75 16093 3.89 88 10:56 05.05.2020
3735 Rain 6 1016 75 16093 3.89 88 10:38 05.05.2020
3736 Rain 6 1016 75 16093 3.96 70 10:19 05.05.2020
3737 Clouds 6 1016 70 16093 3.1 30 09:55 05.05.2020
3738 Clouds 6 1016 70 16093 3.1 30 09:37 05.05.2020
3739 Clouds 6 1017 70 16093 4.1 10 09:19 05.05.2020
3740 Clouds 6 1020 77 0 4.97 66 08:41 05.05.2020
3741 Clouds 6 1017 70 16093 4.1 10 08:19 05.05.2020
3742 Clouds 6 1017 65 16093 5.1 30 07:56 05.05.2020
3743 Clouds 6 1017 65 16093 5.1 30 07:38 05.05.2020
3744 Clouds 6 1017 65 16093 5.1 30 07:18 05.05.2020
3745 Clouds 5 1017 75 16093 5.7 30 06:40 05.05.2020
3746 Clouds 5 1017 75 16093 5.7 30 06:20 05.05.2020
3747 Clouds 5 1018 75 16093 4.6 10 05:30 05.05.2020
3748 Clouds 5 1022 83 0 0.45 98 03:19 05.05.2020
3749 Clouds 5 1022 78 0 0.45 136 01:23 05.05.2020
3750 Clouds 6 1020 70 16093 2.6 40 00:49 05.05.2020
3751 Clouds 6 1020 70 16093 2.6 40 00:18 05.05.2020
3752 Clouds 6 1020 70 16093 6.7 50 23:42 04.05.2020
3753 Clouds 6 1020 70 16093 6.7 50 23:21 04.05.2020
3754 Clouds 6 1020 65 16093 6.2 40 22:55 04.05.2020
3755 Clouds 6 1023 70 0 4.29 26 22:37 04.05.2020
3756 Clouds 6 1020 65 16093 6.2 40 22:18 04.05.2020
3757 Clouds 6 1020 65 16093 7.7 30 21:52 04.05.2020
3758 Clouds 6 1020 65 16093 7.7 30 21:52 04.05.2020
3759 Clouds 6 1020 65 16093 7.7 30 21:52 04.05.2020
3760 Clouds 6 1020 65 16093 7.7 30 21:52 04.05.2020
3761 Clouds 6 1020 65 16093 7.7 30 21:52 04.05.2020
3762 Clouds 7 1020 65 16093 7.7 30 21:27 04.05.2020
3763 Clouds 7 1020 65 16093 7.7 30 21:27 04.05.2020
3764 Clouds 7 1020 65 16093 7.7 30 21:27 04.05.2020
3765 Clouds 7 1021 65 16093 6.2 60 20:43 04.05.2020
3766 Clouds 7 1021 65 16093 6.2 60 20:22 04.05.2020
3767 Clouds 7 1021 65 16093 6.2 60 20:22 04.05.2020
3768 Clouds 7 1021 65 16093 9.8 40 19:59 04.05.2020
3769 Clouds 7 1021 65 16093 9.8 40 19:59 04.05.2020
3770 Clouds 7 1021 65 16093 9.8 40 19:40 04.05.2020
3771 Clouds 7 1021 65 16093 9.8 40 19:19 04.05.2020
3772 Clouds 7 1022 61 16093 9.3 30 18:55 04.05.2020
3773 Clouds 7 1022 61 16093 9.3 30 18:36 04.05.2020
3774 Clouds 7 1022 61 16093 9.3 30 18:18 04.05.2020
3775 Clouds 6 1022 65 16093 8.2 40 17:54 04.05.2020
3776 Clouds 6 1022 65 16093 8.2 40 17:36 04.05.2020
3777 Clouds 6 1022 70 16093 8.7 40 17:18 04.05.2020
3778 Clouds 5 1022 70 16093 8.7 40 16:41 04.05.2020
3779 Clouds 5 1022 70 16093 8.7 40 16:20 04.05.2020
3780 Clouds 5 1021 75 16093 5.7 30 15:45 04.05.2020
3781 Clouds 5 1021 75 16093 5.7 30 15:24 04.05.2020
3782 Clouds 4 1024 77 0 6.23 28 14:54 04.05.2020
3783 Clouds 5 1021 70 16093 6.2 40 14:33 04.05.2020
3784 Clouds 5 1021 70 16093 6.2 40 14:33 04.05.2020
3785 Clouds 5 1021 70 16093 6.2 40 14:33 04.05.2020
3786 Clouds 5 1021 70 16093 6.2 40 14:33 04.05.2020
3787 Clouds 5 1020 68 16093 6.7 30 13:40 04.05.2020
3788 Clouds 5 1020 68 16093 6.7 30 13:40 04.05.2020
3789 Clouds 5 1020 68 16093 6.7 30 13:40 04.05.2020
3790 Clouds 5 1020 68 16093 6.7 30 13:40 04.05.2020
3791 Clouds 5 1023 74 0 5.63 19 12:45 04.05.2020
3792 Clouds 5 1023 74 0 5.63 19 12:45 04.05.2020
3793 Clouds 5 1023 74 0 5.63 19 12:45 04.05.2020
3794 Clouds 5 1023 74 0 5.63 19 12:45 04.05.2020
3795 Clear 6 1019 56 16093 7.2 30 11:37 04.05.2020
3796 Clear 6 1019 56 16093 7.2 30 11:31 04.05.2020
3797 Clear 6 1019 56 16093 7.2 30 11:31 04.05.2020
3798 Clear 6 1019 56 16093 7.2 30 11:31 04.05.2020
3799 Clear 6 1019 56 16093 7.2 30 11:31 04.05.2020
3800 Clear 7 1020 61 0 6.42 19 09:32 04.05.2020
3801 Clear 7 1020 61 0 6.42 19 09:32 04.05.2020
3802 Clouds 8 1018 49 16093 6.7 30 09:32 04.05.2020
3803 Clear 7 1020 61 0 6.42 19 09:32 04.05.2020
3804 Clouds 8 1017 46 16093 6.7 10 07:59 04.05.2020
3805 Clouds 8 1020 63 0 0.45 255 07:40 04.05.2020
3806 Clouds 9 1016 57 16093 7.2 20 06:31 04.05.2020
3807 Clouds 9 1016 56 16093 7.2 20 06:31 04.05.2020
3808 Clouds 9 1016 56 16093 7.2 20 06:31 04.05.2020
3809 Clouds 9 1016 56 16093 7.2 20 06:31 04.05.2020
3810 Clouds 9 1016 57 16093 7.2 20 06:31 04.05.2020
3811 Clouds 9 1018 62 0 0.45 152 04:55 04.05.2020
3812 Clear 21 1014 28 0 4.76 306 03:18 04.05.2020
3813 Clouds 22 1012 24 16093 6.2 280 02:30 04.05.2020
3814 Clouds 22 1014 27 0 1.34 44 00:36 04.05.2020
3815 Clouds 22 1012 24 16093 3.1 300 23:45 03.05.2020
3816 Clouds 22 1012 24 16093 3.1 300 23:24 03.05.2020
3817 Clouds 22 1013 35 16093 4.1 290 22:56 03.05.2020
3818 Clouds 21 1013 35 16093 4.1 290 22:37 03.05.2020
3819 Clouds 20 1013 34 16093 4.1 290 22:18 03.05.2020
3820 Clouds 20 1014 26 16093 1.5 190 21:41 03.05.2020
3821 Clouds 20 1014 26 16093 1.5 190 21:20 03.05.2020
3822 Clouds 20 1014 32 16093 4.6 100 20:47 03.05.2020
3823 Clouds 20 1014 32 16093 4.6 100 20:22 03.05.2020
3824 Clouds 20 1014 28 16093 2.1 10 19:55 03.05.2020
3825 Clouds 20 1014 28 16093 2.1 10 19:55 03.05.2020
3826 Clouds 20 1014 28 16093 2.1 10 19:54 03.05.2020
3827 Clouds 20 1014 28 16093 2.1 10 19:36 03.05.2020
3828 Clouds 20 1014 28 16093 2.1 10 19:36 03.05.2020
3829 Clouds 20 1014 28 16093 2.1 10 19:18 03.05.2020
3830 Clouds 20 1014 26 16093 6.2 350 18:39 03.05.2020
3831 Clouds 20 1014 26 16093 6.2 350 18:39 03.05.2020
3832 Clouds 20 1014 26 16093 6.2 350 18:39 03.05.2020
3833 Clouds 19 1014 26 16093 6.2 350 18:19 03.05.2020
3834 Clouds 19 1015 29 16093 5.1 20 17:42 03.05.2020
3835 Clouds 19 1015 29 16093 5.1 20 17:22 03.05.2020
3836 Clouds 19 1015 29 16093 5.1 20 17:22 03.05.2020
3837 Clouds 18 1015 34 16093 4.6 360 16:56 03.05.2020
3838 Clouds 18 1015 34 16093 4.6 360 16:37 03.05.2020
3839 Clouds 18 1015 34 16093 4.6 360 16:18 03.05.2020
3840 Clouds 18 1014 36 16093 3.6 340 15:55 03.05.2020
3841 Clouds 17 1014 36 16093 3.6 340 15:36 03.05.2020
3842 Clouds 17 1014 36 16093 3.6 340 15:36 03.05.2020
3843 Clouds 17 1014 36 16093 3.6 340 15:36 03.05.2020
3844 Clouds 17 1014 36 16093 3.6 340 15:18 03.05.2020
3845 Clear 16 1014 38 0 2.68 14 14:41 03.05.2020
3846 Clouds 16 1014 44 16093 4.6 330 14:22 03.05.2020
3847 Clouds 15 1013 50 16093 3.6 320 13:56 03.05.2020
3848 Clouds 14 1013 50 16093 3.6 320 13:33 03.05.2020
3849 Clouds 15 1013 50 16093 3.6 320 13:33 03.05.2020
3850 Clouds 15 1013 50 16093 3.6 320 13:33 03.05.2020
3851 Clouds 14 1013 50 16093 3.6 320 13:33 03.05.2020
3852 Clouds 15 1013 50 16093 3.6 320 13:33 03.05.2020
3853 Clear 15 1012 50 16093 3.1 310 12:47 03.05.2020
3854 Clear 15 1012 50 16093 3.1 310 12:20 03.05.2020
3855 Clouds 15 1012 48 16093 3.1 300 11:57 03.05.2020
3856 Clouds 15 1014 54 0 4.66 329 11:57 03.05.2020
3857 Clouds 15 1014 54 0 4.66 329 11:57 03.05.2020
3858 Clouds 15 1012 48 16093 3.1 300 11:39 03.05.2020
3859 Clouds 16 1012 48 16093 3.1 300 11:19 03.05.2020
3860 Clouds 16 1012 48 16093 3.6 280 10:49 03.05.2020
3861 Clouds 16 1012 48 16093 3.6 280 10:49 03.05.2020
3862 Clouds 16 1012 48 16093 3.6 280 10:49 03.05.2020
3863 Clouds 17 1014 50 0 4.11 309 10:01 03.05.2020
3864 Clouds 17 1014 50 0 4.11 309 10:01 03.05.2020
3865 Clouds 18 1012 52 16093 3.6 260 10:01 03.05.2020
3866 Clouds 18 1012 52 16093 3.6 260 10:01 03.05.2020
3867 Clouds 18 1012 52 16093 3.6 260 09:39 03.05.2020
3868 Clouds 18 1012 52 16093 4.1 250 08:57 03.05.2020
3869 Clouds 18 1012 52 16093 4.1 250 08:57 03.05.2020
3870 Clouds 18 1012 52 16093 4.1 250 08:57 03.05.2020
3871 Clouds 18 1012 52 16093 4.1 250 08:27 03.05.2020
3872 Clouds 19 1012 52 16093 4.6 250 07:40 03.05.2020
3873 Clouds 19 1012 52 16093 4.6 250 07:40 03.05.2020
3874 Clouds 19 1012 48 16093 4.6 250 06:31 03.05.2020
3875 Clouds 19 1012 48 16093 4.6 250 06:31 03.05.2020
3876 Clouds 19 1012 48 16093 4.6 250 06:31 03.05.2020
3877 Clouds 19 1012 52 16093 3.6 250 05:49 03.05.2020
3878 Clouds 19 1012 52 16093 3.6 250 05:28 03.05.2020
3879 Clouds 20 1012 45 16093 2.6 240 04:27 03.05.2020
3880 Clouds 20 1012 45 16093 2.6 240 04:27 03.05.2020
3881 Clouds 21 1013 43 0 3.13 297 03:29 03.05.2020
3882 Clouds 22 1011 37 16093 6.7 260 02:30 03.05.2020
3883 Clouds 23 1013 39 0 1.79 243 01:46 03.05.2020
3884 Clouds 23 1011 31 16093 7.7 270 01:27 03.05.2020
3885 Clouds 24 1011 31 16093 7.7 260 00:56 03.05.2020
3886 Clouds 24 1011 31 16093 7.7 260 00:38 03.05.2020
3887 Clouds 24 1012 36 16093 5.7 280 00:19 03.05.2020
3888 Clouds 24 1012 36 16093 5.7 280 23:44 02.05.2020
3889 Clouds 24 1012 36 16093 5.7 280 23:25 02.05.2020
3890 Clouds 25 1011 44 16093 8.2 270 22:44 02.05.2020
3891 Clouds 25 1011 44 16093 8.2 270 22:24 02.05.2020
3892 Clouds 25 1011 41 16093 8.2 300 21:58 02.05.2020
3893 Clouds 25 1011 41 16093 8.2 300 21:40 02.05.2020
3894 Clouds 25 1011 41 16093 8.2 300 21:19 02.05.2020
3895 Clouds 25 1011 41 16093 6.7 260 20:57 02.05.2020
3896 Clouds 25 1011 41 16093 6.7 260 20:37 02.05.2020
3897 Clouds 25 1011 41 16093 6.7 260 20:19 02.05.2020
3898 Clouds 24 1011 47 16093 5.1 260 19:57 02.05.2020
3899 Clouds 24 1011 47 16093 5.1 260 19:38 02.05.2020
3900 Clouds 24 1011 47 16093 5.1 260 19:38 02.05.2020
3901 Clouds 24 1011 47 16093 5.1 260 19:38 02.05.2020
3902 Clouds 24 1011 47 16093 5.1 260 19:19 02.05.2020
3903 Clouds 23 1011 53 16093 4.6 220 18:55 02.05.2020
3904 Clouds 23 1011 53 16093 4.6 220 18:37 02.05.2020
3905 Clouds 20 1011 60 16093 5.1 240 18:18 02.05.2020
3906 Clouds 20 1011 60 16093 5.1 240 17:40 02.05.2020
3907 Clouds 20 1011 60 16093 5.1 240 17:20 02.05.2020
3908 Clouds 19 1011 63 16093 6.2 250 16:59 02.05.2020
3909 Clouds 19 1011 63 16093 6.2 250 16:40 02.05.2020
3910 Clouds 18 1011 63 16093 6.2 250 16:22 02.05.2020
3911 Clouds 18 1011 63 16093 6.2 220 15:43 02.05.2020
3912 Clouds 17 1011 63 16093 6.2 220 15:21 02.05.2020
3913 Clouds 16 1011 67 16093 4.6 200 14:59 02.05.2020
3914 Clouds 15 1011 67 16093 4.6 200 14:40 02.05.2020
3915 Clouds 15 1011 67 16093 4.6 200 14:22 02.05.2020
3916 Clouds 14 1011 67 16093 4.1 210 13:40 02.05.2020
3917 Clouds 14 1011 67 16093 4.1 210 13:22 02.05.2020
3918 Clouds 14 1012 58 16093 3.6 200 12:56 02.05.2020
3919 Clouds 15 1012 58 16093 3.6 200 12:37 02.05.2020
3920 Clouds 14 1014 66 0 1.34 233 12:19 02.05.2020
3921 Clouds 15 1012 51 16093 5.7 190 11:42 02.05.2020
3922 Rain 15 1015 62 0 2.24 176 11:23 02.05.2020
3923 Rain 15 1015 61 0 5.44 194 10:59 02.05.2020
3924 Rain 15 1015 60 0 5.44 194 10:39 02.05.2020
3925 Clouds 15 1015 59 0 5.72 184 10:21 02.05.2020
3926 Clouds 15 1013 48 16093 5.1 180 09:57 02.05.2020
3927 Clouds 15 1013 48 16093 5.1 180 09:38 02.05.2020
3928 Clouds 15 1015 56 0 5.72 165 09:20 02.05.2020
3929 Clouds 15 1016 55 0 0.45 340 08:50 02.05.2020
3930 Clouds 15 1017 55 0 5.22 164 08:30 02.05.2020
3931 Clouds 15 1017 55 0 5.22 164 07:49 02.05.2020
3932 Clouds 15 1017 56 0 4.83 171 07:29 02.05.2020
3933 Clouds 15 1018 58 0 4.83 171 06:53 02.05.2020
3934 Clouds 14 1018 62 0 4.36 170 06:18 02.05.2020
3935 Clouds 13 1019 66 0 3.69 173 05:27 02.05.2020
3936 Clouds 13 1015 50 16093 3.1 120 04:25 02.05.2020
3937 Clouds 13 1015 47 16093 3.6 120 03:34 02.05.2020
3938 Clouds 15 1016 41 16093 2.6 130 02:37 02.05.2020
3939 Clouds 15 1016 38 16093 4.6 120 01:51 02.05.2020
3940 Clouds 15 1016 36 16093 4.6 100 00:58 02.05.2020
3941 Clouds 15 1016 36 16093 4.6 100 00:39 02.05.2020
3942 Clouds 16 1016 36 16093 4.6 100 00:18 02.05.2020
3943 Clouds 18 1016 37 16093 3.6 190 23:40 01.05.2020
3944 Clouds 17 1016 37 16093 3.6 190 23:20 01.05.2020
3945 Clouds 18 1016 29 16093 3.1 260 22:57 01.05.2020
3946 Clouds 18 1016 29 16093 3.1 260 22:38 01.05.2020
3947 Clouds 17 1016 31 16093 3.14 123 22:18 01.05.2020
3948 Clouds 18 1016 31 16093 3.14 123 21:57 01.05.2020
3949 Clouds 18 1016 31 16093 3.22 118 21:38 01.05.2020
3950 Clouds 17 1016 31 16093 3.68 121 21:18 01.05.2020
3951 Clouds 17 1016 31 16093 3.68 121 21:18 01.05.2020
3952 Clouds 17 1017 35 16093 2.6 210 20:56 01.05.2020
3953 Clouds 17 1017 35 16093 2.6 210 20:37 01.05.2020
3954 Clouds 16 1018 36 16093 2.1 0 20:19 01.05.2020
3955 Clouds 17 1018 36 16093 2.1 0 19:42 01.05.2020
3956 Clouds 17 1018 38 16093 2.1 0 19:22 01.05.2020
3957 Clouds 16 1018 35 16093 2.1 130 18:58 01.05.2020
3958 Clouds 16 1018 35 16093 2.1 130 18:40 01.05.2020
3959 Clouds 15 1018 35 16093 2.1 130 18:21 01.05.2020
3960 Clouds 15 1018 41 16093 1.53 111 17:58 01.05.2020
3961 Clouds 14 1018 41 16093 1.53 111 17:39 01.05.2020
3962 Clouds 14 1018 48 16093 0.94 103 17:21 01.05.2020
3963 Clouds 13 1018 50 16093 0.94 103 16:56 01.05.2020
3964 Clouds 13 1018 50 16093 0.94 103 16:38 01.05.2020
3965 Clouds 12 1018 50 16093 0.18 62 16:19 01.05.2020
3966 Clouds 10 1018 66 16093 2.1 290 15:55 01.05.2020
3967 Clouds 10 1018 66 16093 2.1 290 15:36 01.05.2020
3968 Clouds 8 1017 86 16093 0.69 339 15:18 01.05.2020
3969 Clouds 7 1017 86 16093 0.69 339 14:41 01.05.2020
3970 Clouds 6 1017 86 16093 1.9 332 14:23 01.05.2020
3971 Clouds 4 1016 86 16093 1.9 332 13:41 01.05.2020
3972 Clouds 4 1016 86 16093 2.17 331 13:23 01.05.2020
3973 Clear 4 1016 93 16093 2.17 331 12:58 01.05.2020
3974 Clear 4 1016 93 16093 2.17 331 12:40 01.05.2020
3975 Clear 4 1016 93 16093 2.13 332 12:20 01.05.2020
3976 Clear 4 1015 86 16093 2.13 332 11:59 01.05.2020
3977 Clear 4 1015 86 16093 2.13 332 11:40 01.05.2020
3978 Clear 5 1015 86 16093 2.29 326 11:19 01.05.2020
3979 Clear 5 1015 86 16093 2.29 326 10:41 01.05.2020
3980 Clear 5 1015 86 16093 2.29 326 10:41 01.05.2020
3981 Clear 5 1015 86 16093 2.57 333 10:20 01.05.2020
3982 Clear 5 1015 80 16093 2.57 333 09:59 01.05.2020
3983 Clear 5 1015 80 16093 2.95 334 09:41 01.05.2020
3984 Clear 5 1015 80 16093 3.21 339 09:18 01.05.2020
3985 Clear 5 1015 80 16093 3.21 339 09:18 01.05.2020
3986 Clear 5 1014 75 16093 3.21 339 08:43 01.05.2020
3987 Clear 5 1014 75 16093 3.46 346 08:25 01.05.2020
3988 Clear 6 1014 75 16093 3.1 320 07:55 01.05.2020
3989 Clear 6 1014 75 16093 3.1 320 07:37 01.05.2020
3990 Clouds 6 1017 76 0 3.66 354 06:58 01.05.2020
3991 Clear 7 1014 65 16093 2.6 350 05:48 01.05.2020
3992 Clear 8 1014 65 16093 2.6 350 05:20 01.05.2020
3993 Clouds 8 1016 71 0 4.28 15 03:43 01.05.2020
3994 Clouds 9 1016 68 0 3.79 21 02:52 01.05.2020
3995 Clouds 10 1015 67 0 0.45 199 02:34 01.05.2020
3996 Clouds 10 1011 62 16093 5.1 50 01:47 01.05.2020
3997 Clouds 11 1011 62 16093 5.1 50 01:26 01.05.2020
3998 Clouds 11 1011 62 16093 6.2 30 00:40 01.05.2020
3999 Clouds 11 1011 62 16093 6.2 30 00:20 01.05.2020
4000 Clouds 11 1010 66 16093 6.7 20 23:57 30.04.2020
4001 Rain 10 1010 66 16093 6.7 20 23:38 30.04.2020
4002 Rain 10 1010 66 16093 6.7 20 23:19 30.04.2020
4003 Rain 10 1010 76 16093 6.2 10 22:54 30.04.2020
4004 Clouds 10 1010 76 16093 6.2 10 22:36 30.04.2020
4005 Rain 9 1010 76 16093 6.2 10 22:18 30.04.2020
4006 Rain 8 1009 81 16093 4.1 10 21:41 30.04.2020
4007 Rain 8 1009 81 16093 4.1 10 21:21 30.04.2020
4008 Rain 8 1009 76 16093 5.7 10 20:57 30.04.2020
4009 Rain 8 1008 75 16093 8.2 10 20:39 30.04.2020
4010 Rain 8 1008 75 16093 8.2 10 20:18 30.04.2020
4011 Rain 8 1008 75 16093 6.2 360 19:45 30.04.2020
4012 Rain 8 1008 75 16093 6.2 360 19:26 30.04.2020
4013 Rain 8 1007 75 16093 7.2 350 18:57 30.04.2020
4014 Rain 8 1007 75 16093 7.2 350 18:39 30.04.2020
4015 Rain 8 1007 75 16093 7.2 350 18:21 30.04.2020
4016 Rain 7 1006 87 16093 5.7 330 17:57 30.04.2020
4017 Rain 7 1006 87 16093 5.7 330 17:39 30.04.2020
4018 Rain 7 1006 87 16093 5.7 330 17:20 30.04.2020
4019 Rain 7 1005 87 16093 5.7 340 16:56 30.04.2020
4020 Rain 6 1005 87 16093 5.7 340 16:38 30.04.2020
4021 Rain 6 1005 87 16093 5.7 340 16:18 30.04.2020
4022 Rain 6 1005 81 16093 7.7 350 15:44 30.04.2020
4023 Rain 6 1005 81 16093 7.7 350 15:24 30.04.2020
4024 Rain 6 1004 87 12874 6.7 350 14:54 30.04.2020
4025 Rain 5 1004 87 12874 6.7 350 14:36 30.04.2020
4026 Rain 5 1004 87 9656 10.3 340 14:18 30.04.2020
4027 Rain 5 1004 87 9656 10.3 340 13:54 30.04.2020
4028 Rain 5 1004 87 9656 10.3 340 13:36 30.04.2020
4029 Rain 5 1004 87 9656 10.3 340 13:18 30.04.2020
4030 Rain 5 1003 87 8047 7.2 340 12:41 30.04.2020
4031 Rain 5 1003 87 8047 7.2 340 12:19 30.04.2020
4032 Rain 5 1002 87 11265 9.8 340 11:54 30.04.2020
4033 Rain 5 1002 87 11265 9.8 340 11:36 30.04.2020
4034 Rain 5 1002 87 11265 9.8 340 11:18 30.04.2020
4035 Rain 5 1002 87 9656 9.8 340 10:40 30.04.2020
4036 Rain 5 1002 87 9656 9.8 340 10:21 30.04.2020
4037 Rain 5 1002 93 8047 7.7 320 09:57 30.04.2020
4038 Rain 5 1002 93 8047 7.7 320 09:38 30.04.2020
4039 Rain 5 1002 93 8047 7.7 320 09:20 30.04.2020
4040 Rain 5 1003 87 8047 8.2 330 08:46 30.04.2020
4041 Rain 5 1003 87 8047 8.2 330 08:26 30.04.2020
4042 Rain 5 1003 87 8047 8.2 320 07:44 30.04.2020
4043 Rain 5 1003 87 8047 8.2 320 07:26 30.04.2020
4044 Rain 5 1006 92 0 3.13 328 06:54 30.04.2020
4045 Rain 5 1006 92 0 2.24 300 06:26 30.04.2020
4046 Rain 6 1006 92 0 1.79 291 05:46 30.04.2020
4047 Mist 6 1004 93 4828 9.8 340 04:43 30.04.2020
4048 Rain 6 1004 93 4828 9.8 340 04:19 30.04.2020
4049 Rain 7 1006 94 0 0.45 267 02:48 30.04.2020
4050 Rain 8 1002 93 14484 3.6 310 02:26 30.04.2020
4051 Rain 8 1001 93 9656 10.8 330 01:37 30.04.2020
4052 Rain 8 1001 100 4828 3.1 360 00:42 30.04.2020
4053 Rain 9 1001 100 4828 3.1 360 00:20 30.04.2020
4054 Rain 9 1000 100 4828 4.1 30 23:58 29.04.2020
4055 Rain 9 1000 100 4828 4.1 30 23:39 29.04.2020
4056 Rain 9 1000 100 4828 4.1 30 23:21 29.04.2020
4057 Rain 9 1000 93 8047 5.1 50 22:56 29.04.2020
4058 Rain 9 1000 93 8047 4.6 50 22:38 29.04.2020
4059 Rain 9 1000 93 8047 4.6 50 22:18 29.04.2020
4060 Rain 10 998 93 12874 7.7 340 21:38 29.04.2020
4061 Rain 10 998 93 12874 7.7 340 21:38 29.04.2020
4062 Rain 11 998 93 12874 7.7 340 21:19 29.04.2020
4063 Rain 11 998 93 4828 4.6 360 20:58 29.04.2020
4064 Mist 11 998 93 4828 4.6 360 20:38 29.04.2020
4065 Rain 11 1001 94 0 0.45 339 20:19 29.04.2020
4066 Rain 11 1001 94 0 0.45 339 20:19 29.04.2020
4067 Rain 12 997 93 14484 3.6 280 19:43 29.04.2020
4068 Rain 12 997 93 14484 3.6 280 19:22 29.04.2020
4069 Rain 12 997 100 11265 6.2 280 18:57 29.04.2020
4070 Rain 12 997 100 11265 6.2 280 18:39 29.04.2020
4071 Rain 12 997 100 11265 6.2 280 18:19 29.04.2020
4072 Rain 11 997 100 4828 4.6 230 17:42 29.04.2020
4073 Rain 11 997 100 4828 4.6 230 17:22 29.04.2020
4074 Rain 12 997 100 4023 5.1 240 16:57 29.04.2020
4075 Rain 12 997 93 8047 3.6 280 16:36 29.04.2020
4076 Rain 12 997 100 6437 2.6 290 16:18 29.04.2020
4077 Rain 12 997 100 6437 2.6 290 15:55 29.04.2020
4078 Rain 12 997 100 6437 3.1 290 15:37 29.04.2020
4079 Rain 12 997 100 6437 3.1 290 15:18 29.04.2020
4080 Rain 12 997 100 3219 3.1 240 14:43 29.04.2020
4081 Rain 13 997 100 3219 3.1 240 14:25 29.04.2020
4082 Rain 13 997 100 4023 4.1 230 13:57 29.04.2020
4083 Rain 13 997 100 4023 4.1 230 13:38 29.04.2020
4084 Rain 14 997 100 4023 4.1 230 13:18 29.04.2020
4085 Rain 14 997 100 4828 4.1 210 12:41 29.04.2020
4086 Rain 15 997 100 4828 4.1 210 12:20 29.04.2020
4087 Rain 15 998 93 0 2.24 220 11:59 29.04.2020
4088 Rain 15 998 93 0 1.34 227 11:38 29.04.2020
4089 Rain 15 1001 92 0 1.34 240 11:20 29.04.2020
4090 Rain 15 998 91 0 1.79 226 10:54 29.04.2020
4091 Rain 15 998 91 0 1.79 226 10:54 29.04.2020
4092 Rain 15 999 93 16093 6.2 210 10:36 29.04.2020
4093 Rain 15 999 93 16093 6.2 210 10:18 29.04.2020
4094 Rain 15 1000 93 16093 4.6 200 09:41 29.04.2020
4095 Rain 15 1000 93 16093 4.6 200 09:21 29.04.2020
4096 Drizzle 14 1000 100 12874 3.1 160 08:44 29.04.2020
4097 Rain 14 1000 100 12874 3.1 160 08:25 29.04.2020
4098 Rain 13 1001 93 9656 1.5 260 07:54 29.04.2020
4099 Rain 13 1002 93 8047 1.5 10 07:29 29.04.2020
4100 Rain 13 1002 88 16093 2.6 290 06:53 29.04.2020
4101 Rain 13 1002 82 16093 3.6 340 06:32 29.04.2020
4102 Rain 15 1002 77 16093 4.1 200 05:50 29.04.2020
4103 Rain 17 1002 77 16093 4.1 200 05:19 29.04.2020
4104 Rain 18 1002 82 16093 6.2 170 04:20 29.04.2020
4105 Rain 18 1003 93 16093 5.7 170 03:28 29.04.2020
4106 Thunderstorm 17 1004 93 4828 5.1 160 01:59 29.04.2020
4107 Rain 16 1005 88 3219 4.1 310 01:29 29.04.2020
4108 Rain 22 1004 53 16093 3.6 220 00:59 29.04.2020
4109 Rain 22 1005 49 16093 6.7 190 00:37 29.04.2020
4110 Clouds 23 1006 50 16093 8.2 190 00:18 29.04.2020
4111 Clouds 24 1006 50 16093 8.2 190 23:43 28.04.2020
4112 Clouds 24 1006 50 16093 8.2 190 23:43 28.04.2020
4113 Clouds 24 1006 50 16093 8.2 190 23:21 28.04.2020
4114 Clouds 22 1007 53 16093 6.7 190 22:39 28.04.2020
4115 Clouds 22 1007 53 16093 6.7 190 22:20 28.04.2020
4116 Clouds 22 1008 53 16093 3.1 0 21:59 28.04.2020
4117 Clouds 22 1008 53 16093 3.1 0 21:40 28.04.2020
4118 Clouds 20 1008 53 16093 3.1 0 21:22 28.04.2020
4119 Clouds 21 1010 56 16093 5.7 200 20:59 28.04.2020
4120 Clouds 21 1010 56 16093 5.7 200 20:40 28.04.2020
4121 Clouds 20 1010 56 16093 5.7 200 20:20 28.04.2020
4122 Clouds 20 1011 60 16093 3.1 200 19:56 28.04.2020
4123 Clouds 20 1011 60 16093 3.1 200 19:38 28.04.2020
4124 Clouds 20 1011 60 16093 3.1 200 19:19 28.04.2020
4125 -273 0 0 0 0 0 19:19 28.04.2020
4126 Clouds 20 1012 68 16093 2.6 180 18:57 28.04.2020
4127 Clouds 20 1012 68 16093 2.6 180 18:37 28.04.2020
4128 Clouds 20 1012 68 16093 2.6 180 18:37 28.04.2020
4129 Clouds 20 1012 68 16093 2.6 180 18:37 28.04.2020
4130 Clouds 18 1012 68 16093 2.6 180 18:18 28.04.2020
4131 Clouds 18 1012 72 16093 3.1 220 17:37 28.04.2020
4132 Clouds 18 1012 72 16093 3.1 220 17:19 28.04.2020
4133 Clouds 17 1012 82 16093 3.6 210 16:57 28.04.2020
4134 Clouds 17 1012 82 16093 3.6 210 16:39 28.04.2020
4135 Clouds 16 1012 82 16093 3.6 210 16:21 28.04.2020
4136 Clouds 15 1012 93 14484 2.6 200 15:55 28.04.2020
4137 Clouds 14 1012 93 14484 2.6 200 15:37 28.04.2020
4138 Clouds 14 1012 93 14484 2.6 200 15:19 28.04.2020
4139 Mist 13 1012 93 9656 2.6 180 14:43 28.04.2020
4140 Mist 13 1012 93 9656 2.6 180 14:43 28.04.2020
4141 Mist 12 1012 93 9656 2.6 180 14:22 28.04.2020
4142 Clouds 12 1012 100 11265 3.1 200 13:59 28.04.2020
4143 Clouds 12 1012 100 11265 3.1 200 13:59 28.04.2020
4144 Clouds 11 1012 100 11265 3.1 200 13:40 28.04.2020
4145 Clouds 11 1012 100 11265 3.1 200 13:22 28.04.2020
4146 Clouds 11 1012 73 0 0.56 347 12:58 28.04.2020
4147 Clouds 11 1012 93 11265 2.1 180 12:39 28.04.2020
4148 Clouds 12 1015 92 0 0.85 311 12:21 28.04.2020
4149 Clouds 12 1012 100 11265 5.1 200 11:42 28.04.2020
4150 Clouds 12 1012 100 11265 5.1 200 11:21 28.04.2020
4151 Mist 12 1012 100 4828 4.1 170 10:57 28.04.2020
4152 Mist 13 1012 100 4828 4.1 170 10:38 28.04.2020
4153 Mist 13 1012 100 4828 4.1 170 10:38 28.04.2020
4154 Mist 13 1012 100 4828 4.1 170 10:18 28.04.2020
4155 Mist 13 1012 100 4828 4.1 170 10:18 28.04.2020
4156 Rain 13 1013 100 8047 2.1 170 09:43 28.04.2020
4157 Rain 13 1013 100 8047 2.1 170 09:25 28.04.2020
4158 Clouds 13 1013 100 16093 3.6 170 08:55 28.04.2020
4159 Clouds 13 1013 100 16093 3.6 170 08:36 28.04.2020
4160 Clouds 13 1013 100 16093 3.6 170 08:18 28.04.2020
4161 Rain 14 1013 93 16093 2.6 180 07:41 28.04.2020
4162 Rain 13 1013 93 16093 2.6 180 07:18 28.04.2020
4163 Rain 14 1014 93 8047 2.6 30 06:40 28.04.2020
4164 Rain 13 1014 93 4023 3.1 30 05:51 28.04.2020
4165 Mist 13 1014 93 4023 4.6 10 05:33 28.04.2020
4166 Rain 13 1013 82 9656 2.6 100 04:33 28.04.2020
4167 Rain 13 1013 82 9656 2.6 100 04:33 28.04.2020
4168 Rain 14 1014 76 16093 2.6 180 02:39 28.04.2020
4169 Rain 14 1014 76 14484 4.1 200 01:51 28.04.2020
4170 Rain 14 1014 76 14484 4.1 200 01:22 28.04.2020
4171 Rain 16 1014 51 16093 6.2 210 00:32 28.04.2020
4172 Rain 16 1015 48 12874 8.2 220 23:56 27.04.2020
4173 Rain 16 1015 48 12874 8.2 220 23:38 27.04.2020
4174 Rain 16 1015 48 12874 8.2 220 23:20 27.04.2020
4175 Rain 17 1017 48 0 7.49 209 22:43 27.04.2020
4176 Clouds 17 1015 34 16093 8.2 200 22:23 27.04.2020
4177 Clouds 18 1016 34 16093 6.7 200 21:57 27.04.2020
4178 Clouds 18 1016 34 16093 6.7 200 21:39 27.04.2020
4179 Clouds 18 1016 34 16093 6.7 200 21:19 27.04.2020
4180 Clouds 19 1019 36 0 2.68 77 20:57 27.04.2020
4181 Clouds 19 1017 30 16093 9.8 200 20:39 27.04.2020
4182 Clouds 20 1017 30 16093 9.8 200 20:21 27.04.2020
4183 Clouds 19 1018 37 16093 8.2 210 19:56 27.04.2020
4184 Clouds 19 1018 37 16093 8.2 210 19:37 27.04.2020
4185 Clouds 19 1018 37 16093 8.2 210 19:37 27.04.2020
4186 Clouds 19 1018 37 16093 8.2 210 19:19 27.04.2020
4187 Clouds 19 1019 36 16093 8.2 220 18:55 27.04.2020
4188 Clouds 18 1019 36 16093 8.2 220 18:37 27.04.2020
4189 Clouds 18 1019 36 16093 8.2 220 18:18 27.04.2020
4190 Clouds 16 1020 38 16093 6.7 220 17:41 27.04.2020
4191 Clouds 16 1020 38 16093 6.7 220 17:19 27.04.2020
4192 Clouds 14 1021 35 16093 6.2 220 16:41 27.04.2020
4193 Clouds 14 1021 35 16093 6.2 220 16:22 27.04.2020
4194 Clouds 12 1021 39 16093 3.1 210 15:58 27.04.2020
4195 Clouds 12 1021 37 0 3.13 220 15:40 27.04.2020
4196 Clouds 11 1021 39 16093 3.1 210 15:21 27.04.2020
4197 Clouds 10 1021 40 0 1.34 225 14:58 27.04.2020
4198 Clouds 8 1021 56 16093 3.1 210 14:40 27.04.2020
4199 Clouds 8 1021 56 16093 3.1 210 14:19 27.04.2020
4200 Clouds 7 1021 53 16093 2.6 210 13:57 27.04.2020
4201 Clouds 6 1021 53 16093 2.6 210 13:37 27.04.2020
4202 Clouds 6 1021 53 16093 2.6 210 13:18 27.04.2020
4203 Clouds 6 1021 53 16093 3.61 195 12:43 27.04.2020
4204 Clouds 6 1021 55 16093 2.43 216 12:21 27.04.2020
4205 Clouds 6 1021 55 16093 2.43 216 11:43 27.04.2020
4206 Clouds 5 1021 55 16093 2.43 216 11:22 27.04.2020
4207 Clouds 6 1021 56 16093 2.43 216 10:59 27.04.2020
4208 Clouds 6 1021 56 16093 2.43 216 10:41 27.04.2020
4209 Clouds 6 1021 56 16093 2.43 216 10:23 27.04.2020
4210 Clouds 6 1021 56 16093 1.5 210 09:56 27.04.2020
4211 Clouds 6 1021 56 16093 1.5 210 09:36 27.04.2020
4212 Clear 6 1022 52 16093 2.1 210 09:18 27.04.2020
4213 Clear 6 1022 52 16093 2.1 210 08:46 27.04.2020
4214 Clear 6 1022 52 16093 2.1 210 08:27 27.04.2020
4215 Clear 7 1022 45 16093 0.75 87 07:45 27.04.2020
4216 Clear 7 1022 45 16093 0.75 87 07:23 27.04.2020
4217 Clear 7 1022 42 16093 0.75 87 06:58 27.04.2020
4218 Clear 7 1022 42 16093 2.87 18 06:30 27.04.2020
4219 Clear 7 1022 45 16093 1.5 40 05:55 27.04.2020
4220 Clear 8 1021 43 16093 3.1 360 04:59 27.04.2020
4221 Clear 9 1021 43 16093 3.1 360 04:37 27.04.2020
4222 Clear 9 1021 40 16093 4.1 40 03:45 27.04.2020
4223 Clouds 13 1020 29 16093 6.2 40 01:53 27.04.2020
4224 Clouds 14 1020 29 16093 6.2 40 01:20 27.04.2020
4225 Clouds 15 1020 31 16093 6.7 20 00:40 27.04.2020
4226 Clouds 15 1020 31 16093 6.7 20 00:18 27.04.2020
4227 Clouds 16 1020 31 16093 8.2 30 23:41 26.04.2020
4228 Clouds 16 1020 31 16093 8.2 30 23:22 26.04.2020
4229 Clouds 16 1020 31 16093 6.7 20 22:59 26.04.2020
4230 Clouds 16 1020 31 16093 6.7 20 22:40 26.04.2020
4231 Clouds 16 1020 31 16093 8.2 30 22:21 26.04.2020
4232 Clouds 16 1020 31 16093 8.2 30 21:58 26.04.2020
4233 Clouds 16 1020 31 16093 8.2 30 21:39 26.04.2020
4234 Clouds 15 1020 31 16093 8.2 30 21:19 26.04.2020
4235 Clouds 15 1020 31 16093 8.2 30 21:19 26.04.2020
4236 Clouds 15 1020 31 16093 8.2 30 21:19 26.04.2020
4237 Clouds 15 1020 31 16093 7.2 20 20:55 26.04.2020
4238 Clouds 15 1020 31 16093 7.2 20 20:37 26.04.2020
4239 Clouds 15 1020 31 16093 7.2 20 20:37 26.04.2020
4240 Clouds 15 1020 31 16093 7.2 20 20:19 26.04.2020
4241 Clouds 14 1020 35 16093 6.2 30 19:57 26.04.2020
4242 Clouds 14 1020 35 16093 6.2 30 19:36 26.04.2020
4243 Clouds 14 1020 37 16093 5.1 30 19:18 26.04.2020
4244 Clouds 13 1020 37 16093 5.1 30 18:43 26.04.2020
4245 Clouds 13 1020 37 16093 5.1 30 18:24 26.04.2020
4246 Clouds 11 1019 43 16093 7.2 20 17:44 26.04.2020
4247 Clouds 11 1019 43 16093 7.2 20 17:44 26.04.2020
4248 Clouds 11 1019 43 16093 7.2 20 17:24 26.04.2020
4249 Clouds 10 1019 53 16093 6.7 20 16:59 26.04.2020
4250 Clouds 9 1019 53 16093 6.7 20 16:40 26.04.2020
4251 Clouds 9 1019 53 16093 6.7 20 16:20 26.04.2020
4252 Clouds 8 1018 65 16093 5.1 360 15:58 26.04.2020
4253 Clouds 8 1018 65 16093 5.1 360 15:37 26.04.2020
4254 Clouds 7 1018 65 16093 5.1 360 15:19 26.04.2020
4255 Clouds 6 1018 70 16093 5.1 350 14:41 26.04.2020
4256 Clouds 6 1018 70 16093 5.1 350 14:20 26.04.2020
4257 Clouds 6 1017 75 16093 4.6 350 13:59 26.04.2020
4258 Clouds 6 1017 75 16093 4.6 350 13:40 26.04.2020
4259 Clouds 6 1017 75 16093 4.6 350 13:22 26.04.2020
4260 Clouds 6 1016 70 16093 4.1 350 12:57 26.04.2020
4261 Clouds 6 1016 70 16093 4.1 350 12:39 26.04.2020
4262 Clouds 6 1016 70 16093 4.1 350 12:39 26.04.2020
4263 Clouds 6 1016 70 16093 4.1 350 12:20 26.04.2020
4264 Clouds 6 1016 70 16093 3.6 350 11:55 26.04.2020
4265 Clouds 6 1016 75 16093 3.6 350 11:37 26.04.2020
4266 Clouds 6 1016 75 16093 3.6 350 11:18 26.04.2020
4267 Clouds 6 1016 75 16093 4.1 350 10:43 26.04.2020
4268 Clouds 6 1016 75 16093 4.1 350 10:24 26.04.2020
4269 Clouds 6 1016 75 16093 3.6 350 09:58 26.04.2020
4270 Clouds 6 1016 75 16093 3.6 350 09:39 26.04.2020
4271 Clouds 6 1016 75 16093 3.6 350 09:20 26.04.2020
4272 Clouds 6 1016 75 16093 3.6 350 08:42 26.04.2020
4273 Clouds 6 1016 75 16093 3.6 350 08:23 26.04.2020
4274 Clouds 6 1016 81 16093 4.1 360 07:50 26.04.2020
4275 Clouds 6 1016 81 16093 4.1 360 07:25 26.04.2020
4276 Clouds 6 1015 81 16093 4.1 350 06:55 26.04.2020
4277 Clouds 6 1015 81 16093 4.1 350 06:33 26.04.2020
4278 Rain 6 1016 81 16093 4.1 10 05:54 26.04.2020
4279 Rain 6 1016 81 16093 4.1 10 05:35 26.04.2020
4280 Rain 6 1015 87 14484 5.7 10 04:42 26.04.2020
4281 Rain 5 1015 87 14484 5.7 10 03:49 26.04.2020
4282 Rain 5 1015 87 11265 7.2 20 02:40 26.04.2020
4283 Rain 5 1015 87 11265 7.2 20 02:20 26.04.2020
4284 Rain 6 1015 87 14484 5.7 20 01:38 26.04.2020
4285 Rain 6 1014 87 9656 6.7 30 01:19 26.04.2020
4286 Rain 6 1014 87 9656 6.7 30 00:38 26.04.2020
4287 Rain 6 1014 87 14484 9.8 40 00:18 26.04.2020
4288 Rain 6 1014 87 14484 9.8 40 23:38 25.04.2020
4289 Rain 6 1014 87 14484 9.8 40 23:20 25.04.2020
4290 Rain 6 1015 81 16093 8.7 30 22:43 25.04.2020
4291 Rain 6 1015 81 16093 8.7 30 22:21 25.04.2020
4292 Rain 6 1014 87 12874 8.2 30 21:59 25.04.2020
4293 Rain 6 1014 87 12874 8.2 30 21:39 25.04.2020
4294 Rain 6 1014 87 12874 8.2 30 21:20 25.04.2020
4295 Rain 6 1015 81 16093 7.7 20 20:55 25.04.2020
4296 Rain 6 1015 81 16093 7.7 20 20:37 25.04.2020
4297 Rain 6 1015 81 16093 6.2 30 20:19 25.04.2020
4298 Rain 6 1015 81 16093 6.2 30 19:41 25.04.2020
4299 Rain 6 1014 93 9656 5.7 60 19:23 25.04.2020
4300 Rain 6 1014 100 11265 6.7 60 18:58 25.04.2020
4301 Rain 7 1014 100 11265 6.7 60 18:39 25.04.2020
4302 Rain 7 1014 100 11265 6.7 60 18:20 25.04.2020
4303 Rain 7 1014 93 11265 5.7 60 17:57 25.04.2020
4304 Rain 7 1014 93 11265 5.7 60 17:38 25.04.2020
4305 Rain 7 1017 88 0 0.89 79 17:19 25.04.2020
4306 Rain 7 1014 100 11265 7.2 50 16:54 25.04.2020
4307 Rain 7 1014 93 12874 6.7 60 16:36 25.04.2020
4308 Rain 7 1014 93 12874 6.7 60 16:18 25.04.2020
4309 Rain 7 1014 93 11265 5.1 50 15:40 25.04.2020
4310 Rain 7 1014 93 11265 5.1 50 15:19 25.04.2020
4311 Rain 7 1014 93 8047 3.6 40 14:58 25.04.2020
4312 Rain 7 1014 93 6437 4.1 30 14:38 25.04.2020
4313 Rain 7 1014 93 6437 4.1 30 14:20 25.04.2020
4314 Rain 7 1013 93 8047 3.1 30 13:43 25.04.2020
4315 Rain 7 1013 93 8047 3.1 30 13:19 25.04.2020
4316 Rain 6 1013 93 9656 3.6 30 12:58 25.04.2020
4317 Rain 6 1013 81 14484 2.6 350 12:40 25.04.2020
4318 Rain 6 1013 81 14484 2.6 350 12:20 25.04.2020
4319 Clouds 6 1013 75 16093 2.6 40 11:56 25.04.2020
4320 Clouds 6 1013 75 16093 2.6 40 11:38 25.04.2020
4321 Clouds 6 1013 75 16093 2.6 40 11:20 25.04.2020
4322 Clouds 6 1013 75 16093 3.1 40 10:43 25.04.2020
4323 Clouds 6 1013 75 16093 3.1 40 10:23 25.04.2020
4324 Clouds 5 1014 75 14484 3.6 40 09:48 25.04.2020
4325 Clouds 5 1014 75 14484 3.6 40 09:29 25.04.2020
4326 Clouds 5 1014 81 14484 3.1 30 08:58 25.04.2020
4327 Clouds 5 1014 81 14484 3.1 30 08:39 25.04.2020
4328 Clouds 5 1014 81 14484 3.1 30 08:21 25.04.2020
4329 Clouds 5 1014 81 12874 3.1 50 07:50 25.04.2020
4330 Clouds 5 1014 81 12874 3.1 50 07:28 25.04.2020
4331 Clouds 5 1014 81 12874 4.1 40 06:47 25.04.2020
4332 Clouds 5 1014 81 12874 4.1 40 06:18 25.04.2020
4333 Haze 5 1014 81 9656 3.6 40 05:39 25.04.2020
4334 Haze 5 1014 81 9656 4.1 40 04:57 25.04.2020
4335 Clouds 6 1013 75 14484 5.1 40 02:59 25.04.2020
4336 Clouds 6 1013 75 14484 5.1 40 02:21 25.04.2020
4337 Clouds 6 1013 75 14484 4.6 50 01:53 25.04.2020
4338 Clouds 6 1013 75 14484 4.6 50 01:34 25.04.2020
4339 Clouds 7 1013 75 14484 3.6 50 00:56 25.04.2020
4340 Clouds 7 1013 75 14484 3.6 50 00:32 25.04.2020
4341 Clouds 7 1013 75 14484 4.1 40 23:45 24.04.2020
4342 Clouds 7 1013 75 14484 4.1 40 23:24 24.04.2020
4343 Clouds 7 1013 75 12874 3.6 50 22:59 24.04.2020
4344 Clouds 7 1013 75 12874 3.6 50 22:39 24.04.2020
4345 Clouds 7 1013 75 12874 3.6 50 22:19 24.04.2020
4346 Clouds 7 1013 75 12874 3.6 50 22:19 24.04.2020
4347 Clouds 7 1013 75 11265 2.6 0 21:55 24.04.2020
4348 Clouds 7 1013 75 11265 2.6 0 21:37 24.04.2020
4349 Clouds 7 1013 75 11265 2.6 0 21:19 24.04.2020
4350 Clouds 7 1013 76 11265 4.6 40 20:55 24.04.2020
4351 Clouds 7 1013 76 11265 4.6 40 20:37 24.04.2020
4352 Clouds 7 1013 76 11265 4.6 40 20:18 24.04.2020
4353 Clouds 7 1013 81 11265 3.6 20 19:40 24.04.2020
4354 Clouds 7 1013 81 11265 3.6 20 19:21 24.04.2020
4355 Mist 6 1013 87 9656 2.6 40 18:45 24.04.2020
4356 Mist 6 1013 87 9656 2.6 40 18:26 24.04.2020
4357 Mist 6 1013 87 8047 3.1 360 17:57 24.04.2020
4358 Mist 6 1013 87 8047 3.1 360 17:37 24.04.2020
4359 Mist 6 1013 87 8047 3.1 360 17:19 24.04.2020
4360 Mist 6 1012 93 4828 4.1 10 16:58 24.04.2020
4361 Mist 5 1012 93 4828 4.1 10 16:39 24.04.2020
4362 Mist 5 1012 93 4828 4.1 10 16:20 24.04.2020
4363 Mist 5 1012 93 2012 4.1 10 15:42 24.04.2020
4364 Clouds 5 1015 94 0 3.84 1 15:21 24.04.2020
4365 Clouds 5 1015 94 0 0.45 35 14:56 24.04.2020
4366 Mist 5 1011 93 2012 3.6 10 14:37 24.04.2020
4367 Mist 5 1009 100 2414 3.1 20 14:18 24.04.2020
4368 Mist 5 1009 100 2414 3.1 20 13:41 24.04.2020
4369 Mist 5 1009 100 2414 3.1 20 13:21 24.04.2020
4370 Mist 5 1009 100 2816 5.1 20 12:58 24.04.2020
4371 Mist 5 1009 100 2816 5.1 20 12:40 24.04.2020
4372 Mist 5 1009 100 2816 5.1 20 12:19 24.04.2020
4373 Mist 5 1008 100 3219 4.6 20 11:43 24.04.2020
4374 Mist 5 1008 100 3219 4.6 20 11:23 24.04.2020
4375 Mist 5 1008 93 6437 4.6 10 10:59 24.04.2020
4376 Mist 5 1008 93 6437 4.6 10 10:38 24.04.2020
4377 Mist 5 1008 93 6437 4.6 10 10:20 24.04.2020
4378 Mist 5 1008 93 6437 4.6 10 10:20 24.04.2020
4379 Clouds 6 1012 91 0 4.41 12 09:55 24.04.2020
4380 Mist 6 1008 93 6437 5.1 350 09:36 24.04.2020
4381 Mist 6 1008 93 6437 5.1 350 09:18 24.04.2020
4382 Mist 6 1008 93 6437 4.6 10 08:42 24.04.2020
4383 Mist 6 1008 93 6437 4.6 10 08:20 24.04.2020
4384 Mist 6 1008 93 8047 3.6 20 07:56 24.04.2020
4385 Mist 6 1008 93 8047 3.6 20 07:38 24.04.2020
4386 Mist 6 1008 93 8047 3.6 20 07:19 24.04.2020
4387 Mist 6 1008 93 8047 3.6 20 06:43 24.04.2020
4388 Mist 6 1008 93 6437 5.1 20 05:51 24.04.2020
4389 Mist 6 1008 93 6437 5.1 20 05:20 24.04.2020
4390 Mist 6 1006 87 6437 4.1 10 03:34 24.04.2020
4391 Mist 6 1006 93 6437 5.7 20 02:50 24.04.2020
4392 Mist 7 1006 93 6437 5.7 20 02:30 24.04.2020
4393 Haze 8 1005 71 9656 5.1 10 01:46 24.04.2020
4394 Rain 9 1005 66 12874 4.6 10 00:50 24.04.2020
4395 Rain 10 1005 76 12874 2.6 70 00:19 24.04.2020
4396 Clouds 11 1005 66 14484 3.6 80 23:46 23.04.2020
4397 Clouds 11 1005 66 14484 3.6 80 23:27 23.04.2020
4398 Clouds 12 1005 62 14484 3.1 60 22:57 23.04.2020
4399 Clouds 12 1005 62 14484 2.6 50 22:39 23.04.2020
4400 Clouds 13 1005 62 14484 2.6 50 22:20 23.04.2020
4401 Haze 13 1005 67 9656 3.6 50 21:57 23.04.2020
4402 Haze 13 1005 67 9656 3.6 50 21:39 23.04.2020
4403 Haze 12 1005 67 9656 3.6 50 21:20 23.04.2020
4404 Haze 12 1005 67 9656 3.6 50 21:20 23.04.2020
4405 Clouds 12 1006 76 14484 5.1 20 20:56 23.04.2020
4406 Clouds 11 1006 76 14484 5.1 20 20:38 23.04.2020
4407 Clouds 11 1006 76 14484 5.1 20 20:19 23.04.2020
4408 Clouds 10 1006 76 16093 2.69 69 19:55 23.04.2020
4409 Rain 11 1006 76 16093 2.69 69 19:37 23.04.2020
4410 Rain 11 1006 76 16093 2.69 69 19:19 23.04.2020
4411 Clouds 12 1007 71 16093 2.69 69 18:40 23.04.2020
4412 Clouds 11 1007 71 16093 3.14 54 18:22 23.04.2020
4413 Clouds 11 1007 71 16093 3.14 54 17:57 23.04.2020
4414 Clouds 11 1007 71 16093 3.14 54 17:39 23.04.2020
4415 Clouds 12 1007 71 16093 3.14 54 17:21 23.04.2020
4416 Clouds 11 1007 76 16093 3.14 54 16:44 23.04.2020
4417 Clouds 11 1007 76 16093 3.14 54 16:21 23.04.2020
4418 Clouds 10 1007 81 14484 2.6 130 15:59 23.04.2020
4419 Clouds 10 1007 81 14484 2.6 130 15:40 23.04.2020
4420 Clouds 10 1007 81 14484 2.6 130 15:40 23.04.2020
4421 Clouds 9 1007 81 14484 2.6 130 15:22 23.04.2020
4422 Clouds 8 1006 81 12874 2.1 60 14:54 23.04.2020
4423 Clouds 8 1006 81 12874 2.1 60 14:36 23.04.2020
4424 Clouds 8 1006 81 12874 2.1 60 14:18 23.04.2020
4425 Clouds 7 1006 81 14484 1.5 20 13:40 23.04.2020
4426 Clouds 7 1006 81 14484 1.5 20 13:22 23.04.2020
4427 Clouds 7 1006 75 16093 1.5 330 12:58 23.04.2020
4428 Clouds 7 1006 75 16093 1.5 330 12:38 23.04.2020
4429 Clouds 7 1006 75 16093 1.5 330 12:20 23.04.2020
4430 Clouds 8 1005 81 16093 5.7 170 11:47 23.04.2020
4431 Clouds 8 1005 81 16093 5.7 170 11:27 23.04.2020
4432 Clouds 8 1007 81 14484 2.1 160 10:59 23.04.2020
4433 Clouds 8 1007 81 14484 2.1 160 10:40 23.04.2020
4434 Clouds 8 1007 81 14484 2.1 160 10:20 23.04.2020
4435 Clouds 8 1008 81 16093 2.6 40 09:40 23.04.2020
4436 Clouds 7 1009 75 16093 1.5 80 09:19 23.04.2020
4437 Clouds 7 1009 75 16093 1.5 80 08:51 23.04.2020
4438 Clouds 8 1009 75 16093 1.5 80 08:32 23.04.2020
4439 Clouds 8 1009 75 16093 2.6 80 07:58 23.04.2020
4440 Clouds 8 1009 75 16093 2.6 80 07:39 23.04.2020
4441 Clouds 8 1009 75 16093 2.6 80 07:21 23.04.2020
4442 Clouds 8 1010 81 16093 3.6 30 06:45 23.04.2020
4443 Clouds 8 1009 81 14484 4.6 30 05:50 23.04.2020
4444 Clouds 7 1009 81 14484 4.6 30 05:21 23.04.2020
4445 Rain 12 1007 51 16093 5.1 160 03:32 23.04.2020
4446 Rain 12 1008 76 16093 4.1 190 02:23 23.04.2020
4447 Clouds 11 1008 71 12874 2.1 100 01:38 23.04.2020
4448 Rain 10 1009 76 9656 3.34 100 00:54 23.04.2020
4449 Rain 9 1009 76 9656 3.67 132 00:27 23.04.2020
4450 Rain 9 1010 71 16093 2.6 50 23:57 22.04.2020
4451 Rain 9 1010 71 16093 2.6 50 23:57 22.04.2020
4452 Rain 9 1010 71 16093 2.6 50 23:38 22.04.2020
4453 Rain 9 1011 62 16093 2.6 50 23:19 22.04.2020
4454 Rain 9 1011 62 16093 2.6 50 22:40 22.04.2020
4455 Rain 9 1011 62 16093 2.6 50 22:20 22.04.2020
4456 Rain 9 1011 44 16093 3.1 150 21:58 22.04.2020
4457 Clouds 11 1012 78 16093 2.6 80 21:40 22.04.2020
4458 Clouds 10 1012 72 16093 2.6 80 21:21 22.04.2020
4459 Clouds 10 1012 72 16093 2.6 80 21:21 22.04.2020
4460 Clouds 10 1012 35 16093 4.1 140 20:56 22.04.2020
4461 Clouds 10 1012 35 16093 4.1 140 20:37 22.04.2020
4462 Clouds 12 1012 35 16093 4.1 140 20:18 22.04.2020
4463 Clouds 11 1013 37 16093 4.1 160 19:56 22.04.2020
4464 Clouds 10 1013 37 16093 4.1 160 19:37 22.04.2020
4465 Clouds 9 1013 37 16093 4.1 160 19:18 22.04.2020
4466 Clouds 8 1014 45 16093 2.6 140 18:55 22.04.2020
4467 Clouds 8 1014 45 16093 2.6 140 18:37 22.04.2020
4468 Clouds 8 1014 45 16093 2.6 140 18:19 22.04.2020
4469 Rain 8 1014 45 16093 3.6 200 17:42 22.04.2020
4470 Rain 8 1014 45 16093 3.6 200 17:24 22.04.2020
4471 Clouds 7 1014 42 16093 6.2 160 16:56 22.04.2020
4472 Rain 7 1014 48 16093 5.1 170 16:36 22.04.2020
4473 Rain 7 1014 48 16093 5.1 170 16:18 22.04.2020
4474 Clouds 6 1016 41 16093 2.6 120 15:38 22.04.2020
4475 Clouds 5 1016 41 16093 2.6 120 15:20 22.04.2020
4476 Clouds 5 1016 41 16093 4.6 130 14:56 22.04.2020
4477 Clouds 5 1016 41 16093 4.6 130 14:37 22.04.2020
4478 Clouds 5 1016 41 16093 4.6 130 14:37 22.04.2020
4479 Clouds 5 1016 41 16093 4.6 130 14:19 22.04.2020
4480 Clouds 5 1016 41 16093 4.6 130 14:19 22.04.2020
4481 Clouds 5 1016 41 16093 4.1 130 13:44 22.04.2020
4482 Clouds 5 1016 41 16093 4.1 130 13:20 22.04.2020
4483 Clouds 5 1017 38 16093 2.1 100 12:44 22.04.2020
4484 Clouds 5 1017 38 16093 2.1 100 12:44 22.04.2020
4485 Clouds 5 1017 38 16093 2.1 100 12:26 22.04.2020
4486 Clouds 5 1016 35 16093 3.6 130 11:59 22.04.2020
4487 Clouds 5 1016 35 16093 3.6 130 11:39 22.04.2020
4488 Clouds 5 1016 35 16093 3.6 130 11:20 22.04.2020
4489 Clouds 5 1016 35 16093 3.6 130 10:46 22.04.2020
4490 Clouds 5 1016 35 16093 3.6 130 10:25 22.04.2020
4491 Clouds 5 1016 35 16093 3.1 140 09:56 22.04.2020
4492 Clouds 5 1016 35 16093 3.1 140 09:38 22.04.2020
4493 Clouds 5 1016 35 16093 3.1 140 09:19 22.04.2020
4494 Clouds 4 1017 51 16093 2.6 140 08:54 22.04.2020
4495 Clouds 4 1017 51 16093 2.6 140 08:54 22.04.2020
4496 Clouds 4 1017 51 16093 2.6 140 08:36 22.04.2020
4497 Clouds 4 1017 51 16093 2.6 140 08:18 22.04.2020
4498 Clouds 4 1017 48 16093 2.6 120 07:46 22.04.2020
4499 Clouds 4 1017 48 16093 2.6 120 07:22 22.04.2020
4500 Clouds 4 1017 51 16093 2.1 120 06:45 22.04.2020
4501 Clear 3 1017 48 16093 3.1 110 05:45 22.04.2020
4502 Clear 4 1017 48 16093 3.1 110 05:23 22.04.2020
4503 Clouds 4 1016 48 16093 5.1 100 03:55 22.04.2020
4504 Clear 6 1015 42 16093 7.2 80 02:37 22.04.2020
4505 Clear 8 1015 20 16093 7.2 290 01:42 22.04.2020
4506 Clear 8 1015 20 16093 7.2 290 01:23 22.04.2020
4507 Clear 9 1015 20 16093 7.2 300 00:46 22.04.2020
4508 Clear 10 1015 20 16093 7.2 300 00:21 22.04.2020
4509 Clear 11 1015 23 16093 7.7 280 23:56 21.04.2020
4510 Clear 11 1015 23 16093 7.7 280 23:36 21.04.2020
4511 Clear 11 1015 23 16093 7.7 280 23:18 21.04.2020
4512 Clear 10 1015 21 16093 7.2 300 22:39 21.04.2020
4513 Clear 10 1015 21 16093 7.2 300 22:21 21.04.2020
4514 Clear 10 1015 26 16093 9.8 320 21:57 21.04.2020
4515 Clear 10 1015 26 16093 9.8 320 21:39 21.04.2020
4516 Clear 10 1015 26 16093 9.8 320 21:39 21.04.2020
4517 Clear 9 1015 26 16093 9.8 320 21:21 21.04.2020
4518 Clear 9 1015 24 16093 7.2 300 20:41 21.04.2020
4519 Clear 8 1015 24 16093 7.2 300 20:23 21.04.2020
4520 Clouds 8 1014 28 16093 8.7 340 19:59 21.04.2020
4521 Clouds 8 1014 28 16093 8.7 340 19:39 21.04.2020
4522 Clouds 8 1014 28 16093 8.7 340 19:39 21.04.2020
4523 Clouds 7 1014 28 16093 8.7 340 19:19 21.04.2020
4524 Clouds 7 1014 28 16093 7.2 320 18:56 21.04.2020
4525 Clouds 7 1014 28 16093 7.2 320 18:38 21.04.2020
4526 Clouds 6 1014 28 16093 7.2 320 18:18 21.04.2020
4527 Clouds 6 1014 28 16093 7.2 320 18:18 21.04.2020
4528 Clouds 5 1013 30 16093 6.2 320 17:40 21.04.2020
4529 Clouds 5 1013 30 16093 6.2 320 17:20 21.04.2020
4530 Clouds 5 1013 29 16093 7.7 320 16:58 21.04.2020
4531 Clouds 4 1013 29 16093 7.7 320 16:38 21.04.2020
4532 Clouds 4 1013 29 16093 7.7 320 16:19 21.04.2020
4533 Clouds 4 1012 34 16093 7.2 310 15:55 21.04.2020
4534 Clouds 4 1012 34 16093 7.2 310 15:55 21.04.2020
4535 Clouds 3 1012 34 16093 7.2 310 15:37 21.04.2020
4536 Clouds 3 1012 34 16093 7.2 310 15:37 21.04.2020
4537 Clouds 3 1012 34 16093 7.2 310 15:19 21.04.2020
4538 Clouds 3 1011 34 16093 7.7 330 14:45 21.04.2020
4539 Clouds 2 1011 34 16093 7.7 330 14:25 21.04.2020
4540 Clouds 2 1009 34 16093 6.2 330 13:57 21.04.2020
4541 Clouds 2 1009 34 16093 6.2 330 13:38 21.04.2020
4542 Clouds 2 1009 34 16093 6.2 330 13:18 21.04.2020
4543 Clear 3 1008 34 16093 6.7 320 12:39 21.04.2020
4544 Clear 3 1008 34 16093 6.7 320 12:20 21.04.2020
4545 Clear 3 1007 41 16093 9.8 330 11:58 21.04.2020
4546 Clear 4 1007 41 16093 9.8 330 11:39 21.04.2020
4547 Clear 4 1007 41 16093 7.7 340 11:19 21.04.2020
4548 Clouds 5 1005 56 16093 8.2 340 10:59 21.04.2020
4549 Clouds 5 1005 56 16093 8.2 340 10:40 21.04.2020
4550 Clouds 5 1006 52 16093 8.2 340 10:22 21.04.2020
4551 Clouds 6 1004 61 16093 8.2 320 09:58 21.04.2020
4552 Clouds 7 1004 61 16093 8.2 320 09:36 21.04.2020
4553 Clouds 7 1004 61 16093 8.2 320 09:18 21.04.2020
4554 Clouds 8 1003 61 16093 6.7 330 08:44 21.04.2020
4555 Clouds 9 1003 61 16093 6.7 330 08:26 21.04.2020
4556 Rain 9 1007 62 0 8.72 325 07:53 21.04.2020
4557 Clouds 10 1003 71 16093 8.7 320 07:27 21.04.2020
4558 Rain 11 1002 76 14484 6.7 290 06:51 21.04.2020
4559 Rain 11 1002 76 14484 6.7 290 06:33 21.04.2020
4560 Rain 11 1001 71 16093 5.1 250 05:50 21.04.2020
4561 Rain 13 1001 54 8047 9.8 270 04:57 21.04.2020
4562 Clouds 15 1000 44 16093 7.2 240 03:46 21.04.2020
4563 Rain 15 1003 49 0 7.32 259 02:42 21.04.2020
4564 Clouds 15 1002 47 16093 7.2 250 01:31 21.04.2020
4565 Clouds 17 1002 33 16093 10.8 250 00:38 21.04.2020
4566 Clouds 17 1002 50 16093 8.7 260 00:18 21.04.2020
4567 Clouds 17 1002 50 16093 8.7 260 23:43 20.04.2020
4568 Clouds 17 1002 50 16093 8.7 260 23:21 20.04.2020
4569 Clouds 18 1004 27 16093 10.3 270 22:55 20.04.2020
4570 Clouds 17 1004 27 16093 10.3 270 22:36 20.04.2020
4571 Clouds 17 1005 29 16093 8.7 240 22:18 20.04.2020
4572 Clouds 17 1004 27 16093 10.3 270 22:18 20.04.2020
4573 Clouds 17 1005 29 16093 8.7 240 21:54 20.04.2020
4574 Clouds 17 1005 29 16093 8.7 240 21:36 20.04.2020
4575 Clouds 17 1005 29 16093 8.7 240 21:36 20.04.2020
4576 Smoke 17 1005 26 16093 6.2 270 21:18 20.04.2020
4577 Clouds 16 1006 28 16093 7.2 270 20:42 20.04.2020
4578 Clouds 15 1006 28 16093 7.2 270 20:20 20.04.2020
4579 Clouds 15 1007 28 16093 7.2 250 19:59 20.04.2020
4580 Clouds 15 1007 28 16093 7.2 250 19:41 20.04.2020
4581 Clouds 15 1007 28 16093 7.2 250 19:22 20.04.2020
4582 Clouds 14 1007 32 16093 5.1 240 18:56 20.04.2020
4583 Clouds 14 1007 32 16093 5.1 240 18:38 20.04.2020
4584 Clouds 14 1007 32 16093 5.1 240 18:38 20.04.2020
4585 Clouds 13 1007 32 16093 5.1 240 18:19 20.04.2020
4586 Clear 12 1008 40 16093 6.2 260 17:44 20.04.2020
4587 Clear 12 1008 40 16093 6.2 260 17:23 20.04.2020
4588 Clear 11 1008 46 16093 5.1 270 16:59 20.04.2020
4589 Clear 11 1008 46 16093 5.1 270 16:59 20.04.2020
4590 Clear 11 1008 46 16093 5.1 270 16:41 20.04.2020
4591 Clear 10 1008 49 16093 4.1 240 16:20 20.04.2020
4592 Clouds 9 1009 56 16093 3.6 260 15:56 20.04.2020
4593 Clear 8 1009 70 16093 2.1 270 15:38 20.04.2020
4594 Clear 6 1009 70 16093 2.1 270 15:19 20.04.2020
4595 Clear 4 1009 61 16093 2.4 236 14:41 20.04.2020
4596 Clear 4 1009 63 16093 2.24 241 14:19 20.04.2020
4597 Clouds 4 1009 74 16093 2.24 241 13:58 20.04.2020
4598 Clouds 3 1009 74 16093 2.24 241 13:39 20.04.2020
4599 Clouds 3 1009 74 16093 2.24 241 13:20 20.04.2020
4600 Clear 3 1009 63 16093 1.5 270 12:44 20.04.2020
4601 Clear 3 1009 63 16093 1.5 270 12:44 20.04.2020
4602 Clear 3 1009 64 16093 1.5 270 12:23 20.04.2020
4603 Clear 4 1009 64 16093 2.1 250 11:57 20.04.2020
4604 Clear 4 1009 64 16093 2.1 250 11:38 20.04.2020
4605 Clear 3 1009 64 16093 2.1 250 11:18 20.04.2020
4606 Clear 4 1010 69 16093 0.9 215 10:54 20.04.2020
4607 Clear 4 1010 69 16093 0.9 215 10:36 20.04.2020
4608 Clear 4 1010 69 16093 0.9 215 10:18 20.04.2020
4609 Clear 4 1010 69 16093 0.75 287 09:43 20.04.2020
4610 Clear 4 1010 69 16093 1.2 35 09:25 20.04.2020
4611 Clear 5 1010 60 16093 1.2 35 08:57 20.04.2020
4612 Clear 5 1010 60 16093 1.2 35 08:39 20.04.2020
4613 Clear 5 1010 60 16093 1.2 35 08:18 20.04.2020
4614 Clear 5 1010 56 16093 1.5 80 07:42 20.04.2020
4615 Clear 5 1010 56 16093 1.5 80 07:24 20.04.2020
4616 Clear 5 1010 60 16093 2.1 80 06:38 20.04.2020
4617 Clear 5 1011 56 16093 2.6 80 05:59 20.04.2020
4618 Clear 6 1011 56 16093 3.1 80 04:51 20.04.2020
4619 Clear 6 1011 65 16093 5.1 80 02:52 20.04.2020
4620 Clear 6 1011 65 16093 5.1 80 02:33 20.04.2020
4621 Clear 7 1011 61 16093 6.2 80 01:30 20.04.2020
4622 Clouds 7 1010 61 16093 6.7 70 00:47 20.04.2020
4623 Clouds 7 1010 61 16093 6.7 70 00:22 20.04.2020
4624 Clouds 9 1009 53 16093 8.7 80 23:41 19.04.2020
4625 Clouds 8 1009 53 16093 8.7 80 23:22 19.04.2020
4626 Clouds 11 1009 43 16093 7.2 80 22:59 19.04.2020
4627 Clouds 11 1009 43 16093 7.2 80 22:38 19.04.2020
4628 Clouds 12 1009 43 16093 7.2 80 22:19 19.04.2020
4629 Clouds 12 1009 43 16093 2.1 340 21:43 19.04.2020
4630 Clouds 13 1009 43 16093 2.1 340 21:25 19.04.2020
4631 Clouds 14 1009 25 16093 8.2 330 20:59 19.04.2020
4632 Clouds 14 1009 25 16093 8.2 330 20:41 19.04.2020
4633 Clouds 15 1009 25 16093 8.2 330 20:20 19.04.2020
4634 Clouds 15 1009 25 16093 8.2 330 20:20 19.04.2020
4635 Clouds 14 1009 29 16093 5.7 340 19:57 19.04.2020
4636 Clouds 15 1009 29 16093 5.7 340 19:39 19.04.2020
4637 Clouds 15 1009 29 16093 5.7 340 19:21 19.04.2020
4638 Clouds 15 1009 50 16093 5.7 350 18:57 19.04.2020
4639 Clouds 15 1009 50 16093 5.7 350 18:39 19.04.2020
4640 Rain 14 1012 36 0 3.13 27 18:19 19.04.2020
4641 Clouds 15 1009 70 16093 5.7 350 18:19 19.04.2020
4642 Rain 14 1012 39 0 1.34 330 17:56 19.04.2020
4643 Clouds 14 1009 44 16093 3.1 330 17:38 19.04.2020
4644 Clouds 14 1009 44 16093 3.1 330 17:19 19.04.2020
4645 Clouds 14 1009 44 16093 3.1 330 17:19 19.04.2020
4646 Clouds 13 1008 50 16093 3.6 310 16:54 19.04.2020
4647 Clouds 13 1008 50 16093 3.6 310 16:36 19.04.2020
4648 Clouds 12 1008 50 16093 3.6 310 16:18 19.04.2020
4649 Clouds 10 1008 61 16093 3.6 260 15:41 19.04.2020
4650 Clouds 10 1008 61 16093 3.6 260 15:20 19.04.2020
4651 Clouds 9 1007 61 16093 5.1 270 14:54 19.04.2020
4652 Clouds 9 1007 61 16093 5.1 270 14:36 19.04.2020
4653 Clouds 9 1007 61 16093 5.1 270 14:18 19.04.2020
4654 Clouds 8 1007 57 16093 4.6 250 13:38 19.04.2020
4655 Clouds 8 1007 57 16093 4.6 250 13:19 19.04.2020
4656 Clouds 8 1007 61 16093 4.6 230 12:49 19.04.2020
4657 Clouds 9 1007 61 16093 4.6 230 12:49 19.04.2020
4658 Clouds 9 1007 61 16093 4.6 230 12:25 19.04.2020
4659 Clouds 9 1007 61 16093 4.6 230 11:55 19.04.2020
4660 Clouds 9 1007 61 16093 4.6 230 11:37 19.04.2020
4661 Clouds 9 1007 61 16093 4.6 230 11:18 19.04.2020
4662 Clouds 9 1007 57 16093 5.7 220 10:55 19.04.2020
4663 Clouds 9 1007 57 16093 5.7 220 10:55 19.04.2020
4664 Clouds 9 1007 57 16093 5.7 220 10:37 19.04.2020
4665 Clouds 9 1008 66 16093 5.7 220 10:18 19.04.2020
4666 Clouds 9 1008 67 16093 5.7 220 09:43 19.04.2020
4667 Clouds 9 1008 64 16093 5.7 220 09:25 19.04.2020
4668 Clouds 9 1008 57 16093 6.2 220 08:40 19.04.2020
4669 Clouds 9 1008 57 16093 6.2 220 08:21 19.04.2020
4670 Clouds 9 1008 57 16093 7.2 210 07:58 19.04.2020
4671 Clouds 9 1008 57 16093 7.2 210 07:39 19.04.2020
4672 Clouds 10 1008 57 16093 7.2 210 07:21 19.04.2020
4673 Clouds 10 1009 53 16093 6.7 200 06:27 19.04.2020
4674 Clear 11 1009 50 16093 5.7 210 05:43 19.04.2020
4675 Clear 11 1009 61 16093 6.2 220 04:22 19.04.2020
4676 Clear 12 1008 37 16093 10.3 220 02:55 19.04.2020
4677 Clear 13 1008 37 16093 10.3 220 02:20 19.04.2020
4678 Clear 14 1009 35 16093 10.8 220 01:37 19.04.2020
4679 Clouds 14 1009 35 16093 8.7 220 00:41 19.04.2020
4680 Clouds 14 1009 35 16093 8.7 220 00:22 19.04.2020
4681 Clouds 14 1011 35 16093 9.3 230 23:44 18.04.2020
4682 Clouds 14 1011 35 16093 9.3 230 23:21 18.04.2020
4683 Clouds 14 1012 35 16093 9.8 210 22:57 18.04.2020
4684 Clouds 14 1012 35 16093 9.8 210 22:38 18.04.2020
4685 Clouds 14 1012 35 16093 9.8 210 22:20 18.04.2020
4686 Clouds 13 1013 46 16093 9.8 240 21:55 18.04.2020
4687 Clouds 13 1013 48 16093 9.8 240 21:37 18.04.2020
4688 Clouds 13 1014 37 16093 8.7 230 21:19 18.04.2020
4689 Clouds 13 1014 37 16093 8.7 230 20:40 18.04.2020
4690 Clouds 12 1014 37 16093 8.7 230 20:21 18.04.2020
4691 Clouds 11 1015 43 16093 9.8 240 19:44 18.04.2020
4692 Clouds 11 1015 43 16093 9.8 240 19:44 18.04.2020
4693 Clouds 11 1015 43 16093 9.8 240 19:25 18.04.2020
4694 Clear 10 1016 57 16093 6.2 230 18:59 18.04.2020
4695 Clear 10 1016 57 16093 6.2 230 18:37 18.04.2020
4696 Clear 9 1016 57 16093 6.2 230 18:19 18.04.2020
4697 Clear 8 1016 67 16093 5.7 250 17:41 18.04.2020
4698 Clear 7 1016 67 16093 5.7 250 17:21 18.04.2020
4699 Clear 6 1017 67 16093 4.1 240 16:57 18.04.2020
4700 Clear 6 1017 67 16093 4.1 240 16:37 18.04.2020
4701 Clear 5 1017 67 16093 4.1 240 16:19 18.04.2020
4702 Clouds 4 1017 74 16093 5.1 250 15:39 18.04.2020
4703 Clouds 3 1017 74 16093 5.1 250 15:21 18.04.2020
4704 Clouds 2 1017 86 16093 3.6 230 14:46 18.04.2020
4705 Clouds 2 1017 86 16093 3.6 230 14:27 18.04.2020
4706 Clouds 2 1016 86 16093 3.6 230 13:56 18.04.2020
4707 Clouds 2 1016 86 16093 3.6 230 13:38 18.04.2020
4708 Clouds 1 1016 86 16093 3.6 230 13:19 18.04.2020
4709 Clouds 1 1016 86 16093 3.6 250 12:41 18.04.2020
4710 Clouds 2 1016 86 16093 3.6 250 12:22 18.04.2020
4711 Clouds 2 1016 80 16093 4.1 250 11:43 18.04.2020
4712 Clouds 2 1016 80 16093 4.1 250 11:25 18.04.2020
4713 Clear 2 1016 80 16093 4.1 260 10:58 18.04.2020
4714 Clear 2 1016 80 16093 4.1 260 10:39 18.04.2020
4715 Clear 2 1016 80 16093 5.1 250 10:19 18.04.2020
4716 Clear 2 1016 80 16093 5.1 250 09:55 18.04.2020
4717 Clear 2 1016 80 16093 5.1 250 09:37 18.04.2020
4718 Clear 2 1016 80 16093 5.1 250 09:18 18.04.2020
4719 Clear 2 1016 80 16093 4.6 250 08:39 18.04.2020
4720 Clear 2 1016 80 16093 4.6 250 08:20 18.04.2020
4721 Clear 2 1016 76 16093 4.6 250 07:38 18.04.2020
4722 Clear 2 1016 76 16093 4.6 250 07:19 18.04.2020
4723 Clear 2 1016 80 16093 2.6 220 06:29 18.04.2020
4724 Clear 2 1017 80 16093 2.6 230 05:42 18.04.2020
4725 Clear 3 1017 79 16093 3.1 240 04:47 18.04.2020
4726 Clear 3 1017 79 16093 3.1 240 04:27 18.04.2020
4727 Rain 4 1016 74 16093 2.6 270 02:51 18.04.2020
4728 Rain 4 1016 74 16093 2.6 270 02:23 18.04.2020
4729 Rain 5 1016 74 16093 3.6 290 01:57 18.04.2020
4730 Rain 5 1016 74 16093 3.6 290 01:35 18.04.2020
4731 Rain 5 1016 74 16093 3.6 290 01:35 18.04.2020
4732 Rain 4 1016 74 16093 2.6 10 00:44 18.04.2020
4733 Rain 4 1016 84 16093 2.6 10 00:22 18.04.2020
4734 Rain 4 1016 84 16093 2.6 10 00:22 18.04.2020
4735 Rain 4 1016 84 16093 4.1 30 23:55 17.04.2020
4736 Rain 3 1016 84 16093 4.1 30 23:37 17.04.2020
4737 Rain 3 1016 84 16093 4.1 30 23:18 17.04.2020
4738 Rain 3 1016 86 16093 4.6 20 22:56 17.04.2020
4739 Rain 3 1016 86 16093 4.6 20 22:37 17.04.2020
4740 Rain 3 1016 86 16093 4.6 20 22:18 17.04.2020
4741 Rain 3 1016 84 16093 6.2 30 21:42 17.04.2020
4742 Rain 3 1016 91 16093 6.2 30 21:21 17.04.2020
4743 Rain 2 1016 91 16093 5.1 50 20:56 17.04.2020
4744 Rain 2 1016 93 16093 5.7 60 20:38 17.04.2020
4745 Rain 2 1016 93 16093 5.7 60 20:18 17.04.2020
4746 Rain 2 1017 93 9656 5.1 70 19:57 17.04.2020
4747 Rain 2 1017 93 9656 5.1 70 19:38 17.04.2020
4748 Rain 2 1017 93 9656 5.1 70 19:20 17.04.2020
4749 Rain 2 1017 93 6437 6.2 70 18:44 17.04.2020
4750 Rain 2 1017 93 6437 6.2 70 18:23 17.04.2020
4751 Rain 2 1017 93 6437 6.2 70 18:23 17.04.2020
4752 Rain 2 1018 93 6437 6.2 70 17:55 17.04.2020
4753 Rain 2 1018 93 2816 5.1 70 17:36 17.04.2020
4754 Rain 1 1018 100 2816 4.6 80 17:18 17.04.2020
4755 Rain 1 1018 93 2816 5.1 70 17:18 17.04.2020
4756 Rain 1 1019 100 3219 3.1 70 16:41 17.04.2020
4757 Rain 1 1019 100 3219 3.1 70 16:22 17.04.2020
4758 Rain 1 1019 100 3219 4.1 80 15:41 17.04.2020
4759 Rain 1 1019 100 3219 4.1 80 15:23 17.04.2020
4760 Rain 1 1020 100 2012 4.1 70 14:56 17.04.2020
4761 Rain 1 1020 100 2012 4.1 70 14:37 17.04.2020
4762 Rain 1 1020 100 2012 4.1 70 14:19 17.04.2020
4763 Rain 1 1020 100 1609 3.1 60 13:41 17.04.2020
4764 Rain 0 1020 100 1609 3.1 60 13:21 17.04.2020
4765 Rain 0 1021 100 1207 2.1 50 12:58 17.04.2020
4766 Rain 0 1021 100 1207 2.1 50 12:40 17.04.2020
4767 Rain 0 1021 100 1207 2.1 50 12:21 17.04.2020
4768 Rain 1 1022 100 1207 1.5 40 11:40 17.04.2020
4769 Rain 1 1022 100 1207 1.5 40 11:19 17.04.2020
4770 Snow 1 1022 87 2414 0.17 282 10:44 17.04.2020
4771 Snow 1 1022 87 2414 0.17 282 10:24 17.04.2020
4772 Snow 2 1023 48 16093 2.1 200 09:59 17.04.2020
4773 Snow 3 1023 48 16093 2.1 200 09:40 17.04.2020
4774 Snow 3 1023 48 16093 2.1 200 09:20 17.04.2020
4775 Snow 4 1027 43 0 1.15 221 08:49 17.04.2020
4776 Clouds 4 1024 35 16093 1.15 221 08:28 17.04.2020
4777 Clouds 4 1024 35 16093 1.15 221 07:59 17.04.2020
4778 Clouds 4 1024 35 16093 1.15 221 07:41 17.04.2020
4779 Clouds 4 1024 35 16093 1.15 221 07:19 17.04.2020
4780 Clouds 4 1024 59 16093 1.5 170 06:45 17.04.2020
4781 Clouds 4 1023 48 16093 2.07 251 06:20 17.04.2020
4782 Clouds 5 1024 33 16093 5.1 250 03:36 17.04.2020
4783 Clouds 5 1024 33 16093 5.1 250 03:18 17.04.2020
4784 Clouds 6 1024 30 16093 5.7 250 01:52 17.04.2020
4785 Clouds 6 1024 30 16093 5.7 250 01:22 17.04.2020
4786 Clouds 7 1024 30 16093 4.1 290 00:26 17.04.2020
4787 Clouds 7 1024 28 16093 4.6 270 23:55 16.04.2020
4788 Clouds 7 1024 28 16093 4.6 270 23:37 16.04.2020
4789 Clouds 8 1024 28 16093 4.6 270 23:19 16.04.2020
4790 Clouds 7 1025 33 16093 4.1 270 22:41 16.04.2020
4791 Clouds 7 1025 33 16093 4.1 270 22:23 16.04.2020
4792 Clouds 7 1026 30 16093 5.7 250 21:59 16.04.2020
4793 Clouds 7 1026 30 16093 5.7 250 21:41 16.04.2020
4794 Clouds 7 1026 30 16093 5.7 250 21:41 16.04.2020
4795 Clouds 7 1026 30 16093 5.7 250 21:41 16.04.2020
4796 Clouds 7 1026 30 16093 5.7 250 21:20 16.04.2020
4797 Clouds 6 1027 33 16093 6.2 250 20:43 16.04.2020
4798 Clouds 6 1027 33 16093 6.2 250 20:23 16.04.2020
4799 Clouds 5 1027 35 16093 6.7 250 20:00 16.04.2020
4800 Clouds 5 1027 35 16093 6.7 250 19:40 16.04.2020
4801 Clouds 5 1027 35 16093 6.7 250 19:20 16.04.2020
4802 Clouds 4 1027 34 16093 4.1 260 18:57 16.04.2020
4803 Clouds 4 1027 34 16093 4.1 260 18:39 16.04.2020
4804 Clouds 3 1027 34 16093 4.1 260 18:20 16.04.2020
4805 Clouds 3 1027 37 16093 4.6 290 17:45 16.04.2020
4806 Clouds 2 1027 37 16093 4.6 290 17:26 16.04.2020
4807 Clouds 2 1027 37 16093 4.6 290 17:00 16.04.2020
4808 Clouds 2 1027 37 16093 4.6 290 17:00 16.04.2020
4809 -273 0 0 0 0 0 16:59 16.04.2020
4810 Clear 2 1027 40 16093 4.6 270 16:41 16.04.2020
4811 Clear 1 1027 40 16093 4.6 270 16:19 16.04.2020
4812 Clouds 0 1027 65 16093 4.1 290 15:42 16.04.2020
4813 Clouds -1 1027 80 16093 4.1 290 15:19 16.04.2020
4814 Clouds -1 1027 80 16093 4.1 290 15:19 16.04.2020
4815 Clouds -2 1026 50 16093 2.6 300 14:58 16.04.2020
4816 Clouds -2 1026 50 16093 2.6 300 14:38 16.04.2020
4817 Clouds -3 1026 50 16093 2.6 300 14:19 16.04.2020
4818 Clouds -3 1025 50 16093 3.1 310 13:56 16.04.2020
4819 Clouds -4 1025 50 16093 3.1 310 13:36 16.04.2020
4820 Clouds -3 1025 50 16093 3.1 310 13:18 16.04.2020
4821 Clear -3 1024 68 16093 1.5 280 12:56 16.04.2020
4822 Clear -3 1023 50 16093 2.6 300 12:37 16.04.2020
4823 Clear -3 1024 50 16093 3.6 330 12:18 16.04.2020
4824 Clear -3 1024 54 16093 4.1 310 11:42 16.04.2020
4825 Clear -2 1024 54 16093 4.1 310 11:22 16.04.2020
4826 Clouds -2 1023 63 16093 2.1 260 10:57 16.04.2020
4827 Clouds -2 1023 78 16093 3.1 280 10:39 16.04.2020
4828 Clouds -2 1023 78 16093 3.1 280 10:19 16.04.2020
4829 Clouds -1 1023 78 16093 2.6 250 09:57 16.04.2020
4830 Clouds -1 1023 63 16093 2.1 270 09:38 16.04.2020
4831 Clouds -1 1023 70 16093 2.6 250 09:18 16.04.2020
4832 Clear -1 1023 63 16093 2.6 270 08:41 16.04.2020
4833 Clear -1 1023 63 16093 2.6 270 08:22 16.04.2020
4834 Clouds -1 1022 43 16093 3.6 280 07:46 16.04.2020
4835 Clouds -1 1022 43 16093 3.6 280 07:26 16.04.2020
4836 Clear 0 1022 70 16093 2.1 270 06:44 16.04.2020
4837 Clouds 0 1021 64 16093 1.5 300 06:25 16.04.2020
4838 Clouds 0 1021 40 16093 3.6 290 05:34 16.04.2020
4839 Clouds 2 1020 47 16093 3.1 270 03:59 16.04.2020
4840 Rain 2 1020 37 16093 4.6 290 03:23 16.04.2020
4841 Clouds 2 1019 40 16093 5.1 320 02:47 16.04.2020
4842 Clouds 2 1019 40 16093 5.1 320 02:28 16.04.2020
4843 Clouds 3 1019 38 16093 5.1 290 01:19 16.04.2020
4844 Clouds 3 1019 37 16093 5.1 280 00:32 16.04.2020
4845 Clouds 3 1018 38 16093 6.2 290 23:59 15.04.2020
4846 Clouds 3 1018 38 16093 6.2 290 23:41 15.04.2020
4847 Clouds 3 1018 38 16093 6.2 290 23:21 15.04.2020
4848 Clouds 3 1018 40 16093 5.7 300 22:41 15.04.2020
4849 Clouds 3 1018 40 16093 5.7 300 22:22 15.04.2020
4850 Clouds 3 1018 44 16093 5.1 310 21:59 15.04.2020
4851 Clouds 3 1018 44 16093 5.1 310 21:41 15.04.2020
4852 Rain 3 1018 44 16093 5.1 310 21:22 15.04.2020
4853 Rain 2 1018 51 16093 4.1 310 20:58 15.04.2020
4854 Rain 2 1018 51 16093 4.1 310 20:40 15.04.2020
4855 Rain 2 1018 51 16093 4.1 310 20:21 15.04.2020
4856 Rain 2 1018 63 16093 4.1 320 19:45 15.04.2020
4857 Rain 1 1018 63 16093 4.1 320 19:21 15.04.2020
4858 Snow 1 1018 63 16093 4.6 320 18:56 15.04.2020
4859 Snow 0 1018 63 16093 4.6 320 18:38 15.04.2020
4860 Snow 0 1018 80 16093 4.1 350 18:20 15.04.2020
4861 Snow -1 1017 80 4828 4.6 320 17:40 15.04.2020
4862 Snow -1 1017 80 4828 4.6 320 17:40 15.04.2020
4863 Snow -1 1017 80 4828 4.6 320 17:21 15.04.2020
4864 Snow -1 1017 80 9656 3.6 350 16:58 15.04.2020
4865 Snow -2 1017 86 4828 3.6 340 16:40 15.04.2020
4866 Snow -2 1017 86 4828 3.6 340 16:20 15.04.2020
4867 Snow -2 1017 92 2012 3.1 360 15:59 15.04.2020
4868 Snow -2 1017 92 2012 3.1 360 15:59 15.04.2020
4869 Snow -2 1017 92 2012 3.1 360 15:40 15.04.2020
4870 Snow -3 1017 86 1609 3.6 350 15:20 15.04.2020
4871 Snow -3 1017 92 805 4.1 340 14:59 15.04.2020
4872 Snow -3 1017 92 805 4.1 340 14:41 15.04.2020
4873 Snow -3 1017 92 1207 3.1 340 14:23 15.04.2020
4874 Snow -3 1017 92 1207 3.1 360 13:59 15.04.2020
4875 Snow -3 1017 92 1207 3.1 360 13:40 15.04.2020
4876 Snow -3 1017 86 2414 2.6 320 13:21 15.04.2020
4877 Snow -3 1017 92 2816 2.1 320 12:57 15.04.2020
4878 Snow -3 1017 92 2816 2.1 320 12:39 15.04.2020
4879 Snow -2 1018 86 3219 2.6 310 12:21 15.04.2020
4880 Snow -2 1018 63 14484 4.1 310 11:45 15.04.2020
4881 Snow -2 1018 63 14484 4.1 310 11:25 15.04.2020
4882 Snow -2 1018 63 14484 4.1 310 10:59 15.04.2020
4883 Snow -2 1018 74 4023 3.1 310 10:37 15.04.2020
4884 Clouds -1 1018 79 16093 3.6 300 10:19 15.04.2020
4885 Clouds -1 1018 79 16093 1.5 320 09:56 15.04.2020
4886 Clouds -1 1018 79 16093 1.5 320 09:37 15.04.2020
4887 Clouds -1 1018 72 16093 1.5 320 09:19 15.04.2020
4888 Clouds -2 1019 72 16093 1.5 290 08:42 15.04.2020
4889 Clouds -1 1019 72 16093 1.5 290 08:23 15.04.2020
4890 Clear -1 1020 72 16093 1.5 210 07:58 15.04.2020
4891 Clear -1 1020 68 16093 1.5 200 07:39 15.04.2020
4892 Clouds -1 1020 50 16093 2.6 270 06:59 15.04.2020
4893 Clouds -1 1020 50 16093 2.6 270 06:24 15.04.2020
4894 Clear 0 1020 43 16093 3.1 270 05:23 15.04.2020
4895 Clouds 1 1020 40 16093 3.1 280 04:46 15.04.2020
4896 Clouds 1 1020 40 16093 3.1 280 04:18 15.04.2020
4897 Clouds 2 1020 34 16093 6.7 270 03:22 15.04.2020
4898 Clouds 3 1020 32 16093 8.2 260 02:45 15.04.2020
4899 Clouds 3 1020 32 16093 8.7 260 01:51 15.04.2020
4900 Clouds 3 1020 32 16093 8.7 260 01:25 15.04.2020
4901 Clouds 4 1019 38 16093 6.7 290 00:47 15.04.2020
4902 Clouds 4 1019 38 16093 6.7 290 00:24 15.04.2020
4903 Clouds 4 1020 41 16093 10.8 280 23:55 14.04.2020
4904 Clouds 4 1020 41 16093 10.8 280 23:37 14.04.2020
4905 Clouds 4 1020 41 16093 10.8 280 23:19 14.04.2020
4906 Clouds 4 1020 38 16093 8.7 270 22:56 14.04.2020
4907 Clouds 4 1020 38 16093 8.7 270 22:38 14.04.2020
4908 Rain 4 1020 38 16093 8.7 270 22:20 14.04.2020
4909 Rain 3 1021 35 16093 11.3 250 21:56 14.04.2020
4910 Rain 3 1021 35 16093 11.3 250 21:37 14.04.2020
4911 Rain 3 1021 35 16093 11.3 250 21:19 14.04.2020
4912 Rain 3 1021 47 16093 8.2 290 20:41 14.04.2020
4913 Rain 3 1021 47 16093 8.2 290 20:41 14.04.2020
4914 Rain 3 1021 47 16093 8.2 290 20:23 14.04.2020
4915 Rain 3 1021 47 16093 8.2 290 20:00 14.04.2020
4916 Rain 2 1022 55 14484 7.2 280 19:40 14.04.2020
4917 Rain 2 1022 55 14484 7.2 280 19:21 14.04.2020
4918 Clouds 2 1022 43 16093 8.2 260 18:57 14.04.2020
4919 Clouds 2 1022 43 16093 8.2 260 18:39 14.04.2020
4920 Clouds 2 1022 43 16093 8.2 260 18:21 14.04.2020
4921 Rain 2 1023 44 16093 5.7 260 17:58 14.04.2020
4922 Rain 2 1023 44 16093 5.7 260 17:38 14.04.2020
4923 Rain 1 1023 44 16093 5.7 260 17:19 14.04.2020
4924 Rain 1 1023 44 16093 5.7 260 17:19 14.04.2020
4925 Rain 1 1023 44 16093 5.7 260 17:19 14.04.2020
4926 Rain 1 1023 50 16093 6.2 280 16:55 14.04.2020
4927 Rain 1 1023 50 16093 6.2 280 16:36 14.04.2020
4928 Snow 1 1023 50 16093 6.2 280 16:18 14.04.2020
4929 Snow 0 1023 63 16093 6.2 280 15:42 14.04.2020
4930 Clouds -1 1023 63 16093 6.2 280 15:23 14.04.2020
4931 Clouds -1 1023 63 16093 6.2 280 14:59 14.04.2020
4932 Clouds -2 1023 63 16093 5.1 250 14:41 14.04.2020
4933 Clouds -2 1023 63 16093 5.1 250 14:22 14.04.2020
4934 Clouds -2 1022 63 16093 5.7 270 13:57 14.04.2020
4935 Clouds -2 1022 63 16093 5.7 270 13:39 14.04.2020
4936 Clouds -2 1022 63 16093 5.7 270 13:21 14.04.2020
4937 Clouds -2 1022 63 16093 6.2 280 12:42 14.04.2020
4938 Clouds -2 1022 63 16093 6.2 280 12:21 14.04.2020
4939 Clouds -2 1022 75 16093 5.1 270 11:56 14.04.2020
4940 Clouds -1 1022 75 16093 5.1 270 11:37 14.04.2020
4941 Clouds -1 1022 75 16093 5.1 270 11:19 14.04.2020
4942 Clouds -1 1021 75 16093 4.1 240 10:45 14.04.2020
4943 Clear -1 1022 74 16093 3.1 260 10:26 14.04.2020
4944 Clouds -1 1021 80 16093 3.1 240 09:55 14.04.2020
4945 Clouds -1 1022 64 16093 5.1 270 09:37 14.04.2020
4946 Clouds 0 1022 64 16093 5.1 270 09:19 14.04.2020
4947 Clouds 0 1021 59 16093 2.6 260 08:41 14.04.2020
4948 Clouds 0 1022 68 16093 3.1 250 08:22 14.04.2020
4949 Clouds 0 1022 68 16093 3.1 250 08:22 14.04.2020
4950 Clouds 0 1022 51 16093 5.7 270 07:55 14.04.2020
4951 Clouds 1 1022 51 16093 5.7 270 07:31 14.04.2020
4952 Clouds 1 1021 43 16093 4.1 270 06:53 14.04.2020
4953 Clouds 3 1021 62 0 5.6 286 06:27 14.04.2020
4954 Clouds 2 1020 37 16093 5.1 280 04:43 14.04.2020
4955 Clear 3 1019 38 16093 6.2 290 03:00 14.04.2020
4956 Clouds 5 1017 33 16093 7.2 290 02:18 14.04.2020
4957 Clouds 5 1017 33 16093 7.2 290 01:25 14.04.2020
4958 Clouds 6 1016 41 16093 8.2 290 00:39 14.04.2020
4959 Clouds 6 1016 35 16093 11.8 310 00:19 14.04.2020
4960 Clouds 6 1016 35 16093 11.8 310 23:45 13.04.2020
4961 Clouds 6 1016 35 16093 11.8 310 23:26 13.04.2020
4962 Clouds 6 1015 36 16093 11.3 280 22:59 13.04.2020
4963 Clouds 6 1015 36 16093 11.3 280 22:41 13.04.2020
4964 Clouds 6 1015 36 16093 11.3 280 22:22 13.04.2020
4965 Clouds 5 1014 42 16093 10.3 280 21:56 13.04.2020
4966 Clouds 5 1014 42 16093 10.3 280 21:37 13.04.2020
4967 Clouds 5 1013 45 16093 10.3 290 21:19 13.04.2020
4968 Clouds 5 1013 48 16093 9.8 300 20:55 13.04.2020
4969 Clouds 5 1013 48 16093 9.8 300 20:37 13.04.2020
4970 Clouds 5 1013 48 16093 9.8 300 20:18 13.04.2020
4971 Clouds 5 1012 60 16093 5.7 280 19:39 13.04.2020
4972 Clouds 5 1012 60 16093 5.7 280 19:39 13.04.2020
4973 Clouds 5 1012 60 16093 5.7 280 19:39 13.04.2020
4974 Clouds 4 1012 60 16093 5.7 280 19:20 13.04.2020
4975 Clouds 4 1011 64 16093 9.8 280 18:59 13.04.2020
4976 Clouds 4 1011 64 16093 9.8 280 18:39 13.04.2020
4977 Clouds 3 1011 64 16093 9.8 280 18:20 13.04.2020
4978 Clouds 2 1009 64 16093 8.7 310 17:58 13.04.2020
4979 Clouds 2 1009 64 16093 8.7 310 17:38 13.04.2020
4980 Clouds 2 1009 64 16093 8.7 310 17:20 13.04.2020
4981 Clouds 2 1007 69 16093 7.7 310 16:58 13.04.2020
4982 Clouds 2 1007 69 16093 7.7 310 16:40 13.04.2020
4983 Clouds 2 1007 69 16093 7.7 310 16:21 13.04.2020
4984 Clouds 2 1007 69 16093 7.7 310 16:21 13.04.2020
4985 Clouds 2 1006 69 16093 8.2 310 15:58 13.04.2020
4986 Clouds 2 1006 80 16093 6.7 310 15:40 13.04.2020
4987 Clouds 2 1005 69 16093 7.7 310 15:21 13.04.2020
4988 Clouds 2 1004 74 16093 7.2 320 14:56 13.04.2020
4989 Clouds 2 1004 74 16093 7.2 320 14:38 13.04.2020
4990 Clouds 2 1004 74 16093 7.2 320 14:38 13.04.2020
4991 Clouds 2 1004 74 16093 7.2 320 14:20 13.04.2020
4992 Clouds 2 1002 80 16093 11.3 320 13:55 13.04.2020
4993 Clouds 2 1002 80 16093 11.3 320 13:37 13.04.2020
4994 Clouds 2 1002 80 16093 11.3 320 13:37 13.04.2020
4995 Clouds 1 1002 80 16093 11.3 320 13:18 13.04.2020
4996 Clouds 2 1001 86 16093 6.7 320 12:56 13.04.2020
4997 Rain 2 999 86 16093 10.8 320 12:38 13.04.2020
4998 Rain 2 999 86 16093 10.8 320 12:19 13.04.2020
4999 Rain 2 998 93 16093 12.9 330 11:42 13.04.2020
5000 Rain 2 998 93 16093 12.9 330 11:19 13.04.2020
5001 Rain 3 997 93 16093 11.3 320 10:56 13.04.2020
5002 Rain 3 997 93 16093 11.3 320 10:38 13.04.2020
5003 Rain 3 996 100 16093 9.3 340 10:19 13.04.2020
5004 Rain 4 996 100 11265 9.8 330 09:46 13.04.2020
5005 Rain 9 994 100 9656 4.6 250 09:26 13.04.2020
5006 Rain 12 995 100 8047 5.1 210 08:52 13.04.2020
5007 Rain 12 995 100 8047 5.1 210 08:52 13.04.2020
5008 Rain 12 995 100 8047 5.1 210 08:32 13.04.2020
5009 Rain 12 995 100 9656 3.6 190 07:59 13.04.2020
5010 Rain 12 995 100 9656 3.6 190 07:41 13.04.2020
5011 Rain 13 995 100 9656 3.6 190 07:20 13.04.2020
5012 Drizzle 13 996 100 11265 5.1 170 06:47 13.04.2020
5013 Drizzle 13 996 93 16093 4.1 180 06:25 13.04.2020
5014 Rain 13 997 93 16093 3.6 180 05:32 13.04.2020
5015 Rain 13 998 87 16093 5.7 200 04:53 13.04.2020
5016 Clouds 13 998 87 16093 5.7 200 04:24 13.04.2020
5017 Rain 14 998 93 16093 7.2 170 03:48 13.04.2020
5018 Clouds 15 999 77 16093 6.2 170 02:59 13.04.2020
5019 Clouds 15 999 77 16093 6.2 170 02:37 13.04.2020
5020 Clouds 15 999 82 16093 5.1 170 01:43 13.04.2020
5021 Clouds 15 999 82 16093 5.1 170 01:25 13.04.2020
5022 Clouds 16 1000 82 16093 5.1 160 00:42 13.04.2020
5023 Clouds 16 1000 82 16093 5.1 160 00:21 13.04.2020
5024 Rain 16 1001 82 16093 7.2 170 23:48 12.04.2020
5025 Rain 16 1001 82 16093 7.2 170 23:23 12.04.2020
5026 Clouds 17 1001 67 16093 7.2 160 22:59 12.04.2020
5027 Clouds 17 1001 67 16093 7.2 160 22:37 12.04.2020
5028 Clouds 17 1001 59 16093 5.7 180 22:19 12.04.2020
5029 Clouds 17 1001 59 16093 5.7 180 22:19 12.04.2020
5030 Clouds 17 1002 52 16093 6.7 170 21:41 12.04.2020
5031 Clouds 18 1002 52 16093 6.7 170 21:22 12.04.2020
5032 Clouds 18 1003 55 16093 6.2 180 20:59 12.04.2020
5033 Clouds 18 1003 55 16093 6.2 180 20:40 12.04.2020
5034 Clouds 18 1003 55 16093 6.2 180 20:22 12.04.2020
5035 Clouds 17 1004 55 16093 6.2 170 19:56 12.04.2020
5036 Clouds 17 1004 55 16093 6.2 170 19:56 12.04.2020
5037 Clouds 17 1004 55 16093 6.2 170 19:37 12.04.2020
5038 Clouds 16 1004 55 16093 6.2 170 19:18 12.04.2020
5039 Clouds 16 1005 58 16093 4.6 200 18:41 12.04.2020
5040 Clouds 14 1005 58 16093 4.6 200 18:22 12.04.2020
5041 Clouds 14 1005 62 16093 3.6 210 17:57 12.04.2020
5042 Clouds 13 1005 62 16093 3.6 210 17:38 12.04.2020
5043 Clouds 13 1005 62 16093 3.6 210 17:38 12.04.2020
5044 Clouds 13 1005 62 16093 3.6 210 17:20 12.04.2020
5045 Clouds 12 1006 66 16093 4.1 210 16:57 12.04.2020
5046 Clouds 12 1006 66 16093 4.1 210 16:38 12.04.2020
5047 Clouds 11 1006 66 16093 4.1 210 16:19 12.04.2020
5048 Clouds 11 1006 71 16093 2.6 150 15:45 12.04.2020
5049 Clouds 10 1006 71 16093 2.6 150 15:27 12.04.2020
5050 Clouds 9 1007 76 16093 3.1 150 14:41 12.04.2020
5051 Clouds 9 1006 87 16093 4.98 164 14:22 12.04.2020
5052 Clouds 9 1006 76 16093 4.98 164 13:59 12.04.2020
5053 Clouds 9 1006 76 16093 4.98 164 13:41 12.04.2020
5054 Clouds 9 1006 76 16093 4.98 164 13:22 12.04.2020
5055 Clouds 9 1006 76 16093 3.1 170 12:48 12.04.2020
5056 Clouds 9 1006 76 16093 3.1 170 12:23 12.04.2020
5057 Clouds 9 1006 76 16093 3.1 170 12:23 12.04.2020
5058 Clouds 9 1006 76 16093 3.6 170 11:59 12.04.2020
5059 Clouds 9 1006 76 16093 3.6 170 11:40 12.04.2020
5060 Clouds 9 1006 76 16093 3.6 170 11:21 12.04.2020
5061 Clouds 9 1006 81 16093 3.1 180 10:58 12.04.2020
5062 Clouds 9 1006 81 16093 3.1 180 10:39 12.04.2020
5063 Clouds 9 1006 81 16093 3.1 180 10:21 12.04.2020
5064 Clouds 9 1006 81 16093 3.1 180 10:21 12.04.2020
5065 Clouds 9 1006 87 16093 2.1 180 09:59 12.04.2020
5066 Clouds 9 1007 81 16093 2.6 150 09:39 12.04.2020
5067 Clouds 9 1007 93 16093 2.6 160 09:20 12.04.2020
5068 Clouds 9 1007 93 16093 3.6 170 08:51 12.04.2020
5069 Clouds 9 1007 93 16093 3.6 170 08:33 12.04.2020
5070 Rain 9 1008 93 16093 5.1 180 07:57 12.04.2020
5071 Rain 9 1008 93 16093 5.1 180 07:39 12.04.2020
5072 Rain 9 1008 93 16093 5.1 180 07:18 12.04.2020
5073 Rain 9 1009 87 8047 6.7 180 06:32 12.04.2020
5074 Rain 9 1009 81 16093 6.7 210 05:49 12.04.2020
5075 Rain 10 1009 81 16093 1.5 190 05:27 12.04.2020
5076 Clouds 12 1008 38 16093 7.7 190 03:34 12.04.2020
5077 Clouds 13 1006 29 16093 6.7 160 02:54 12.04.2020
5078 Clouds 13 1006 29 16093 6.7 160 02:33 12.04.2020
5079 Rain 15 1007 33 16093 5.7 230 01:34 12.04.2020
5080 Clouds 16 1008 27 16093 6.7 230 00:57 12.04.2020
5081 Clouds 16 1008 27 16093 6.7 230 00:38 12.04.2020
5082 Clouds 16 1008 27 16093 6.7 230 00:19 12.04.2020
5083 Clouds 16 1008 27 16093 5.7 220 23:45 11.04.2020
5084 Clouds 16 1008 27 16093 5.7 220 23:24 11.04.2020
5085 Clouds 17 1008 29 16093 4.1 210 22:41 11.04.2020
5086 Clouds 17 1008 29 16093 4.1 210 22:22 11.04.2020
5087 Clouds 17 1010 29 16093 4.6 200 21:57 11.04.2020
5088 Clouds 16 1010 29 16093 4.6 200 21:37 11.04.2020
5089 Clouds 16 1010 29 16093 4.6 200 21:19 11.04.2020
5090 Clouds 16 1011 28 16093 6.7 210 20:57 11.04.2020
5091 Clouds 16 1011 28 16093 6.7 210 20:39 11.04.2020
5092 Clouds 15 1011 28 16093 6.7 210 20:20 11.04.2020
5093 Clouds 15 1012 28 16093 5.7 170 19:58 11.04.2020
5094 Clouds 15 1012 28 16093 5.7 170 19:38 11.04.2020
5095 Clouds 14 1012 28 16093 5.7 170 19:19 11.04.2020
5096 Clouds 14 1012 28 16093 5.7 170 19:19 11.04.2020
5097 Clouds 14 1013 34 16093 5.1 170 18:56 11.04.2020
5098 Clouds 14 1013 34 16093 5.1 170 18:37 11.04.2020
5099 Clouds 12 1013 34 16093 5.1 170 18:19 11.04.2020
5100 Clouds 12 1014 40 16093 4.6 170 17:58 11.04.2020
5101 Clouds 12 1014 40 16093 4.6 170 17:40 11.04.2020
5102 Clouds 11 1014 40 16093 4.6 170 17:20 11.04.2020
5103 Clouds 10 1014 49 16093 3.6 160 16:43 11.04.2020
5104 Clouds 9 1014 49 16093 3.6 160 16:22 11.04.2020
5105 Clouds 9 1014 49 16093 3.6 160 15:59 11.04.2020
5106 Clouds 9 1014 49 16093 3.6 160 15:59 11.04.2020
5107 Clouds 8 1015 52 16093 3.1 190 15:36 11.04.2020
5108 Clouds 7 1015 52 16093 3.1 190 15:18 11.04.2020
5109 Clouds 7 1014 65 16093 2.1 170 14:42 11.04.2020
5110 Clouds 6 1015 75 16093 2.1 190 14:23 11.04.2020
5111 Clouds 6 1014 70 16093 1.5 160 13:59 11.04.2020
5112 Clouds 6 1014 56 16093 3.75 207 13:38 11.04.2020
5113 Clouds 6 1014 70 16093 3.75 207 13:19 11.04.2020
5114 Clouds 7 1014 56 16093 3.75 207 12:41 11.04.2020
5115 Clouds 7 1014 56 16093 3.75 207 12:41 11.04.2020
5116 Clouds 7 1014 56 16093 3.45 242 12:19 11.04.2020
5117 Clouds 7 1015 49 16093 3.6 250 11:56 11.04.2020
5118 Clouds 7 1015 49 16093 3.6 250 11:38 11.04.2020
5119 Clouds 7 1015 49 16093 3.6 250 11:19 11.04.2020
5120 Clouds 6 1015 60 16093 2.1 230 10:43 11.04.2020
5121 Clouds 6 1015 60 16093 2.1 230 10:22 11.04.2020
5122 Clouds 6 1015 60 16093 2.1 210 09:59 11.04.2020
5123 Clouds 5 1015 60 16093 2.1 210 09:39 11.04.2020
5124 Clouds 5 1015 60 16093 2.1 210 09:21 11.04.2020
5125 Clouds 5 1015 60 16093 2.1 190 08:49 11.04.2020
5126 Clouds 5 1015 60 16093 2.1 190 08:28 11.04.2020
5127 Clouds 5 1015 56 16093 2.49 258 07:53 11.04.2020
5128 Clouds 4 1015 56 16093 2.49 258 07:34 11.04.2020
5129 Clouds 4 1015 60 16093 1.5 170 06:51 11.04.2020
5130 Clouds 5 1015 60 16093 1.5 170 06:20 11.04.2020
5131 Clouds 5 1015 60 16093 2.1 140 05:55 11.04.2020
5132 Clouds 6 1015 52 16093 2.6 100 03:41 11.04.2020
5133 Clouds 8 1015 48 16093 4.1 100 02:24 11.04.2020
5134 Clouds 9 1015 39 16093 3.1 290 01:24 11.04.2020
5135 Clouds 9 1015 37 16093 3.6 270 00:44 11.04.2020
5136 Clouds 9 1015 37 16093 3.6 270 00:20 11.04.2020
5137 Clouds 10 1015 37 16093 5.1 280 23:58 10.04.2020
5138 Clouds 10 1015 37 16093 5.1 280 23:40 10.04.2020
5139 Clouds 9 1015 37 16093 5.1 280 23:19 10.04.2020
5140 Clouds 9 1016 36 16093 6.7 270 22:44 10.04.2020
5141 Clouds 9 1016 36 16093 6.7 270 22:22 10.04.2020
5142 Clouds 9 1017 36 16093 6.7 300 21:59 10.04.2020
5143 Clouds 9 1017 36 16093 6.7 300 21:41 10.04.2020
5144 Clouds 8 1017 36 16093 6.7 300 21:20 10.04.2020
5145 Clouds 8 1017 39 16093 5.1 290 20:55 10.04.2020
5146 Clouds 8 1017 39 16093 5.1 290 20:37 10.04.2020
5147 Clouds 8 1017 39 16093 5.1 290 20:18 10.04.2020
5148 Clouds 7 1018 39 16093 3.1 270 19:41 10.04.2020
5149 Clouds 7 1018 39 16093 3.1 270 19:22 10.04.2020
5150 Clouds 6 1018 41 16093 5.7 310 18:58 10.04.2020
5151 Clouds 6 1018 41 16093 5.7 310 18:40 10.04.2020
5152 Clouds 5 1018 41 16093 5.7 310 18:22 10.04.2020
5153 Clouds 5 1018 48 16093 6.2 320 17:59 10.04.2020
5154 Clouds 5 1018 48 16093 6.2 320 17:40 10.04.2020
5155 Clouds 5 1018 48 16093 6.2 320 17:21 10.04.2020
5156 Clouds 4 1018 48 16093 7.7 340 16:59 10.04.2020
5157 Clouds 4 1018 48 16093 7.7 340 16:41 10.04.2020
5158 Clouds 3 1018 48 16093 7.7 340 16:21 10.04.2020
5159 Clouds 3 1018 55 16093 5.7 300 15:57 10.04.2020
5160 Clouds 2 1018 55 16093 5.7 300 15:38 10.04.2020
5161 Clouds 2 1018 55 16093 5.7 300 15:19 10.04.2020
5162 Clouds 1 1017 59 16093 4.6 310 14:58 10.04.2020
5163 Clouds 1 1017 59 16093 4.6 310 14:39 10.04.2020
5164 Clouds 0 1017 59 16093 4.6 310 14:19 10.04.2020
5165 Clouds 0 1016 59 16093 4.6 310 13:43 10.04.2020
5166 Clouds 0 1016 59 16093 4.6 310 13:22 10.04.2020
5167 Clear 0 1016 59 16093 5.7 300 12:45 10.04.2020
5168 Clear 0 1016 59 16093 5.7 300 12:24 10.04.2020
5169 Clear 0 1016 70 16093 3.1 310 11:59 10.04.2020
5170 Clear 0 1016 64 16093 4.6 300 11:40 10.04.2020
5171 Clear 0 1015 55 16093 4.6 300 11:22 10.04.2020
5172 Clear 0 1015 59 16093 6.2 300 10:56 10.04.2020
5173 Clear 0 1015 59 16093 6.2 300 10:37 10.04.2020
5174 Clear 0 1015 59 16093 6.2 300 10:37 10.04.2020
5175 Clear 1 1015 59 16093 6.2 300 10:18 10.04.2020
5176 Clear 1 1014 64 16093 5.7 300 09:42 10.04.2020
5177 Clear 1 1014 64 16093 5.7 300 09:20 10.04.2020
5178 Clear 1 1014 69 16093 5.7 300 08:47 10.04.2020
5179 Clear 1 1014 69 16093 5.7 300 08:26 10.04.2020
5180 Clear 1 1013 59 16093 5.1 300 07:49 10.04.2020
5181 Clear 2 1013 59 16093 5.1 300 07:28 10.04.2020
5182 Clear 2 1013 59 16093 6.7 310 06:59 10.04.2020
5183 Clear 2 1013 59 16093 6.7 310 06:30 10.04.2020
5184 Clear 2 1013 59 16093 6.7 310 06:30 10.04.2020
5185 Clouds 2 1012 51 16093 6.7 310 05:56 10.04.2020
5186 Clouds 3 1012 51 16093 6.7 310 05:19 10.04.2020
5187 Clouds 3 1011 55 16093 4.6 310 03:55 10.04.2020
5188 Clouds 4 1011 55 16093 4.6 310 03:32 10.04.2020
5189 Clouds 3 1011 55 16093 4.6 310 03:32 10.04.2020
5190 Clouds 4 1009 52 16093 8.7 320 02:50 10.04.2020
5191 Clouds 4 1009 52 16093 8.7 320 02:31 10.04.2020
5192 Clouds 5 1008 52 16093 5.1 300 01:30 10.04.2020
5193 Snow 6 1008 60 16093 8.2 310 00:55 10.04.2020
5194 Snow 6 1008 60 16093 8.2 310 00:37 10.04.2020
5195 Snow 6 1008 60 16093 8.2 310 00:18 10.04.2020
5196 Rain 7 1007 31 16093 8.2 300 23:41 09.04.2020
5197 Rain 7 1007 31 16093 8.2 300 23:20 09.04.2020
5198 Clouds 8 1008 31 16093 10.8 290 22:54 09.04.2020
5199 Clouds 8 1008 31 16093 10.8 290 22:36 09.04.2020
5200 Clouds 8 1008 31 16093 10.8 290 22:18 09.04.2020
5201 Clouds 8 1008 31 16093 10.3 300 21:38 09.04.2020
5202 Clouds 8 1008 31 16093 10.3 300 21:19 09.04.2020
5203 Clouds 8 1008 29 16093 10.8 310 20:45 09.04.2020
5204 Clouds 8 1008 29 16093 10.8 310 20:22 09.04.2020
5205 Clouds 8 1008 33 16093 12.3 280 19:58 09.04.2020
5206 Clouds 8 1008 33 16093 12.3 280 19:38 09.04.2020
5207 Clouds 8 1008 33 16093 12.3 280 19:19 09.04.2020
5208 Clouds 7 1008 36 16093 11.8 300 18:42 09.04.2020
5209 Clouds 7 1008 36 16093 11.8 300 18:20 09.04.2020
5210 Clouds 7 1008 42 16093 8.2 300 17:43 09.04.2020
5211 Clouds 6 1008 42 16093 8.2 300 17:24 09.04.2020
5212 Clouds 6 1009 48 16093 10.3 280 16:58 09.04.2020
5213 Clouds 6 1009 48 16093 10.3 280 16:39 09.04.2020
5214 Clouds 5 1009 48 16093 10.3 280 16:19 09.04.2020
5215 Clear 5 1009 56 16093 9.3 290 15:56 09.04.2020
5216 Clear 5 1009 56 16093 9.3 290 15:37 09.04.2020
5217 Clear 4 1009 56 16093 9.3 290 15:19 09.04.2020
5218 Clear 4 1008 60 16093 6.7 290 14:42 09.04.2020
5219 Clear 4 1008 60 16093 6.7 290 14:21 09.04.2020
5220 Clouds 4 1008 56 16093 7.7 290 13:57 09.04.2020
5221 Clouds 4 1008 56 16093 7.7 290 13:39 09.04.2020
5222 Clouds 4 1008 56 16093 7.7 290 13:21 09.04.2020
5223 Clear 4 1007 52 16093 6.7 300 12:43 09.04.2020
5224 Clear 5 1007 52 16093 6.7 300 12:24 09.04.2020
5225 Clear 5 1007 60 16093 6.7 290 11:59 09.04.2020
5226 Clear 5 1007 56 16093 6.2 300 11:41 09.04.2020
5227 Clouds 5 1007 48 16093 7.7 300 11:20 09.04.2020
5228 Clouds 6 1006 52 16093 8.7 290 10:57 09.04.2020
5229 Clouds 6 1006 52 16093 8.7 290 10:39 09.04.2020
5230 Clouds 6 1006 52 16093 8.7 290 10:19 09.04.2020
5231 Clouds 7 1006 61 16093 10.3 300 09:55 09.04.2020
5232 Clouds 7 1006 61 16093 10.3 300 09:37 09.04.2020
5233 Clouds 7 1006 61 16093 10.3 300 09:19 09.04.2020
5234 Clear 8 1006 70 16093 6.7 290 08:43 09.04.2020
5235 Clear 8 1006 70 16093 6.7 290 08:23 09.04.2020
5236 Clear 8 1006 75 16093 2.6 300 07:55 09.04.2020
5237 Clear 8 1005 81 16093 6.2 270 07:24 09.04.2020
5238 Clear 8 1005 87 16093 3.1 300 06:52 09.04.2020
5239 Clear 9 1006 93 16093 1.5 290 05:59 09.04.2020
5240 Clouds 9 1006 81 16093 4.1 280 05:38 09.04.2020
5241 Rain 10 1005 81 16093 3.1 30 03:36 09.04.2020
5242 Rain 11 1006 87 8047 7.2 350 02:21 09.04.2020
5243 Rain 11 1006 82 16093 7.7 20 01:40 09.04.2020
5244 Rain 12 1006 82 16093 7.7 20 01:20 09.04.2020
5245 Rain 13 1006 87 11265 9.8 10 00:40 09.04.2020
5246 Rain 13 1004 63 14484 3.1 90 00:19 09.04.2020
5247 Clouds 16 1004 59 14484 6.2 70 23:56 08.04.2020
5248 Clouds 18 1004 59 14484 6.2 70 23:37 08.04.2020
5249 Clouds 20 1004 59 14484 6.2 70 23:19 08.04.2020
5250 Clouds 22 1005 56 16093 3.6 70 22:42 08.04.2020
5251 Clouds 22 1005 56 16093 3.6 70 22:23 08.04.2020
5252 Clouds 22 1006 52 16093 1.5 0 21:56 08.04.2020
5253 Clouds 22 1006 52 16093 1.5 0 21:37 08.04.2020
5254 Clouds 22 1006 52 16093 1.5 0 21:37 08.04.2020
5255 Clouds 22 1006 52 16093 1.5 0 21:19 08.04.2020
5256 Clouds 21 1006 55 16093 2.6 160 20:56 08.04.2020
5257 Clouds 21 1006 55 16093 2.6 160 20:38 08.04.2020
5258 Clouds 20 1006 55 16093 2.6 160 20:19 08.04.2020
5259 Clouds 19 1007 72 16093 3.1 120 19:41 08.04.2020
5260 Clouds 19 1007 72 16093 3.1 120 19:22 08.04.2020
5261 Clouds 18 1008 82 14484 2.66 150 18:56 08.04.2020
5262 Clouds 17 1008 82 14484 2.66 150 18:37 08.04.2020
5263 Clouds 16 1009 87 11265 0.91 118 18:19 08.04.2020
5264 Mist 14 1009 93 6437 0.91 118 17:42 08.04.2020
5265 Mist 14 1009 100 6437 1.5 220 17:22 08.04.2020
5266 Mist 13 1009 100 6437 1.5 220 16:57 08.04.2020
5267 Mist 12 1009 100 4828 2.1 170 16:39 08.04.2020
5268 Mist 12 1008 100 4023 0.91 118 16:20 08.04.2020
5269 Mist 11 1008 100 4828 1.5 170 15:39 08.04.2020
5270 Mist 11 1008 100 4828 1.5 170 15:39 08.04.2020
5271 Mist 11 1008 100 4828 1.5 170 15:21 08.04.2020
5272 Mist 11 1008 93 4828 2.1 150 14:59 08.04.2020
5273 Mist 11 1008 93 4828 2.1 150 14:40 08.04.2020
5274 Mist 10 1008 93 4828 2.1 150 14:22 08.04.2020
5275 Mist 10 1007 93 8047 3.1 60 13:44 08.04.2020
5276 Mist 10 1007 93 8047 3.1 60 13:21 08.04.2020
5277 Mist 10 1007 93 8047 3.1 80 12:58 08.04.2020
5278 Mist 10 1007 93 8047 3.1 80 12:58 08.04.2020
5279 Mist 10 1007 93 8047 3.1 80 12:39 08.04.2020
5280 Mist 10 1007 93 9656 3.1 90 12:18 08.04.2020
5281 Mist 10 1007 93 9656 3.1 80 11:42 08.04.2020
5282 Mist 11 1007 93 9656 3.1 80 11:23 08.04.2020
5283 Mist 10 1006 87 9656 3.6 70 10:58 08.04.2020
5284 Mist 10 1006 87 9656 3.6 70 10:40 08.04.2020
5285 Mist 11 1006 87 9656 3.6 70 10:21 08.04.2020
5286 Mist 11 1006 93 9656 4.1 110 09:57 08.04.2020
5287 Mist 12 1006 93 9656 4.1 110 09:39 08.04.2020
5288 Mist 13 1006 93 9656 4.1 110 09:19 08.04.2020
5289 Clouds 14 1006 93 11265 2.1 90 08:57 08.04.2020
5290 Clouds 14 1006 93 11265 2.1 90 08:38 08.04.2020
5291 Clouds 14 1006 93 11265 2.1 90 08:20 08.04.2020
5292 Rain 16 1005 87 12874 4.6 20 07:42 08.04.2020
5293 Rain 16 1005 87 12874 4.6 20 07:21 08.04.2020
5294 Thunderstorm 18 1004 82 12874 6.2 340 06:29 08.04.2020
5295 Clouds 20 1003 82 16093 3.1 260 04:58 08.04.2020
5296 Clear 23 1003 60 16093 1.5 280 02:50 08.04.2020
5297 Clouds 24 1002 47 16093 5.7 240 02:22 08.04.2020
5298 Clouds 25 1002 44 16093 8.7 240 01:56 08.04.2020
5299 Clouds 25 1002 44 16093 8.7 240 01:28 08.04.2020
5300 Clouds 26 1002 47 16093 6.2 220 00:47 08.04.2020
5301 Clouds 26 1002 47 16093 6.2 220 00:25 08.04.2020
5302 Clouds 26 1002 47 16093 6.7 230 23:56 07.04.2020
5303 Clouds 26 1002 47 16093 6.7 230 23:37 07.04.2020
5304 Clouds 26 1002 47 16093 7.7 230 23:18 07.04.2020
5305 Clouds 26 1003 50 16093 7.7 220 22:54 07.04.2020
5306 Clouds 26 1003 50 16093 7.7 220 22:54 07.04.2020
5307 Clouds 25 1003 50 16093 7.7 220 22:36 07.04.2020
5308 Clouds 25 1003 50 16093 7.7 220 22:18 07.04.2020
5309 Clouds 24 1005 60 16093 5.7 200 21:42 07.04.2020
5310 Clouds 24 1005 60 16093 5.7 200 21:21 07.04.2020
5311 Clouds 23 1007 68 16093 5.1 240 20:58 07.04.2020
5312 Clouds 23 1007 68 16093 5.1 240 20:39 07.04.2020
5313 Clouds 23 1007 68 16093 5.1 240 20:21 07.04.2020
5314 Clouds 22 1008 73 16093 3.1 0 19:57 07.04.2020
5315 Clouds 22 1008 73 16093 3.1 0 19:37 07.04.2020
5316 Clouds 21 1008 73 16093 3.1 0 19:19 07.04.2020
5317 Clouds 21 1009 73 16093 5.1 250 18:58 07.04.2020
5318 Clouds 21 1009 73 16093 5.1 250 18:58 07.04.2020
5319 Clouds 20 1009 73 16093 5.1 250 18:39 07.04.2020
5320 Clouds 20 1009 73 16093 5.1 250 18:20 07.04.2020
5321 Clouds 19 1009 82 16093 3.6 260 17:46 07.04.2020
5322 Clouds 19 1009 82 16093 3.6 260 17:24 07.04.2020
5323 Clouds 18 1009 87 16093 2.6 250 16:54 07.04.2020
5324 Clouds 17 1009 87 16093 2.6 250 16:36 07.04.2020
5325 Clouds 17 1009 87 16093 2.6 250 16:36 07.04.2020
5326 Clouds 16 1009 100 14484 4.1 210 16:18 07.04.2020
5327 Clouds 15 1009 100 14484 4.1 210 15:42 07.04.2020
5328 Clouds 14 1009 100 14484 4.1 210 15:23 07.04.2020
5329 Clouds 13 1009 93 12874 2.6 170 14:42 07.04.2020
5330 Clouds 12 1009 93 12874 2.6 170 14:23 07.04.2020
5331 Clouds 12 1009 93 11265 3.1 160 13:57 07.04.2020
5332 Clouds 12 1009 93 11265 3.1 160 13:39 07.04.2020
5333 Clouds 13 1009 93 11265 3.1 160 13:19 07.04.2020
5334 Mist 13 1009 100 8047 2.1 180 12:56 07.04.2020
5335 Mist 12 1009 100 8047 2.1 180 12:37 07.04.2020
5336 Mist 12 1009 100 8047 2.1 180 12:18 07.04.2020
5337 Mist 12 1009 100 8047 2.1 160 11:44 07.04.2020
5338 Mist 12 1009 100 8047 2.1 160 11:26 07.04.2020
5339 Rain 12 1011 100 11265 2.21 195 10:59 07.04.2020
5340 Rain 12 1011 100 11265 2.21 195 10:38 07.04.2020
5341 Rain 12 1011 100 11265 2.21 195 10:19 07.04.2020
5342 Rain 12 1012 93 12874 2.6 180 09:46 07.04.2020
5343 Rain 13 1012 93 12874 2.6 180 09:20 07.04.2020
5344 Rain 13 1012 93 16093 1.5 170 08:59 07.04.2020
5345 Rain 13 1012 93 16093 1.5 170 08:39 07.04.2020
5346 Clouds 13 1012 93 16093 1.5 170 08:19 07.04.2020
5347 Clouds 13 1013 93 12874 1.5 170 07:44 07.04.2020
5348 Thunderstorm 13 1013 100 8047 3.6 210 07:26 07.04.2020
5349 Clouds 13 1013 87 16093 2.6 130 06:52 07.04.2020
5350 Clouds 13 1013 87 16093 2.6 130 06:25 07.04.2020
5351 Clouds 13 1014 82 16093 2.1 30 05:48 07.04.2020
5352 Clouds 13 1014 82 16093 2.1 30 05:23 07.04.2020
5353 Clouds 14 1013 71 16093 3.1 100 03:34 07.04.2020
5354 Rain 14 1014 71 16093 2.1 90 02:59 07.04.2020
5355 Rain 14 1014 71 16093 2.1 90 02:35 07.04.2020
5356 Rain 15 1014 59 16093 3.1 210 01:34 07.04.2020
5357 Clouds 15 1014 52 16093 3.6 200 00:52 07.04.2020
5358 Clouds 15 1014 52 16093 3.6 200 00:25 07.04.2020
5359 Clouds 16 1015 52 16093 5.7 210 23:40 06.04.2020
5360 Clouds 16 1015 52 16093 5.7 210 23:21 06.04.2020
5361 Clouds 16 1016 48 16093 5.1 200 22:42 06.04.2020
5362 Clouds 16 1016 48 16093 5.1 200 22:23 06.04.2020
5363 Clouds 16 1016 39 16093 6.2 180 21:59 06.04.2020
5364 Clouds 16 1016 39 16093 6.2 180 21:59 06.04.2020
5365 Clouds 16 1016 39 16093 6.2 180 21:41 06.04.2020
5366 Clouds 16 1016 39 16093 6.2 180 21:20 06.04.2020
5367 Clouds 16 1017 41 16093 3.6 160 20:57 06.04.2020
5368 Clouds 16 1017 41 16093 3.6 160 20:38 06.04.2020
5369 Clouds 16 1017 41 16093 3.6 160 20:20 06.04.2020
5370 Clouds 16 1018 44 16093 5.1 190 19:56 06.04.2020
5371 Clouds 16 1018 44 16093 5.1 190 19:38 06.04.2020
5372 Clouds 15 1018 44 16093 5.1 190 19:20 06.04.2020
5373 Clouds 14 1019 54 16093 4.6 180 18:42 06.04.2020
5374 Clouds 13 1019 54 16093 4.6 180 18:23 06.04.2020
5375 Clouds 12 1020 46 16093 4.6 180 17:57 06.04.2020
5376 Clouds 12 1020 46 16093 4.6 180 17:39 06.04.2020
5377 Clouds 12 1020 46 16093 4.6 180 17:18 06.04.2020
5378 Clouds 10 1020 75 16093 2.6 170 16:48 06.04.2020
5379 Clouds 9 1020 75 16093 2.6 170 16:30 06.04.2020
5380 Clouds 3 1020 86 16093 2.58 159 14:48 06.04.2020
5381 Clouds 3 1020 86 16093 2.58 159 14:48 06.04.2020
5382 Clouds 3 1020 86 16093 2.58 159 14:48 06.04.2020
5383 Clouds 3 1020 86 16093 2.58 159 14:47 06.04.2020
5384 Clouds 3 1020 86 16093 2.58 159 14:47 06.04.2020
5385 Clouds 1 1020 86 16093 2.61 154 13:44 06.04.2020
5386 Clouds 1 1020 86 16093 2.61 154 13:44 06.04.2020
5387 Clouds 1 1020 86 16093 2.61 154 13:22 06.04.2020
5388 Mist 1 1020 68 4828 2.61 154 13:22 06.04.2020
5389 Clouds 1 1020 86 16093 1.5 100 12:46 06.04.2020
5390 Clouds 1 1020 86 16093 1.5 100 12:46 06.04.2020
5391 Clouds 1 1020 86 16093 1.5 100 12:46 06.04.2020
5392 Clouds 1 1020 86 16093 1.5 100 12:46 06.04.2020
5393 Clouds 1 1020 86 16093 1.5 100 12:46 06.04.2020
5394 Clear 1 1020 63 11265 2.03 128 12:19 06.04.2020
5395 Clouds 1 1020 86 16093 2.03 128 11:40 06.04.2020
5396 Clouds 1 1020 86 16093 2.03 128 11:02 06.04.2020
5397 Clouds 1 1020 86 16093 2.03 128 11:02 06.04.2020
5398 Clouds 1 1020 86 16093 2.03 128 11:02 06.04.2020
5399 Clouds 1 1020 86 16093 2.03 128 11:02 06.04.2020
5400 Clouds 1 1020 86 16093 2.03 128 11:02 06.04.2020
5401 Clouds 2 1021 93 16093 2.1 100 10:37 06.04.2020
5402 Clouds 2 1021 93 16093 2.1 100 10:19 06.04.2020
5403 Clouds 2 1021 93 16093 2.1 100 10:19 06.04.2020
5404 Clouds 2 1021 93 16093 2.1 100 10:19 06.04.2020
5405 Clouds 2 1021 93 16093 2.1 100 10:19 06.04.2020
5406 Clouds 2 1021 93 16093 2.1 100 10:19 06.04.2020
5407 Clouds 2 1021 93 16093 2.1 100 09:39 06.04.2020
5408 Clouds 2 1021 93 16093 2.1 100 09:39 06.04.2020
5409 Clouds 2 1021 93 16093 2.1 100 09:39 06.04.2020
5410 Clouds 2 1021 93 16093 2.1 100 09:39 06.04.2020
5411 Clouds 2 1021 93 16093 2.1 100 09:39 06.04.2020
5412 Clouds 2 1021 93 16093 2.1 100 09:19 06.04.2020
5413 Clouds 2 1021 93 16093 2.1 100 09:19 06.04.2020
5414 Clouds 2 1021 93 16093 2.6 70 08:43 06.04.2020
5415 Clouds 2 1021 93 16093 2.6 70 08:43 06.04.2020
5416 Clouds 2 1021 93 16093 2.6 70 08:43 06.04.2020
5417 Clouds 2 1021 93 16093 2.6 70 08:43 06.04.2020
5418 Clouds 2 1021 93 16093 2.6 70 08:43 06.04.2020
5419 Clouds 2 1021 93 16093 2.6 70 07:59 06.04.2020
5420 Clouds 2 1021 93 16093 2.6 70 07:59 06.04.2020
5421 Clouds 2 1021 86 16093 2.6 70 07:22 06.04.2020
5422 Clouds 2 1021 63 16093 2.6 80 06:27 06.04.2020
5423 Clouds 3 1021 69 16093 2.6 100 05:44 06.04.2020
5424 Clouds 3 1021 69 16093 2.6 100 05:44 06.04.2020
5425 Clouds 3 1021 69 16093 2.6 100 05:44 06.04.2020
5426 Clouds 5 1021 52 16093 3.1 90 03:35 06.04.2020
5427 Clouds 6 1021 33 16093 3.6 50 02:51 06.04.2020
5428 Clouds 8 1021 33 16093 3.6 50 01:54 06.04.2020
5429 Clouds 9 1022 26 16093 3.6 40 00:54 06.04.2020
5430 Clouds 10 1022 26 16093 3.6 40 00:27 06.04.2020
5431 Clouds 10 1022 36 16093 4.6 70 23:51 05.04.2020
5432 Clouds 10 1022 36 16093 4.6 70 23:33 05.04.2020
5433 Clouds 10 1022 36 16093 4.6 70 22:57 05.04.2020
5434 Clouds 10 1022 26 16093 4.6 60 22:39 05.04.2020
5435 Clouds 10 1022 26 16093 4.6 60 22:21 05.04.2020
5436 Clouds 10 1022 26 16093 4.6 60 21:59 05.04.2020
5437 Clouds 10 1023 34 16093 5.7 40 21:40 05.04.2020
5438 Clouds 10 1023 34 16093 5.7 40 21:22 05.04.2020
5439 Clouds 10 1023 34 16093 5.7 40 21:22 05.04.2020
5440 Clouds 9 1023 45 16093 4.6 30 20:22 05.04.2020
5441 Clouds 9 1023 45 16093 4.6 30 20:22 05.04.2020
5442 Clouds 8 1023 39 16093 4.1 60 19:42 05.04.2020
5443 Clouds 8 1023 39 16093 4.1 60 19:22 05.04.2020
5444 Clouds 8 1023 45 16093 7.7 60 18:47 05.04.2020
5445 Clouds 7 1023 45 16093 7.7 60 18:18 05.04.2020
5446 Clouds 6 1023 52 16093 6.7 40 17:42 05.04.2020
5447 Clouds 6 1023 52 16093 6.7 40 17:42 05.04.2020
5448 Clouds 7 1023 52 16093 6.7 40 17:42 05.04.2020
5449 Clouds 6 1023 52 16093 6.7 40 17:21 05.04.2020
5450 Clouds 6 1023 52 16093 6.7 40 17:21 05.04.2020
5451 Clouds 5 1023 52 16093 6.2 50 16:47 05.04.2020
5452 Clouds 5 1023 52 16093 6.2 50 16:47 05.04.2020
5453 Clouds 5 1023 52 16093 6.2 50 16:47 05.04.2020
5454 Clear 5 1023 63 16093 6.2 40 16:18 05.04.2020
5455 Clouds 4 1023 86 16093 5.7 40 15:45 05.04.2020
5456 Clouds 4 1023 86 16093 5.7 40 15:25 05.04.2020
5457 Clouds 3 1022 86 16093 5.7 30 14:48 05.04.2020
5458 Clouds 3 1022 86 16093 5.7 30 14:48 05.04.2020
5459 Clouds 3 1022 86 16093 5.7 30 14:48 05.04.2020
5460 Clouds 3 1022 86 16093 5.7 30 14:48 05.04.2020
5461 Clouds 3 1022 86 16093 5.7 30 14:48 05.04.2020
5462 Clouds 2 1022 86 16093 5.7 30 13:59 05.04.2020
5463 Clouds 2 1022 93 16093 3.6 360 13:40 05.04.2020
5464 Clouds 2 1022 93 16093 3.6 360 13:40 05.04.2020
5465 Clouds 2 1022 93 16093 3.6 360 13:40 05.04.2020
5466 Clouds 2 1022 93 16093 3.6 360 13:40 05.04.2020
5467 Clouds 2 1022 93 16093 3.6 360 13:40 05.04.2020
5468 Clouds 2 1021 93 16093 4.1 10 11:59 05.04.2020
5469 Clouds 2 1021 93 16093 4.1 10 11:59 05.04.2020
5470 Clouds 2 1021 93 16093 4.1 10 11:59 05.04.2020
5471 Clouds 2 1021 93 16093 4.1 10 11:39 05.04.2020
5472 Clouds 2 1021 93 16093 4.1 10 11:19 05.04.2020
5473 Clouds 2 1021 93 16093 3.1 350 10:47 05.04.2020
5474 Clouds 2 1021 93 16093 3.1 350 10:47 05.04.2020
5475 Clouds 2 1021 93 16093 3.1 350 10:47 05.04.2020
5476 Clouds 2 1021 93 16093 3.1 350 10:22 05.04.2020
5477 Clouds 2 1021 93 16093 3.1 350 09:52 05.04.2020
5478 Clouds 2 1021 93 16093 2.1 340 09:52 05.04.2020
5479 Clouds 2 1021 93 16093 2.1 340 09:25 05.04.2020
5480 Clouds 2 1021 93 16093 2.1 340 09:25 05.04.2020
5481 Clouds 2 1021 93 16093 2.1 340 09:25 05.04.2020
5482 Clouds 2 1021 93 16093 2.1 340 09:25 05.04.2020
5483 Clouds 2 1021 93 16093 2.1 340 09:25 05.04.2020
5484 Clouds 2 1021 86 16093 3.46 14 08:18 05.04.2020
5485 Clouds 3 1021 86 16093 3.1 60 05:37 05.04.2020
5486 Clouds 3 1021 86 16093 3.1 60 05:37 05.04.2020
5487 Clouds 3 1021 86 16093 3.1 60 05:37 05.04.2020
5488 Clouds 3 1021 86 16093 3.1 60 05:37 05.04.2020
5489 Clouds 3 1021 86 16093 3.1 60 05:37 05.04.2020
5490 Clouds 4 1021 86 16093 3.6 70 03:58 05.04.2020
5491 Clouds 4 1021 86 16093 4.1 70 03:24 05.04.2020
5492 Clouds 6 1020 75 16093 5.1 90 01:57 05.04.2020
5493 Clouds 7 1020 70 16093 3.1 40 01:39 05.04.2020
5494 Clouds 7 1020 70 16093 3.6 50 00:52 05.04.2020
5495 Clouds 7 1020 70 16093 3.6 50 00:52 05.04.2020
5496 Clouds 7 1020 70 16093 3.6 50 00:23 05.04.2020
5497 Clouds 7 1020 70 16093 3.6 50 23:58 04.04.2020
5498 Clouds 7 1020 65 16093 3.6 40 23:39 04.04.2020
5499 Clouds 7 1020 65 16093 3.6 40 23:21 04.04.2020
5500 Clouds 7 1020 65 16093 3.6 40 22:56 04.04.2020
5501 Clouds 6 1020 75 16093 3.1 40 22:38 04.04.2020
5502 Clouds 6 1020 75 16093 3.1 40 22:19 04.04.2020
5503 Clouds 6 1020 75 16093 3.1 40 21:56 04.04.2020
5504 Clouds 6 1020 75 16093 3.6 20 21:38 04.04.2020
5505 Clouds 6 1020 75 16093 3.6 20 21:18 04.04.2020
5506 Clouds 6 1021 86 16093 3.6 10 20:43 04.04.2020
5507 Clouds 5 1021 86 16093 3.6 10 20:23 04.04.2020
5508 Clouds 5 1021 86 16093 3.6 10 19:59 04.04.2020
5509 Clouds 5 1021 86 16093 3.6 10 19:59 04.04.2020
5510 Clouds 5 1021 86 16093 4.1 360 19:39 04.04.2020
5511 Clouds 5 1021 86 16093 4.1 360 19:20 04.04.2020
5512 Clouds 4 1021 86 16093 4.1 360 18:59 04.04.2020
5513 Clouds 4 1021 86 16093 4.1 350 18:39 04.04.2020
5514 Clouds 4 1021 93 16093 4.1 320 18:20 04.04.2020
5515 Clouds 3 1021 93 16093 4.1 320 17:58 04.04.2020
5516 Clouds 3 1021 93 12874 5.7 340 17:38 04.04.2020
5517 Clouds 3 1021 93 12874 5.7 340 17:19 04.04.2020
5518 Clouds 3 1020 93 16093 5.1 340 16:43 04.04.2020
5519 Clouds 3 1020 93 16093 5.1 340 16:24 04.04.2020
5520 Clouds 3 1020 93 12874 5.7 340 15:58 04.04.2020
5521 Rain 3 1019 93 11265 6.2 340 15:38 04.04.2020
5522 Rain 3 1019 93 11265 6.2 340 15:19 04.04.2020
5523 Rain 3 1019 93 11265 5.7 330 14:46 04.04.2020
5524 Rain 3 1019 93 11265 5.7 330 14:25 04.04.2020
5525 Rain 4 1019 93 11265 5.7 330 14:00 04.04.2020
5526 Clouds 4 1018 93 16093 4.1 320 13:41 04.04.2020
5527 Clouds 4 1018 93 16093 4.1 320 13:41 04.04.2020
5528 Clouds 4 1018 93 16093 4.1 320 13:21 04.04.2020
5529 Rain 4 1018 100 16093 6.7 320 12:58 04.04.2020
5530 Clouds 5 1018 81 16093 4.6 310 12:39 04.04.2020
5531 Rain 5 1017 93 14484 4.1 300 12:20 04.04.2020
5532 Clouds 6 1016 93 14484 3.6 310 11:41 04.04.2020
5533 Clouds 6 1016 93 14484 3.6 310 11:23 04.04.2020
5534 Clouds 7 1016 93 14484 3.6 310 10:59 04.04.2020
5535 Rain 7 1016 93 12874 4.1 290 10:40 04.04.2020
5536 Rain 7 1016 93 12874 4.1 290 10:22 04.04.2020
5537 Rain 8 1016 93 12874 4.1 290 09:56 04.04.2020
5538 Rain 8 1016 81 14484 4.6 300 09:38 04.04.2020
5539 Rain 8 1016 81 14484 4.6 300 09:20 04.04.2020
5540 Clouds 9 1016 82 16093 5.1 290 08:43 04.04.2020
5541 Clouds 9 1016 82 16093 5.1 290 08:23 04.04.2020
5542 Clouds 10 1016 82 16093 5.1 290 07:57 04.04.2020
5543 Clouds 11 1015 71 16093 5.1 290 07:38 04.04.2020
5544 Clouds 12 1015 63 16093 4.6 280 07:20 04.04.2020
5545 Clouds 13 1015 54 16093 1.5 260 06:29 04.04.2020
5546 Clouds 14 1015 50 16093 2.1 120 05:52 04.04.2020
5547 Clouds 14 1015 50 16093 2.1 120 05:32 04.04.2020
5548 Clouds 14 1015 47 16093 2.6 100 04:34 04.04.2020
5549 Clouds 14 1015 47 16093 2.6 100 03:56 04.04.2020
5550 Clouds 15 1015 44 16093 2.6 100 03:36 04.04.2020
5551 Clouds 16 1015 44 16093 4.6 110 02:46 04.04.2020
5552 Clouds 17 1015 44 16093 4.6 110 02:25 04.04.2020
5553 Clouds 18 1016 42 16093 5.1 110 01:31 04.04.2020
5554 Clouds 19 1016 42 16093 5.1 110 00:59 04.04.2020
5555 Clouds 19 1016 42 16093 5.1 100 00:35 04.04.2020
5556 Clouds 20 1016 42 16093 5.1 100 23:59 03.04.2020
5557 Clouds 20 1016 39 16093 6.2 110 23:38 03.04.2020
5558 Clouds 20 1016 39 16093 6.2 110 23:19 03.04.2020
5559 Clouds 20 1016 42 16093 6.2 90 22:41 03.04.2020
5560 Clouds 20 1016 42 16093 6.2 90 22:19 03.04.2020
5561 Clouds 20 1016 42 16093 6.2 90 21:57 03.04.2020
5562 Clouds 20 1017 35 16093 4.1 210 21:38 03.04.2020
5563 Clouds 20 1017 35 16093 4.1 210 21:20 03.04.2020
5564 Clouds 19 1017 40 16093 4.1 160 20:55 03.04.2020
5565 Clouds 19 1017 40 16093 4.1 160 20:36 03.04.2020
5566 Clouds 19 1017 40 16093 4.1 160 20:18 03.04.2020
5567 Clouds 18 1017 40 16093 4.1 160 19:55 03.04.2020
5568 Clouds 17 1018 37 16093 2.6 190 19:36 03.04.2020
5569 Clouds 17 1018 37 16093 2.6 190 19:18 03.04.2020
5570 Clouds 16 1018 37 16093 2.6 190 18:57 03.04.2020
5571 Clouds 15 1019 42 16093 3.1 180 18:39 03.04.2020
5572 Clouds 14 1019 42 16093 3.1 180 18:21 03.04.2020
5573 Clouds 13 1019 54 16093 2.6 190 17:41 03.04.2020
5574 Clouds 13 1019 54 16093 2.6 190 17:20 03.04.2020
5575 Clouds 12 1019 54 16093 2.6 190 16:56 03.04.2020
5576 Clouds 11 1019 62 16093 2.1 120 16:37 03.04.2020
5577 Clouds 11 1019 62 16093 2.1 120 16:19 03.04.2020
5578 Clouds 10 1019 62 16093 2.1 120 15:56 03.04.2020
5579 Clouds 9 1019 70 16093 1.5 130 15:37 03.04.2020
5580 Clouds 9 1019 70 16093 1.5 130 15:19 03.04.2020
5581 Clouds 8 1019 75 16093 1.5 110 14:40 03.04.2020
5582 Clouds 8 1019 75 16093 1.5 90 14:22 03.04.2020
5583 Clouds 8 1019 75 16093 1.5 90 13:57 03.04.2020
5584 Clouds 8 1019 75 16093 1.5 90 13:37 03.04.2020
5585 Clouds 7 1019 75 16093 1.5 90 13:18 03.04.2020
5586 Clouds 8 1019 70 16093 3.6 220 12:43 03.04.2020
5587 Clouds 8 1019 70 16093 3.6 220 12:20 03.04.2020
5588 Clouds 8 1019 70 16093 3.6 220 11:56 03.04.2020
5589 Rain 8 1019 70 16093 3.1 80 11:37 03.04.2020
5590 Rain 7 1019 70 16093 3.1 80 11:18 03.04.2020
5591 Rain 7 1019 70 16093 3.1 80 10:57 03.04.2020
5592 Rain 7 1020 75 16093 1.5 10 10:38 03.04.2020
5593 Rain 7 1020 75 16093 1.5 10 10:20 03.04.2020
5594 Rain 7 1020 75 16093 1.5 10 10:20 03.04.2020
5595 Rain 8 1020 75 16093 1.5 10 09:57 03.04.2020
5596 Rain 8 1019 61 16093 1.5 20 09:39 03.04.2020
5597 Rain 8 1019 61 16093 1.5 20 09:39 03.04.2020
5598 Rain 8 1019 61 16093 1.5 20 09:21 03.04.2020
5599 Rain 8 1019 61 16093 1.5 20 08:55 03.04.2020
5600 Clouds 8 1020 52 16093 2.9 111 08:36 03.04.2020
5601 Clouds 8 1020 52 16093 2.9 111 08:18 03.04.2020
5602 Clouds 8 1020 52 16093 2.1 80 07:41 03.04.2020
5603 Clouds 8 1020 52 16093 2.1 80 07:23 03.04.2020
5604 Clouds 8 1020 52 16093 2.1 100 06:34 03.04.2020
5605 Clouds 9 1020 52 16093 2.1 100 05:43 03.04.2020
5606 Clouds 9 1020 52 16093 2.1 100 05:21 03.04.2020
5607 Clouds 10 1020 49 16093 4.1 100 03:37 03.04.2020
5608 Clouds 11 1020 49 16093 4.1 100 02:53 03.04.2020
5609 Clouds 13 1020 37 16093 4.1 80 01:36 03.04.2020
5610 Clouds 13 1020 37 16093 4.1 80 01:18 03.04.2020
5611 Clouds 14 1019 37 16093 5.7 80 00:34 03.04.2020
5612 Clouds 15 1019 37 16093 5.7 80 23:57 02.04.2020
5613 Clouds 15 1020 43 16093 4.6 80 23:39 02.04.2020
5614 Clouds 15 1020 43 16093 4.6 80 23:19 02.04.2020
5615 Clouds 15 1020 44 16093 4.6 90 22:43 02.04.2020
5616 Clouds 15 1020 44 16093 4.6 90 22:25 02.04.2020
5617 Clouds 15 1020 44 16093 4.6 90 21:59 02.04.2020
5618 Clouds 15 1021 44 16093 4.1 60 21:37 02.04.2020
5619 Clouds 15 1021 44 16093 4.1 60 21:19 02.04.2020
5620 Clouds 14 1021 44 16093 4.1 60 20:55 02.04.2020
5621 Clouds 14 1021 41 16093 2.24 110 20:37 02.04.2020
5622 Clouds 14 1021 41 16093 2.24 110 20:18 02.04.2020
5623 Clouds 14 1022 46 16093 2.1 140 19:42 02.04.2020
5624 Clouds 13 1022 46 16093 2.1 140 19:20 02.04.2020
5625 Clouds 13 1022 46 16093 2.1 140 19:20 02.04.2020
5626 Clouds 13 1022 46 16093 2.1 140 18:56 02.04.2020
5627 Clouds 12 1022 53 16093 3.1 110 18:38 02.04.2020
5628 Clouds 10 1022 53 16093 3.1 110 18:19 02.04.2020
5629 Clear 10 1022 57 16093 3.1 150 17:44 02.04.2020
5630 Clear 10 1023 87 16093 1.5 130 17:26 02.04.2020
5631 Clouds 9 1023 75 16093 3.1 130 16:59 02.04.2020
5632 Clear 8 1023 70 16093 2.6 140 16:41 02.04.2020
5633 Clouds 7 1023 93 16093 1.77 121 16:22 02.04.2020
5634 Clouds 6 1023 93 16093 1.77 121 15:59 02.04.2020
5635 Clouds 5 1023 100 16093 1.77 121 15:40 02.04.2020
5636 Clouds 3 1023 100 16093 1.08 83 15:20 02.04.2020
5637 Clouds 3 1023 100 16093 1.08 83 14:58 02.04.2020
5638 Clouds 2 1022 100 16093 1.08 83 14:38 02.04.2020
5639 Clouds 1 1022 100 16093 1.24 61 14:19 02.04.2020
5640 Clouds 1 1022 100 16093 1.24 61 13:55 02.04.2020
5641 Clouds 0 1022 76 16093 1.24 61 13:37 02.04.2020
5642 Clouds 0 1022 76 16093 1.24 61 13:37 02.04.2020
5643 Clouds 0 1022 76 16093 1.24 61 13:19 02.04.2020
5644 Clouds 0 1021 100 16093 1.5 190 12:46 02.04.2020
5645 Clouds 1 1021 100 16093 1.5 190 12:20 02.04.2020
5646 Clouds 1 1021 100 16093 1.5 190 12:20 02.04.2020
5647 Clouds 1 1021 100 16093 1.5 190 11:58 02.04.2020
5648 Clouds 1 1021 93 16093 0.92 55 11:39 02.04.2020
5649 Clouds 1 1021 93 16093 0.92 55 11:39 02.04.2020
5650 Clouds 1 1021 93 16093 0.92 55 11:20 02.04.2020
5651 Clouds 1 1021 93 16093 0.92 55 10:57 02.04.2020
5652 Clouds 1 1021 93 16093 0.92 55 10:39 02.04.2020
5653 Clouds 1 1021 93 16093 0.92 55 10:21 02.04.2020
5654 Clouds 1 1021 93 16093 0.92 55 09:59 02.04.2020
5655 Clear 2 1021 100 16093 0.92 55 09:41 02.04.2020
5656 Clear 2 1021 100 16093 0.92 55 09:22 02.04.2020
5657 Clear 2 1021 93 16093 1.5 110 08:48 02.04.2020
5658 Clear 2 1021 93 16093 1.5 110 08:29 02.04.2020
5659 Clear 3 1021 93 16093 1.5 110 07:59 02.04.2020
5660 Clear 3 1021 93 16093 1.5 140 07:41 02.04.2020
5661 Clear 3 1021 93 16093 1.5 140 07:19 02.04.2020
5662 Clouds 4 1021 93 16093 2.1 100 06:25 02.04.2020
5663 Clouds 4 1021 86 16093 2.6 90 05:46 02.04.2020
5664 Clouds 4 1021 86 16093 2.6 90 05:18 02.04.2020
5665 Clouds 7 1019 70 16093 4.6 70 02:26 02.04.2020
5666 Clouds 9 1019 61 16093 5.1 80 01:27 02.04.2020
5667 Clouds 10 1019 57 16093 4.6 40 00:42 02.04.2020
5668 Clouds 10 1019 57 16093 4.6 40 00:22 02.04.2020
5669 Clouds 11 1019 57 16093 5.1 70 23:40 01.04.2020
5670 Clouds 11 1019 57 16093 5.1 70 23:20 01.04.2020
5671 Clouds 11 1019 57 16093 5.1 70 22:57 01.04.2020
5672 Clouds 11 1019 57 16093 5.1 70 22:57 01.04.2020
5673 Clouds 11 1018 57 16093 5.7 40 22:38 01.04.2020
5674 Clouds 11 1018 57 16093 5.7 40 22:20 01.04.2020
5675 Clouds 11 1019 54 16093 3.6 360 21:42 01.04.2020
5676 Clouds 11 1019 54 16093 3.6 360 21:19 01.04.2020
5677 Clouds 10 1019 54 16093 3.6 360 20:57 01.04.2020
5678 Clouds 10 1019 61 16093 2.6 10 20:39 01.04.2020
5679 Clouds 10 1019 61 16093 2.6 10 20:20 01.04.2020
5680 Clouds 10 1019 61 16093 2.6 10 19:59 01.04.2020
5681 Clouds 9 1019 70 16093 1.5 30 19:40 01.04.2020
5682 Clouds 9 1019 70 16093 1.5 30 19:19 01.04.2020
5683 Clouds 8 1019 75 16093 3.6 20 18:42 01.04.2020
5684 Clouds 7 1019 81 16093 2.1 20 18:24 01.04.2020
5685 Clouds 7 1019 81 16093 2.1 20 17:58 01.04.2020
5686 Clouds 6 1019 81 16093 3.6 350 17:38 01.04.2020
5687 Clouds 6 1019 81 16093 3.6 350 17:19 01.04.2020
5688 Clouds 5 1019 81 16093 3.6 350 16:58 01.04.2020
5689 Clouds 5 1019 86 16093 3.6 350 16:39 01.04.2020
5690 Clouds 4 1019 86 16093 3.6 350 16:21 01.04.2020
5691 Clouds 4 1019 86 16093 3.6 350 15:57 01.04.2020
5692 Clouds 4 1019 86 16093 3.6 350 15:57 01.04.2020
5693 Clouds 4 1019 86 16093 3.1 350 15:37 01.04.2020
5694 Clouds 4 1018 86 16093 3.1 10 15:18 01.04.2020
5695 Clouds 3 1018 86 16093 3.1 10 14:55 01.04.2020
5696 Clouds 3 1018 86 16093 3.1 10 14:55 01.04.2020
5697 Clouds 3 1018 86 16093 2.6 350 14:36 01.04.2020
5698 Clouds 3 1018 86 16093 2.6 350 14:18 01.04.2020
5699 Clouds 3 1018 86 16093 2.6 350 13:55 01.04.2020
5700 Clouds 3 1017 87 16093 3.6 360 13:36 01.04.2020
5701 Clouds 3 1017 87 16093 3.6 360 13:18 01.04.2020
5702 Clouds 3 1017 87 16093 3.1 340 12:42 01.04.2020
5703 Clouds 3 1017 87 16093 3.1 340 12:23 01.04.2020
5704 Clouds 3 1017 87 16093 3.1 340 11:59 01.04.2020
5705 Clouds 3 1017 87 16093 4.1 350 11:39 01.04.2020
5706 Clouds 3 1017 93 16093 2.1 10 11:20 01.04.2020
5707 Clouds 3 1017 87 16093 1.5 360 10:41 01.04.2020
5708 Clouds 3 1017 93 16093 2.1 10 10:22 01.04.2020
5709 Clouds 3 1017 87 16093 3.6 320 09:59 01.04.2020
5710 Clouds 3 1017 86 16093 3.1 350 09:40 01.04.2020
5711 Clouds 3 1017 93 16093 3.1 360 09:21 01.04.2020
5712 Clouds 3 1017 86 16093 3.1 350 08:57 01.04.2020
5713 Clouds 3 1017 86 16093 4.1 360 08:38 01.04.2020
5714 Clouds 3 1017 93 16093 3.6 360 08:18 01.04.2020
5715 Clouds 3 1018 86 16093 3.6 360 07:41 01.04.2020
5716 Clouds 3 1018 86 16093 3.6 360 07:19 01.04.2020
5717 Clouds 3 1017 86 16093 6.2 10 06:47 01.04.2020
5718 Clouds 3 1017 86 16093 6.2 10 06:21 01.04.2020
5719 Clouds 3 1018 86 16093 4.6 10 05:50 01.04.2020
5720 Clouds 3 1017 86 16093 5.1 20 04:29 01.04.2020
5721 Clouds 3 1017 80 16093 6.2 10 03:20 01.04.2020
5722 Clouds 3 1017 86 16093 5.1 20 02:37 01.04.2020
5723 Clouds 4 1017 86 16093 5.1 20 01:53 01.04.2020
5724 Clouds 4 1017 86 16093 5.7 20 01:27 01.04.2020
5725 Clouds 4 1017 80 16093 5.7 20 00:47 01.04.2020
5726 Clouds 4 1017 80 16093 5.7 20 00:23 01.04.2020
5727 Clouds 4 1017 80 16093 5.7 20 23:59 31.03.2020
5728 Clouds 4 1016 80 16093 6.7 20 23:40 31.03.2020
5729 Clouds 5 1016 80 16093 6.7 20 23:21 31.03.2020
5730 Clouds 5 1016 75 16093 5.7 30 22:41 31.03.2020
5731 Clouds 5 1016 75 16093 5.7 30 22:21 31.03.2020
5732 Clouds 5 1016 75 16093 5.7 30 21:58 31.03.2020
5733 Clouds 5 1016 70 16093 5.7 40 21:40 31.03.2020
5734 Clouds 5 1016 70 16093 5.7 40 21:40 31.03.2020
5735 Clouds 5 1016 70 16093 5.7 40 21:21 31.03.2020
5736 Clouds 5 1017 75 16093 5.1 10 20:57 31.03.2020
5737 Clouds 5 1017 75 16093 5.1 10 20:57 31.03.2020
5738 Clouds 5 1017 75 16093 5.1 10 20:37 31.03.2020
5739 Clouds 5 1017 75 16093 5.1 10 20:19 31.03.2020
5740 Clouds 4 1017 86 16093 5.1 20 19:56 31.03.2020
5741 Clouds 4 1017 86 16093 5.1 20 19:37 31.03.2020
5742 Clouds 4 1017 86 16093 5.1 20 19:19 31.03.2020
5743 Clouds 4 1018 86 16093 5.1 30 18:44 31.03.2020
5744 Rain 4 1018 86 16093 5.1 20 18:20 31.03.2020
5745 Rain 3 1018 86 16093 5.1 20 17:57 31.03.2020
5746 Drizzle 3 1018 93 11265 4.6 20 17:39 31.03.2020
5747 Drizzle 3 1018 93 11265 4.6 20 17:39 31.03.2020
5748 Rain 3 1018 86 12874 5.1 20 17:21 31.03.2020
5749 Rain 3 1018 86 12874 5.1 20 16:56 31.03.2020
5750 Rain 3 1018 93 11265 4.6 10 16:36 31.03.2020
5751 Clouds 3 1018 93 11265 4.6 10 16:18 31.03.2020
5752 Clouds 3 1018 93 11265 4.6 10 15:55 31.03.2020
5753 Clouds 2 1018 93 16093 4.6 350 15:36 31.03.2020
5754 Drizzle 2 1018 93 11265 3.6 10 15:18 31.03.2020
5755 Clouds 2 1018 78 16093 4.1 30 14:42 31.03.2020
5756 Clouds 2 1018 77 16093 4.1 30 14:22 31.03.2020
5757 Clouds 2 1018 77 16093 4.1 30 13:58 31.03.2020
5758 Clouds 2 1018 77 16093 6.7 10 13:40 31.03.2020
5759 Clouds 2 1018 77 16093 6.7 10 13:19 31.03.2020
5760 Clouds 2 1019 77 16093 5.7 360 12:45 31.03.2020
5761 Clouds 2 1019 73 16093 5.7 360 12:20 31.03.2020
5762 Clouds 2 1019 73 16093 5.7 360 11:56 31.03.2020
5763 Clouds 3 1019 74 16093 4.6 360 11:37 31.03.2020
5764 Clouds 3 1019 74 16093 4.6 10 11:19 31.03.2020
5765 Clouds 3 1019 74 16093 4.6 10 10:55 31.03.2020
5766 Clouds 3 1020 73 16093 5.1 20 10:55 31.03.2020
5767 Clouds 3 1020 73 16093 5.1 20 10:37 31.03.2020
5768 Clouds 3 1020 73 16093 5.1 20 10:18 31.03.2020
5769 Clouds 3 1020 80 16093 4.6 30 09:43 31.03.2020
5770 Clouds 3 1020 80 16093 4.6 30 09:25 31.03.2020
5771 Clouds 3 1020 80 16093 4.6 30 08:58 31.03.2020
5772 Clouds 3 1020 80 16093 4.6 30 08:58 31.03.2020
5773 Clouds 3 1020 80 16093 6.2 30 08:40 31.03.2020
5774 Clouds 3 1020 80 16093 6.2 30 08:20 31.03.2020
5775 Clouds 3 1020 80 16093 6.2 30 07:57 31.03.2020
5776 Clouds 4 1021 74 16093 4.6 70 07:38 31.03.2020
5777 -273 0 0 0 0 0 07:20 31.03.2020
5778 Clouds 4 1021 65 16093 4.6 60 06:51 31.03.2020
5779 Clouds 4 1021 65 16093 4.6 60 06:31 31.03.2020
5780 Clouds 5 1021 65 16093 3.1 70 05:41 31.03.2020
5781 Clouds 5 1021 77 16093 4.1 90 03:57 31.03.2020
5782 Clouds 6 1021 75 16093 4.6 120 02:26 31.03.2020
5783 Clouds 6 1021 74 16093 4.1 100 01:46 31.03.2020
5784 Rain 7 1021 74 16093 4.1 100 00:52 31.03.2020
5785 Rain 8 1020 70 16093 4.1 80 00:25 31.03.2020
5786 Clouds 8 1020 70 16093 4.1 80 23:59 30.03.2020
5787 Clouds 8 1021 61 16093 4.6 100 23:38 30.03.2020
5788 Clouds 9 1021 61 16093 4.6 100 23:19 30.03.2020
5789 Clouds 9 1021 61 16093 4.6 100 22:56 30.03.2020
5790 Clouds 9 1021 57 16093 5.7 300 22:37 30.03.2020
5791 Clouds 9 1021 57 16093 5.7 300 22:37 30.03.2020
5792 Clouds 9 1021 57 16093 5.7 300 22:18 30.03.2020
5793 Clouds 9 1021 57 16093 5.7 300 21:55 30.03.2020
5794 Clouds 9 1021 57 16093 7.7 290 21:37 30.03.2020
5795 Clouds 9 1021 57 16093 7.7 290 21:18 30.03.2020
5796 Clouds 9 1020 64 16093 5.7 300 20:42 30.03.2020
5797 Clouds 9 1020 64 16093 5.7 300 20:24 30.03.2020
5798 Clouds 9 1020 64 16093 5.7 300 19:59 30.03.2020
5799 Clouds 9 1021 53 16093 6.2 310 19:40 30.03.2020
5800 Clouds 9 1021 53 16093 6.2 310 19:22 30.03.2020
5801 Clouds 9 1021 53 16093 6.2 310 18:57 30.03.2020
5802 Clouds 9 1021 57 16093 7.2 290 18:38 30.03.2020
5803 Clouds 8 1021 57 16093 7.2 290 18:20 30.03.2020
5804 Clouds 8 1021 57 16093 7.2 290 17:57 30.03.2020
5805 Clouds 8 1021 61 16093 7.2 310 17:38 30.03.2020
5806 Clouds 7 1020 61 16093 7.7 300 17:19 30.03.2020
5807 Clouds 7 1020 61 16093 7.7 300 16:55 30.03.2020
5808 Clouds 7 1020 65 16093 7.7 300 16:37 30.03.2020
5809 Clouds 6 1020 65 16093 7.7 300 16:18 30.03.2020
5810 Clouds 6 1020 65 16093 7.7 300 15:54 30.03.2020
5811 Clouds 5 1019 70 16093 6.7 290 15:36 30.03.2020
5812 Clouds 5 1019 70 16093 6.7 290 15:18 30.03.2020
5813 Clouds 4 1018 75 16093 6.2 310 14:39 30.03.2020
5814 Clouds 4 1018 75 16093 6.2 310 14:19 30.03.2020
5815 Clouds 4 1018 75 16093 6.2 310 13:59 30.03.2020
5816 Clouds 4 1018 65 16093 4.6 290 13:40 30.03.2020
5817 Clouds 4 1017 70 16093 5.7 300 13:20 30.03.2020
5818 Clouds 5 1017 70 16093 7.2 300 12:54 30.03.2020
5819 Clouds 5 1017 70 16093 7.2 300 12:36 30.03.2020
5820 Clouds 5 1016 70 16093 8.2 310 12:18 30.03.2020
5821 Clouds 5 1016 70 16093 8.2 310 12:18 30.03.2020
5822 Clouds 5 1015 70 16093 5.1 310 11:43 30.03.2020
5823 Rain 5 1016 75 16093 3.6 280 11:24 30.03.2020
5824 Rain 5 1015 70 16093 5.1 310 10:59 30.03.2020
5825 Rain 5 1014 70 16093 7.7 290 10:39 30.03.2020
5826 Clouds 5 1015 75 16093 4.1 280 10:21 30.03.2020
5827 Clouds 5 1014 70 16093 3.6 300 09:54 30.03.2020
5828 Rain 5 1014 75 16093 5.7 300 09:36 30.03.2020
5829 Clouds 6 1015 75 16093 5.1 280 09:18 30.03.2020
5830 Clouds 6 1014 70 16093 7.7 280 08:39 30.03.2020
5831 Clouds 6 1014 70 16093 7.7 280 08:20 30.03.2020
5832 Clouds 6 1013 70 16093 6.2 280 07:45 30.03.2020
5833 Clouds 6 1013 70 16093 6.2 280 07:25 30.03.2020
5834 Clouds 6 1013 70 16093 9.8 290 06:47 30.03.2020
5835 Rain 6 1013 70 16093 9.8 290 06:29 30.03.2020
5836 Rain 7 1012 70 16093 7.2 280 05:46 30.03.2020
5837 Clouds 7 1012 70 16093 11.8 280 04:40 30.03.2020
5838 Clouds 7 1012 70 16093 11.8 280 04:20 30.03.2020
5839 Clouds 7 1011 70 16093 8.7 270 02:52 30.03.2020
5840 Clouds 8 1010 65 16093 11.8 260 01:58 30.03.2020
5841 Clouds 8 1009 61 16093 13.9 270 01:18 30.03.2020
5842 Clouds 8 1008 61 16093 9.8 270 00:29 30.03.2020
5843 Rain 8 1008 61 16093 9.8 270 23:57 29.03.2020
5844 Rain 8 1008 61 16093 9.8 270 23:57 29.03.2020
5845 Rain 8 1007 61 16093 12.3 270 23:39 29.03.2020
5846 Rain 8 1007 61 16093 12.3 270 23:20 29.03.2020
5847 Clouds 8 1006 66 16093 10.8 260 22:55 29.03.2020
5848 Clouds 8 1007 61 16093 12.3 270 22:55 29.03.2020
5849 Clouds 8 1006 66 16093 10.8 260 22:37 29.03.2020
5850 Clouds 8 1006 66 16093 10.8 260 22:18 29.03.2020
5851 Clouds 8 1004 66 16093 10.8 260 21:39 29.03.2020
5852 Rain 8 1004 66 16093 10.8 260 21:20 29.03.2020
5853 Rain 8 1004 66 16093 10.8 260 20:56 29.03.2020
5854 Rain 8 1003 70 16093 14.4 250 20:37 29.03.2020
5855 Clouds 8 1003 70 16093 14.4 250 20:19 29.03.2020
5856 Clouds 8 1003 70 16093 14.4 250 19:57 29.03.2020
5857 Clouds 7 1002 75 16093 10.3 250 19:39 29.03.2020
5858 Clouds 7 1002 75 16093 10.3 250 19:21 29.03.2020
5859 Clouds 7 1001 81 16093 11.8 240 18:57 29.03.2020
5860 Clouds 7 1001 81 16093 11.8 240 18:38 29.03.2020
5861 Rain 7 1001 81 16093 11.8 240 18:19 29.03.2020
5862 Rain 7 1001 81 16093 11.8 240 18:19 29.03.2020
5863 Rain 6 1001 81 14484 12.9 240 17:56 29.03.2020
5864 Rain 6 1001 81 14484 12.9 240 17:37 29.03.2020
5865 Rain 6 1001 81 14484 12.9 240 17:18 29.03.2020
5866 Rain 6 1001 81 14484 12.9 240 16:56 29.03.2020
5867 Clouds 6 1000 81 16093 10.8 240 16:38 29.03.2020
5868 Rain 6 1000 81 16093 10.8 240 16:18 29.03.2020
5869 Rain 6 999 87 16093 11.8 230 15:41 29.03.2020
5870 Clouds 7 999 87 16093 11.8 230 15:23 29.03.2020
5871 Clouds 7 999 87 16093 11.8 230 14:58 29.03.2020
5872 Clouds 8 998 71 16093 10.8 250 14:40 29.03.2020
5873 Clouds 8 998 71 16093 10.8 250 14:20 29.03.2020
5874 Clouds 9 998 71 16093 10.8 250 13:57 29.03.2020
5875 Rain 10 999 71 16093 9.8 230 13:39 29.03.2020
5876 Rain 11 997 66 16093 8.7 220 13:20 29.03.2020
5877 Clouds 11 996 66 16093 5.7 240 12:55 29.03.2020
5878 Clouds 12 997 62 16093 5.1 200 12:37 29.03.2020
5879 Clouds 12 997 62 16093 5.1 200 12:19 29.03.2020
5880 Clouds 12 997 66 16093 6.2 230 11:55 29.03.2020
5881 Clouds 12 997 66 16093 6.2 230 11:36 29.03.2020
5882 Clouds 13 997 66 16093 6.2 230 11:18 29.03.2020
5883 Rain 13 997 62 16093 5.1 220 10:38 29.03.2020
5884 Rain 13 997 62 16093 5.1 220 10:19 29.03.2020
5885 Clear 14 997 58 16093 3.6 220 09:41 29.03.2020
5886 Clear 14 997 58 16093 3.6 220 09:41 29.03.2020
5887 Clouds 14 998 67 16093 4.6 210 09:20 29.03.2020
5888 Clouds 15 998 62 16093 4.1 220 08:54 29.03.2020
5889 Clouds 15 998 55 16093 6.7 230 08:36 29.03.2020
5890 Clouds 15 998 55 16093 6.7 230 08:18 29.03.2020
5891 Rain 16 998 72 16093 9.3 210 07:42 29.03.2020
5892 Rain 16 998 72 16093 9.3 210 07:21 29.03.2020
5893 Clouds 16 998 100 14484 7.7 170 05:46 29.03.2020
5894 Rain 13 1000 100 11265 4.1 130 04:27 29.03.2020
5895 Rain 11 1001 100 11265 2.6 110 03:31 29.03.2020
5896 Rain 9 1002 100 8047 3.6 50 01:51 29.03.2020
5897 Rain 10 1002 100 8047 3.6 50 01:23 29.03.2020
5898 Rain 11 1002 100 8047 3.6 50 01:23 29.03.2020
5899 Rain 12 1002 100 8047 3.6 50 00:58 29.03.2020
5900 Rain 13 1003 100 4828 5.1 60 00:33 29.03.2020
5901 Rain 13 1003 100 4828 5.1 60 23:57 28.03.2020
5902 Rain 14 1003 100 4023 5.7 50 23:39 28.03.2020
5903 Rain 15 1004 100 4828 3.6 80 23:19 28.03.2020
5904 Clouds 15 1004 93 16093 3.6 90 22:41 28.03.2020
5905 Rain 15 1004 93 16093 3.6 90 22:22 28.03.2020
5906 Clouds 15 1004 93 16093 3.6 90 21:55 28.03.2020
5907 Rain 15 1005 93 16093 4.1 130 21:37 28.03.2020
5908 Rain 15 1005 93 16093 4.1 130 21:18 28.03.2020
5909 Clouds 14 1005 93 12874 2.6 140 20:42 28.03.2020
5910 Clouds 14 1005 93 12874 2.6 140 20:24 28.03.2020
5911 Clouds 14 1005 93 12874 2.6 140 20:24 28.03.2020
5912 Clouds 13 1005 93 12874 2.6 140 19:58 28.03.2020
5913 Rain 13 1006 93 12874 3.22 88 19:39 28.03.2020
5914 Rain 12 1006 93 12874 3.22 88 19:21 28.03.2020
5915 Rain 11 1006 93 12874 3.22 88 18:59 28.03.2020
5916 Rain 11 1006 100 11265 2.6 150 18:39 28.03.2020
5917 Rain 10 1006 93 11265 2.1 130 18:20 28.03.2020
5918 Rain 9 1007 93 11265 3.22 88 17:39 28.03.2020
5919 Rain 9 1007 93 11265 3.22 88 17:39 28.03.2020
5920 Rain 9 1007 93 11265 4.44 62 17:21 28.03.2020
5921 Rain 8 1007 100 11265 3.1 80 16:57 28.03.2020
5922 Rain 8 1007 100 11265 3.1 80 16:37 28.03.2020
5923 Rain 8 1006 100 11265 3.6 60 16:18 28.03.2020
5924 Rain 7 1006 100 16093 2.6 30 15:39 28.03.2020
5925 Rain 7 1006 100 16093 2.6 30 15:19 28.03.2020
5926 Rain 7 1006 100 16093 2.6 30 14:57 28.03.2020
5927 Rain 7 1006 100 8047 5.7 20 14:38 28.03.2020
5928 Thunderstorm 8 1007 100 2414 4.6 350 14:20 28.03.2020
5929 Rain 8 1006 100 8047 5.1 340 13:41 28.03.2020
5930 Thunderstorm 8 1006 100 8047 2.1 170 13:22 28.03.2020
5931 Thunderstorm 8 1005 100 6437 5.1 350 12:40 28.03.2020
5932 Rain 8 1004 100 8047 4.6 40 12:22 28.03.2020
5933 Rain 8 1004 100 8047 4.6 40 12:22 28.03.2020
5934 Mist 8 1004 100 9656 3.1 150 11:43 28.03.2020
5935 Rain 8 1004 100 9656 1.5 80 11:23 28.03.2020
5936 Rain 8 1004 100 9656 1.5 80 10:58 28.03.2020
5937 Rain 8 1005 100 14484 3.6 150 10:38 28.03.2020
5938 Rain 8 1005 100 14484 3.6 150 10:18 28.03.2020
5939 Rain 8 1005 93 8047 3.6 110 09:42 28.03.2020
5940 Rain 8 1006 100 9656 4.1 70 09:23 28.03.2020
5941 Rain 8 1006 100 9656 4.1 70 08:55 28.03.2020
5942 Thunderstorm 8 1006 100 4828 3.6 70 08:37 28.03.2020
5943 Thunderstorm 8 1006 100 4828 3.6 70 08:18 28.03.2020
5944 Thunderstorm 8 1007 100 4828 3.1 50 07:41 28.03.2020
5945 Rain 8 1007 100 6437 3.1 80 06:58 28.03.2020
5946 Drizzle 8 1007 100 8047 6.2 110 06:35 28.03.2020
5947 Mist 8 1008 100 6437 4.6 100 05:42 28.03.2020
5948 Rain 8 1009 100 6437 3.1 80 05:21 28.03.2020
5949 Rain 8 1009 100 4828 4.1 70 04:40 28.03.2020
5950 Rain 8 1010 100 4828 5.7 80 03:34 28.03.2020
5951 Rain 8 1010 100 4828 5.1 100 01:53 28.03.2020
5952 Rain 8 1010 100 4828 5.1 100 01:25 28.03.2020
5953 Rain 8 1010 100 4828 5.1 100 00:56 28.03.2020
5954 Rain 8 1011 100 4828 3.6 60 00:35 28.03.2020
5955 Rain 8 1011 100 8047 5.7 50 23:55 27.03.2020
5956 Rain 8 1011 100 8047 5.7 50 23:37 27.03.2020
5957 Rain 8 1011 100 8047 5.7 50 23:18 27.03.2020
5958 Rain 9 1012 93 11265 4.6 50 22:55 27.03.2020
5959 Rain 9 1012 93 11265 4.6 50 22:37 27.03.2020
5960 Rain 9 1012 93 11265 4.6 50 22:18 27.03.2020
5961 Clouds 10 1012 93 11265 5.1 60 21:42 27.03.2020
5962 Clouds 10 1012 93 11265 5.1 60 21:24 27.03.2020
5963 Clouds 10 1012 93 11265 5.7 60 20:58 27.03.2020
5964 Clouds 10 1012 93 11265 5.7 60 20:58 27.03.2020
5965 Clouds 11 1012 87 11265 5.1 80 20:39 27.03.2020
5966 Clouds 11 1012 87 11265 5.1 60 20:20 27.03.2020
5967 Clouds 11 1012 87 11265 5.1 60 19:57 27.03.2020
5968 Clouds 11 1013 87 12874 5.1 70 19:38 27.03.2020
5969 Clouds 11 1013 87 12874 5.1 70 19:20 27.03.2020
5970 Mist 10 1013 87 9656 4.1 60 18:44 27.03.2020
5971 Mist 10 1013 87 9656 4.1 60 18:44 27.03.2020
5972 Mist 10 1013 87 9656 4.1 60 18:23 27.03.2020
5973 Mist 9 1013 93 4828 3.6 70 17:57 27.03.2020
5974 Mist 8 1013 93 4828 3.6 70 17:38 27.03.2020
5975 Mist 8 1012 93 2816 5.1 50 17:19 27.03.2020
5976 Mist 7 1012 93 8047 4.1 40 16:44 27.03.2020
5977 Mist 6 1012 93 8047 4.1 40 16:25 27.03.2020
5978 Mist 6 1012 93 8047 4.1 40 15:55 27.03.2020
5979 Mist 5 1012 100 3219 4.1 50 15:37 27.03.2020
5980 Clouds 4 1012 79 0 4.02 75 15:19 27.03.2020
5981 Mist 4 1013 100 8047 4.1 40 14:43 27.03.2020
5982 Mist 4 1013 100 8047 4.1 40 14:24 27.03.2020
5983 Mist 4 1013 100 8047 4.1 40 13:54 27.03.2020
5984 Mist 4 1013 93 8047 3.6 30 13:36 27.03.2020
5985 Mist 3 1013 100 4828 4.6 30 13:18 27.03.2020
5986 Mist 3 1013 100 4023 2.6 10 12:42 27.03.2020
5987 Mist 3 1013 100 4023 2.6 10 12:19 27.03.2020
5988 Mist 3 1013 100 4023 4.1 20 11:55 27.03.2020
5989 Mist 3 1013 100 4023 4.1 20 11:55 27.03.2020
5990 Mist 3 1013 100 4023 4.1 20 11:36 27.03.2020
5991 Mist 3 1013 100 4023 4.1 20 11:18 27.03.2020
5992 Mist 3 1013 100 3219 3.6 30 10:41 27.03.2020
5993 Mist 3 1012 100 4023 3.1 20 10:22 27.03.2020
5994 Mist 3 1012 100 4023 3.1 20 09:58 27.03.2020
5995 Mist 3 1012 100 2012 2.6 30 09:40 27.03.2020
5996 Mist 3 1012 100 1207 3.6 30 09:22 27.03.2020
5997 Mist 3 1012 100 1207 3.6 30 08:58 27.03.2020
5998 Mist 3 1012 100 1207 3.6 30 08:58 27.03.2020
5999 Mist 2 1011 100 1207 5.1 40 08:40 27.03.2020
6000 Mist 2 1011 100 1207 5.1 40 08:21 27.03.2020
6001 Mist 2 1012 100 1609 5.1 30 07:55 27.03.2020
6002 Mist 2 1013 100 1207 6.2 30 07:37 27.03.2020
6003 Mist 3 1013 100 4023 6.2 30 07:19 27.03.2020
6004 Mist 3 1013 100 8047 4.1 20 06:38 27.03.2020
6005 Clouds 3 1013 93 14484 5.1 10 05:44 27.03.2020
6006 Clouds 4 1011 93 16093 6.2 20 02:52 27.03.2020
6007 Clouds 4 1011 93 16093 5.7 20 01:54 27.03.2020
6008 Clouds 4 1011 93 16093 4.6 30 00:56 27.03.2020
6009 Clouds 4 1011 87 16093 4.6 20 00:37 27.03.2020
6010 Clouds 4 1011 87 16093 4.6 20 00:18 27.03.2020
6011 Clouds 4 1011 87 16093 4.6 20 00:18 27.03.2020
6012 Clouds 4 1010 93 14484 4.1 40 23:36 26.03.2020
6013 Clouds 4 1010 93 14484 4.1 40 23:18 26.03.2020
6014 Clouds 4 1009 87 12874 3.6 20 22:54 26.03.2020
6015 Rain 4 1009 87 12874 3.6 20 22:36 26.03.2020
6016 Rain 5 1009 87 12874 3.6 20 22:18 26.03.2020
6017 Clouds 5 1010 87 16093 5.1 60 21:39 26.03.2020
6018 Rain 5 1010 87 16093 5.1 60 21:21 26.03.2020
6019 Rain 5 1010 87 16093 5.1 60 20:58 26.03.2020
6020 Rain 5 1011 93 16093 5.1 50 20:38 26.03.2020
6021 Rain 5 1011 93 16093 5.1 50 20:38 26.03.2020
6022 Rain 5 1011 93 6437 7.2 40 20:20 26.03.2020
6023 Rain 5 1011 93 6437 7.2 40 19:56 26.03.2020
6024 Clouds 5 1011 87 12874 5.1 40 19:38 26.03.2020
6025 Clouds 6 1011 87 12874 5.1 40 19:20 26.03.2020
6026 Clouds 6 1011 87 11265 4.6 40 18:56 26.03.2020
6027 Clouds 6 1011 87 11265 4.6 40 18:37 26.03.2020
6028 Haze 7 1010 81 9656 4.6 50 18:19 26.03.2020
6029 Clouds 7 1011 87 11265 5.7 40 17:42 26.03.2020
6030 Clouds 7 1011 87 12874 3.1 60 17:19 26.03.2020
6031 Clouds 7 1011 87 12874 3.1 60 17:19 26.03.2020
6032 Clouds 7 1011 87 12874 3.1 60 17:19 26.03.2020
6033 Clouds 7 1012 87 12874 3.6 50 16:46 26.03.2020
6034 Clouds 7 1012 87 12874 3.6 50 16:28 26.03.2020
6035 Clouds 7 1011 81 11265 2.6 50 15:59 26.03.2020
6036 Clouds 7 1011 93 11265 4.08 2 15:41 26.03.2020
6037 Clouds 8 1011 93 11265 4.08 2 15:22 26.03.2020
6038 Clouds 9 1011 93 11265 4.08 2 14:58 26.03.2020
6039 Clouds 9 1011 93 11265 1.5 250 14:39 26.03.2020
6040 Mist 9 1011 93 9656 2.6 240 14:19 26.03.2020
6041 Mist 9 1010 93 9656 1.5 240 13:44 26.03.2020
6042 Mist 9 1010 93 9656 2.6 240 13:23 26.03.2020
6043 Mist 9 1010 93 9656 2.6 240 12:57 26.03.2020
6044 Clouds 9 1010 87 12874 4.1 250 12:38 26.03.2020
6045 Clouds 9 1010 87 12874 4.1 250 12:19 26.03.2020
6046 Clouds 9 1008 93 12874 3.1 210 11:45 26.03.2020
6047 Clouds 9 1008 93 12874 3.1 210 11:22 26.03.2020
6048 Clouds 9 1008 93 12874 3.1 210 10:56 26.03.2020
6049 Clouds 9 1009 87 12874 3.6 210 10:37 26.03.2020
6050 Clouds 9 1009 87 12874 3.6 210 10:37 26.03.2020
6051 Clouds 9 1009 87 12874 3.6 210 10:19 26.03.2020
6052 Clouds 10 1009 87 16093 4.6 220 09:43 26.03.2020
6053 Clouds 10 1009 87 16093 4.6 220 09:20 26.03.2020
6054 Clouds 10 1009 87 16093 4.6 220 08:55 26.03.2020
6055 Clouds 10 1009 81 16093 5.7 220 08:37 26.03.2020
6056 Clouds 10 1009 81 16093 5.7 220 08:18 26.03.2020
6057 Clouds 11 1010 76 16093 5.7 210 07:43 26.03.2020
6058 Clouds 11 1010 76 16093 5.7 210 07:21 26.03.2020
6059 Clouds 11 1010 76 16093 7.2 210 06:48 26.03.2020
6060 Clouds 11 1009 71 16093 6.2 190 05:57 26.03.2020
6061 Clouds 12 1009 76 16093 5.7 190 04:25 26.03.2020
6062 Clouds 12 1010 76 16093 4.6 170 03:41 26.03.2020
6063 Clouds 11 1011 76 16093 4.6 190 02:54 26.03.2020
6064 Clouds 12 1011 71 16093 4.6 200 01:50 26.03.2020
6065 Clouds 12 1012 71 16093 5.1 220 00:48 26.03.2020
6066 Clouds 12 1012 66 16093 5.7 200 23:56 25.03.2020
6067 Clouds 12 1012 66 16093 5.7 200 23:36 25.03.2020
6068 Clouds 13 1012 66 16093 5.7 200 23:18 25.03.2020
6069 Clouds 14 1013 58 16093 5.7 220 22:39 25.03.2020
6070 Clouds 14 1013 58 16093 5.7 220 22:20 25.03.2020
6071 Clouds 14 1013 58 16093 5.7 220 21:56 25.03.2020
6072 Clouds 14 1013 62 16093 4.1 210 21:37 25.03.2020
6073 Clear 15 1016 61 0 0.89 79 21:19 25.03.2020
6074 Clouds 14 1013 62 16093 4.1 210 21:19 25.03.2020
6075 Clouds 14 1013 62 16093 4.1 210 20:54 25.03.2020
6076 Clouds 14 1014 62 16093 4.6 210 20:36 25.03.2020
6077 Clouds 13 1014 62 16093 4.6 210 20:18 25.03.2020
6078 Clouds 13 1014 62 16093 5.1 210 19:42 25.03.2020
6079 Clouds 13 1014 62 16093 5.1 210 19:22 25.03.2020
6080 Clouds 13 1014 62 16093 5.1 210 18:56 25.03.2020
6081 Clouds 12 1014 62 16093 5.7 190 18:37 25.03.2020
6082 Clouds 12 1014 62 16093 5.7 190 18:19 25.03.2020
6083 Clear 11 1015 70 12874 2.1 0 17:54 25.03.2020
6084 Clouds 11 1014 53 0 3.38 176 17:36 25.03.2020
6085 Clear 9 1015 70 12874 2.1 0 17:18 25.03.2020
6086 Clear 8 1015 75 11265 2.6 200 16:41 25.03.2020
6087 Clear 8 1015 75 11265 2.6 200 16:22 25.03.2020
6088 Clear 7 1015 75 11265 2.6 200 15:57 25.03.2020
6089 Mist 6 1015 93 8047 2.1 180 15:37 25.03.2020
6090 Mist 5 1015 93 8047 2.1 180 15:19 25.03.2020
6091 Mist 5 1015 93 8047 2.1 180 15:19 25.03.2020
6092 Mist 4 1015 93 4828 1.5 180 14:41 25.03.2020
6093 Mist 3 1015 93 4828 1.5 180 14:21 25.03.2020
6094 Mist 2 1015 83 6437 2.29 248 13:46 25.03.2020
6095 Mist 1 1015 83 6437 2.29 248 13:26 25.03.2020
6096 Mist 1 1015 83 6437 2.13 225 12:57 25.03.2020
6097 Mist 1 1015 100 6437 2.29 248 12:37 25.03.2020
6098 Mist 1 1015 100 6437 2.13 225 12:18 25.03.2020
6099 Mist 2 1014 83 8047 2.13 225 11:43 25.03.2020
6100 Mist 2 1014 83 8047 2.13 225 11:21 25.03.2020
6101 Mist 2 1014 81 8047 2.06 152 10:59 25.03.2020
6102 Mist 2 1014 100 9656 2.06 152 10:40 25.03.2020
6103 Mist 2 1014 100 9656 2.06 152 10:19 25.03.2020
6104 Mist 2 1014 100 9656 2.06 152 09:59 25.03.2020
6105 Mist 2 1015 81 9656 2.06 152 09:40 25.03.2020
6106 Mist 2 1015 81 9656 2.06 152 09:22 25.03.2020
6107 Mist 2 1015 81 9656 2.06 152 08:54 25.03.2020
6108 Clear 2 1015 93 11265 2.06 152 08:36 25.03.2020
6109 Clear 2 1015 93 11265 1.69 134 08:18 25.03.2020
6110 Clear 2 1015 93 12874 2.1 120 07:39 25.03.2020
6111 Clear 2 1015 93 12874 2.1 120 07:19 25.03.2020
6112 Clear 3 1015 86 12874 1.5 120 06:45 25.03.2020
6113 Clear 3 1015 86 12874 1.5 120 06:25 25.03.2020
6114 Clouds 3 1016 86 12874 2.1 90 05:50 25.03.2020
6115 Clouds 3 1016 86 12874 2.1 90 04:59 25.03.2020
6116 Clouds 3 1016 86 12874 3.1 80 04:36 25.03.2020
6117 Clouds 3 1016 86 12874 3.1 80 03:34 25.03.2020
6118 Clouds 4 1016 86 14484 4.6 80 01:55 25.03.2020
6119 Clouds 4 1017 75 14484 4.6 90 01:20 25.03.2020
6120 Clouds 5 1016 70 14484 4.6 100 00:43 25.03.2020
6121 Clouds 5 1016 70 14484 4.6 100 00:19 25.03.2020
6122 Clouds 6 1017 65 14484 4.6 80 23:42 24.03.2020
6123 Clouds 6 1017 65 14484 4.6 80 23:22 24.03.2020
6124 Clouds 6 1017 65 14484 3.6 110 22:55 24.03.2020
6125 Clouds 6 1017 65 14484 3.6 110 22:37 24.03.2020
6126 Clouds 6 1017 65 14484 3.6 110 22:37 24.03.2020
6127 Clouds 6 1017 65 14484 3.6 110 22:19 24.03.2020
6128 Clouds 7 1017 65 14484 3.6 110 21:54 24.03.2020
6129 Clouds 7 1018 65 16093 3.1 50 21:36 24.03.2020
6130 Clouds 7 1018 65 16093 3.1 50 21:36 24.03.2020
6131 Clouds 7 1018 65 16093 3.1 50 21:18 24.03.2020
6132 Clouds 7 1018 65 16093 2.1 0 20:41 24.03.2020
6133 Clouds 7 1018 65 16093 2.1 0 20:23 24.03.2020
6134 Clouds 7 1019 70 14484 2.6 60 19:54 24.03.2020
6135 Clouds 7 1019 70 14484 2.6 60 19:36 24.03.2020
6136 Clouds 6 1019 70 14484 2.6 60 19:18 24.03.2020
6137 Clouds 6 1019 70 14484 2.6 60 18:54 24.03.2020
6138 Clear 6 1020 70 16093 4.6 110 18:36 24.03.2020
6139 Clear 6 1020 70 16093 4.6 110 18:18 24.03.2020
6140 Clouds 5 1020 80 16093 5.7 110 17:41 24.03.2020
6141 Clouds 5 1020 80 16093 5.7 110 17:22 24.03.2020
6142 Clouds 5 1020 80 16093 5.7 110 17:22 24.03.2020
6143 Clouds 5 1019 75 16093 4.6 110 16:57 24.03.2020
6144 Clouds 4 1019 70 11265 4.6 70 16:39 24.03.2020
6145 Clouds 4 1019 84 16093 4.6 80 16:20 24.03.2020
6146 Clouds 3 1020 93 11265 3.1 100 15:44 24.03.2020
6147 Clouds 3 1020 93 11265 3.1 100 15:26 24.03.2020
6148 Mist 2 1020 86 4828 3.1 90 14:59 24.03.2020
6149 Mist 1 1021 84 4023 2.1 90 14:40 24.03.2020
6150 Mist 2 1021 93 4828 1.5 100 14:18 24.03.2020
6151 Mist 1 1021 81 4828 1.5 100 13:42 24.03.2020
6152 Mist 1 1021 81 6437 2.97 113 13:23 24.03.2020
6153 Mist 1 1021 81 6437 2.97 113 13:23 24.03.2020
6154 Mist 1 1022 81 6437 2.1 180 12:47 24.03.2020
6155 Mist 1 1022 81 6437 2.1 180 12:28 24.03.2020
6156 Mist 1 1022 81 6437 2.6 180 11:59 24.03.2020
6157 Mist 1 1022 81 6437 2.97 113 11:39 24.03.2020
6158 Clouds 0 1021 86 4828 3.22 147 11:19 24.03.2020
6159 Clouds 0 1021 86 6437 3.22 147 10:42 24.03.2020
6160 Mist 0 1022 100 4023 3.22 147 10:19 24.03.2020
6161 Mist 0 1021 86 8047 3.22 147 09:57 24.03.2020
6162 Mist 0 1021 86 8047 3.22 147 09:39 24.03.2020
6163 Clouds 0 1022 86 11265 1.5 240 09:20 24.03.2020
6164 Mist 0 1022 86 8047 3.22 147 08:38 24.03.2020
6165 Mist 0 1022 100 4828 3.75 152 08:20 24.03.2020
6166 Mist 0 1023 83 6437 3.75 152 07:47 24.03.2020
6167 Mist 0 1022 93 8047 3.75 152 07:24 24.03.2020
6168 Mist 0 1022 83 8047 1.5 260 06:52 24.03.2020
6169 Clouds 0 1022 83 6437 1.5 270 06:25 24.03.2020
6170 Mist 1 1022 84 9656 1.5 270 04:57 24.03.2020
6171 Clouds 1 1022 74 16093 3.6 280 03:48 24.03.2020
6172 Clear 2 1022 84 11265 1.93 116 02:49 24.03.2020
6173 Clear 3 1021 84 16093 2.1 300 01:42 24.03.2020
6174 Clouds 4 1021 75 16093 1.5 300 00:44 24.03.2020
6175 Clouds 5 1021 75 16093 2.1 270 00:23 24.03.2020
6176 Clouds 5 1022 65 16093 1.5 280 23:44 23.03.2020
6177 Clouds 5 1021 65 16093 3.57 124 23:26 23.03.2020
6178 Clouds 5 1021 65 16093 3.57 124 23:26 23.03.2020
6179 Clouds 5 1022 75 16093 1.5 200 22:55 23.03.2020
6180 Clouds 5 1022 83 11265 1.7 123 22:36 23.03.2020
6181 Clouds 5 1022 83 16093 2.1 250 22:18 23.03.2020
6182 Rain 5 1021 70 16093 1.5 270 21:42 23.03.2020
6183 Rain 5 1022 83 16093 1.7 123 21:20 23.03.2020
6184 Rain 4 1022 80 8047 1.5 0 20:57 23.03.2020
6185 Rain 4 1021 80 16093 1.7 123 20:38 23.03.2020
6186 Rain 4 1022 82 16093 1.48 346 20:19 23.03.2020
6187 Rain 4 1022 74 16093 2.11 341 19:45 23.03.2020
6188 Rain 3 1022 80 16093 2.11 341 19:26 23.03.2020
6189 Rain 3 1023 81 16093 2.1 280 18:57 23.03.2020
6190 Rain 2 1023 86 16093 2.11 341 18:39 23.03.2020
6191 Rain 2 1023 81 14484 2.6 320 18:20 23.03.2020
6192 Rain 2 1023 86 16093 1.5 340 17:42 23.03.2020
6193 Rain 2 1023 86 16093 1.5 340 17:21 23.03.2020
6194 Rain 2 1023 86 16093 3.48 345 16:57 23.03.2020
6195 Rain 1 1023 82 16093 1.5 360 16:39 23.03.2020
6196 Rain 1 1023 82 16093 1.5 360 16:20 23.03.2020
6197 Rain 1 1022 86 16093 2.1 30 15:42 23.03.2020
6198 Rain 1 1022 93 6437 2.1 330 15:20 23.03.2020
6199 Rain 0 1022 86 8047 3.6 350 14:38 23.03.2020
6200 Rain 0 1022 100 4023 4.17 350 14:20 23.03.2020
6201 Rain 0 1022 100 4023 4.17 350 14:20 23.03.2020
6202 Snow 0 1021 86 6437 3.1 340 13:59 23.03.2020
6203 Snow 0 1021 100 6437 4.17 350 13:40 23.03.2020
6204 Snow 0 1021 88 3219 3.94 350 13:20 23.03.2020
6205 Snow 0 1021 100 4828 3.94 350 12:45 23.03.2020
6206 Snow 0 1021 100 4828 3.94 350 12:45 23.03.2020
6207 Mist 0 1021 100 6437 2.1 330 12:25 23.03.2020
6208 Mist 0 1020 100 6437 1.5 10 11:59 23.03.2020
6209 Mist 0 1020 100 6437 1.5 10 11:59 23.03.2020
6210 Mist 0 1020 86 9656 2.6 350 11:40 23.03.2020
6211 Mist 0 1020 86 9656 2.6 350 11:20 23.03.2020
6212 Mist 0 1020 86 9656 2.6 350 11:20 23.03.2020
6213 Mist 0 1020 97 4828 1.74 291 10:58 23.03.2020
6214 Rain 0 1020 86 8047 2.6 10 10:38 23.03.2020
6215 Rain 0 1020 86 8047 2.6 10 10:38 23.03.2020
6216 Rain 0 1020 97 3219 1.74 291 10:20 23.03.2020
6217 Rain 0 1020 100 2012 1.74 291 09:44 23.03.2020
6218 Rain 0 1021 97 3219 1.74 291 09:21 23.03.2020
6219 Snow 0 1021 97 4828 1.74 291 08:57 23.03.2020
6220 Snow 0 1021 100 2414 1.5 10 08:36 23.03.2020
6221 Snow 0 1021 97 4023 2.55 169 08:18 23.03.2020
6222 Snow 0 1021 97 3219 2.55 169 07:45 23.03.2020
6223 Snow 0 1022 97 4023 2.55 169 07:27 23.03.2020
6224 Snow 0 1022 97 2816 2.55 169 06:51 23.03.2020
6225 Snow 0 1023 97 3219 2.55 169 05:54 23.03.2020
6226 Snow 0 1023 97 2816 2.55 169 05:29 23.03.2020
6227 Snow 0 1025 98 3219 1.5 100 03:29 23.03.2020
6228 Snow -1 1025 97 3219 2.6 110 01:51 23.03.2020
6229 Snow 0 1025 97 3219 2.6 110 01:33 23.03.2020
6230 Snow 0 1025 97 1207 3.1 120 00:39 23.03.2020
6231 Snow -1 1026 97 1207 2.1 130 23:48 22.03.2020
6232 Snow -1 1026 97 805 1.5 140 23:26 22.03.2020
6233 Snow 0 1027 66 1207 2.6 150 22:47 22.03.2020
6234 Snow 0 1027 66 1207 2.1 140 22:26 22.03.2020
6235 Snow 0 1027 66 1207 4.6 170 21:57 22.03.2020
6236 Snow 1 1027 80 1609 3.1 140 21:39 22.03.2020
6237 Snow 1 1028 66 2012 3.1 170 21:20 22.03.2020
6238 Clouds 1 1028 55 16093 4.1 160 20:54 22.03.2020
6239 Clouds 1 1028 64 16093 3.6 120 20:36 22.03.2020
6240 Clouds 1 1028 64 16093 3.6 120 20:18 22.03.2020
6241 Rain 1 1029 55 16093 4.1 110 19:54 22.03.2020
6242 Rain 1 1030 64 16093 4.6 130 19:36 22.03.2020
6243 Rain 1 1030 64 16093 4.6 130 19:18 22.03.2020
6244 Clear 1 1030 59 16093 5.1 130 18:41 22.03.2020
6245 Clear 1 1030 59 16093 5.1 130 18:22 22.03.2020
6246 Clear 1 1030 59 16093 5.1 130 18:22 22.03.2020
6247 Clear 1 1030 55 16093 6.2 140 17:59 22.03.2020
6248 Clear 1 1030 55 16093 6.2 140 17:59 22.03.2020
6249 Clouds 1 1031 63 16093 6.7 130 17:39 22.03.2020
6250 Clouds 0 1031 59 16093 5.7 130 17:21 22.03.2020
6251 Clouds 0 1031 72 16093 6.7 130 17:21 22.03.2020
6252 Clouds 0 1031 59 16093 5.7 130 16:59 22.03.2020
6253 Clouds 0 1032 72 16093 7.2 130 16:41 22.03.2020
6254 Clouds 0 1032 72 16093 7.2 130 16:22 22.03.2020
6255 Clouds 0 1032 72 16093 5.7 130 15:58 22.03.2020
6256 Clouds 0 1033 72 16093 5.7 130 15:39 22.03.2020
6257 Clouds -1 1032 74 16093 3.1 130 14:47 22.03.2020
6258 Clouds -1 1033 79 16093 4.6 100 14:19 22.03.2020
6259 Clouds -2 1033 68 16093 5.1 110 13:57 22.03.2020
6260 Clouds -2 1033 68 16093 3.1 110 13:39 22.03.2020
6261 Clouds -3 1034 79 16093 3.1 100 13:19 22.03.2020
6262 Clouds -3 1033 79 16093 2.1 110 12:44 22.03.2020
6263 -273 0 0 0 0 0 12:20 22.03.2020
6264 Clouds -3 1033 79 16093 4.1 100 11:56 22.03.2020
6265 Clouds -3 1033 79 16093 2.6 100 11:38 22.03.2020
6266 Clear -3 1033 74 16093 2.6 100 11:19 22.03.2020
6267 Clouds -4 1032 79 16093 2.1 80 10:43 22.03.2020
6268 Clear -4 1033 79 16093 2.1 80 10:24 22.03.2020
6269 Clear -4 1033 79 16093 2.1 80 10:24 22.03.2020
6270 Clear -4 1034 68 16093 2.1 110 09:49 22.03.2020
6271 Clear -4 1034 85 16093 2.6 100 09:30 22.03.2020
6272 Clear -4 1034 68 16093 2.6 100 08:55 22.03.2020
6273 Clear -4 1034 79 16093 2.1 80 08:36 22.03.2020
6274 Clear -4 1034 79 16093 2.1 80 08:36 22.03.2020
6275 Clear -4 1034 79 16093 2.1 80 08:18 22.03.2020
6276 Clear -4 1035 68 16093 2.6 90 07:48 22.03.2020
6277 Clear -4 1034 79 16093 2.1 80 07:18 22.03.2020
6278 Clear -4 1034 73 16093 1.5 100 05:54 22.03.2020
6279 Clear -4 1035 63 16093 2.6 60 04:58 22.03.2020
6280 Clear -3 1034 68 16093 2.1 90 02:43 22.03.2020
6281 Clouds -2 1035 68 16093 2.1 30 01:20 22.03.2020
6282 Clouds -1 1035 63 16093 3.1 30 00:35 22.03.2020
6283 Clouds -1 1035 54 16093 4.1 100 23:57 21.03.2020
6284 Clouds 0 1035 63 16093 2.1 20 23:38 21.03.2020
6285 Clouds 0 1035 58 16093 2.6 40 23:18 21.03.2020
6286 Snow 0 1035 68 16093 2.6 360 22:38 21.03.2020
6287 Snow 0 1035 68 16093 2.6 360 22:38 21.03.2020
6288 Rain 0 1035 68 16093 2.6 360 22:20 21.03.2020
6289 Clouds 0 1035 58 16093 4.6 70 21:59 21.03.2020
6290 Clouds 1 1035 68 16093 2.6 350 21:39 21.03.2020
6291 Clouds 0 1035 68 16093 2.6 350 21:21 21.03.2020
6292 Clouds 0 1035 50 16093 3.1 40 20:46 21.03.2020
6293 Clouds 0 1036 68 16093 3.1 30 20:23 21.03.2020
6294 Clouds 0 1036 58 16093 3.1 70 19:57 21.03.2020
6295 Clouds 0 1036 63 16093 4.6 50 19:39 21.03.2020
6296 Clouds 0 1036 74 16093 2.1 360 19:20 21.03.2020
6297 Clouds 0 1036 58 16093 3.1 50 18:54 21.03.2020
6298 Clouds 0 1036 63 16093 4.71 39 18:36 21.03.2020
6299 Clouds -1 1036 58 16093 4.1 90 18:18 21.03.2020
6300 Clouds -1 1037 58 16093 3.1 50 17:42 21.03.2020
6301 Clouds -1 1036 58 16093 3.1 50 17:23 21.03.2020
6302 Clouds -1 1036 63 16093 3.6 60 16:57 21.03.2020
6303 Clouds -1 1037 58 16093 4.1 20 16:38 21.03.2020
6304 Clouds -2 1036 68 16093 4.1 30 16:18 21.03.2020
6305 Clouds -2 1036 63 16093 5.1 40 16:18 21.03.2020
6306 Clouds -2 1036 68 16093 3.6 90 15:42 21.03.2020
6307 Clouds -2 1035 68 16093 3.6 40 15:23 21.03.2020
6308 Clouds -2 1035 63 16093 7.2 30 14:58 21.03.2020
6309 Clouds -2 1036 68 16093 4.6 50 14:40 21.03.2020
6310 Clouds -2 1035 68 16093 5.1 50 14:20 21.03.2020
6311 Clouds -3 1035 63 16093 6.7 60 13:59 21.03.2020
6312 Clouds -3 1035 68 16093 1.5 20 13:40 21.03.2020
6313 Clouds -3 1035 68 16093 5.1 40 13:22 21.03.2020
6314 Clouds -3 1035 68 16093 7.2 50 12:59 21.03.2020
6315 Clouds -3 1034 68 16093 2.6 40 12:38 21.03.2020
6316 Clouds -3 1034 68 16093 2.6 40 12:19 21.03.2020
6317 Clouds -3 1034 68 16093 2.6 40 12:19 21.03.2020
6318 Clouds -3 1034 68 16093 3.1 30 11:56 21.03.2020
6319 Clouds -3 1034 68 16093 6.2 20 11:38 21.03.2020
6320 Clouds -3 1034 63 16093 5.7 10 11:19 21.03.2020
6321 Clouds -3 1034 79 16093 6.2 40 10:56 21.03.2020
6322 Clouds -3 1034 63 16093 6.2 10 10:38 21.03.2020
6323 Clouds -3 1033 58 16093 5.7 10 10:19 21.03.2020
6324 Clouds -3 1034 63 16093 6.2 20 09:55 21.03.2020
6325 Clouds -2 1034 63 16093 7.2 30 09:37 21.03.2020
6326 Clouds -2 1034 63 16093 7.2 30 09:18 21.03.2020
6327 Clouds -2 1034 63 16093 7.2 30 08:43 21.03.2020
6328 Clouds -2 1034 63 16093 7.2 30 08:24 21.03.2020
6329 Clouds -2 1033 68 16093 4.1 30 07:45 21.03.2020
6330 Clouds -1 1034 68 16093 6.2 40 07:27 21.03.2020
6331 Clouds -1 1034 73 16093 7.2 10 06:48 21.03.2020
6332 Clouds -1 1034 74 16093 3.1 60 06:28 21.03.2020
6333 Clouds -1 1033 73 16093 7.2 30 05:46 21.03.2020
6334 Clouds 0 1032 74 16093 3.1 60 04:46 21.03.2020
6335 Clouds 0 1032 59 16093 6.7 30 02:51 21.03.2020
6336 Clouds 0 1031 74 16093 5.7 30 02:33 21.03.2020
6337 Clouds 1 1030 70 16093 3.6 20 01:32 21.03.2020
6338 Clouds 1 1030 59 16093 6.7 20 00:48 21.03.2020
6339 Clouds 1 1029 69 16093 5.1 30 00:26 21.03.2020
6340 Clouds 1 1028 55 16093 3.6 20 23:51 20.03.2020
6341 Clouds 2 1028 74 16093 6.7 10 23:27 20.03.2020
6342 Clouds 2 1028 69 16093 7.7 30 22:59 20.03.2020
6343 Clouds 2 1028 69 16093 7.7 30 22:59 20.03.2020
6344 Clouds 2 1026 80 16093 8.2 20 22:40 20.03.2020
6345 Clouds 2 1026 80 16093 8.2 20 22:21 20.03.2020
6346 Clouds 2 1026 69 16093 8.2 30 21:56 20.03.2020
6347 Clouds 3 1025 80 16093 8.2 10 21:38 20.03.2020
6348 Rain 3 1025 80 16093 8.2 10 21:18 20.03.2020
6349 Rain 3 1025 64 16093 7.2 350 20:55 20.03.2020
6350 Rain 3 1024 60 16093 8.2 350 20:37 20.03.2020
6351 Clouds 4 1024 77 16093 5.7 10 20:18 20.03.2020
6352 Clouds 4 1023 60 16093 6.2 350 19:44 20.03.2020
6353 Clouds 4 1023 80 16093 4.6 30 19:18 20.03.2020
6354 Clouds 4 1023 69 16093 7.7 340 18:55 20.03.2020
6355 Clouds 4 1023 69 16093 7.2 340 18:36 20.03.2020
6356 Clouds 4 1023 69 16093 7.2 340 18:18 20.03.2020
6357 Clouds 4 1023 69 16093 7.2 340 18:18 20.03.2020
6358 Clouds 4 1021 69 16093 5.1 340 17:39 20.03.2020
6359 Clouds 4 1021 69 16093 5.1 340 17:21 20.03.2020
6360 Clouds 4 1020 80 16093 7.2 340 16:57 20.03.2020
6361 Clouds 4 1020 80 16093 5.1 360 16:39 20.03.2020
6362 Clouds 4 1020 80 16093 5.1 360 16:39 20.03.2020
6363 Clouds 4 1019 80 16093 6.7 340 16:18 20.03.2020
6364 Clouds 4 1019 80 16093 5.7 330 15:42 20.03.2020
6365 Clouds 4 1018 86 16093 4.6 340 15:21 20.03.2020
6366 Rain 4 1017 86 16093 4.1 360 14:54 20.03.2020
6367 Rain 4 1016 86 16093 8.2 340 14:36 20.03.2020
6368 Rain 4 1016 93 6437 3.1 330 14:18 20.03.2020
6369 Clouds 4 1015 93 16093 3.1 350 13:40 20.03.2020
6370 Clouds 4 1013 86 16093 7.2 330 13:19 20.03.2020
6371 Mist 4 1012 100 4023 8.2 330 12:39 20.03.2020
6372 Clouds 5 1012 93 8047 5.1 340 12:20 20.03.2020
6373 Clouds 5 1011 93 16093 7.7 330 11:57 20.03.2020
6374 Rain 6 1009 87 16093 5.7 340 11:38 20.03.2020
6375 Rain 6 1009 87 16093 5.7 340 11:18 20.03.2020
6376 Rain 6 1007 93 16093 2.6 10 10:41 20.03.2020
6377 Rain 7 1007 100 16093 5.1 360 10:21 20.03.2020
6378 Rain 8 1007 100 16093 5.1 340 09:55 20.03.2020
6379 Rain 8 1007 100 16093 5.1 340 09:55 20.03.2020
6380 Rain 10 1006 93 11265 3.6 30 09:37 20.03.2020
6381 Rain 11 1006 93 16093 10.8 230 09:18 20.03.2020
6382 Rain 12 1005 82 16093 4.1 210 08:41 20.03.2020
6383 Rain 13 1005 87 16093 9.3 220 08:22 20.03.2020
6384 Rain 15 1006 77 16093 5.7 210 07:48 20.03.2020
6385 Clouds 15 1006 87 16093 7.7 210 07:30 20.03.2020
6386 Rain 16 1006 87 16093 4.6 330 06:51 20.03.2020
6387 Rain 16 1006 87 16093 7.7 220 06:32 20.03.2020
6388 Rain 16 1005 93 16093 4.6 220 04:51 20.03.2020
6389 Rain 16 1006 100 16093 8.2 210 03:21 20.03.2020
6390 Rain 16 1005 100 16093 5.1 210 01:57 20.03.2020
6391 Rain 14 1004 100 4828 1.5 170 00:51 20.03.2020
6392 Rain 14 1005 100 4023 1.5 140 00:29 20.03.2020
6393 Drizzle 13 1005 93 2414 2.6 160 23:47 19.03.2020
6394 Rain 12 1005 100 4828 3.1 190 23:28 19.03.2020
6395 Rain 12 1006 100 6437 4.6 180 22:56 19.03.2020
6396 Rain 11 1007 100 2414 5.1 140 22:38 19.03.2020
6397 Drizzle 11 1007 100 16093 6.7 150 22:19 19.03.2020
6398 Rain 11 1008 100 3219 4.1 140 21:42 19.03.2020
6399 Rain 10 1009 100 8047 5.1 150 21:20 19.03.2020
6400 Rain 10 1009 100 6437 5.1 170 20:59 19.03.2020
6401 Rain 10 1011 100 11265 5.7 150 20:41 19.03.2020
6402 Rain 10 1011 100 11265 5.7 150 20:22 19.03.2020
6403 Rain 9 1011 100 6437 4.1 160 19:55 19.03.2020
6404 Rain 9 1012 93 3219 2.6 130 19:37 19.03.2020
6405 Rain 8 1013 100 6437 5.7 140 19:19 19.03.2020
6406 Rain 8 1013 87 8047 5.1 160 18:42 19.03.2020
6407 Rain 8 1013 93 8047 3.6 160 18:22 19.03.2020
6408 Rain 8 1014 100 2414 5.7 160 17:58 19.03.2020
6409 Clouds 7 1014 100 8047 4.6 140 17:40 19.03.2020
6410 Clouds 7 1014 100 8047 4.6 140 17:19 19.03.2020
6411 Rain 7 1015 100 6437 3.6 110 16:43 19.03.2020
6412 Rain 6 1016 100 8047 6.7 130 16:23 19.03.2020
6413 Clouds 6 1016 100 1207 4.1 120 15:45 19.03.2020
6414 Mist 6 1017 100 3219 3.1 140 15:27 19.03.2020
6415 Mist 5 1017 100 2816 5.1 130 14:58 19.03.2020
6416 Rain 5 1017 100 1609 5.1 150 14:40 19.03.2020
6417 Rain 5 1018 100 1207 5.1 150 14:19 19.03.2020
6418 Fog 5 1017 93 402 4.1 140 13:40 19.03.2020
6419 Mist 5 1019 100 2012 3.1 130 13:19 19.03.2020
6420 Clouds 5 1019 100 402 2.6 160 12:55 19.03.2020
6421 Rain 5 1018 93 402 3.6 110 12:37 19.03.2020
6422 Rain 5 1018 93 402 3.6 110 12:18 19.03.2020
6423 Rain 4 1019 93 2414 3.6 140 11:41 19.03.2020
6424 Rain 4 1018 100 4023 3.6 110 11:23 19.03.2020
6425 Rain 4 1019 86 6437 1.5 110 10:56 19.03.2020
6426 Rain 4 1019 86 6437 1.5 110 10:36 19.03.2020
6427 Mist 4 1020 100 4828 3.6 140 10:18 19.03.2020
6428 Mist 4 1020 100 6437 2.1 100 09:44 19.03.2020
6429 Rain 4 1020 100 6437 2.1 100 09:25 19.03.2020
6430 Rain 4 1020 93 6437 2.6 80 08:48 19.03.2020
6431 Rain 4 1020 93 6437 2.6 80 08:23 19.03.2020
6432 Rain 4 1020 93 6437 2.6 80 08:23 19.03.2020
6433 Rain 4 1020 100 6437 1.5 90 07:59 19.03.2020
6434 Clouds 4 1019 100 4828 2.1 90 07:38 19.03.2020
6435 Rain 4 1020 93 8047 3.6 90 07:19 19.03.2020
6436 Rain 4 1019 93 4828 2.6 70 06:27 19.03.2020
6437 Clouds 5 1020 100 6437 1.5 90 05:25 19.03.2020
6438 Rain 5 1019 100 6437 2.1 60 04:51 19.03.2020
6439 Rain 5 1019 100 4828 2.6 70 04:21 19.03.2020
6440 Rain 5 1019 93 8047 4.1 60 01:58 19.03.2020
6441 Rain 6 1017 87 4828 2.6 110 00:53 19.03.2020
6442 Rain 6 1017 93 4828 2.6 50 00:20 19.03.2020
6443 Rain 6 1016 93 6437 3.1 90 23:44 18.03.2020
6444 Rain 6 1016 93 6437 3.1 90 23:26 18.03.2020
6445 Rain 6 1016 93 6437 5.1 90 22:43 18.03.2020
6446 Rain 6 1017 100 4828 4.1 90 22:23 18.03.2020
6447 Rain 6 1017 100 2816 3.6 100 21:58 18.03.2020
6448 Rain 6 1017 100 3219 4.1 80 21:40 18.03.2020
6449 Rain 6 1017 93 4828 2.6 90 21:20 18.03.2020
6450 Rain 6 1017 100 4023 4.6 100 20:55 18.03.2020
6451 Rain 6 1018 93 4023 4.6 80 20:37 18.03.2020
6452 Rain 6 1018 93 6437 2.6 80 20:19 18.03.2020
6453 Rain 6 1019 93 4023 3.1 80 19:41 18.03.2020
6454 Rain 6 1019 93 11265 3.1 100 19:21 18.03.2020
6455 Rain 6 1019 81 16093 1.5 150 18:59 18.03.2020
6456 Rain 6 1019 70 16093 1.5 130 18:40 18.03.2020
6457 Rain 6 1019 70 16093 1.5 130 18:19 18.03.2020
6458 Rain 6 1019 70 16093 1.5 130 18:19 18.03.2020
6459 Rain 6 1020 87 8047 2.1 120 17:56 18.03.2020
6460 Rain 6 1020 75 16093 3.6 140 17:38 18.03.2020
6461 Clouds 6 1021 70 12874 4.1 170 17:19 18.03.2020
6462 Clouds 6 1020 65 16093 2.6 130 16:43 18.03.2020
6463 Clouds 6 1021 75 16093 3.6 150 16:21 18.03.2020
6464 Clouds 6 1021 70 14484 4.1 140 15:58 18.03.2020
6465 Clouds 5 1022 75 16093 2.6 150 15:38 18.03.2020
6466 Clouds 5 1022 75 16093 2.6 150 15:20 18.03.2020
6467 Clouds 4 1022 88 16093 3.6 130 14:43 18.03.2020
6468 Clouds 4 1022 81 16093 3.6 130 14:21 18.03.2020
6469 Clouds 4 1023 60 16093 3.6 120 13:42 18.03.2020
6470 Clouds 4 1022 60 16093 2.6 110 13:19 18.03.2020
6471 Clouds 4 1022 60 16093 2.6 110 13:19 18.03.2020
6472 Clouds 3 1023 55 16093 3.6 120 12:55 18.03.2020
6473 Clouds 3 1023 55 16093 3.6 120 12:37 18.03.2020
6474 Clouds 3 1022 55 16093 2.1 100 12:19 18.03.2020
6475 Clouds 3 1024 51 16093 3.1 110 11:38 18.03.2020
6476 Clouds 3 1024 51 16093 3.1 110 11:19 18.03.2020
6477 Clear 3 1023 74 16093 2.6 110 10:57 18.03.2020
6478 Clear 3 1024 69 16093 2.6 100 10:37 18.03.2020
6479 Clear 3 1024 69 16093 2.6 100 10:19 18.03.2020
6480 Clouds 3 1024 44 16093 2.1 130 09:43 18.03.2020
6481 Clear 3 1025 59 16093 2.1 110 09:23 18.03.2020
6482 Clear 3 1025 44 16093 2.6 170 08:55 18.03.2020
6483 Clear 3 1025 55 16093 1.5 130 08:37 18.03.2020
6484 Clear 3 1025 55 16093 1.5 130 08:19 18.03.2020
6485 Clear 3 1024 41 16093 3.1 130 07:43 18.03.2020
6486 Clear 3 1024 44 16093 2.6 120 07:25 18.03.2020
6487 Clear 3 1025 44 16093 2.1 130 06:44 18.03.2020
6488 Clear 3 1025 40 16093 2.6 110 05:56 18.03.2020
6489 Clear 3 1026 40 16093 2.1 110 05:33 18.03.2020
6490 Clear 2 1026 40 16093 2.1 110 03:56 18.03.2020
6491 Clear 3 1027 34 16093 2.1 90 02:40 18.03.2020
6492 Clouds 4 1026 40 16093 4.81 123 01:46 18.03.2020
6493 Clouds 5 1025 35 16093 4.6 110 01:21 18.03.2020
6494 Clear 7 1024 33 16093 4.99 126 00:23 18.03.2020
6495 Clouds 8 1025 25 16093 4.1 60 23:47 17.03.2020
6496 Clear 8 1024 33 16093 4.99 126 23:26 17.03.2020
6497 Clouds 8 1026 20 16093 4.1 50 22:47 17.03.2020
6498 Clear 8 1025 33 16093 3.97 101 22:29 17.03.2020
6499 Clouds 8 1025 36 16093 4.6 110 21:59 17.03.2020
6500 Clear 8 1026 45 16093 4.1 70 21:37 17.03.2020
6501 Clear 8 1026 45 16093 4.1 70 21:19 17.03.2020
6502 Clear 7 1026 45 16093 4.1 70 20:39 17.03.2020
6503 Clear 7 1026 45 16093 4.1 70 20:21 17.03.2020
6504 Clouds 7 1026 31 16093 3.6 350 19:56 17.03.2020
6505 Clear 7 1026 48 16093 3.1 20 19:38 17.03.2020
6506 Clear 6 1026 48 16093 3.1 20 19:18 17.03.2020
6507 Clear 6 1027 45 16093 2.6 340 18:54 17.03.2020
6508 Clear 6 1026 44 16093 4.6 340 18:36 17.03.2020
6509 Clear 5 1026 44 16093 4.6 340 18:18 17.03.2020
6510 Clouds 5 1026 28 16093 3.6 10 18:18 17.03.2020
6511 Clouds 4 1026 60 16093 3.1 350 17:40 17.03.2020
6512 Clouds 4 1026 48 16093 4.6 310 17:20 17.03.2020
6513 Clear 4 1026 47 16093 3.6 320 16:44 17.03.2020
6514 Clouds 3 1025 60 16093 4.6 320 16:20 17.03.2020
6515 Clouds 3 1025 60 16093 4.6 320 15:56 17.03.2020
6516 Clouds 3 1025 60 16093 4.6 320 15:56 17.03.2020
6517 Clouds 2 1025 67 16093 2.6 300 15:38 17.03.2020
6518 Clouds 2 1025 67 16093 2.6 300 15:18 17.03.2020
6519 Clouds 2 1024 86 16093 4.6 290 14:41 17.03.2020
6520 Clouds 1 1024 86 16093 4.6 290 14:18 17.03.2020
6521 Clouds 1 1023 86 16093 3.6 270 13:43 17.03.2020
6522 Clouds 2 1023 86 16093 3.6 270 13:24 17.03.2020
6523 Clouds 2 1022 85 16093 3.6 270 12:54 17.03.2020
6524 Clouds 2 1022 85 16093 3.6 270 12:36 17.03.2020
6525 Clouds 2 1022 93 16093 2.6 300 12:18 17.03.2020
6526 Clouds 3 1021 93 16093 2.6 280 11:42 17.03.2020
6527 Clouds 3 1021 93 16093 3.6 280 11:24 17.03.2020
6528 Clouds 3 1022 93 11265 4.6 280 10:57 17.03.2020
6529 Clouds 3 1021 93 11265 2.6 270 10:37 17.03.2020
6530 Clouds 3 1021 93 11265 2.6 270 10:18 17.03.2020
6531 Clouds 3 1021 93 11265 2.6 280 09:46 17.03.2020
6532 Clouds 3 1021 93 11265 3.1 270 09:20 17.03.2020
6533 Clouds 3 1021 93 11265 5.85 283 08:59 17.03.2020
6534 Clouds 3 1021 93 11265 3.1 270 08:41 17.03.2020
6535 Clouds 3 1021 93 11265 3.1 270 08:20 17.03.2020
6536 Rain 3 1021 100 11265 2.1 270 07:49 17.03.2020
6537 Rain 3 1021 100 11265 2.6 270 07:21 17.03.2020
6538 Clouds 3 1020 93 6437 1.5 260 06:52 17.03.2020
6539 Clouds 3 1020 93 6437 1.5 260 06:25 17.03.2020
6540 Rain 3 1021 93 8047 4.1 280 05:34 17.03.2020
6541 Drizzle 3 1022 93 2816 2.6 250 03:36 17.03.2020
6542 Rain 3 1022 100 3219 1.5 220 02:31 17.03.2020
6543 Drizzle 3 1021 86 8047 2.1 220 01:39 17.03.2020
6544 Drizzle 3 1022 100 4828 1.5 230 01:18 17.03.2020
6545 Mist 4 1022 93 4828 2.6 240 00:19 17.03.2020
6546 Clouds 4 1022 86 14484 3.6 200 23:43 16.03.2020
6547 Clouds 4 1021 86 16093 3.1 240 23:22 16.03.2020
6548 Clouds 4 1022 86 12874 2.6 210 22:38 16.03.2020
6549 Clouds 4 1022 80 16093 3.1 220 22:20 16.03.2020
6550 Clouds 4 1022 93 8047 2.1 250 21:45 16.03.2020
6551 Clouds 4 1023 86 16093 3.1 220 21:27 16.03.2020
6552 Clouds 3 1023 93 4828 2.6 240 20:59 16.03.2020
6553 Drizzle 3 1023 86 6437 3.6 210 20:40 16.03.2020
6554 Clouds 3 1024 86 16093 3.1 200 20:21 16.03.2020
6555 Clouds 3 1024 100 8047 3.6 230 19:47 16.03.2020
6556 Rain 3 1025 86 16093 2.1 210 19:25 16.03.2020
6557 Rain 2 1025 93 12874 2.1 200 18:59 16.03.2020
6558 Rain 2 1025 93 11265 2.6 170 18:40 16.03.2020
6559 Rain 2 1025 93 4828 2.1 190 18:20 16.03.2020
6560 Rain 2 1026 81 2012 4.91 201 17:46 16.03.2020
6561 Rain 2 1026 81 1609 4.91 201 17:26 16.03.2020
6562 Rain 2 1026 69 12874 2.6 200 16:58 16.03.2020
6563 Clouds 2 1027 74 16093 2.6 180 16:40 16.03.2020
6564 Clouds 2 1027 74 16093 2.6 180 16:21 16.03.2020
6565 Clouds 2 1026 80 16093 4.78 188 15:43 16.03.2020
6566 Clouds 2 1027 74 16093 2.6 150 15:24 16.03.2020
6567 Clouds 1 1027 86 16093 4.78 188 14:48 16.03.2020
6568 Clouds 0 1028 79 16093 2.6 130 14:24 16.03.2020
6569 Clear 0 1028 92 16093 6.19 156 13:51 16.03.2020
6570 Clouds 0 1028 80 16093 2.6 140 13:29 16.03.2020
6571 Clouds -1 1028 74 16093 4.6 140 12:58 16.03.2020
6572 Clear -1 1029 100 16093 1.5 110 12:39 16.03.2020
6573 Clouds -1 1028 80 16093 3.1 140 12:20 16.03.2020
6574 Clouds -1 1029 80 16093 1.5 140 11:44 16.03.2020
6575 Rain -1 1029 80 16093 1.5 140 11:26 16.03.2020
6576 Clear -2 1028 92 16093 5.63 157 10:45 16.03.2020
6577 Clear -2 1029 92 16093 5.63 157 10:25 16.03.2020
6578 Clouds -2 1029 86 16093 2.1 140 09:59 16.03.2020
6579 Clear -2 1030 92 16093 2.1 120 09:38 16.03.2020
6580 Clouds -1 1030 86 16093 1.5 100 09:19 16.03.2020
6581 Clear -2 1030 83 11265 1.5 120 08:43 16.03.2020
6582 Clear -2 1030 100 11265 1.5 100 08:23 16.03.2020
6583 Clear -1 1031 100 11265 4.84 137 07:43 16.03.2020
6584 Clear -1 1031 100 16093 4.84 137 07:21 16.03.2020
6585 Clouds -1 1031 80 16093 1.5 80 07:21 16.03.2020
6586 Clear -1 1032 82 16093 4.84 137 06:41 16.03.2020
6587 Clouds -1 1031 74 16093 2.6 60 06:22 16.03.2020
6588 Clear 0 1033 86 16093 2.1 40 04:26 16.03.2020
6589 Clear 1 1034 69 16093 1.5 50 01:47 16.03.2020
6590 Clear 3 1034 64 16093 2.1 100 00:46 16.03.2020
6591 Clear 3 1034 69 16093 3.1 20 00:27 16.03.2020
6592 Clear 4 1035 64 16093 1.5 30 23:40 15.03.2020
6593 Clear 4 1035 64 16093 1.5 30 23:19 15.03.2020
6594 Clear 5 1035 60 16093 1.5 30 22:42 15.03.2020
6595 Clear 5 1035 60 16093 1.5 30 22:21 15.03.2020
6596 Clear 5 1035 60 16093 5.7 10 21:39 15.03.2020
6597 Clouds 5 1036 51 16093 5.1 30 21:21 15.03.2020
6598 Clouds 5 1036 51 16093 5.1 30 20:58 15.03.2020
6599 Clear 5 1036 60 16093 6.2 40 20:40 15.03.2020
6600 Clear 5 1036 60 16093 6.2 40 20:19 15.03.2020
6601 Clouds 4 1036 51 16093 6.2 30 19:55 15.03.2020
6602 Clouds 4 1036 51 16093 6.2 30 19:55 15.03.2020
6603 Clouds 4 1037 55 16093 3.1 0 19:37 15.03.2020
6604 Clear 4 1037 55 16093 5.1 50 19:18 15.03.2020
6605 Clouds 3 1037 55 16093 5.7 30 18:42 15.03.2020
6606 Clouds 3 1038 59 16093 4.1 70 18:24 15.03.2020
6607 Clouds 3 1038 59 16093 5.1 90 17:59 15.03.2020
6608 Clouds 2 1038 69 16093 5.1 30 17:39 15.03.2020
6609 Clouds 2 1038 69 16093 5.1 30 17:20 15.03.2020
6610 Clouds 2 1038 74 16093 4.6 60 16:55 15.03.2020
6611 Clouds 1 1038 74 16093 4.6 40 16:37 15.03.2020
6612 Clouds 1 1038 74 16093 4.6 40 16:18 15.03.2020
6613 Clouds 1 1038 74 16093 3.1 70 15:42 15.03.2020
6614 Clouds 1 1038 80 16093 5.1 70 15:22 15.03.2020
6615 Clouds 1 1037 74 16093 3.1 70 14:47 15.03.2020
6616 Clouds 1 1037 83 16093 3.6 50 14:28 15.03.2020
6617 Clouds 0 1037 74 16093 6.2 40 13:59 15.03.2020
6618 Clear 0 1037 83 16093 2.6 40 13:39 15.03.2020
6619 Clear 0 1037 83 16093 2.6 40 13:21 15.03.2020
6620 Clouds 0 1037 74 16093 4.6 50 12:57 15.03.2020
6621 Clouds 0 1036 85 16093 2.6 20 12:38 15.03.2020
6622 Clouds 0 1036 85 16093 2.6 20 12:20 15.03.2020
6623 Clouds 0 1036 85 16093 4.6 30 11:40 15.03.2020
6624 Clouds 0 1036 69 16093 5.1 40 11:22 15.03.2020
6625 Clouds 0 1036 88 16093 5.1 40 10:56 15.03.2020
6626 Clouds 0 1035 88 16093 4.6 30 10:38 15.03.2020
6627 Clouds 0 1035 88 16093 4.6 30 10:20 15.03.2020
6628 Clouds 0 1035 74 16093 2.6 50 09:41 15.03.2020
6629 Clouds 0 1035 80 16093 5.1 40 09:22 15.03.2020
6630 Clouds 0 1035 88 16093 2.6 40 08:54 15.03.2020
6631 Clouds 0 1035 80 16093 4.1 40 08:36 15.03.2020
6632 Clouds 0 1035 80 16093 4.1 40 08:18 15.03.2020
6633 Clouds 0 1035 84 16093 2.6 30 07:44 15.03.2020
6634 Clouds 0 1035 74 16093 5.7 20 06:54 15.03.2020
6635 Clouds 0 1035 80 16093 3.1 30 06:24 15.03.2020
6636 Clouds 0 1035 84 16093 4.6 40 05:21 15.03.2020
6637 Clouds 0 1035 80 16093 3.1 20 04:43 15.03.2020
6638 Clouds 0 1035 80 16093 3.1 20 04:25 15.03.2020
6639 Clouds 0 1034 84 16093 1.5 360 03:54 15.03.2020
6640 Clouds 0 1034 84 16093 3.6 30 02:47 15.03.2020
6641 Snow 0 1034 80 11265 8.2 30 01:40 15.03.2020
6642 Snow 0 1034 80 3219 4.6 30 00:47 15.03.2020
6643 Snow 0 1034 86 1207 6.7 30 00:27 15.03.2020
6644 Rain 1 1033 80 4828 4.6 40 23:56 14.03.2020
6645 Rain 1 1033 80 11265 7.7 40 23:37 14.03.2020
6646 Rain 1 1033 80 11265 7.7 40 23:18 14.03.2020
6647 Mist 1 1033 74 8047 7.7 30 22:44 14.03.2020
6648 Clouds 1 1033 74 16093 3.1 10 22:26 14.03.2020
6649 Rain 2 1031 88 16093 5.7 360 21:57 14.03.2020
6650 Snow 2 1033 74 9656 4.1 30 21:36 14.03.2020
6651 Snow 2 1031 86 11265 3.1 360 21:18 14.03.2020
6652 Snow 2 1032 59 16093 2.6 50 20:59 14.03.2020
6653 Clouds 2 1033 59 16093 3.1 30 20:40 14.03.2020
6654 Snow 2 1032 80 6437 2.6 30 20:19 14.03.2020
6655 Clouds 2 1032 59 16093 2.1 320 19:44 14.03.2020
6656 Clouds 3 1032 59 16093 2.1 320 19:25 14.03.2020
6657 Snow 3 1033 80 4828 2.6 50 18:56 14.03.2020
6658 Clouds 3 1033 64 16093 2.6 50 18:37 14.03.2020
6659 Clouds 3 1033 59 16093 3.6 100 18:19 14.03.2020
6660 Clouds 3 1032 59 16093 1.5 80 17:39 14.03.2020
6661 Clouds 3 1032 59 16093 1.5 80 17:20 14.03.2020
6662 Clouds 3 1033 64 16093 2.1 30 16:41 14.03.2020
6663 Clouds 3 1033 64 16093 2.1 30 16:23 14.03.2020
6664 Clouds 2 1034 59 16093 3.1 60 15:58 14.03.2020
6665 Clouds 2 1033 59 16093 2.6 70 15:27 14.03.2020
6666 Clouds 2 1033 59 16093 5.1 60 14:58 14.03.2020
6667 Clouds 2 1033 64 16093 3.1 70 14:37 14.03.2020
6668 Clouds 2 1033 64 16093 3.1 70 14:18 14.03.2020
6669 Clouds 2 1032 59 16093 3.6 70 13:42 14.03.2020
6670 Clouds 2 1031 55 16093 3.1 50 13:23 14.03.2020
6671 Clouds 2 1032 59 16093 3.6 40 12:57 14.03.2020
6672 Clouds 2 1031 51 16093 3.6 60 12:38 14.03.2020
6673 Clouds 2 1031 51 16093 3.6 60 12:20 14.03.2020
6674 Clouds 2 1031 59 16093 4.6 40 11:42 14.03.2020
6675 Clouds 2 1030 51 16093 2.6 50 11:24 14.03.2020
6676 Clouds 2 1030 51 16093 1.5 50 10:46 14.03.2020
6677 Clouds 2 1031 55 16093 4.6 50 10:27 14.03.2020
6678 Clouds 3 1031 38 16093 4.1 40 09:58 14.03.2020
6679 Clouds 3 1031 48 16093 4.1 10 09:40 14.03.2020
6680 Clouds 3 1031 48 16093 4.1 10 09:20 14.03.2020
6681 Clear 3 1030 51 16093 3.1 20 08:46 14.03.2020
6682 Clouds 3 1031 48 16093 3.1 10 08:24 14.03.2020
6683 Clouds 4 1031 44 16093 2.1 350 07:39 14.03.2020
6684 Clouds 4 1031 44 16093 2.1 350 07:20 14.03.2020
6685 Clear 4 1030 48 16093 3.1 340 06:41 14.03.2020
6686 Clouds 4 1030 38 16093 5.7 330 05:58 14.03.2020
6687 Clear 5 1029 48 16093 3.1 310 04:52 14.03.2020
6688 Clear 5